<?xml version='1.0' encoding='UTF-8'?><gpx version="1.1" creator="JPX - https://github.com/jenetics/jpx" xmlns="http://www.topografix.com/GPX/1/1"><trk><trkseg><trkpt lat="45.903188488068274" lon="8.710939938809325"><ele>298.0</ele><time>2026-03-28T12:38:38.999Z</time></trkpt><trkpt lat="45.903157341948685" lon="8.710858418752206"><ele>298.0</ele><time>2026-03-28T12:38:42.999Z</time></trkpt><trkpt lat="45.90305680682005" lon="8.710888548347063"><ele>298.0</ele><time>2026-03-28T12:38:47.999Z</time></trkpt><trkpt lat="45.903001110384324" lon="8.710940736159772"><ele>298.0</ele><time>2026-03-28T12:38:48.999Z</time></trkpt><trkpt lat="45.90292768697011" lon="8.710984983851036"><ele>298.0</ele><time>2026-03-28T12:38:50.999Z</time></trkpt><trkpt lat="45.902860919170706" lon="8.710981625803159"><ele>298.0</ele><time>2026-03-28T12:38:51.999Z</time></trkpt><trkpt lat="45.90280405256765" lon="8.710929742924632"><ele>298.0</ele><time>2026-03-28T12:38:52.999Z</time></trkpt><trkpt lat="45.90272859610519" lon="8.71082162688856"><ele>298.0</ele><time>2026-03-28T12:38:54.999Z</time></trkpt><trkpt lat="45.9026657777627" lon="8.710729048181518"><ele>298.0</ele><time>2026-03-28T12:38:56.999Z</time></trkpt><trkpt lat="45.90260642210063" lon="8.710633812789847"><ele>298.0</ele><time>2026-03-28T12:38:58.999Z</time></trkpt><trkpt lat="45.902533956474784" lon="8.710517632567914"><ele>298.0</ele><time>2026-03-28T12:39:00.999Z</time></trkpt><trkpt lat="45.9024706226055" lon="8.710417023254628"><ele>298.0</ele><time>2026-03-28T12:39:01.999Z</time></trkpt><trkpt lat="45.90239984605457" lon="8.710301843065642"><ele>297.6</ele><time>2026-03-28T12:39:03.999Z</time></trkpt><trkpt lat="45.90233577289771" lon="8.710190597437464"><ele>297.20000000000005</ele><time>2026-03-28T12:39:05.999Z</time></trkpt><trkpt lat="45.90228783131199" lon="8.710112273980362"><ele>296.8</ele><time>2026-03-28T12:39:06.999Z</time></trkpt><trkpt lat="45.90220497514049" lon="8.709988337135067"><ele>296.40000000000003</ele><time>2026-03-28T12:39:08.999Z</time></trkpt><trkpt lat="45.90215721422962" lon="8.709913010031219"><ele>296.0</ele><time>2026-03-28T12:39:09.999Z</time></trkpt><trkpt lat="45.90208350035892" lon="8.709796886276562"><ele>296.0</ele><time>2026-03-28T12:39:10.999Z</time></trkpt><trkpt lat="45.901981050682174" lon="8.709631123339415"><ele>296.0</ele><time>2026-03-28T12:39:11.999Z</time></trkpt><trkpt lat="45.90188474213984" lon="8.70946998660963"><ele>296.0</ele><time>2026-03-28T12:39:12.999Z</time></trkpt><trkpt lat="45.90180707840295" lon="8.709311991590805"><ele>296.0</ele><time>2026-03-28T12:39:13.999Z</time></trkpt><trkpt lat="45.90173226104635" lon="8.70915307770401"><ele>296.0</ele><time>2026-03-28T12:39:14.999Z</time></trkpt><trkpt lat="45.90166369274432" lon="8.709034669513805"><ele>296.0</ele><time>2026-03-28T12:39:15.999Z</time></trkpt><trkpt lat="45.90160060962185" lon="8.708926295754418"><ele>296.0</ele><time>2026-03-28T12:39:16.999Z</time></trkpt><trkpt lat="45.901549075071785" lon="8.708830724786562"><ele>296.0</ele><time>2026-03-28T12:39:17.999Z</time></trkpt><trkpt lat="45.90148323243825" lon="8.708697274079265"><ele>296.0</ele><time>2026-03-28T12:39:18.999Z</time></trkpt><trkpt lat="45.90140959467909" lon="8.70855660222897"><ele>296.0</ele><time>2026-03-28T12:39:19.999Z</time></trkpt><trkpt lat="45.90134535398411" lon="8.708412044576532"><ele>296.0</ele><time>2026-03-28T12:39:20.999Z</time></trkpt><trkpt lat="45.901283105331956" lon="8.708276837108318"><ele>296.0</ele><time>2026-03-28T12:39:21.999Z</time></trkpt><trkpt lat="45.90122368216603" lon="8.70814532826156"><ele>296.0</ele><time>2026-03-28T12:39:22.999Z</time></trkpt><trkpt lat="45.90115761666084" lon="8.708008857020548"><ele>296.0</ele><time>2026-03-28T12:39:23.998Z</time></trkpt><trkpt lat="45.90109424386729" lon="8.707864698800629"><ele>296.0</ele><time>2026-03-28T12:39:24.998Z</time></trkpt><trkpt lat="45.90103542152258" lon="8.707697036944117"><ele>296.0</ele><time>2026-03-28T12:39:25.998Z</time></trkpt><trkpt lat="45.900962418477164" lon="8.707508104117508"><ele>296.0</ele><time>2026-03-28T12:39:26.998Z</time></trkpt><trkpt lat="45.90087122054696" lon="8.707292003995558"><ele>296.0</ele><time>2026-03-28T12:39:27.998Z</time></trkpt><trkpt lat="45.9007894171053" lon="8.707103776440768"><ele>296.0</ele><time>2026-03-28T12:39:28.998Z</time></trkpt><trkpt lat="45.90071862224656" lon="8.706960618042386"><ele>296.0</ele><time>2026-03-28T12:39:29.998Z</time></trkpt><trkpt lat="45.90062854433401" lon="8.706812091119584"><ele>296.0</ele><time>2026-03-28T12:39:30.998Z</time></trkpt><trkpt lat="45.90054742237868" lon="8.706680335687004"><ele>296.0</ele><time>2026-03-28T12:39:31.998Z</time></trkpt><trkpt lat="45.90047723020197" lon="8.706558421264203"><ele>296.0</ele><time>2026-03-28T12:39:32.998Z</time></trkpt><trkpt lat="45.90040004054801" lon="8.706430759380941"><ele>296.0</ele><time>2026-03-28T12:39:33.998Z</time></trkpt><trkpt lat="45.90033081842062" lon="8.706307065881317"><ele>296.0</ele><time>2026-03-28T12:39:34.998Z</time></trkpt><trkpt lat="45.9002732240143" lon="8.70618702038874"><ele>296.0</ele><time>2026-03-28T12:39:35.998Z</time></trkpt><trkpt lat="45.90022406823257" lon="8.706067815700893"><ele>296.6</ele><time>2026-03-28T12:39:36.998Z</time></trkpt><trkpt lat="45.90016153179025" lon="8.705931474302997"><ele>297.20000000000005</ele><time>2026-03-28T12:39:37.998Z</time></trkpt><trkpt lat="45.90006879793703" lon="8.705796339394514"><ele>297.79999999999995</ele><time>2026-03-28T12:39:38.998Z</time></trkpt><trkpt lat="45.90000486047741" lon="8.705720414617016"><ele>298.4</ele><time>2026-03-28T12:39:39.998Z</time></trkpt><trkpt lat="45.89996052400889" lon="8.705645733834283"><ele>299.0</ele><time>2026-03-28T12:39:40.998Z</time></trkpt><trkpt lat="45.8999184259476" lon="8.705495865914276"><ele>297.6666666666667</ele><time>2026-03-28T12:39:42.998Z</time></trkpt><trkpt lat="45.899825970138586" lon="8.70552529644283"><ele>296.33333333333337</ele><time>2026-03-28T12:39:49.999Z</time></trkpt><trkpt lat="45.89976020054007" lon="8.70557792131828"><ele>295.0</ele><time>2026-03-28T12:39:50.999Z</time></trkpt><trkpt lat="45.89969091220608" lon="8.705635589072077"><ele>293.6666666666667</ele><time>2026-03-28T12:39:53.999Z</time></trkpt><trkpt lat="45.89962653733306" lon="8.705685921644978"><ele>292.3333333333333</ele><time>2026-03-28T12:39:55.999Z</time></trkpt><trkpt lat="45.89954498801508" lon="8.705763781793632"><ele>291.0</ele><time>2026-03-28T12:39:57.999Z</time></trkpt><trkpt lat="45.89946069125462" lon="8.705836480668529"><ele>291.0</ele><time>2026-03-28T12:39:59.999Z</time></trkpt><trkpt lat="45.89940215845412" lon="8.705767065239469"><ele>291.0</ele><time>2026-03-28T12:40:02.999Z</time></trkpt><trkpt lat="45.899334599299614" lon="8.705691711436005"><ele>291.0</ele><time>2026-03-28T12:40:04.999Z</time></trkpt><trkpt lat="45.89926642323261" lon="8.705667447418302"><ele>291.0</ele><time>2026-03-28T12:40:05.999Z</time></trkpt><trkpt lat="45.8992110288352" lon="8.705589040904144"><ele>291.0</ele><time>2026-03-28T12:40:06.999Z</time></trkpt><trkpt lat="45.89918722937918" lon="8.705489785569076"><ele>291.0</ele><time>2026-03-28T12:40:07.999Z</time></trkpt><trkpt lat="45.89917351762261" lon="8.705397892119327"><ele>291.0</ele><time>2026-03-28T12:40:08.999Z</time></trkpt><trkpt lat="45.89909233598087" lon="8.705368116164262"><ele>290.0</ele><time>2026-03-28T12:40:10.999Z</time></trkpt><trkpt lat="45.89902141182991" lon="8.705407381168962"><ele>289.0</ele><time>2026-03-28T12:40:11.999Z</time></trkpt><trkpt lat="45.89893292757926" lon="8.705469954319826"><ele>288.0</ele><time>2026-03-28T12:40:13.999Z</time></trkpt><trkpt lat="45.898869130056866" lon="8.7055113780156"><ele>287.0</ele><time>2026-03-28T12:40:16.999Z</time></trkpt><trkpt lat="45.89879002964918" lon="8.705504729171121"><ele>286.0</ele><time>2026-03-28T12:40:18.999Z</time></trkpt><trkpt lat="45.89868278147136" lon="8.705373467823602"><ele>286.0</ele><time>2026-03-28T12:40:20.999Z</time></trkpt><trkpt lat="45.89861883827005" lon="8.705276814161207"><ele>286.0</ele><time>2026-03-28T12:40:21.999Z</time></trkpt><trkpt lat="45.89853556870036" lon="8.705175968712338"><ele>286.0</ele><time>2026-03-28T12:40:22.999Z</time></trkpt><trkpt lat="45.8984451699169" lon="8.705085191163962"><ele>286.0</ele><time>2026-03-28T12:40:23.999Z</time></trkpt><trkpt lat="45.89836914008662" lon="8.704998453407779"><ele>286.0</ele><time>2026-03-28T12:40:24.999Z</time></trkpt><trkpt lat="45.8983097995533" lon="8.704941247021427"><ele>285.5</ele><time>2026-03-28T12:40:25.999Z</time></trkpt><trkpt lat="45.89823751017992" lon="8.704875889103185"><ele>285.0</ele><time>2026-03-28T12:40:26.999Z</time></trkpt><trkpt lat="45.89816130375515" lon="8.704810022989463"><ele>284.5</ele><time>2026-03-28T12:40:28.999Z</time></trkpt><trkpt lat="45.898077470667886" lon="8.704767535516385"><ele>284.0</ele><time>2026-03-28T12:40:32.999Z</time></trkpt><trkpt lat="45.89798261621811" lon="8.704770924091855"><ele>283.5</ele><time>2026-03-28T12:40:34.999Z</time></trkpt><trkpt lat="45.897921807626375" lon="8.704810444236623"><ele>283.0</ele><time>2026-03-28T12:40:35.999Z</time></trkpt><trkpt lat="45.897849538161374" lon="8.704829656854205"><ele>283.0</ele><time>2026-03-28T12:40:36.999Z</time></trkpt><trkpt lat="45.897754994694324" lon="8.704854835171163"><ele>283.0</ele><time>2026-03-28T12:40:38.999Z</time></trkpt><trkpt lat="45.89767100818066" lon="8.704886334044883"><ele>283.0</ele><time>2026-03-28T12:40:40.999Z</time></trkpt><trkpt lat="45.897573147417106" lon="8.704925527543331"><ele>283.0</ele><time>2026-03-28T12:40:42.999Z</time></trkpt><trkpt lat="45.89750146598589" lon="8.70495541628763"><ele>283.0</ele><time>2026-03-28T12:40:43.999Z</time></trkpt><trkpt lat="45.89741548531" lon="8.704992075906219"><ele>283.0</ele><time>2026-03-28T12:40:44.999Z</time></trkpt><trkpt lat="45.89732705497812" lon="8.705069872860227"><ele>283.5</ele><time>2026-03-28T12:40:45.999Z</time></trkpt><trkpt lat="45.897238765973015" lon="8.705132453304339"><ele>284.0</ele><time>2026-03-28T12:40:46.999Z</time></trkpt><trkpt lat="45.89716852199734" lon="8.705174878861161"><ele>284.5</ele><time>2026-03-28T12:40:47.999Z</time></trkpt><trkpt lat="45.89710261315996" lon="8.705204288392004"><ele>285.0</ele><time>2026-03-28T12:40:48.999Z</time></trkpt><trkpt lat="45.89702845046447" lon="8.705314265002782"><ele>285.5</ele><time>2026-03-28T12:40:50.999Z</time></trkpt><trkpt lat="45.89698711356902" lon="8.705441835939459"><ele>286.0</ele><time>2026-03-28T12:40:51.999Z</time></trkpt><trkpt lat="45.896961858983346" lon="8.705622453561428"><ele>283.75</ele><time>2026-03-28T12:40:52.999Z</time></trkpt><trkpt lat="45.896932606047294" lon="8.705842175292764"><ele>281.5</ele><time>2026-03-28T12:40:53.999Z</time></trkpt><trkpt lat="45.896904194922335" lon="8.706036248903931"><ele>279.25</ele><time>2026-03-28T12:40:54.999Z</time></trkpt><trkpt lat="45.89687506126889" lon="8.706202610455993"><ele>277.0</ele><time>2026-03-28T12:40:55.999Z</time></trkpt><trkpt lat="45.89685053486297" lon="8.706338641271314"><ele>276.75</ele><time>2026-03-28T12:40:56.999Z</time></trkpt><trkpt lat="45.89684215980403" lon="8.706457375302618"><ele>276.5</ele><time>2026-03-28T12:40:57.999Z</time></trkpt><trkpt lat="45.896868965466474" lon="8.706586129281614"><ele>276.25</ele><time>2026-03-28T12:40:58.999Z</time></trkpt><trkpt lat="45.89693060995653" lon="8.706750142227047"><ele>276.0</ele><time>2026-03-28T12:40:59.999Z</time></trkpt><trkpt lat="45.89702514405447" lon="8.70697254037191"><ele>275.0</ele><time>2026-03-28T12:41:00.999Z</time></trkpt><trkpt lat="45.89710718227495" lon="8.707191515440254"><ele>274.0</ele><time>2026-03-28T12:41:01.999Z</time></trkpt><trkpt lat="45.89716303960609" lon="8.70736117212568"><ele>273.0</ele><time>2026-03-28T12:41:02.999Z</time></trkpt><trkpt lat="45.89718405780263" lon="8.707492677776997"><ele>272.0</ele><time>2026-03-28T12:41:03.999Z</time></trkpt><trkpt lat="45.897218072303055" lon="8.707610954377147"><ele>272.2</ele><time>2026-03-28T12:41:04.999Z</time></trkpt><trkpt lat="45.897140894505505" lon="8.70778926398114"><ele>272.4</ele><time>2026-03-28T12:41:06.999Z</time></trkpt><trkpt lat="45.89708616822939" lon="8.70789553203376"><ele>272.6</ele><time>2026-03-28T12:41:07.999Z</time></trkpt><trkpt lat="45.89702841141654" lon="8.70800039792363"><ele>272.8</ele><time>2026-03-28T12:41:08.999Z</time></trkpt><trkpt lat="45.896955762750224" lon="8.708123516570613"><ele>273.0</ele><time>2026-03-28T12:41:09.999Z</time></trkpt><trkpt lat="45.89687172700366" lon="8.70826272128012"><ele>273.0</ele><time>2026-03-28T12:41:10.999Z</time></trkpt><trkpt lat="45.89677560113479" lon="8.708419923466648"><ele>273.0</ele><time>2026-03-28T12:41:11.999Z</time></trkpt><trkpt lat="45.89666208393046" lon="8.708603240889223"><ele>273.0</ele><time>2026-03-28T12:41:12.999Z</time></trkpt><trkpt lat="45.89653860550791" lon="8.708802644561302"><ele>274.6666666666667</ele><time>2026-03-28T12:41:13.999Z</time></trkpt><trkpt lat="45.89641885192691" lon="8.709002752369543"><ele>276.33333333333337</ele><time>2026-03-28T12:41:14.999Z</time></trkpt><trkpt lat="45.8963009267622" lon="8.709193833594941"><ele>278.0</ele><time>2026-03-28T12:41:15.999Z</time></trkpt><trkpt lat="45.89618268939485" lon="8.709386184479996"><ele>277.0</ele><time>2026-03-28T12:41:16.999Z</time></trkpt><trkpt lat="45.89606250149773" lon="8.709600920638549"><ele>276.0</ele><time>2026-03-28T12:41:17.999Z</time></trkpt><trkpt lat="45.89592562946261" lon="8.709824532325541"><ele>275.0</ele><time>2026-03-28T12:41:18.999Z</time></trkpt><trkpt lat="45.89578797802297" lon="8.71004729781486"><ele>276.33333333333337</ele><time>2026-03-28T12:41:19.999Z</time></trkpt><trkpt lat="45.89565959463894" lon="8.71025840947133"><ele>277.6666666666667</ele><time>2026-03-28T12:41:20.999Z</time></trkpt><trkpt lat="45.89554543781046" lon="8.710439792312545"><ele>279.0</ele><time>2026-03-28T12:41:21.999Z</time></trkpt><trkpt lat="45.89544984850307" lon="8.710606331991002"><ele>279.0</ele><time>2026-03-28T12:41:22.999Z</time></trkpt><trkpt lat="45.89537088257136" lon="8.7107593988641"><ele>279.0</ele><time>2026-03-28T12:41:23.999Z</time></trkpt><trkpt lat="45.8952917304367" lon="8.710853480892249"><ele>279.0</ele><time>2026-03-28T12:41:24.999Z</time></trkpt><trkpt lat="45.89523907103635" lon="8.71092348410309"><ele>279.0</ele><time>2026-03-28T12:41:25.999Z</time></trkpt><trkpt lat="45.89526514102379" lon="8.711013267497876"><ele>279.0</ele><time>2026-03-28T12:44:08Z</time></trkpt><trkpt lat="45.89530784082002" lon="8.711153579411844"><ele>278.8</ele><time>2026-03-28T12:44:10Z</time></trkpt><trkpt lat="45.89533891309777" lon="8.71126128487839"><ele>278.59999999999997</ele><time>2026-03-28T12:44:11Z</time></trkpt><trkpt lat="45.895350299628326" lon="8.711395597854747"><ele>278.4</ele><time>2026-03-28T12:44:12Z</time></trkpt><trkpt lat="45.89533980697538" lon="8.71154405748924"><ele>278.2</ele><time>2026-03-28T12:44:13Z</time></trkpt><trkpt lat="45.89529541347435" lon="8.711685514930162"><ele>278.0</ele><time>2026-03-28T12:44:14Z</time></trkpt><trkpt lat="45.89524469072861" lon="8.71183461106541"><ele>277.25</ele><time>2026-03-28T12:44:15Z</time></trkpt><trkpt lat="45.89518650600964" lon="8.712003035890229"><ele>276.5</ele><time>2026-03-28T12:44:16Z</time></trkpt><trkpt lat="45.895109499120025" lon="8.712167502712925"><ele>275.75</ele><time>2026-03-28T12:44:17Z</time></trkpt><trkpt lat="45.89503237505559" lon="8.712318882679792"><ele>275.0</ele><time>2026-03-28T12:44:18Z</time></trkpt><trkpt lat="45.894967755539234" lon="8.71246258920338"><ele>276.75</ele><time>2026-03-28T12:44:19Z</time></trkpt><trkpt lat="45.8949017802379" lon="8.712588390566642"><ele>278.5</ele><time>2026-03-28T12:44:20Z</time></trkpt><trkpt lat="45.89483214701884" lon="8.712706512663358"><ele>280.25</ele><time>2026-03-28T12:44:21Z</time></trkpt><trkpt lat="45.8947668858298" lon="8.712889183252578"><ele>282.0</ele><time>2026-03-28T12:44:22Z</time></trkpt><trkpt lat="45.89470883058011" lon="8.713061236886402"><ele>282.0</ele><time>2026-03-28T12:44:23Z</time></trkpt><trkpt lat="45.8946602157163" lon="8.713205413533709"><ele>282.0</ele><time>2026-03-28T12:44:24Z</time></trkpt><trkpt lat="45.89462030365076" lon="8.713368105316293"><ele>282.0</ele><time>2026-03-28T12:44:25Z</time></trkpt><trkpt lat="45.89458873364444" lon="8.71353854641518"><ele>282.0</ele><time>2026-03-28T12:44:26Z</time></trkpt><trkpt lat="45.89455790524356" lon="8.713710506952523"><ele>281.8333333333333</ele><time>2026-03-28T12:44:27Z</time></trkpt><trkpt lat="45.894539204165184" lon="8.71382308942155"><ele>281.6666666666667</ele><time>2026-03-28T12:44:28Z</time></trkpt><trkpt lat="45.89453059322673" lon="8.71392135812305"><ele>281.5</ele><time>2026-03-28T12:45:10.999Z</time></trkpt><trkpt lat="45.894573103991874" lon="8.713989538877629"><ele>281.33333333333337</ele><time>2026-03-28T12:45:16.999Z</time></trkpt><trkpt lat="45.89455104464413" lon="8.714108443973993"><ele>281.1666666666667</ele><time>2026-03-28T12:45:19.999Z</time></trkpt><trkpt lat="45.89451540321415" lon="8.714224345533044"><ele>281.0</ele><time>2026-03-28T12:45:21.999Z</time></trkpt><trkpt lat="45.89450618764407" lon="8.714345840224707"><ele>281.5</ele><time>2026-03-28T12:45:22.999Z</time></trkpt><trkpt lat="45.89447189883839" lon="8.714497720687955"><ele>282.0</ele><time>2026-03-28T12:45:23.999Z</time></trkpt><trkpt lat="45.89440489616519" lon="8.714674878293067"><ele>282.5</ele><time>2026-03-28T12:45:24.999Z</time></trkpt><trkpt lat="45.89434924267481" lon="8.714812710214469"><ele>283.0</ele><time>2026-03-28T12:45:25.999Z</time></trkpt><trkpt lat="45.894300273023006" lon="8.714921819518947"><ele>283.25</ele><time>2026-03-28T12:45:26.999Z</time></trkpt><trkpt lat="45.89422654654376" lon="8.715056818591673"><ele>283.5</ele><time>2026-03-28T12:45:27.999Z</time></trkpt><trkpt lat="45.89416193827189" lon="8.715189221337681"><ele>283.75</ele><time>2026-03-28T12:45:28.999Z</time></trkpt><trkpt lat="45.894077423401804" lon="8.715330571681106"><ele>284.0</ele><time>2026-03-28T12:45:29.999Z</time></trkpt><trkpt lat="45.89397717411523" lon="8.715478820796763"><ele>284.0</ele><time>2026-03-28T12:45:30.999Z</time></trkpt><trkpt lat="45.89390473755162" lon="8.715591402293208"><ele>284.0</ele><time>2026-03-28T12:45:31.999Z</time></trkpt><trkpt lat="45.89384343698783" lon="8.715698361140664"><ele>284.0</ele><time>2026-03-28T12:45:32.999Z</time></trkpt><trkpt lat="45.89380118441773" lon="8.715816060118602"><ele>284.0</ele><time>2026-03-28T12:45:33.999Z</time></trkpt><trkpt lat="45.893785170206705" lon="8.715955526374813"><ele>284.0</ele><time>2026-03-28T12:45:34.999Z</time></trkpt><trkpt lat="45.893797531466724" lon="8.716142390981458"><ele>283.0</ele><time>2026-03-28T12:45:35.999Z</time></trkpt><trkpt lat="45.89379406353661" lon="8.716300390005228"><ele>282.0</ele><time>2026-03-28T12:45:36.999Z</time></trkpt><trkpt lat="45.89377797295366" lon="8.71641071058163"><ele>281.0</ele><time>2026-03-28T12:45:37.999Z</time></trkpt><trkpt lat="45.893731399065494" lon="8.716512177687086"><ele>280.0</ele><time>2026-03-28T12:45:38.999Z</time></trkpt><trkpt lat="45.89367039479268" lon="8.716624505855028"><ele>279.0</ele><time>2026-03-28T12:45:39.999Z</time></trkpt><trkpt lat="45.89367030024433" lon="8.716739871433628"><ele>279.0</ele><time>2026-03-28T12:45:45.999Z</time></trkpt><trkpt lat="45.89366423540088" lon="8.716856055487991"><ele>279.0</ele><time>2026-03-28T12:45:47.999Z</time></trkpt><trkpt lat="45.893670679833605" lon="8.716990296363742"><ele>279.0</ele><time>2026-03-28T12:45:48.999Z</time></trkpt><trkpt lat="45.89369357360894" lon="8.717173668786753"><ele>279.0</ele><time>2026-03-28T12:45:49.999Z</time></trkpt><trkpt lat="45.89373557862791" lon="8.71734221631443"><ele>279.0</ele><time>2026-03-28T12:45:50.999Z</time></trkpt><trkpt lat="45.8937723899905" lon="8.717450305988693"><ele>278.59999999999997</ele><time>2026-03-28T12:45:51.999Z</time></trkpt><trkpt lat="45.89380586837844" lon="8.717581967753308"><ele>278.2</ele><time>2026-03-28T12:45:53.999Z</time></trkpt><trkpt lat="45.89382724050352" lon="8.717717726664377"><ele>277.79999999999995</ele><time>2026-03-28T12:45:55.999Z</time></trkpt><trkpt lat="45.89381333410107" lon="8.717881291214297"><ele>277.4</ele><time>2026-03-28T12:45:56.999Z</time></trkpt><trkpt lat="45.89378705155839" lon="8.718060468174503"><ele>277.0</ele><time>2026-03-28T12:45:57.999Z</time></trkpt><trkpt lat="45.89379046909326" lon="8.71826994349808"><ele>276.25</ele><time>2026-03-28T12:45:58.999Z</time></trkpt><trkpt lat="45.89379939498765" lon="8.718459814961717"><ele>275.5</ele><time>2026-03-28T12:45:59.999Z</time></trkpt><trkpt lat="45.893809770100816" lon="8.718647882873158"><ele>274.75</ele><time>2026-03-28T12:46:00.999Z</time></trkpt><trkpt lat="45.89382529823479" lon="8.718861275157417"><ele>274.0</ele><time>2026-03-28T12:46:01.999Z</time></trkpt><trkpt lat="45.89384605241139" lon="8.719048864420222"><ele>274.25</ele><time>2026-03-28T12:46:02.999Z</time></trkpt><trkpt lat="45.893854456618776" lon="8.719239953411652"><ele>274.5</ele><time>2026-03-28T12:46:04Z</time></trkpt><trkpt lat="45.89385661148726" lon="8.719434827869735"><ele>274.75</ele><time>2026-03-28T12:46:05Z</time></trkpt><trkpt lat="45.89384785133674" lon="8.719635082725857"><ele>275.0</ele><time>2026-03-28T12:46:06Z</time></trkpt><trkpt lat="45.89383709674167" lon="8.719814259541591"><ele>275.0</ele><time>2026-03-28T12:46:07Z</time></trkpt><trkpt lat="45.89382561742104" lon="8.719993361862809"><ele>275.0</ele><time>2026-03-28T12:46:08Z</time></trkpt><trkpt lat="45.89381596311841" lon="8.720172191767148"><ele>275.0</ele><time>2026-03-28T12:46:09Z</time></trkpt><trkpt lat="45.89380952307104" lon="8.72035382313947"><ele>275.0</ele><time>2026-03-28T12:46:10Z</time></trkpt><trkpt lat="45.893804460117984" lon="8.720555705534398"><ele>276.0</ele><time>2026-03-28T12:46:11Z</time></trkpt><trkpt lat="45.893794228290176" lon="8.720760753793014"><ele>277.0</ele><time>2026-03-28T12:46:12Z</time></trkpt><trkpt lat="45.89378563568998" lon="8.72094605691621"><ele>278.0</ele><time>2026-03-28T12:46:13Z</time></trkpt><trkpt lat="45.89377858957289" lon="8.721145943682762"><ele>279.0</ele><time>2026-03-28T12:46:14Z</time></trkpt><trkpt lat="45.89378708333945" lon="8.72139115271319"><ele>280.0</ele><time>2026-03-28T12:46:15Z</time></trkpt><trkpt lat="45.893797061212815" lon="8.721643668666605"><ele>281.0</ele><time>2026-03-28T12:46:16Z</time></trkpt><trkpt lat="45.893814274268166" lon="8.721883174448616"><ele>282.0</ele><time>2026-03-28T12:46:17Z</time></trkpt><trkpt lat="45.89383027407933" lon="8.722050853462965"><ele>283.0</ele><time>2026-03-28T12:46:18Z</time></trkpt><trkpt lat="45.89383695636459" lon="8.722166290340477"><ele>284.0</ele><time>2026-03-28T12:46:19Z</time></trkpt><trkpt lat="45.89383477735888" lon="8.7222889589649"><ele>285.0</ele><time>2026-03-28T12:46:21Z</time></trkpt><trkpt lat="45.89386566296911" lon="8.72238061076554"><ele>286.0</ele><time>2026-03-28T12:46:27Z</time></trkpt><trkpt lat="45.89388668017052" lon="8.722466569936433"><ele>287.0</ele><time>2026-03-28T12:46:30Z</time></trkpt><trkpt lat="45.89388795874328" lon="8.722585939248049"><ele>288.0</ele><time>2026-03-28T12:46:38Z</time></trkpt><trkpt lat="45.89382132729124" lon="8.722687456178276"><ele>288.0</ele><time>2026-03-28T12:46:41Z</time></trkpt><trkpt lat="45.89384283282839" lon="8.722874546343451"><ele>288.0</ele><time>2026-03-28T12:46:43Z</time></trkpt><trkpt lat="45.89384735770335" lon="8.723064940921434"><ele>288.0</ele><time>2026-03-28T12:46:44Z</time></trkpt><trkpt lat="45.89386001035348" lon="8.723257649386145"><ele>288.0</ele><time>2026-03-28T12:46:45Z</time></trkpt><trkpt lat="45.893874616588874" lon="8.723406669912523"><ele>288.0</ele><time>2026-03-28T12:46:46Z</time></trkpt><trkpt lat="45.8938965299951" lon="8.723534485199584"><ele>288.0</ele><time>2026-03-28T12:46:47Z</time></trkpt><trkpt lat="45.89390136826282" lon="8.723650693595655"><ele>288.0</ele><time>2026-03-28T12:46:48Z</time></trkpt><trkpt lat="45.89391774229593" lon="8.723803703060405"><ele>288.0</ele><time>2026-03-28T12:46:49Z</time></trkpt><trkpt lat="45.89393965823011" lon="8.72396208702501"><ele>288.0</ele><time>2026-03-28T12:46:50Z</time></trkpt><trkpt lat="45.89397114815466" lon="8.72414552264224"><ele>288.8</ele><time>2026-03-28T12:46:51Z</time></trkpt><trkpt lat="45.89400452162629" lon="8.724303210485314"><ele>289.6</ele><time>2026-03-28T12:46:52Z</time></trkpt><trkpt lat="45.89402995217847" lon="8.724436433262756"><ele>290.4</ele><time>2026-03-28T12:46:53Z</time></trkpt><trkpt lat="45.8940548225844" lon="8.72455831063698"><ele>291.2</ele><time>2026-03-28T12:46:54Z</time></trkpt><trkpt lat="45.89405594418001" lon="8.724684569684696"><ele>292.0</ele><time>2026-03-28T12:46:55Z</time></trkpt><trkpt lat="45.89405700634048" lon="8.724801556233633"><ele>293.6</ele><time>2026-03-28T12:46:56Z</time></trkpt><trkpt lat="45.89407275199153" lon="8.724937432754198"><ele>295.2</ele><time>2026-03-28T12:46:57Z</time></trkpt><trkpt lat="45.89408404256962" lon="8.725058766812916"><ele>296.8</ele><time>2026-03-28T12:46:58Z</time></trkpt><trkpt lat="45.8940946392425" lon="8.725199842455872"><ele>298.4</ele><time>2026-03-28T12:46:59Z</time></trkpt><trkpt lat="45.89411568939548" lon="8.725342184372208"><ele>300.0</ele><time>2026-03-28T12:47:00Z</time></trkpt><trkpt lat="45.89411964925492" lon="8.725486881550228"><ele>301.1666666666667</ele><time>2026-03-28T12:47:01Z</time></trkpt><trkpt lat="45.894129252543365" lon="8.725609198105941"><ele>302.3333333333333</ele><time>2026-03-28T12:47:02Z</time></trkpt><trkpt lat="45.89413231060798" lon="8.725754444299055"><ele>303.5</ele><time>2026-03-28T12:47:04Z</time></trkpt><trkpt lat="45.894090320366345" lon="8.725822970402435"><ele>304.66666666666663</ele><time>2026-03-28T12:47:08Z</time></trkpt><trkpt lat="45.894066134726664" lon="8.725929915858359"><ele>305.8333333333333</ele><time>2026-03-28T12:47:10Z</time></trkpt><trkpt lat="45.89401353551128" lon="8.725983359299631"><ele>307.0</ele><time>2026-03-28T12:47:14Z</time></trkpt><trkpt lat="45.893974301504834" lon="8.72591189903579"><ele>307.0</ele><time>2026-03-28T12:47:17Z</time></trkpt><trkpt lat="45.89392581926438" lon="8.725795826580415"><ele>307.0</ele><time>2026-03-28T12:47:21.999Z</time></trkpt><trkpt lat="45.89388811327162" lon="8.725656973432518"><ele>307.0</ele><time>2026-03-28T12:47:24.999Z</time></trkpt><trkpt lat="45.893851585405415" lon="8.725484720286628"><ele>307.0</ele><time>2026-03-28T12:47:26.999Z</time></trkpt><trkpt lat="45.893829424219646" lon="8.725392178370608"><ele>307.0</ele><time>2026-03-28T12:47:27.999Z</time></trkpt><trkpt lat="45.893794566028625" lon="8.725253438865325"><ele>307.0</ele><time>2026-03-28T12:47:29.999Z</time></trkpt><trkpt lat="45.893731324935594" lon="8.72511360881087"><ele>307.0</ele><time>2026-03-28T12:47:31.999Z</time></trkpt><trkpt lat="45.89365897687331" lon="8.725038567940832"><ele>307.0</ele><time>2026-03-28T12:47:33.999Z</time></trkpt><trkpt lat="45.89350635287625" lon="8.725136523739923"><ele>307.0</ele><time>2026-03-28T12:47:34.999Z</time></trkpt><trkpt lat="45.89346111212898" lon="8.725259990460453"><ele>307.0</ele><time>2026-03-28T12:47:36.999Z</time></trkpt><trkpt lat="45.89343523581624" lon="8.725358035399111"><ele>307.0</ele><time>2026-03-28T12:47:38.999Z</time></trkpt><trkpt lat="45.89345179666087" lon="8.725459488694405"><ele>307.0</ele><time>2026-03-28T12:47:40.999Z</time></trkpt><trkpt lat="45.893419129878545" lon="8.725586840066535"><ele>307.0</ele><time>2026-03-28T12:47:42.999Z</time></trkpt><trkpt lat="45.89339895726927" lon="8.725691511809908"><ele>307.0</ele><time>2026-03-28T12:47:43.999Z</time></trkpt><trkpt lat="45.89338598441473" lon="8.725791211009616"><ele>307.0</ele><time>2026-03-28T12:47:44.999Z</time></trkpt><trkpt lat="45.893339543910116" lon="8.72593015585645"><ele>313.8333333333333</ele><time>2026-03-28T12:47:46.999Z</time></trkpt><trkpt lat="45.89330491070849" lon="8.726052129151029"><ele>320.66666666666663</ele><time>2026-03-28T12:47:48.999Z</time></trkpt><trkpt lat="45.89331231714781" lon="8.72615065068393"><ele>327.5</ele><time>2026-03-28T12:47:50.999Z</time></trkpt><trkpt lat="45.893316686019176" lon="8.726243606751117"><ele>334.3333333333333</ele><time>2026-03-28T12:47:52.999Z</time></trkpt><trkpt lat="45.8933194149262" lon="8.72636995810582"><ele>341.1666666666667</ele><time>2026-03-28T12:47:55.999Z</time></trkpt><trkpt lat="45.893280016934874" lon="8.726476506365199"><ele>348.0</ele><time>2026-03-28T12:48:01.999Z</time></trkpt><trkpt lat="45.89326975692798" lon="8.726593092423078"><ele>349.1666666666667</ele><time>2026-03-28T12:48:13Z</time></trkpt><trkpt lat="45.89327900828953" lon="8.726683346138692"><ele>350.3333333333333</ele><time>2026-03-28T12:48:16Z</time></trkpt><trkpt lat="45.89328853160546" lon="8.726796521355228"><ele>351.5</ele><time>2026-03-28T12:48:19Z</time></trkpt><trkpt lat="45.89325177252543" lon="8.726873944776477"><ele>352.66666666666663</ele><time>2026-03-28T12:48:21Z</time></trkpt><trkpt lat="45.893222646276584" lon="8.727053793616145"><ele>353.8333333333333</ele><time>2026-03-28T12:48:23Z</time></trkpt><trkpt lat="45.8932438686359" lon="8.72718949152393"><ele>355.0</ele><time>2026-03-28T12:48:24Z</time></trkpt><trkpt lat="45.89326272305479" lon="8.727304741404565"><ele>356.0</ele><time>2026-03-28T12:48:25Z</time></trkpt><trkpt lat="45.89322898277888" lon="8.727410294232683"><ele>357.0</ele><time>2026-03-28T12:50:52Z</time></trkpt><trkpt lat="45.89328666532868" lon="8.727465761631114"><ele>358.0</ele><time>2026-03-28T12:50:56Z</time></trkpt><trkpt lat="45.89334640537372" lon="8.727504717010545"><ele>359.0</ele><time>2026-03-28T12:51:09Z</time></trkpt><trkpt lat="45.893414118554894" lon="8.72755721395202"><ele>360.0</ele><time>2026-03-28T12:51:13Z</time></trkpt><trkpt lat="45.893459470497724" lon="8.727629239802448"><ele>361.0</ele><time>2026-03-28T12:51:16Z</time></trkpt><trkpt lat="45.893492075222404" lon="8.727723648312683"><ele>362.0</ele><time>2026-03-28T12:51:26Z</time></trkpt><trkpt lat="45.89353871577942" lon="8.727810605983327"><ele>356.6666666666667</ele><time>2026-03-28T12:51:29Z</time></trkpt><trkpt lat="45.89357593642336" lon="8.72791272743579"><ele>351.33333333333337</ele><time>2026-03-28T12:51:31Z</time></trkpt><trkpt lat="45.893623565529516" lon="8.728069658469193"><ele>346.0</ele><time>2026-03-28T12:51:33Z</time></trkpt><trkpt lat="45.89364953214325" lon="8.72815480295902"><ele>340.6666666666667</ele><time>2026-03-28T12:51:34Z</time></trkpt><trkpt lat="45.89368197960458" lon="8.728268461841752"><ele>335.3333333333333</ele><time>2026-03-28T12:51:34.999Z</time></trkpt><trkpt lat="45.893720046098856" lon="8.728380699643683"><ele>330.0</ele><time>2026-03-28T12:51:35.999Z</time></trkpt><trkpt lat="45.89376501222279" lon="8.728520944555244"><ele>331.3333333333333</ele><time>2026-03-28T12:51:36.999Z</time></trkpt><trkpt lat="45.89379228736858" lon="8.728648049955586"><ele>332.6666666666667</ele><time>2026-03-28T12:51:37.999Z</time></trkpt><trkpt lat="45.89381216248996" lon="8.728758196724733"><ele>334.0</ele><time>2026-03-28T12:51:38.999Z</time></trkpt><trkpt lat="45.89383729863548" lon="8.728876037136713"><ele>335.33333333333337</ele><time>2026-03-28T12:51:39.999Z</time></trkpt><trkpt lat="45.893870199756456" lon="8.729001836634415"><ele>336.6666666666667</ele><time>2026-03-28T12:51:40.999Z</time></trkpt><trkpt lat="45.893891236766756" lon="8.729126618838299"><ele>338.0</ele><time>2026-03-28T12:51:41.999Z</time></trkpt><trkpt lat="45.893912012731704" lon="8.72925461300128"><ele>338.0</ele><time>2026-03-28T12:51:42.999Z</time></trkpt><trkpt lat="45.893912181680044" lon="8.72934968730473"><ele>338.0</ele><time>2026-03-28T12:51:43.999Z</time></trkpt><trkpt lat="45.89390253606561" lon="8.729540106506038"><ele>338.0</ele><time>2026-03-28T12:51:45.999Z</time></trkpt><trkpt lat="45.89392187401129" lon="8.729629902331073"><ele>338.0</ele><time>2026-03-28T12:51:46.999Z</time></trkpt><trkpt lat="45.89394571035123" lon="8.729769110346705"><ele>338.0</ele><time>2026-03-28T12:51:48.999Z</time></trkpt><trkpt lat="45.89395168981576" lon="8.729859629806446"><ele>338.0</ele><time>2026-03-28T12:51:50.999Z</time></trkpt><trkpt lat="45.894009503168135" lon="8.729907866563584"><ele>337.6666666666667</ele><time>2026-03-28T12:52:37Z</time></trkpt><trkpt lat="45.89399547462678" lon="8.730007105054785"><ele>337.33333333333337</ele><time>2026-03-28T12:53:31Z</time></trkpt><trkpt lat="45.89397868389201" lon="8.729909252184154"><ele>337.0</ele><time>2026-03-28T12:56:00.999Z</time></trkpt><trkpt lat="45.89399784137648" lon="8.730015780772755"><ele>336.6666666666667</ele><time>2026-03-28T12:56:37.999Z</time></trkpt><trkpt lat="45.89399812504901" lon="8.73011190118761"><ele>336.3333333333333</ele><time>2026-03-28T12:56:49.999Z</time></trkpt><trkpt lat="45.89402733080771" lon="8.730231229965652"><ele>336.0</ele><time>2026-03-28T12:56:54.999Z</time></trkpt><trkpt lat="45.894052741439566" lon="8.730385257554875"><ele>336.0</ele><time>2026-03-28T12:56:56.999Z</time></trkpt><trkpt lat="45.89408684760886" lon="8.730530344562975"><ele>336.0</ele><time>2026-03-28T12:56:58.999Z</time></trkpt><trkpt lat="45.894172752064925" lon="8.730668502824482"><ele>336.0</ele><time>2026-03-28T12:57:00.999Z</time></trkpt><trkpt lat="45.89422349237553" lon="8.73073170984874"><ele>336.0</ele><time>2026-03-28T12:57:01.999Z</time></trkpt><trkpt lat="45.89427096067228" lon="8.730871193560864"><ele>336.0</ele><time>2026-03-28T12:57:03.999Z</time></trkpt><trkpt lat="45.8942901701492" lon="8.731008509047248"><ele>328.0</ele><time>2026-03-28T12:57:05.999Z</time></trkpt><trkpt lat="45.89432967176136" lon="8.731135404911038"><ele>320.0</ele><time>2026-03-28T12:57:07.999Z</time></trkpt><trkpt lat="45.894357921990654" lon="8.73125697629461"><ele>312.0</ele><time>2026-03-28T12:57:09.999Z</time></trkpt><trkpt lat="45.894391916140094" lon="8.731466418627171"><ele>304.0</ele><time>2026-03-28T12:57:11.999Z</time></trkpt><trkpt lat="45.89442691062363" lon="8.731644908477893"><ele>304.0</ele><time>2026-03-28T12:57:12.999Z</time></trkpt><trkpt lat="45.89446180658369" lon="8.731787253848058"><ele>304.0</ele><time>2026-03-28T12:57:13.999Z</time></trkpt><trkpt lat="45.894487710273076" lon="8.731914617974494"><ele>304.0</ele><time>2026-03-28T12:57:14.999Z</time></trkpt><trkpt lat="45.894513232751834" lon="8.732016842450928"><ele>304.0</ele><time>2026-03-28T12:57:15.999Z</time></trkpt><trkpt lat="45.89453509803108" lon="8.732112416094163"><ele>304.0</ele><time>2026-03-28T12:57:16.999Z</time></trkpt><trkpt lat="45.89455233231519" lon="8.732203808155992"><ele>304.0</ele><time>2026-03-28T12:57:17.999Z</time></trkpt><trkpt lat="45.89456808536658" lon="8.732301204117684"><ele>304.16666666666663</ele><time>2026-03-28T12:57:18.999Z</time></trkpt><trkpt lat="45.89458770755799" lon="8.73239730662831"><ele>304.3333333333333</ele><time>2026-03-28T12:57:19.999Z</time></trkpt><trkpt lat="45.89461694164222" lon="8.732547507877976"><ele>304.5</ele><time>2026-03-28T12:57:21.999Z</time></trkpt><trkpt lat="45.894622022867416" lon="8.732666238792484"><ele>304.6666666666667</ele><time>2026-03-28T12:57:23.999Z</time></trkpt><trkpt lat="45.89458631052311" lon="8.732765687021683"><ele>304.83333333333337</ele><time>2026-03-28T12:57:25.999Z</time></trkpt><trkpt lat="45.89456732709127" lon="8.732853100408674"><ele>305.0</ele><time>2026-03-28T12:57:27.999Z</time></trkpt><trkpt lat="45.89461824809524" lon="8.732981458665998"><ele>305.6</ele><time>2026-03-28T12:59:18Z</time></trkpt><trkpt lat="45.89466620966895" lon="8.73309423400683"><ele>306.2</ele><time>2026-03-28T12:59:20Z</time></trkpt><trkpt lat="45.89456873180511" lon="8.733159672085653"><ele>306.8</ele><time>2026-03-28T12:59:22Z</time></trkpt><trkpt lat="45.89449428413517" lon="8.733205482664692"><ele>307.4</ele><time>2026-03-28T12:59:23Z</time></trkpt><trkpt lat="45.894403280234805" lon="8.73326647811048"><ele>308.0</ele><time>2026-03-28T12:59:24Z</time></trkpt><trkpt lat="45.89431243071414" lon="8.733321022587576"><ele>309.4</ele><time>2026-03-28T12:59:25Z</time></trkpt><trkpt lat="45.89423956177768" lon="8.733342789389004"><ele>310.8</ele><time>2026-03-28T12:59:26Z</time></trkpt><trkpt lat="45.89417679061177" lon="8.73341627681332"><ele>312.2</ele><time>2026-03-28T12:59:29Z</time></trkpt><trkpt lat="45.89419703425883" lon="8.733605828543642"><ele>313.6</ele><time>2026-03-28T12:59:31Z</time></trkpt><trkpt lat="45.89420414602197" lon="8.733765322222725"><ele>315.0</ele><time>2026-03-28T12:59:32Z</time></trkpt><trkpt lat="45.89421099390437" lon="8.733924489056974"><ele>315.0</ele><time>2026-03-28T12:59:33Z</time></trkpt><trkpt lat="45.89420638260657" lon="8.734116573701751"><ele>315.0</ele><time>2026-03-28T12:59:34Z</time></trkpt><trkpt lat="45.89421590202198" lon="8.734294442914337"><ele>315.0</ele><time>2026-03-28T12:59:35Z</time></trkpt><trkpt lat="45.894213958879824" lon="8.734438102828651"><ele>315.0</ele><time>2026-03-28T12:59:36Z</time></trkpt><trkpt lat="45.89421262317447" lon="8.734576368731089"><ele>317.0</ele><time>2026-03-28T12:59:37Z</time></trkpt><trkpt lat="45.89421794539643" lon="8.734728382561931"><ele>319.0</ele><time>2026-03-28T12:59:38Z</time></trkpt><trkpt lat="45.89421994114484" lon="8.734889204870495"><ele>321.0</ele><time>2026-03-28T12:59:39Z</time></trkpt><trkpt lat="45.894229456184625" lon="8.735050614782933"><ele>323.0</ele><time>2026-03-28T12:59:40Z</time></trkpt><trkpt lat="45.89424099473431" lon="8.735176456295076"><ele>325.0</ele><time>2026-03-28T12:59:41Z</time></trkpt><trkpt lat="45.89425286644621" lon="8.73527816213564"><ele>323.2</ele><time>2026-03-28T12:59:42Z</time></trkpt><trkpt lat="45.89420808735668" lon="8.735423315349054"><ele>321.4</ele><time>2026-03-28T12:59:44Z</time></trkpt><trkpt lat="45.89420716625733" lon="8.73553459930215"><ele>319.6</ele><time>2026-03-28T12:59:45Z</time></trkpt><trkpt lat="45.89425932679643" lon="8.735688075159533"><ele>317.8</ele><time>2026-03-28T12:59:46Z</time></trkpt><trkpt lat="45.894312541288265" lon="8.735852152931518"><ele>316.0</ele><time>2026-03-28T12:59:47Z</time></trkpt><trkpt lat="45.89435153809798" lon="8.736060220336258"><ele>316.0</ele><time>2026-03-28T12:59:48Z</time></trkpt><trkpt lat="45.89438765900041" lon="8.736250864752385"><ele>316.0</ele><time>2026-03-28T12:59:49Z</time></trkpt><trkpt lat="45.894417013583976" lon="8.736416508406208"><ele>316.0</ele><time>2026-03-28T12:59:50Z</time></trkpt><trkpt lat="45.894440423425756" lon="8.736543499314521"><ele>316.0</ele><time>2026-03-28T12:59:51Z</time></trkpt><trkpt lat="45.8944716350751" lon="8.736653769757822"><ele>316.0</ele><time>2026-03-28T12:59:52Z</time></trkpt><trkpt lat="45.8945306214375" lon="8.736786757685032"><ele>316.0</ele><time>2026-03-28T12:59:54Z</time></trkpt><trkpt lat="45.89464318718905" lon="8.736805950813237"><ele>316.0</ele><time>2026-03-28T12:59:56Z</time></trkpt><trkpt lat="45.89470476974477" lon="8.736829448267901"><ele>316.0</ele><time>2026-03-28T12:59:57Z</time></trkpt><trkpt lat="45.89481046863082" lon="8.736880272179452"><ele>316.0</ele><time>2026-03-28T12:59:59Z</time></trkpt><trkpt lat="45.89489385894003" lon="8.736944376523752"><ele>316.0</ele><time>2026-03-28T13:00:01Z</time></trkpt><trkpt lat="45.89492994722994" lon="8.73680814038454"><ele>316.0</ele><time>2026-03-28T13:00:03Z</time></trkpt><trkpt lat="45.89495528703318" lon="8.736685654349865"><ele>316.0</ele><time>2026-03-28T13:00:04Z</time></trkpt><trkpt lat="45.894994033594806" lon="8.736578539648693"><ele>316.0</ele><time>2026-03-28T13:00:05Z</time></trkpt><trkpt lat="45.89505570694041" lon="8.736483779981738"><ele>316.0</ele><time>2026-03-28T13:00:06Z</time></trkpt><trkpt lat="45.895125530488166" lon="8.73637552361221"><ele>316.0</ele><time>2026-03-28T13:00:07Z</time></trkpt><trkpt lat="45.89520013257831" lon="8.736280619534227"><ele>314.0</ele><time>2026-03-28T13:00:08Z</time></trkpt><trkpt lat="45.895269488828106" lon="8.736198504715999"><ele>312.0</ele><time>2026-03-28T13:00:09Z</time></trkpt><trkpt lat="45.89534651153422" lon="8.736115144836607"><ele>310.0</ele><time>2026-03-28T13:00:10Z</time></trkpt><trkpt lat="45.895424458446186" lon="8.73601888530075"><ele>308.0</ele><time>2026-03-28T13:00:11Z</time></trkpt><trkpt lat="45.89552530119225" lon="8.735952436798467"><ele>306.0</ele><time>2026-03-28T13:00:12Z</time></trkpt><trkpt lat="45.895640864463836" lon="8.735932135141663"><ele>306.0</ele><time>2026-03-28T13:00:13Z</time></trkpt><trkpt lat="45.8957252896641" lon="8.73590329143454"><ele>306.0</ele><time>2026-03-28T13:00:14Z</time></trkpt><trkpt lat="45.89578887522838" lon="8.735875940891983"><ele>306.0</ele><time>2026-03-28T13:00:15Z</time></trkpt><trkpt lat="45.89586199131376" lon="8.735954272314617"><ele>306.0</ele><time>2026-03-28T13:00:18Z</time></trkpt><trkpt lat="45.895887691917395" lon="8.736088085120484"><ele>306.0</ele><time>2026-03-28T13:00:19Z</time></trkpt><trkpt lat="45.8959270488713" lon="8.736216664366676"><ele>306.0</ele><time>2026-03-28T13:00:20Z</time></trkpt><trkpt lat="45.89596486257357" lon="8.736322867745068"><ele>305.0</ele><time>2026-03-28T13:00:21Z</time></trkpt><trkpt lat="45.89597262389505" lon="8.736420256714187"><ele>304.0</ele><time>2026-03-28T13:00:22Z</time></trkpt><trkpt lat="45.89603114971297" lon="8.73653173297546"><ele>303.0</ele><time>2026-03-28T13:00:24Z</time></trkpt><trkpt lat="45.89609899492398" lon="8.736518405679126"><ele>302.0</ele><time>2026-03-28T13:00:26Z</time></trkpt><trkpt lat="45.896171305436944" lon="8.736560347059768"><ele>301.0</ele><time>2026-03-28T13:00:29Z</time></trkpt><trkpt lat="45.89608384139946" lon="8.736673637061973"><ele>300.0</ele><time>2026-03-28T13:00:30Z</time></trkpt><trkpt lat="45.89602889743478" lon="8.736782160920015"><ele>301.8</ele><time>2026-03-28T13:00:31Z</time></trkpt><trkpt lat="45.896011023390436" lon="8.736887303599385"><ele>303.6</ele><time>2026-03-28T13:00:32Z</time></trkpt><trkpt lat="45.896048434086794" lon="8.737005565926884"><ele>305.4</ele><time>2026-03-28T13:00:33Z</time></trkpt><trkpt lat="45.89613869444655" lon="8.737176746562513"><ele>307.2</ele><time>2026-03-28T13:00:34Z</time></trkpt><trkpt lat="45.89621108478134" lon="8.737296991254519"><ele>309.0</ele><time>2026-03-28T13:00:35Z</time></trkpt><trkpt lat="45.89623683242457" lon="8.737408368879368"><ele>309.0</ele><time>2026-03-28T13:00:36Z</time></trkpt><trkpt lat="45.896240038551504" lon="8.737566690236585"><ele>309.0</ele><time>2026-03-28T13:00:37Z</time></trkpt><trkpt lat="45.8962559834407" lon="8.737753247506035"><ele>309.0</ele><time>2026-03-28T13:00:38Z</time></trkpt><trkpt lat="45.896272350710476" lon="8.73791595871711"><ele>309.0</ele><time>2026-03-28T13:00:39Z</time></trkpt><trkpt lat="45.89628261035891" lon="8.738011712674794"><ele>309.0</ele><time>2026-03-28T13:00:40Z</time></trkpt><trkpt lat="45.8962951593205" lon="8.738133713428276"><ele>310.42857142857144</ele><time>2026-03-28T13:00:48.999Z</time></trkpt><trkpt lat="45.896276554144066" lon="8.738223235260127"><ele>311.8571428571429</ele><time>2026-03-28T13:00:51.999Z</time></trkpt><trkpt lat="45.896226976862835" lon="8.73828852921683"><ele>313.28571428571433</ele><time>2026-03-28T13:01:00Z</time></trkpt><trkpt lat="45.89628515589303" lon="8.738223703383063"><ele>314.7142857142857</ele><time>2026-03-28T13:01:14Z</time></trkpt><trkpt lat="45.896314454409065" lon="8.738127864840385"><ele>316.1428571428571</ele><time>2026-03-28T13:01:18Z</time></trkpt><trkpt lat="45.89631021371781" lon="8.73800463468214"><ele>317.5714285714286</ele><time>2026-03-28T13:01:22Z</time></trkpt><trkpt lat="45.896293836338074" lon="8.737903150052313"><ele>319.0</ele><time>2026-03-28T13:01:24Z</time></trkpt><trkpt lat="45.89627234724254" lon="8.737753147142412"><ele>317.3333333333333</ele><time>2026-03-28T13:01:26Z</time></trkpt><trkpt lat="45.89627468568529" lon="8.737630874987316"><ele>315.66666666666663</ele><time>2026-03-28T13:01:27Z</time></trkpt><trkpt lat="45.89626150849788" lon="8.73751974199629"><ele>314.0</ele><time>2026-03-28T13:01:28Z</time></trkpt><trkpt lat="45.896242250694705" lon="8.737374032719321"><ele>312.3333333333333</ele><time>2026-03-28T13:01:30Z</time></trkpt><trkpt lat="45.896233326467325" lon="8.7372708248904"><ele>310.6666666666667</ele><time>2026-03-28T13:01:32Z</time></trkpt><trkpt lat="45.89617993019149" lon="8.737170667178667"><ele>309.0</ele><time>2026-03-28T13:01:34Z</time></trkpt><trkpt lat="45.896122040793145" lon="8.737066170503562"><ele>309.0</ele><time>2026-03-28T13:01:36Z</time></trkpt><trkpt lat="45.89608751899479" lon="8.73697125110996"><ele>309.0</ele><time>2026-03-28T13:01:38Z</time></trkpt><trkpt lat="45.896068540752395" lon="8.736858730189688"><ele>309.0</ele><time>2026-03-28T13:01:40Z</time></trkpt><trkpt lat="45.89612530195577" lon="8.736757655182148"><ele>309.0</ele><time>2026-03-28T13:01:42Z</time></trkpt><trkpt lat="45.896187361828126" lon="8.736730169305924"><ele>309.0</ele><time>2026-03-28T13:01:45Z</time></trkpt><trkpt lat="45.89627245821591" lon="8.73676198979904"><ele>309.0</ele><time>2026-03-28T13:01:49Z</time></trkpt><trkpt lat="45.896376010455846" lon="8.73674710816264"><ele>307.5</ele><time>2026-03-28T13:01:51Z</time></trkpt><trkpt lat="45.89649734550644" lon="8.736667949280008"><ele>306.0</ele><time>2026-03-28T13:01:53Z</time></trkpt><trkpt lat="45.896575535335714" lon="8.736679659506466"><ele>304.5</ele><time>2026-03-28T13:01:54Z</time></trkpt><trkpt lat="45.896657488413354" lon="8.736681454280738"><ele>303.0</ele><time>2026-03-28T13:01:55Z</time></trkpt><trkpt lat="45.89674099495723" lon="8.73667671876319"><ele>301.5</ele><time>2026-03-28T13:01:56Z</time></trkpt><trkpt lat="45.89680930109028" lon="8.736673150895752"><ele>300.0</ele><time>2026-03-28T13:01:57Z</time></trkpt><trkpt lat="45.89691490816391" lon="8.736668808774981"><ele>299.5</ele><time>2026-03-28T13:01:59Z</time></trkpt><trkpt lat="45.897007243322506" lon="8.736802206838231"><ele>299.0</ele><time>2026-03-28T13:02:01Z</time></trkpt><trkpt lat="45.89705766362423" lon="8.73692265649065"><ele>298.5</ele><time>2026-03-28T13:02:02Z</time></trkpt><trkpt lat="45.897111092309885" lon="8.737068078551445"><ele>298.0</ele><time>2026-03-28T13:02:03Z</time></trkpt><trkpt lat="45.89716580816088" lon="8.737207955199093"><ele>298.0</ele><time>2026-03-28T13:02:04Z</time></trkpt><trkpt lat="45.89722975060595" lon="8.7373387396069"><ele>298.0</ele><time>2026-03-28T13:02:05Z</time></trkpt><trkpt lat="45.89731278685324" lon="8.737462613359549"><ele>298.0</ele><time>2026-03-28T13:02:06Z</time></trkpt><trkpt lat="45.897388319319624" lon="8.73759901096729"><ele>298.0</ele><time>2026-03-28T13:02:07Z</time></trkpt><trkpt lat="45.89745033724053" lon="8.737753515188135"><ele>299.3333333333333</ele><time>2026-03-28T13:02:08Z</time></trkpt><trkpt lat="45.897489554016296" lon="8.737882210827179"><ele>300.66666666666663</ele><time>2026-03-28T13:02:09Z</time></trkpt><trkpt lat="45.89753146335189" lon="8.737973836807244"><ele>302.0</ele><time>2026-03-28T13:02:10Z</time></trkpt><trkpt lat="45.89757927494325" lon="8.738049022038503"><ele>303.3333333333333</ele><time>2026-03-28T13:02:11Z</time></trkpt><trkpt lat="45.897622446164576" lon="8.738139354252656"><ele>304.6666666666667</ele><time>2026-03-28T13:02:12Z</time></trkpt><trkpt lat="45.89766991913573" lon="8.738250775444588"><ele>306.0</ele><time>2026-03-28T13:02:13Z</time></trkpt><trkpt lat="45.8977147173932" lon="8.738386155045863"><ele>304.40000000000003</ele><time>2026-03-28T13:02:14Z</time></trkpt><trkpt lat="45.897749538263376" lon="8.738536534701392"><ele>302.8</ele><time>2026-03-28T13:02:15Z</time></trkpt><trkpt lat="45.897791015138104" lon="8.73867955274826"><ele>301.20000000000005</ele><time>2026-03-28T13:02:16Z</time></trkpt><trkpt lat="45.89784377029706" lon="8.738828096035638"><ele>299.6</ele><time>2026-03-28T13:02:17Z</time></trkpt><trkpt lat="45.897887557855015" lon="8.738943081869323"><ele>298.0</ele><time>2026-03-28T13:02:18Z</time></trkpt><trkpt lat="45.89793794603224" lon="8.739048254379695"><ele>298.0</ele><time>2026-03-28T13:02:19Z</time></trkpt><trkpt lat="45.89798761301631" lon="8.739181781238134"><ele>298.0</ele><time>2026-03-28T13:02:20Z</time></trkpt><trkpt lat="45.898048597213695" lon="8.739353487562985"><ele>298.0</ele><time>2026-03-28T13:02:21Z</time></trkpt><trkpt lat="45.89812384372961" lon="8.739513447492932"><ele>298.0</ele><time>2026-03-28T13:02:22Z</time></trkpt><trkpt lat="45.898189743374125" lon="8.739662179285823"><ele>300.25</ele><time>2026-03-28T13:02:23Z</time></trkpt><trkpt lat="45.898224460209164" lon="8.739842712367096"><ele>302.5</ele><time>2026-03-28T13:02:24Z</time></trkpt><trkpt lat="45.89821512372501" lon="8.74003140851002"><ele>304.75</ele><time>2026-03-28T13:02:25Z</time></trkpt><trkpt lat="45.89820609872094" lon="8.740208031234095"><ele>307.0</ele><time>2026-03-28T13:02:26Z</time></trkpt><trkpt lat="45.89818711092396" lon="8.740382426454621"><ele>307.25</ele><time>2026-03-28T13:02:27Z</time></trkpt><trkpt lat="45.898168429984835" lon="8.740575024691362"><ele>307.5</ele><time>2026-03-28T13:02:28Z</time></trkpt><trkpt lat="45.898148101969646" lon="8.740778040600974"><ele>307.75</ele><time>2026-03-28T13:02:29Z</time></trkpt><trkpt lat="45.89813813408161" lon="8.74094844727428"><ele>308.0</ele><time>2026-03-28T13:02:30Z</time></trkpt><trkpt lat="45.89812314149994" lon="8.741099666075502"><ele>308.0</ele><time>2026-03-28T13:02:31Z</time></trkpt><trkpt lat="45.89808936330642" lon="8.741214112579618"><ele>308.0</ele><time>2026-03-28T13:02:32Z</time></trkpt><trkpt lat="45.898040516781045" lon="8.741311224462786"><ele>308.0</ele><time>2026-03-28T13:02:33Z</time></trkpt><trkpt lat="45.89800583785542" lon="8.741438514617405"><ele>308.0</ele><time>2026-03-28T13:02:34Z</time></trkpt><trkpt lat="45.89798265561115" lon="8.74153748119756"><ele>308.0</ele><time>2026-03-28T13:02:35Z</time></trkpt><trkpt lat="45.89804725252619" lon="8.741610635028682"><ele>308.0</ele><time>2026-03-28T13:02:38Z</time></trkpt><trkpt lat="45.898084201993306" lon="8.741435067150627"><ele>308.0</ele><time>2026-03-28T13:02:40Z</time></trkpt><trkpt lat="45.89803159143598" lon="8.741293191328992"><ele>308.0</ele><time>2026-03-28T13:02:41Z</time></trkpt><trkpt lat="45.89795296050714" lon="8.741181860522847"><ele>308.0</ele><time>2026-03-28T13:02:42Z</time></trkpt><trkpt lat="45.89789103738364" lon="8.741132002127792"><ele>308.0</ele><time>2026-03-28T13:02:43Z</time></trkpt><trkpt lat="45.89781509318667" lon="8.741097253592923"><ele>308.0</ele><time>2026-03-28T13:02:47Z</time></trkpt><trkpt lat="45.89772790054865" lon="8.741173593632778"><ele>308.0</ele><time>2026-03-28T13:02:49Z</time></trkpt><trkpt lat="45.89766431723692" lon="8.741228374426951"><ele>308.0</ele><time>2026-03-28T13:02:50Z</time></trkpt><trkpt lat="45.89760664383927" lon="8.741273064490416"><ele>308.0</ele><time>2026-03-28T13:02:51Z</time></trkpt><trkpt lat="45.897556181780885" lon="8.741335315945683"><ele>308.0</ele><time>2026-03-28T13:02:53Z</time></trkpt><trkpt lat="45.89760767210539" lon="8.741459969304847"><ele>308.0</ele><time>2026-03-28T13:02:55Z</time></trkpt><trkpt lat="45.897643175529126" lon="8.741574982653757"><ele>308.0</ele><time>2026-03-28T13:02:56Z</time></trkpt><trkpt lat="45.89766071277262" lon="8.741704637952957"><ele>308.0</ele><time>2026-03-28T13:02:57Z</time></trkpt><trkpt lat="45.89765679008815" lon="8.741833859254605"><ele>308.0</ele><time>2026-03-28T13:02:58Z</time></trkpt><trkpt lat="45.89764682991144" lon="8.741953320021727"><ele>308.0</ele><time>2026-03-28T13:02:59Z</time></trkpt><trkpt lat="45.897602082973904" lon="8.742077114527213"><ele>308.0</ele><time>2026-03-28T13:03:01Z</time></trkpt><trkpt lat="45.897545859907886" lon="8.742152165633648"><ele>308.0</ele><time>2026-03-28T13:03:03Z</time></trkpt><trkpt lat="45.89743273397717" lon="8.742221551464349"><ele>311.85714285714283</ele><time>2026-03-28T13:03:05Z</time></trkpt><trkpt lat="45.89737764630091" lon="8.742299606066853"><ele>315.7142857142857</ele><time>2026-03-28T13:03:07Z</time></trkpt><trkpt lat="45.89730545847712" lon="8.742288917633829"><ele>319.57142857142856</ele><time>2026-03-28T13:03:10Z</time></trkpt><trkpt lat="45.89726573721515" lon="8.74237177606782"><ele>323.42857142857144</ele><time>2026-03-28T13:03:26Z</time></trkpt><trkpt lat="45.89724944934113" lon="8.742459399595447"><ele>327.2857142857143</ele><time>2026-03-28T13:03:36Z</time></trkpt><trkpt lat="45.89729136043747" lon="8.742567642036677"><ele>331.1428571428571</ele><time>2026-03-28T13:03:41Z</time></trkpt><trkpt lat="45.89730013299446" lon="8.742682133490751"><ele>335.0</ele><time>2026-03-28T13:03:43Z</time></trkpt><trkpt lat="45.89732981743529" lon="8.742767579358102"><ele>336.5</ele><time>2026-03-28T13:03:44Z</time></trkpt><trkpt lat="45.89735833184569" lon="8.742888788374623"><ele>338.0</ele><time>2026-03-28T13:03:45Z</time></trkpt><trkpt lat="45.89740978632388" lon="8.742995961914426"><ele>339.5</ele><time>2026-03-28T13:03:47Z</time></trkpt><trkpt lat="45.897447467372594" lon="8.743082309041899"><ele>341.0</ele><time>2026-03-28T13:03:57Z</time></trkpt><trkpt lat="45.897539184221486" lon="8.743100605850096"><ele>342.5</ele><time>2026-03-28T13:04:00Z</time></trkpt><trkpt lat="45.89758876391631" lon="8.743162813037294"><ele>344.0</ele><time>2026-03-28T13:04:03Z</time></trkpt><trkpt lat="45.8976030821659" lon="8.743276273200127"><ele>344.0</ele><time>2026-03-28T13:04:06Z</time></trkpt><trkpt lat="45.89765172713174" lon="8.743347828263278"><ele>344.0</ele><time>2026-03-28T13:04:08Z</time></trkpt><trkpt lat="45.89759938366385" lon="8.74343042673786"><ele>344.0</ele><time>2026-03-28T13:04:11Z</time></trkpt><trkpt lat="45.89756135499173" lon="8.743517821492663"><ele>344.0</ele><time>2026-03-28T13:04:14Z</time></trkpt><trkpt lat="45.897593818673606" lon="8.743656126800264"><ele>344.0</ele><time>2026-03-28T13:04:21Z</time></trkpt><trkpt lat="45.897625039529885" lon="8.743757845239752"><ele>344.0</ele><time>2026-03-28T13:04:22Z</time></trkpt><trkpt lat="45.89765194094107" lon="8.743888016957872"><ele>342.25</ele><time>2026-03-28T13:04:23Z</time></trkpt><trkpt lat="45.89769981575032" lon="8.744037258805443"><ele>340.5</ele><time>2026-03-28T13:04:24Z</time></trkpt><trkpt lat="45.89777052713114" lon="8.74423836734667"><ele>338.75</ele><time>2026-03-28T13:04:25Z</time></trkpt><trkpt lat="45.89781295840749" lon="8.744391896194891"><ele>337.0</ele><time>2026-03-28T13:04:26Z</time></trkpt><trkpt lat="45.89782419791832" lon="8.744483194740186"><ele>337.0</ele><time>2026-03-28T13:04:27Z</time></trkpt><trkpt lat="45.89781600805284" lon="8.744613090287112"><ele>337.0</ele><time>2026-03-28T13:04:28Z</time></trkpt><trkpt lat="45.89781787486968" lon="8.744733815917288"><ele>337.0</ele><time>2026-03-28T13:04:29Z</time></trkpt><trkpt lat="45.897821393163525" lon="8.744838065634424"><ele>337.0</ele><time>2026-03-28T13:04:30Z</time></trkpt><trkpt lat="45.89784373570503" lon="8.744991672497092"><ele>337.0</ele><time>2026-03-28T13:04:32Z</time></trkpt><trkpt lat="45.89784990167721" lon="8.74511795158588"><ele>337.0</ele><time>2026-03-28T13:04:34Z</time></trkpt><trkpt lat="45.897837078856995" lon="8.745217868687066"><ele>337.8</ele><time>2026-03-28T13:04:36Z</time></trkpt><trkpt lat="45.89783809812113" lon="8.745370007379533"><ele>338.6</ele><time>2026-03-28T13:04:38Z</time></trkpt><trkpt lat="45.89780142303623" lon="8.745496930444435"><ele>339.40000000000003</ele><time>2026-03-28T13:04:40Z</time></trkpt><trkpt lat="45.89791190680022" lon="8.745580466011894"><ele>340.20000000000005</ele><time>2026-03-28T13:04:42Z</time></trkpt><trkpt lat="45.897953897439024" lon="8.745689339872232"><ele>341.0</ele><time>2026-03-28T13:04:44Z</time></trkpt><trkpt lat="45.89798076600966" lon="8.74583625844859"><ele>341.0</ele><time>2026-03-28T13:04:46Z</time></trkpt><trkpt lat="45.89798169521222" lon="8.745970392717364"><ele>341.0</ele><time>2026-03-28T13:05:27Z</time></trkpt><trkpt lat="45.898015682724626" lon="8.746098501813394"><ele>341.0</ele><time>2026-03-28T13:09:59Z</time></trkpt><trkpt lat="45.898066419169936" lon="8.74617585834305"><ele>341.0</ele><time>2026-03-28T13:10:00Z</time></trkpt><trkpt lat="45.89810913383963" lon="8.746248917416027"><ele>341.0</ele><time>2026-03-28T13:10:01Z</time></trkpt><trkpt lat="45.89815157518633" lon="8.746410587869754"><ele>341.0</ele><time>2026-03-28T13:10:03Z</time></trkpt><trkpt lat="45.89818516666968" lon="8.746557208790332"><ele>342.20000000000005</ele><time>2026-03-28T13:10:05Z</time></trkpt><trkpt lat="45.8982292730723" lon="8.74667230063848"><ele>343.40000000000003</ele><time>2026-03-28T13:10:07Z</time></trkpt><trkpt lat="45.89826258204379" lon="8.746783561993272"><ele>344.6</ele><time>2026-03-28T13:10:10Z</time></trkpt><trkpt lat="45.89831937034013" lon="8.747011163021934"><ele>345.8</ele><time>2026-03-28T13:10:12Z</time></trkpt><trkpt lat="45.898351440455514" lon="8.7471487899792"><ele>347.0</ele><time>2026-03-28T13:10:13Z</time></trkpt><trkpt lat="45.89837942013062" lon="8.747273808030895"><ele>338.8</ele><time>2026-03-28T13:10:14Z</time></trkpt><trkpt lat="45.89841890456103" lon="8.747384262233199"><ele>330.6</ele><time>2026-03-28T13:10:15Z</time></trkpt><trkpt lat="45.89842946669273" lon="8.747523526930038"><ele>322.40000000000003</ele><time>2026-03-28T13:10:16Z</time></trkpt><trkpt lat="45.89844773990508" lon="8.747655510205036"><ele>314.20000000000005</ele><time>2026-03-28T13:10:17Z</time></trkpt><trkpt lat="45.89844861258873" lon="8.747818654816426"><ele>306.0</ele><time>2026-03-28T13:10:18Z</time></trkpt><trkpt lat="45.89844982811803" lon="8.747981491665334"><ele>306.0</ele><time>2026-03-28T13:10:19Z</time></trkpt><trkpt lat="45.8984488500341" lon="8.74815732096286"><ele>306.0</ele><time>2026-03-28T13:10:20Z</time></trkpt><trkpt lat="45.898452921068944" lon="8.74830631739703"><ele>306.0</ele><time>2026-03-28T13:10:21Z</time></trkpt><trkpt lat="45.89848349064182" lon="8.748474241599853"><ele>306.0</ele><time>2026-03-28T13:10:22Z</time></trkpt><trkpt lat="45.89852907378892" lon="8.748605425974937"><ele>306.0</ele><time>2026-03-28T13:10:23Z</time></trkpt><trkpt lat="45.89854536730396" lon="8.748718934972976"><ele>306.6</ele><time>2026-03-28T13:10:24Z</time></trkpt><trkpt lat="45.89855665413595" lon="8.748861550109192"><ele>307.20000000000005</ele><time>2026-03-28T13:10:26Z</time></trkpt><trkpt lat="45.89858149276179" lon="8.74904383422317"><ele>307.79999999999995</ele><time>2026-03-28T13:10:28Z</time></trkpt><trkpt lat="45.89861007774002" lon="8.749150247169329"><ele>308.4</ele><time>2026-03-28T13:10:29Z</time></trkpt><trkpt lat="45.898634767581534" lon="8.749252379072582"><ele>309.0</ele><time>2026-03-28T13:10:30Z</time></trkpt><trkpt lat="45.898656937049296" lon="8.74936184074295"><ele>309.0</ele><time>2026-03-28T13:10:32Z</time></trkpt><trkpt lat="45.89867121553662" lon="8.749475986106006"><ele>309.0</ele><time>2026-03-28T13:13:28Z</time></trkpt><trkpt lat="45.89870386426928" lon="8.749578196366773"><ele>309.0</ele><time>2026-03-28T13:13:32Z</time></trkpt><trkpt lat="45.89875194426811" lon="8.749687281843082"><ele>309.0</ele><time>2026-03-28T13:13:50Z</time></trkpt><trkpt lat="45.89872739734605" lon="8.74957997403052"><ele>309.0</ele><time>2026-03-28T13:14:03Z</time></trkpt><trkpt lat="45.898706441914136" lon="8.749464585772063"><ele>309.0</ele><time>2026-03-28T13:14:07Z</time></trkpt><trkpt lat="45.89870531511032" lon="8.749368819635407"><ele>309.0</ele><time>2026-03-28T13:14:42Z</time></trkpt><trkpt lat="45.89867369017741" lon="8.749237971545284"><ele>309.0</ele><time>2026-03-28T13:14:44Z</time></trkpt><trkpt lat="45.89863262637734" lon="8.74908848654781"><ele>309.0</ele><time>2026-03-28T13:14:46Z</time></trkpt><trkpt lat="45.89860825521689" lon="8.748986601252973"><ele>309.0</ele><time>2026-03-28T13:14:47Z</time></trkpt><trkpt lat="45.898595310362396" lon="8.748889941694268"><ele>309.0</ele><time>2026-03-28T13:14:48Z</time></trkpt><trkpt lat="45.89859221938475" lon="8.748768713472167"><ele>309.0</ele><time>2026-03-28T13:14:50Z</time></trkpt><trkpt lat="45.89856609341342" lon="8.748595798600181"><ele>308.4</ele><time>2026-03-28T13:14:52Z</time></trkpt><trkpt lat="45.898549885476164" lon="8.74849267580456"><ele>307.79999999999995</ele><time>2026-03-28T13:14:53Z</time></trkpt><trkpt lat="45.898516092531054" lon="8.748347513950746"><ele>307.20000000000005</ele><time>2026-03-28T13:14:54Z</time></trkpt><trkpt lat="45.89849136552676" lon="8.748209101085617"><ele>306.6</ele><time>2026-03-28T13:14:55Z</time></trkpt><trkpt lat="45.89847483664536" lon="8.748058744640321"><ele>306.0</ele><time>2026-03-28T13:14:56Z</time></trkpt><trkpt lat="45.898484632710364" lon="8.74792552812932"><ele>306.0</ele><time>2026-03-28T13:14:57Z</time></trkpt><trkpt lat="45.898481844187614" lon="8.747779560299621"><ele>306.0</ele><time>2026-03-28T13:14:58Z</time></trkpt><trkpt lat="45.89847799158974" lon="8.74766223051952"><ele>306.0</ele><time>2026-03-28T13:14:59Z</time></trkpt><trkpt lat="45.898468303277504" lon="8.747542908115742"><ele>306.0</ele><time>2026-03-28T13:15:00Z</time></trkpt><trkpt lat="45.89844995672721" lon="8.74744153965572"><ele>306.0</ele><time>2026-03-28T13:15:01Z</time></trkpt><trkpt lat="45.89843246181961" lon="8.74732485209827"><ele>306.0</ele><time>2026-03-28T13:15:02Z</time></trkpt><trkpt lat="45.89840908625905" lon="8.74721390425997"><ele>312.8333333333333</ele><time>2026-03-28T13:15:03Z</time></trkpt><trkpt lat="45.89838534336326" lon="8.747114329517995"><ele>319.6666666666667</ele><time>2026-03-28T13:15:04Z</time></trkpt><trkpt lat="45.89835114719851" lon="8.747011850887052"><ele>326.5</ele><time>2026-03-28T13:15:05Z</time></trkpt><trkpt lat="45.89832776169225" lon="8.746916645117672"><ele>333.33333333333337</ele><time>2026-03-28T13:15:06Z</time></trkpt><trkpt lat="45.89827771360842" lon="8.746801334623875"><ele>340.1666666666667</ele><time>2026-03-28T13:15:08Z</time></trkpt><trkpt lat="45.89825624662974" lon="8.746702543000668"><ele>347.0</ele><time>2026-03-28T13:15:10Z</time></trkpt><trkpt lat="45.89822681125317" lon="8.746525853489429"><ele>347.0</ele><time>2026-03-28T13:15:13Z</time></trkpt><trkpt lat="45.89819478233366" lon="8.746441081168054"><ele>347.0</ele><time>2026-03-28T13:15:14Z</time></trkpt><trkpt lat="45.89814691181392" lon="8.746258625925893"><ele>347.0</ele><time>2026-03-28T13:15:15.999Z</time></trkpt><trkpt lat="45.898121670468306" lon="8.746171125510784"><ele>347.0</ele><time>2026-03-28T13:15:16.999Z</time></trkpt><trkpt lat="45.89807786065292" lon="8.74609153920444"><ele>347.0</ele><time>2026-03-28T13:15:17.999Z</time></trkpt><trkpt lat="45.89801699949987" lon="8.74600393474008"><ele>347.0</ele><time>2026-03-28T13:15:18.999Z</time></trkpt><trkpt lat="45.897976094996594" lon="8.745925497665844"><ele>346.0</ele><time>2026-03-28T13:15:19.999Z</time></trkpt><trkpt lat="45.89796295939359" lon="8.745834050010362"><ele>345.0</ele><time>2026-03-28T13:15:20.999Z</time></trkpt><trkpt lat="45.8979409648518" lon="8.745737797070428"><ele>344.0</ele><time>2026-03-28T13:15:23.999Z</time></trkpt><trkpt lat="45.897901095237195" lon="8.745645980564802"><ele>343.0</ele><time>2026-03-28T13:15:25.999Z</time></trkpt><trkpt lat="45.897898299789944" lon="8.745553597819711"><ele>342.0</ele><time>2026-03-28T13:15:49Z</time></trkpt><trkpt lat="45.89786083930804" lon="8.745465309302661"><ele>341.0</ele><time>2026-03-28T13:15:52Z</time></trkpt><trkpt lat="45.897878665656705" lon="8.745312687745985"><ele>340.20000000000005</ele><time>2026-03-28T13:15:54Z</time></trkpt><trkpt lat="45.897899121990314" lon="8.74520202702667"><ele>339.40000000000003</ele><time>2026-03-28T13:15:56Z</time></trkpt><trkpt lat="45.897880326733116" lon="8.745064789262354"><ele>338.6</ele><time>2026-03-28T13:15:58Z</time></trkpt><trkpt lat="45.89786245542599" lon="8.744903324319818"><ele>337.8</ele><time>2026-03-28T13:16:00Z</time></trkpt><trkpt lat="45.897859652337345" lon="8.744737988614295"><ele>337.0</ele><time>2026-03-28T13:16:02Z</time></trkpt><trkpt lat="45.89786590713592" lon="8.744612711130905"><ele>337.0</ele><time>2026-03-28T13:16:03Z</time></trkpt><trkpt lat="45.89785694549604" lon="8.744502026333091"><ele>337.0</ele><time>2026-03-28T13:16:04Z</time></trkpt><trkpt lat="45.897836012961314" lon="8.744391711540613"><ele>337.0</ele><time>2026-03-28T13:16:05Z</time></trkpt><trkpt lat="45.897814578147525" lon="8.74426742531505"><ele>337.0</ele><time>2026-03-28T13:16:07Z</time></trkpt><trkpt lat="45.89788204487582" lon="8.744202880671057"><ele>337.0</ele><time>2026-03-28T13:16:09Z</time></trkpt><trkpt lat="45.89799414310121" lon="8.744197747599667"><ele>337.0</ele><time>2026-03-28T13:16:11Z</time></trkpt><trkpt lat="45.89808047001455" lon="8.74427198889513"><ele>336.0</ele><time>2026-03-28T13:16:13Z</time></trkpt><trkpt lat="45.89817311094918" lon="8.744315013690846"><ele>335.0</ele><time>2026-03-28T13:16:15Z</time></trkpt><trkpt lat="45.89827022259655" lon="8.74422464982792"><ele>334.0</ele><time>2026-03-28T13:16:17Z</time></trkpt><trkpt lat="45.898303435792364" lon="8.744072419136659"><ele>333.0</ele><time>2026-03-28T13:16:19Z</time></trkpt><trkpt lat="45.89831664376419" lon="8.743972458858545"><ele>332.0</ele><time>2026-03-28T13:16:20Z</time></trkpt><trkpt lat="45.89839509136197" lon="8.743978139752624"><ele>325.8</ele><time>2026-03-28T13:16:23Z</time></trkpt><trkpt lat="45.89844050447338" lon="8.744115436408446"><ele>319.6</ele><time>2026-03-28T13:16:25Z</time></trkpt><trkpt lat="45.89846171355263" lon="8.744244267228705"><ele>313.40000000000003</ele><time>2026-03-28T13:16:26Z</time></trkpt><trkpt lat="45.89848952771371" lon="8.744328226339956"><ele>307.20000000000005</ele><time>2026-03-28T13:16:27Z</time></trkpt><trkpt lat="45.89850630613178" lon="8.744499694306986"><ele>301.0</ele><time>2026-03-28T13:16:29Z</time></trkpt><trkpt lat="45.8985557657003" lon="8.744608918757326"><ele>301.0</ele><time>2026-03-28T13:16:31Z</time></trkpt><trkpt lat="45.89859574870361" lon="8.744685144587171"><ele>301.0</ele><time>2026-03-28T13:16:33Z</time></trkpt><trkpt lat="45.89860137883081" lon="8.74479194410374"><ele>301.0</ele><time>2026-03-28T13:16:36Z</time></trkpt><trkpt lat="45.89861296950921" lon="8.744883718163416"><ele>301.0</ele><time>2026-03-28T13:17:33.999Z</time></trkpt><trkpt lat="45.89858336636971" lon="8.744966308834334"><ele>301.0</ele><time>2026-03-28T13:17:38.999Z</time></trkpt><trkpt lat="45.898529729917875" lon="8.74505349767018"><ele>301.0</ele><time>2026-03-28T13:17:41Z</time></trkpt><trkpt lat="45.89850988727126" lon="8.745139926711994"><ele>301.0</ele><time>2026-03-28T13:17:52Z</time></trkpt><trkpt lat="45.898560223635954" lon="8.745064066278676"><ele>301.0</ele><time>2026-03-28T13:18:18Z</time></trkpt><trkpt lat="45.898587946927066" lon="8.744971784396114"><ele>301.0</ele><time>2026-03-28T13:18:20Z</time></trkpt><trkpt lat="45.89858070818549" lon="8.744856533172339"><ele>301.0</ele><time>2026-03-28T13:18:23Z</time></trkpt><trkpt lat="45.89863119199768" lon="8.744778855258494"><ele>301.0</ele><time>2026-03-28T13:18:27Z</time></trkpt><trkpt lat="45.89861782980581" lon="8.744687458144956"><ele>301.0</ele><time>2026-03-28T13:18:54Z</time></trkpt><trkpt lat="45.898599827556104" lon="8.744595250440758"><ele>301.0</ele><time>2026-03-28T13:19:09.999Z</time></trkpt><trkpt lat="45.898553114781215" lon="8.744525928851852"><ele>301.0</ele><time>2026-03-28T13:19:35.999Z</time></trkpt><trkpt lat="45.89862271297926" lon="8.744585468011628"><ele>301.0</ele><time>2026-03-28T13:20:15Z</time></trkpt><trkpt lat="45.89861012225817" lon="8.744444914256578"><ele>301.0</ele><time>2026-03-28T13:20:17Z</time></trkpt><trkpt lat="45.89852976886777" lon="8.74435820786898"><ele>301.0</ele><time>2026-03-28T13:20:19Z</time></trkpt><trkpt lat="45.89846464361105" lon="8.744309165164923"><ele>301.0</ele><time>2026-03-28T13:20:20Z</time></trkpt><trkpt lat="45.89843457224635" lon="8.744090410526816"><ele>301.0</ele><time>2026-03-28T13:20:22Z</time></trkpt><trkpt lat="45.89837963511457" lon="8.743955261980851"><ele>304.5</ele><time>2026-03-28T13:20:23Z</time></trkpt><trkpt lat="45.89833313529629" lon="8.7438348317575"><ele>308.0</ele><time>2026-03-28T13:20:24Z</time></trkpt><trkpt lat="45.89829618633166" lon="8.743737082597251"><ele>311.5</ele><time>2026-03-28T13:20:25Z</time></trkpt><trkpt lat="45.898275801947534" lon="8.743645817270856"><ele>315.0</ele><time>2026-03-28T13:20:26Z</time></trkpt><trkpt lat="45.89826320979117" lon="8.743459809772725"><ele>318.5</ele><time>2026-03-28T13:20:28Z</time></trkpt><trkpt lat="45.89824830228973" lon="8.743365856945182"><ele>322.0</ele><time>2026-03-28T13:20:29Z</time></trkpt><trkpt lat="45.89821616777635" lon="8.74327494071113"><ele>322.0</ele><time>2026-03-28T13:20:30Z</time></trkpt><trkpt lat="45.89820080805539" lon="8.743160575421902"><ele>322.0</ele><time>2026-03-28T13:20:31Z</time></trkpt><trkpt lat="45.89817329445031" lon="8.742999817522415"><ele>322.0</ele><time>2026-03-28T13:20:32Z</time></trkpt><trkpt lat="45.898146055201245" lon="8.742826512253183"><ele>322.0</ele><time>2026-03-28T13:20:33Z</time></trkpt><trkpt lat="45.89812082667323" lon="8.74264104809696"><ele>319.75</ele><time>2026-03-28T13:20:34Z</time></trkpt><trkpt lat="45.898105947668256" lon="8.742439904253342"><ele>317.5</ele><time>2026-03-28T13:20:35Z</time></trkpt><trkpt lat="45.89808906731836" lon="8.74221837378035"><ele>315.25</ele><time>2026-03-28T13:20:36Z</time></trkpt><trkpt lat="45.89806430916036" lon="8.74200176842216"><ele>313.0</ele><time>2026-03-28T13:20:37Z</time></trkpt><trkpt lat="45.89804107296557" lon="8.741784151129522"><ele>312.0</ele><time>2026-03-28T13:20:38Z</time></trkpt><trkpt lat="45.89803636781594" lon="8.741587163790058"><ele>311.0</ele><time>2026-03-28T13:20:39Z</time></trkpt><trkpt lat="45.8980349434836" lon="8.741418741387061"><ele>310.0</ele><time>2026-03-28T13:20:40Z</time></trkpt><trkpt lat="45.89804413326553" lon="8.741287970490665"><ele>309.0</ele><time>2026-03-28T13:20:41Z</time></trkpt><trkpt lat="45.898076507960596" lon="8.741186167334167"><ele>308.0</ele><time>2026-03-28T13:20:42Z</time></trkpt><trkpt lat="45.89812461288659" lon="8.741088212064131"><ele>308.5</ele><time>2026-03-28T13:20:43Z</time></trkpt><trkpt lat="45.898159207872055" lon="8.74095064671284"><ele>309.0</ele><time>2026-03-28T13:20:44Z</time></trkpt><trkpt lat="45.898160653653505" lon="8.740752784420904"><ele>309.5</ele><time>2026-03-28T13:20:45Z</time></trkpt><trkpt lat="45.89817404340904" lon="8.740565489960913"><ele>310.0</ele><time>2026-03-28T13:20:46Z</time></trkpt><trkpt lat="45.898196742794546" lon="8.740357787773753"><ele>309.25</ele><time>2026-03-28T13:20:47Z</time></trkpt><trkpt lat="45.89820580193815" lon="8.740132631859447"><ele>308.5</ele><time>2026-03-28T13:20:48Z</time></trkpt><trkpt lat="45.898215344406665" lon="8.73997924653496"><ele>307.75</ele><time>2026-03-28T13:20:49Z</time></trkpt><trkpt lat="45.89823241230835" lon="8.739838642989998"><ele>307.0</ele><time>2026-03-28T13:20:50Z</time></trkpt><trkpt lat="45.89821423657033" lon="8.739687851211954"><ele>307.0</ele><time>2026-03-28T13:20:51Z</time></trkpt><trkpt lat="45.898167408362156" lon="8.739551304801958"><ele>307.0</ele><time>2026-03-28T13:20:52Z</time></trkpt><trkpt lat="45.89811624810519" lon="8.739442256682073"><ele>307.0</ele><time>2026-03-28T13:20:53Z</time></trkpt><trkpt lat="45.89807100552136" lon="8.73936147946947"><ele>307.0</ele><time>2026-03-28T13:20:54Z</time></trkpt><trkpt lat="45.89801095165058" lon="8.73923839652946"><ele>307.0</ele><time>2026-03-28T13:20:56Z</time></trkpt><trkpt lat="45.897985611491634" lon="8.739079765363426"><ele>305.5</ele><time>2026-03-28T13:20:58Z</time></trkpt><trkpt lat="45.897942672857425" lon="8.738970111768404"><ele>304.0</ele><time>2026-03-28T13:21:00Z</time></trkpt><trkpt lat="45.89791213859169" lon="8.738861302554945"><ele>302.5</ele><time>2026-03-28T13:21:15Z</time></trkpt><trkpt lat="45.89785381146218" lon="8.738699122068567"><ele>301.0</ele><time>2026-03-28T13:21:17Z</time></trkpt><trkpt lat="45.89782517381666" lon="8.738606763415275"><ele>299.5</ele><time>2026-03-28T13:21:18Z</time></trkpt><trkpt lat="45.89779747631753" lon="8.738520134821094"><ele>298.0</ele><time>2026-03-28T13:21:19Z</time></trkpt><trkpt lat="45.89774481605433" lon="8.738384463732313"><ele>299.6</ele><time>2026-03-28T13:21:21Z</time></trkpt><trkpt lat="45.897693375747934" lon="8.738213539107706"><ele>301.20000000000005</ele><time>2026-03-28T13:21:23Z</time></trkpt><trkpt lat="45.89766014992204" lon="8.738111984678083"><ele>302.8</ele><time>2026-03-28T13:21:24Z</time></trkpt><trkpt lat="45.89760904405664" lon="8.738011516939897"><ele>304.40000000000003</ele><time>2026-03-28T13:21:25Z</time></trkpt><trkpt lat="45.89755418243681" lon="8.737909260130477"><ele>306.0</ele><time>2026-03-28T13:21:26Z</time></trkpt><trkpt lat="45.89749964373758" lon="8.737793121627208"><ele>304.40000000000003</ele><time>2026-03-28T13:21:27Z</time></trkpt><trkpt lat="45.8974429593883" lon="8.737654539554198"><ele>302.8</ele><time>2026-03-28T13:21:28Z</time></trkpt><trkpt lat="45.897393278996084" lon="8.737507557523958"><ele>301.20000000000005</ele><time>2026-03-28T13:21:29Z</time></trkpt><trkpt lat="45.89733968446921" lon="8.737399276620048"><ele>299.6</ele><time>2026-03-28T13:21:30Z</time></trkpt><trkpt lat="45.89727715741461" lon="8.737327910684607"><ele>298.0</ele><time>2026-03-28T13:21:31Z</time></trkpt><trkpt lat="45.897225338030644" lon="8.73724972701383"><ele>298.0</ele><time>2026-03-28T13:21:31.999Z</time></trkpt><trkpt lat="45.89716502022013" lon="8.737126714304656"><ele>298.0</ele><time>2026-03-28T13:21:32.999Z</time></trkpt><trkpt lat="45.89711833115738" lon="8.736997434950881"><ele>298.0</ele><time>2026-03-28T13:21:33.999Z</time></trkpt><trkpt lat="45.89708392797638" lon="8.736883841107062"><ele>298.0</ele><time>2026-03-28T13:21:34.999Z</time></trkpt><trkpt lat="45.897044858350014" lon="8.736790931526558"><ele>298.0</ele><time>2026-03-28T13:21:35.999Z</time></trkpt><trkpt lat="45.89700640681801" lon="8.736715656920534"><ele>298.0</ele><time>2026-03-28T13:21:36.999Z</time></trkpt><trkpt lat="45.89697871888449" lon="8.736613661249194"><ele>296.8333333333333</ele><time>2026-03-28T13:21:38.999Z</time></trkpt><trkpt lat="45.89701612595809" lon="8.73652415316842"><ele>295.66666666666663</ele><time>2026-03-28T13:21:40.999Z</time></trkpt><trkpt lat="45.89705632776802" lon="8.736430482835123"><ele>294.5</ele><time>2026-03-28T13:21:50Z</time></trkpt><trkpt lat="45.897126588025245" lon="8.736511578672484"><ele>293.3333333333333</ele><time>2026-03-28T13:21:57Z</time></trkpt><trkpt lat="45.897175222705656" lon="8.736577309528338"><ele>292.1666666666667</ele><time>2026-03-28T13:21:58Z</time></trkpt><trkpt lat="45.89721846703084" lon="8.736673215363021"><ele>291.0</ele><time>2026-03-28T13:21:59Z</time></trkpt><trkpt lat="45.8972558582323" lon="8.736809750389215"><ele>292.40000000000003</ele><time>2026-03-28T13:22:00Z</time></trkpt><trkpt lat="45.89729418942529" lon="8.736948112992913"><ele>293.8</ele><time>2026-03-28T13:22:01Z</time></trkpt><trkpt lat="45.89734346347769" lon="8.737079462503264"><ele>295.20000000000005</ele><time>2026-03-28T13:22:02Z</time></trkpt><trkpt lat="45.897397199632536" lon="8.737215326424549"><ele>296.6</ele><time>2026-03-28T13:22:03Z</time></trkpt><trkpt lat="45.89746231031686" lon="8.737354536512338"><ele>298.0</ele><time>2026-03-28T13:22:04Z</time></trkpt><trkpt lat="45.897525195597915" lon="8.737490630142165"><ele>298.0</ele><time>2026-03-28T13:22:05Z</time></trkpt><trkpt lat="45.89758210652455" lon="8.737617779809783"><ele>298.0</ele><time>2026-03-28T13:22:06Z</time></trkpt><trkpt lat="45.89762537210301" lon="8.737734289022285"><ele>298.0</ele><time>2026-03-28T13:22:07Z</time></trkpt><trkpt lat="45.89766510872902" lon="8.737839817740136"><ele>298.0</ele><time>2026-03-28T13:22:08Z</time></trkpt><trkpt lat="45.89774263398421" lon="8.737960725373446"><ele>298.0</ele><time>2026-03-28T13:22:09Z</time></trkpt><trkpt lat="45.897843281968925" lon="8.738086280566215"><ele>298.0</ele><time>2026-03-28T13:22:10Z</time></trkpt><trkpt lat="45.89793290265521" lon="8.738212544225084"><ele>298.0</ele><time>2026-03-28T13:22:11Z</time></trkpt><trkpt lat="45.897996899816896" lon="8.738322921995684"><ele>298.0</ele><time>2026-03-28T13:22:12Z</time></trkpt><trkpt lat="45.89805563164589" lon="8.738447762137179"><ele>298.0</ele><time>2026-03-28T13:22:13Z</time></trkpt><trkpt lat="45.89811909296122" lon="8.738594757788494"><ele>298.0</ele><time>2026-03-28T13:22:14Z</time></trkpt><trkpt lat="45.898184229664786" lon="8.738737592370626"><ele>298.0</ele><time>2026-03-28T13:22:15Z</time></trkpt><trkpt lat="45.898246643920494" lon="8.738845162894947"><ele>298.0</ele><time>2026-03-28T13:22:16Z</time></trkpt><trkpt lat="45.89830475866455" lon="8.738916911093144"><ele>298.0</ele><time>2026-03-28T13:22:17Z</time></trkpt><trkpt lat="45.898373753132475" lon="8.738977007900747"><ele>298.0</ele><time>2026-03-28T13:22:19Z</time></trkpt><trkpt lat="45.898427097952734" lon="8.739099590075995"><ele>295.2</ele><time>2026-03-28T13:22:22Z</time></trkpt><trkpt lat="45.898508194078794" lon="8.739259461522424"><ele>292.4</ele><time>2026-03-28T13:22:24Z</time></trkpt><trkpt lat="45.898537778643764" lon="8.739368428321344"><ele>289.59999999999997</ele><time>2026-03-28T13:22:25Z</time></trkpt><trkpt lat="45.89855974044367" lon="8.73952077026419"><ele>286.8</ele><time>2026-03-28T13:22:26Z</time></trkpt><trkpt lat="45.898573503489224" lon="8.739639918772573"><ele>284.0</ele><time>2026-03-28T13:22:27Z</time></trkpt><trkpt lat="45.89860729022386" lon="8.739789367078393"><ele>284.0</ele><time>2026-03-28T13:22:29Z</time></trkpt><trkpt lat="45.898641332054794" lon="8.739877518080705"><ele>284.0</ele><time>2026-03-28T13:22:31Z</time></trkpt><trkpt lat="45.898682088593546" lon="8.740049209713364"><ele>284.0</ele><time>2026-03-28T13:22:33Z</time></trkpt><trkpt lat="45.898750761982015" lon="8.740169532481007"><ele>284.0</ele><time>2026-03-28T13:22:34Z</time></trkpt><trkpt lat="45.89881195884352" lon="8.740280842863054"><ele>284.0</ele><time>2026-03-28T13:22:35Z</time></trkpt><trkpt lat="45.89883780312369" lon="8.740384214028516"><ele>284.5</ele><time>2026-03-28T13:22:36Z</time></trkpt><trkpt lat="45.898866019706716" lon="8.74047402571723"><ele>285.0</ele><time>2026-03-28T13:22:37Z</time></trkpt><trkpt lat="45.89890176185349" lon="8.74058205045195"><ele>285.5</ele><time>2026-03-28T13:22:38Z</time></trkpt><trkpt lat="45.8989736223944" lon="8.740687847442782"><ele>286.0</ele><time>2026-03-28T13:22:40Z</time></trkpt><trkpt lat="45.89908838595171" lon="8.740701594055423"><ele>286.5</ele><time>2026-03-28T13:22:42Z</time></trkpt><trkpt lat="45.89913122457446" lon="8.740782400374131"><ele>287.0</ele><time>2026-03-28T13:22:43Z</time></trkpt><trkpt lat="45.89915753730032" lon="8.740963009864377"><ele>287.2</ele><time>2026-03-28T13:22:44Z</time></trkpt><trkpt lat="45.899166217869855" lon="8.741128293396464"><ele>287.4</ele><time>2026-03-28T13:22:45Z</time></trkpt><trkpt lat="45.8991575447284" lon="8.741253660509166"><ele>287.6</ele><time>2026-03-28T13:22:46Z</time></trkpt><trkpt lat="45.89911846074488" lon="8.741396082491132"><ele>287.8</ele><time>2026-03-28T13:22:47Z</time></trkpt><trkpt lat="45.8990584078389" lon="8.741575421838562"><ele>288.0</ele><time>2026-03-28T13:22:48Z</time></trkpt><trkpt lat="45.899032968750326" lon="8.74177876586579"><ele>290.0</ele><time>2026-03-28T13:22:49Z</time></trkpt><trkpt lat="45.89906614826794" lon="8.741986757947384"><ele>292.0</ele><time>2026-03-28T13:22:50Z</time></trkpt><trkpt lat="45.89912953180674" lon="8.742190844624927"><ele>294.0</ele><time>2026-03-28T13:22:51Z</time></trkpt><trkpt lat="45.89919336248984" lon="8.742426472315335"><ele>294.0</ele><time>2026-03-28T13:22:52Z</time></trkpt><trkpt lat="45.899241033553544" lon="8.742678349757657"><ele>294.0</ele><time>2026-03-28T13:22:53Z</time></trkpt><trkpt lat="45.89926675378912" lon="8.742938197891549"><ele>294.0</ele><time>2026-03-28T13:22:54Z</time></trkpt><trkpt lat="45.8992669338434" lon="8.74318291202255"><ele>289.3333333333333</ele><time>2026-03-28T13:22:55Z</time></trkpt><trkpt lat="45.89926584383247" lon="8.743448214308192"><ele>284.66666666666663</ele><time>2026-03-28T13:22:56Z</time></trkpt><trkpt lat="45.8992841340007" lon="8.743705759864548"><ele>280.0</ele><time>2026-03-28T13:22:57Z</time></trkpt><trkpt lat="45.89929794844878" lon="8.743933420879555"><ele>279.75</ele><time>2026-03-28T13:22:58Z</time></trkpt><trkpt lat="45.899299769753995" lon="8.744129927780408"><ele>279.5</ele><time>2026-03-28T13:22:59Z</time></trkpt><trkpt lat="45.89928692035369" lon="8.744321656241334"><ele>279.25</ele><time>2026-03-28T13:23:00Z</time></trkpt><trkpt lat="45.899278868613926" lon="8.74452704614796"><ele>279.0</ele><time>2026-03-28T13:23:01Z</time></trkpt><trkpt lat="45.89927539255477" lon="8.744699237599834"><ele>280.0</ele><time>2026-03-28T13:23:02Z</time></trkpt><trkpt lat="45.899272499142214" lon="8.744864905764711"><ele>281.0</ele><time>2026-03-28T13:23:03Z</time></trkpt><trkpt lat="45.89927309300533" lon="8.745059850859617"><ele>282.0</ele><time>2026-03-28T13:23:04Z</time></trkpt><trkpt lat="45.89928847887483" lon="8.745225379645976"><ele>283.0</ele><time>2026-03-28T13:23:05Z</time></trkpt><trkpt lat="45.8992863096976" lon="8.745370208111266"><ele>283.66666666666663</ele><time>2026-03-28T13:23:06Z</time></trkpt><trkpt lat="45.89929477969679" lon="8.745494773060528"><ele>284.3333333333333</ele><time>2026-03-28T13:23:07Z</time></trkpt><trkpt lat="45.899287190074986" lon="8.745634878526394"><ele>285.0</ele><time>2026-03-28T13:23:09Z</time></trkpt><trkpt lat="45.899248518342375" lon="8.745709919401264"><ele>285.6666666666667</ele><time>2026-03-28T13:23:37Z</time></trkpt><trkpt lat="45.89924974518041" lon="8.745830588635656"><ele>286.33333333333337</ele><time>2026-03-28T13:23:39Z</time></trkpt><trkpt lat="45.899242823909034" lon="8.745938065952565"><ele>287.0</ele><time>2026-03-28T13:23:40Z</time></trkpt><trkpt lat="45.89922244935231" lon="8.746076232604027"><ele>290.25</ele><time>2026-03-28T13:23:41Z</time></trkpt><trkpt lat="45.89920785722494" lon="8.746254663734737"><ele>293.5</ele><time>2026-03-28T13:23:42Z</time></trkpt><trkpt lat="45.89919249948272" lon="8.746480008355846"><ele>296.75</ele><time>2026-03-28T13:23:43Z</time></trkpt><trkpt lat="45.89918944508017" lon="8.746667713532421"><ele>300.0</ele><time>2026-03-28T13:23:44Z</time></trkpt><trkpt lat="45.89919446598543" lon="8.746832574794754"><ele>301.0</ele><time>2026-03-28T13:23:45Z</time></trkpt><trkpt lat="45.89921470693173" lon="8.746978543700614"><ele>302.0</ele><time>2026-03-28T13:23:46Z</time></trkpt><trkpt lat="45.8992600826984" lon="8.747153430164603"><ele>303.0</ele><time>2026-03-28T13:23:47Z</time></trkpt><trkpt lat="45.89930796619027" lon="8.747351973615412"><ele>304.0</ele><time>2026-03-28T13:23:48Z</time></trkpt><trkpt lat="45.89933837548425" lon="8.747499704043138"><ele>300.59999999999997</ele><time>2026-03-28T13:23:49Z</time></trkpt><trkpt lat="45.89935106958402" lon="8.747640014942208"><ele>297.2</ele><time>2026-03-28T13:23:50Z</time></trkpt><trkpt lat="45.89935119526887" lon="8.747767279886371"><ele>293.79999999999995</ele><time>2026-03-28T13:23:51Z</time></trkpt><trkpt lat="45.899333663468305" lon="8.747894338286132"><ele>290.4</ele><time>2026-03-28T13:23:51.999Z</time></trkpt><trkpt lat="45.899301087355724" lon="8.74803899243914"><ele>287.0</ele><time>2026-03-28T13:23:52.999Z</time></trkpt><trkpt lat="45.89927855959479" lon="8.748192089009933"><ele>287.0</ele><time>2026-03-28T13:23:53.999Z</time></trkpt><trkpt lat="45.899261840752004" lon="8.748386004974217"><ele>287.0</ele><time>2026-03-28T13:23:54.999Z</time></trkpt><trkpt lat="45.89922686412911" lon="8.748605098585584"><ele>287.0</ele><time>2026-03-28T13:23:55.999Z</time></trkpt><trkpt lat="45.8992088239026" lon="8.748834617811834"><ele>288.0</ele><time>2026-03-28T13:23:56.999Z</time></trkpt><trkpt lat="45.89921729276465" lon="8.749056269087136"><ele>289.0</ele><time>2026-03-28T13:23:57.999Z</time></trkpt><trkpt lat="45.89922249186109" lon="8.749228902749632"><ele>290.0</ele><time>2026-03-28T13:23:58.999Z</time></trkpt><trkpt lat="45.899249821615406" lon="8.74938600143942"><ele>291.0</ele><time>2026-03-28T13:23:59.999Z</time></trkpt><trkpt lat="45.899301472379534" lon="8.749545506309808"><ele>291.0</ele><time>2026-03-28T13:24:00.999Z</time></trkpt><trkpt lat="45.89938510960918" lon="8.749703984396227"><ele>291.0</ele><time>2026-03-28T13:24:01.999Z</time></trkpt><trkpt lat="45.89943783329771" lon="8.74984886790725"><ele>291.0</ele><time>2026-03-28T13:24:02.999Z</time></trkpt><trkpt lat="45.89945713373261" lon="8.74996628324359"><ele>291.0</ele><time>2026-03-28T13:24:03.999Z</time></trkpt><trkpt lat="45.89947245510642" lon="8.750057559208333"><ele>291.0</ele><time>2026-03-28T13:24:04.999Z</time></trkpt><trkpt lat="45.89946787578377" lon="8.75018347805399"><ele>291.8333333333333</ele><time>2026-03-28T13:24:06.999Z</time></trkpt><trkpt lat="45.89946965266885" lon="8.750318909424976"><ele>292.6666666666667</ele><time>2026-03-28T13:24:08.999Z</time></trkpt><trkpt lat="45.89955201649704" lon="8.750289826040818"><ele>293.5</ele><time>2026-03-28T13:24:18Z</time></trkpt><trkpt lat="45.899613364469474" lon="8.750330604423159"><ele>294.33333333333337</ele><time>2026-03-28T13:24:20Z</time></trkpt><trkpt lat="45.899659389657124" lon="8.75040860231659"><ele>295.1666666666667</ele><time>2026-03-28T13:24:21Z</time></trkpt><trkpt lat="45.899716528946605" lon="8.75048242001453"><ele>296.0</ele><time>2026-03-28T13:24:22Z</time></trkpt><trkpt lat="45.899793306890494" lon="8.750617198317325"><ele>296.0</ele><time>2026-03-28T13:24:24Z</time></trkpt><trkpt lat="45.89983012223304" lon="8.750694447784499"><ele>296.0</ele><time>2026-03-28T13:24:25Z</time></trkpt><trkpt lat="45.899866706488105" lon="8.750793584137714"><ele>296.0</ele><time>2026-03-28T13:24:26Z</time></trkpt><trkpt lat="45.89991458905426" lon="8.750935958759742"><ele>296.0</ele><time>2026-03-28T13:24:28Z</time></trkpt><trkpt lat="45.899950243949036" lon="8.751042204109934"><ele>296.0</ele><time>2026-03-28T13:24:30Z</time></trkpt><trkpt lat="45.89998040923957" lon="8.751124205746354"><ele>296.0</ele><time>2026-03-28T13:24:32Z</time></trkpt><trkpt lat="45.89994632519628" lon="8.75120037461139"><ele>296.8</ele><time>2026-03-28T13:24:42Z</time></trkpt><trkpt lat="45.89983035176944" lon="8.751247380904825"><ele>297.6</ele><time>2026-03-28T13:24:44Z</time></trkpt><trkpt lat="45.8997462651647" lon="8.751296257348393"><ele>298.4</ele><time>2026-03-28T13:24:46Z</time></trkpt><trkpt lat="45.899787953693796" lon="8.751456777212395"><ele>299.2</ele><time>2026-03-28T13:24:49Z</time></trkpt><trkpt lat="45.89983102956236" lon="8.751595487592512"><ele>300.0</ele><time>2026-03-28T13:24:50Z</time></trkpt><trkpt lat="45.89987888279765" lon="8.751787577677083"><ele>301.5</ele><time>2026-03-28T13:24:51Z</time></trkpt><trkpt lat="45.89991969240439" lon="8.75191493264424"><ele>303.0</ele><time>2026-03-28T13:24:52Z</time></trkpt><trkpt lat="45.89994330999077" lon="8.75201515884436"><ele>304.5</ele><time>2026-03-28T13:24:53Z</time></trkpt><trkpt lat="45.8999624399108" lon="8.752114844431231"><ele>306.0</ele><time>2026-03-28T13:24:54Z</time></trkpt><trkpt lat="45.899993053303376" lon="8.752241310424735"><ele>307.5</ele><time>2026-03-28T13:24:55Z</time></trkpt><trkpt lat="45.900036244599626" lon="8.752369458792058"><ele>309.0</ele><time>2026-03-28T13:24:56Z</time></trkpt><trkpt lat="45.90008302694596" lon="8.752501235423692"><ele>306.3333333333333</ele><time>2026-03-28T13:24:57Z</time></trkpt><trkpt lat="45.900123629704616" lon="8.752607585304064"><ele>303.6666666666667</ele><time>2026-03-28T13:24:58Z</time></trkpt><trkpt lat="45.9001580910754" lon="8.752703179583737"><ele>301.0</ele><time>2026-03-28T13:24:59Z</time></trkpt><trkpt lat="45.90020055544545" lon="8.752799878097122"><ele>298.33333333333337</ele><time>2026-03-28T13:25:00Z</time></trkpt><trkpt lat="45.90026627656179" lon="8.752914563964644"><ele>295.6666666666667</ele><time>2026-03-28T13:25:01Z</time></trkpt><trkpt lat="45.900320219552995" lon="8.753040782315187"><ele>293.0</ele><time>2026-03-28T13:25:02Z</time></trkpt><trkpt lat="45.90036565384036" lon="8.753150060384586"><ele>293.0</ele><time>2026-03-28T13:25:03Z</time></trkpt><trkpt lat="45.900412695376644" lon="8.753251949055718"><ele>293.0</ele><time>2026-03-28T13:25:04Z</time></trkpt><trkpt lat="45.90047037308629" lon="8.753367045194217"><ele>293.0</ele><time>2026-03-28T13:25:05Z</time></trkpt><trkpt lat="45.90051760163454" lon="8.75347263255252"><ele>293.0</ele><time>2026-03-28T13:25:06Z</time></trkpt><trkpt lat="45.90055966300643" lon="8.753566079380578"><ele>293.0</ele><time>2026-03-28T13:25:07Z</time></trkpt><trkpt lat="45.90059516666221" lon="8.753689555238962"><ele>293.0</ele><time>2026-03-28T13:25:08Z</time></trkpt><trkpt lat="45.900635432270875" lon="8.753818409091085"><ele>294.5</ele><time>2026-03-28T13:25:09Z</time></trkpt><trkpt lat="45.900693992078345" lon="8.753957518827342"><ele>296.0</ele><time>2026-03-28T13:25:10Z</time></trkpt><trkpt lat="45.90074821070659" lon="8.754057825955185"><ele>297.5</ele><time>2026-03-28T13:25:11Z</time></trkpt><trkpt lat="45.90076939267646" lon="8.754158393829854"><ele>299.0</ele><time>2026-03-28T13:25:12Z</time></trkpt><trkpt lat="45.90076203453561" lon="8.754258728034653"><ele>300.5</ele><time>2026-03-28T13:25:13Z</time></trkpt><trkpt lat="45.900763698581926" lon="8.754377137480441"><ele>302.0</ele><time>2026-03-28T13:25:14Z</time></trkpt><trkpt lat="45.9007974354409" lon="8.754504043154766"><ele>303.5714285714286</ele><time>2026-03-28T13:25:16Z</time></trkpt><trkpt lat="45.90079555937868" lon="8.75459904886056"><ele>305.14285714285717</ele><time>2026-03-28T13:25:28Z</time></trkpt><trkpt lat="45.9008412406676" lon="8.75469106483577"><ele>306.7142857142857</ele><time>2026-03-28T13:26:24.999Z</time></trkpt><trkpt lat="45.90088587306764" lon="8.754793680264893"><ele>308.28571428571433</ele><time>2026-03-28T13:26:26.999Z</time></trkpt><trkpt lat="45.9009460204968" lon="8.754828147877713"><ele>309.8571428571429</ele><time>2026-03-28T13:26:37Z</time></trkpt><trkpt lat="45.9009271799532" lon="8.754944042003267"><ele>311.42857142857144</ele><time>2026-03-28T13:26:41Z</time></trkpt><trkpt lat="45.90095988055319" lon="8.755029876620283"><ele>313.0</ele><time>2026-03-28T13:26:43Z</time></trkpt><trkpt lat="45.901003081766724" lon="8.755097442654483"><ele>310.66666666666663</ele><time>2026-03-28T13:26:45Z</time></trkpt><trkpt lat="45.901045108243856" lon="8.755176537465783"><ele>308.3333333333333</ele><time>2026-03-28T13:26:52Z</time></trkpt><trkpt lat="45.90104246170138" lon="8.755356855107243"><ele>306.0</ele><time>2026-03-28T13:26:56Z</time></trkpt><trkpt lat="45.901042238267095" lon="8.755454697924323"><ele>303.6666666666667</ele><time>2026-03-28T13:26:59Z</time></trkpt><trkpt lat="45.90105098828571" lon="8.755573173204558"><ele>301.33333333333337</ele><time>2026-03-28T13:27:02Z</time></trkpt><trkpt lat="45.90109477986217" lon="8.755649573788764"><ele>299.0</ele><time>2026-03-28T13:27:04Z</time></trkpt><trkpt lat="45.90116263799955" lon="8.755676459843405"><ele>299.0</ele><time>2026-03-28T13:27:07Z</time></trkpt><trkpt lat="45.901234171733286" lon="8.755673725994136"><ele>299.0</ele><time>2026-03-28T13:27:09Z</time></trkpt><trkpt lat="45.901321711352615" lon="8.755669472621777"><ele>299.0</ele><time>2026-03-28T13:27:12Z</time></trkpt><trkpt lat="45.9013946850876" lon="8.755777839009777"><ele>299.0</ele><time>2026-03-28T13:27:14Z</time></trkpt><trkpt lat="45.90144824302795" lon="8.755917617335076"><ele>299.0</ele><time>2026-03-28T13:27:15Z</time></trkpt><trkpt lat="45.90153247072452" lon="8.756030635842654"><ele>298.1666666666667</ele><time>2026-03-28T13:27:16Z</time></trkpt><trkpt lat="45.90161094161118" lon="8.756130488965765"><ele>297.33333333333337</ele><time>2026-03-28T13:27:17Z</time></trkpt><trkpt lat="45.901681946723976" lon="8.756218673847087"><ele>296.5</ele><time>2026-03-28T13:27:18Z</time></trkpt><trkpt lat="45.90173912313527" lon="8.756313065321903"><ele>295.6666666666667</ele><time>2026-03-28T13:27:19Z</time></trkpt><trkpt lat="45.901782838167954" lon="8.756379675087056"><ele>294.8333333333333</ele><time>2026-03-28T13:27:20Z</time></trkpt><trkpt lat="45.9018205461579" lon="8.756510269183272"><ele>294.0</ele><time>2026-03-28T13:27:23Z</time></trkpt><trkpt lat="45.90181826594715" lon="8.75661856387902"><ele>294.0</ele><time>2026-03-28T13:27:25Z</time></trkpt><trkpt lat="45.90182526534962" lon="8.756765396162496"><ele>294.0</ele><time>2026-03-28T13:27:27Z</time></trkpt><trkpt lat="45.90182336567533" lon="8.75686668560508"><ele>294.0</ele><time>2026-03-28T13:27:28Z</time></trkpt><trkpt lat="45.90182078274081" lon="8.75697386883618"><ele>294.0</ele><time>2026-03-28T13:27:29Z</time></trkpt><trkpt lat="45.90181164680733" lon="8.757166116944568"><ele>294.0</ele><time>2026-03-28T13:27:31Z</time></trkpt><trkpt lat="45.901814326075105" lon="8.757258256234522"><ele>294.0</ele><time>2026-03-28T13:27:33Z</time></trkpt><trkpt lat="45.9018379979195" lon="8.75705862213133"><ele>294.0</ele><time>2026-03-28T13:28:24.999Z</time></trkpt><trkpt lat="45.90184500338054" lon="8.756958305605542"><ele>294.0</ele><time>2026-03-28T13:28:25.999Z</time></trkpt><trkpt lat="45.90184290986347" lon="8.756818810241553"><ele>294.0</ele><time>2026-03-28T13:28:27.999Z</time></trkpt><trkpt lat="45.90185481538067" lon="8.756721936104288"><ele>294.0</ele><time>2026-03-28T13:28:29.999Z</time></trkpt><trkpt lat="45.901893962199196" lon="8.756593242301141"><ele>294.0</ele><time>2026-03-28T13:28:33.999Z</time></trkpt><trkpt lat="45.90197985036221" lon="8.756529707215316"><ele>294.0</ele><time>2026-03-28T13:28:35.999Z</time></trkpt><trkpt lat="45.90207030528498" lon="8.75651318309382"><ele>294.0</ele><time>2026-03-28T13:28:36.999Z</time></trkpt><trkpt lat="45.902150297980796" lon="8.756506011305714"><ele>294.0</ele><time>2026-03-28T13:28:37.999Z</time></trkpt><trkpt lat="45.902218090523796" lon="8.756493169517885"><ele>294.0</ele><time>2026-03-28T13:28:38.999Z</time></trkpt><trkpt lat="45.90231885525885" lon="8.75646829380282"><ele>294.0</ele><time>2026-03-28T13:28:40.999Z</time></trkpt><trkpt lat="45.90240759748174" lon="8.756467247580003"><ele>294.0</ele><time>2026-03-28T13:28:42.999Z</time></trkpt><trkpt lat="45.90250429216126" lon="8.756465332740673"><ele>294.0</ele><time>2026-03-28T13:28:45Z</time></trkpt><trkpt lat="45.90258369607387" lon="8.756475870480172"><ele>294.0</ele><time>2026-03-28T13:28:47Z</time></trkpt><trkpt lat="45.90264437747132" lon="8.756500628634841"><ele>294.0</ele><time>2026-03-28T13:28:55Z</time></trkpt><trkpt lat="45.90276578013353" lon="8.756548594850043"><ele>294.0</ele><time>2026-03-28T13:28:57Z</time></trkpt><trkpt lat="45.90287835921353" lon="8.756582235552901"><ele>294.0</ele><time>2026-03-28T13:28:59Z</time></trkpt><trkpt lat="45.90297162990423" lon="8.756470012899786"><ele>294.0</ele><time>2026-03-28T13:29:01Z</time></trkpt><trkpt lat="45.903025878506995" lon="8.756395970021888"><ele>294.0</ele><time>2026-03-28T13:29:02Z</time></trkpt><trkpt lat="45.90310669263207" lon="8.756431688025556"><ele>294.0</ele><time>2026-03-28T13:29:04Z</time></trkpt><trkpt lat="45.90314215315998" lon="8.756534056580831"><ele>294.0</ele><time>2026-03-28T13:29:05Z</time></trkpt><trkpt lat="45.90316350475676" lon="8.756630939381285"><ele>294.0</ele><time>2026-03-28T13:29:06Z</time></trkpt><trkpt lat="45.90321734748214" lon="8.75673965857447"><ele>294.0</ele><time>2026-03-28T13:29:07Z</time></trkpt><trkpt lat="45.903303912218576" lon="8.756857699961607"><ele>294.0</ele><time>2026-03-28T13:29:08Z</time></trkpt><trkpt lat="45.90339112780143" lon="8.756949050761962"><ele>294.5</ele><time>2026-03-28T13:29:09Z</time></trkpt><trkpt lat="45.90346026054902" lon="8.757015169067117"><ele>295.0</ele><time>2026-03-28T13:29:10Z</time></trkpt><trkpt lat="45.9035261985547" lon="8.757086882906302"><ele>295.5</ele><time>2026-03-28T13:29:11Z</time></trkpt><trkpt lat="45.903605245630665" lon="8.757172793168886"><ele>296.0</ele><time>2026-03-28T13:29:12Z</time></trkpt><trkpt lat="45.90368034060498" lon="8.757253091705172"><ele>296.5</ele><time>2026-03-28T13:29:13Z</time></trkpt><trkpt lat="45.90373708987691" lon="8.75731067893588"><ele>297.0</ele><time>2026-03-28T13:29:14Z</time></trkpt><trkpt lat="45.903829709354625" lon="8.757410353529215"><ele>297.0</ele><time>2026-03-28T13:29:16Z</time></trkpt><trkpt lat="45.903862653797255" lon="8.75750892077593"><ele>297.0</ele><time>2026-03-28T13:29:17Z</time></trkpt><trkpt lat="45.903917266482" lon="8.757638835888432"><ele>297.0</ele><time>2026-03-28T13:29:18Z</time></trkpt><trkpt lat="45.903998040555706" lon="8.75778142142128"><ele>297.0</ele><time>2026-03-28T13:29:19Z</time></trkpt><trkpt lat="45.90410670529765" lon="8.757959439499523"><ele>296.6666666666667</ele><time>2026-03-28T13:29:20Z</time></trkpt><trkpt lat="45.90423418298342" lon="8.758123164459413"><ele>296.33333333333337</ele><time>2026-03-28T13:29:21Z</time></trkpt><trkpt lat="45.90439292699293" lon="8.758291740318302"><ele>296.0</ele><time>2026-03-28T13:29:22Z</time></trkpt><trkpt lat="45.90454551536325" lon="8.75845431173005"><ele>296.33333333333337</ele><time>2026-03-28T13:29:23Z</time></trkpt><trkpt lat="45.90466680378917" lon="8.758619478285393"><ele>296.6666666666667</ele><time>2026-03-28T13:29:24Z</time></trkpt><trkpt lat="45.90476151833503" lon="8.758779383080297"><ele>297.0</ele><time>2026-03-28T13:29:25Z</time></trkpt><trkpt lat="45.904839300122525" lon="8.758940483674046"><ele>297.0</ele><time>2026-03-28T13:29:26Z</time></trkpt><trkpt lat="45.90490459120073" lon="8.759094326047302"><ele>297.0</ele><time>2026-03-28T13:29:27Z</time></trkpt><trkpt lat="45.90497481300742" lon="8.759244151244136"><ele>297.0</ele><time>2026-03-28T13:29:28Z</time></trkpt><trkpt lat="45.90504758457091" lon="8.75939584881006"><ele>297.0</ele><time>2026-03-28T13:29:29Z</time></trkpt><trkpt lat="45.90510904550382" lon="8.759528748567487"><ele>297.8</ele><time>2026-03-28T13:29:30Z</time></trkpt><trkpt lat="45.905163204572055" lon="8.759670982031178"><ele>298.6</ele><time>2026-03-28T13:29:31Z</time></trkpt><trkpt lat="45.90520907614587" lon="8.759812872558982"><ele>299.40000000000003</ele><time>2026-03-28T13:29:32Z</time></trkpt><trkpt lat="45.90525266915606" lon="8.759919541996267"><ele>300.2</ele><time>2026-03-28T13:29:33Z</time></trkpt><trkpt lat="45.905303745712985" lon="8.759980266793207"><ele>301.0</ele><time>2026-03-28T13:29:34Z</time></trkpt><trkpt lat="45.90543187682141" lon="8.759968429285765"><ele>301.0</ele><time>2026-03-28T13:29:36Z</time></trkpt><trkpt lat="45.9055008298684" lon="8.759926366745757"><ele>301.0</ele><time>2026-03-28T13:29:37Z</time></trkpt><trkpt lat="45.9055930025508" lon="8.759902960094191"><ele>301.0</ele><time>2026-03-28T13:29:38Z</time></trkpt><trkpt lat="45.90571685831789" lon="8.75987890080533"><ele>301.0</ele><time>2026-03-28T13:29:39Z</time></trkpt><trkpt lat="45.905822616894746" lon="8.75983424926261"><ele>301.0</ele><time>2026-03-28T13:29:40Z</time></trkpt><trkpt lat="45.90590833773065" lon="8.759780681707516"><ele>303.0</ele><time>2026-03-28T13:29:41Z</time></trkpt><trkpt lat="45.906004339598304" lon="8.759717745422973"><ele>305.0</ele><time>2026-03-28T13:29:42Z</time></trkpt><trkpt lat="45.90608210101021" lon="8.759677113780459"><ele>307.0</ele><time>2026-03-28T13:29:43Z</time></trkpt><trkpt lat="45.90615937791895" lon="8.759649474093258"><ele>309.0</ele><time>2026-03-28T13:29:45Z</time></trkpt><trkpt lat="45.906184041790425" lon="8.75976040471392"><ele>311.0</ele><time>2026-03-28T13:29:47Z</time></trkpt><trkpt lat="45.906226208576186" lon="8.759834367873493"><ele>313.0</ele><time>2026-03-28T13:30:05Z</time></trkpt><trkpt lat="45.90627139706242" lon="8.759925078171253"><ele>313.0</ele><time>2026-03-28T13:30:06Z</time></trkpt><trkpt lat="45.906315243324066" lon="8.760022983007026"><ele>313.0</ele><time>2026-03-28T13:30:07Z</time></trkpt><trkpt lat="45.90636627852545" lon="8.760138553749254"><ele>313.0</ele><time>2026-03-28T13:30:08Z</time></trkpt><trkpt lat="45.90641986955371" lon="8.760263182208625"><ele>313.0</ele><time>2026-03-28T13:30:09Z</time></trkpt><trkpt lat="45.90646779998146" lon="8.760372447983691"><ele>313.0</ele><time>2026-03-28T13:30:09.999Z</time></trkpt><trkpt lat="45.90651362484981" lon="8.760499191915235"><ele>311.75</ele><time>2026-03-28T13:30:10.999Z</time></trkpt><trkpt lat="45.906556119121326" lon="8.760642052852146"><ele>310.5</ele><time>2026-03-28T13:30:11.999Z</time></trkpt><trkpt lat="45.906601319574534" lon="8.76080639651764"><ele>309.25</ele><time>2026-03-28T13:30:12.999Z</time></trkpt><trkpt lat="45.90665729080365" lon="8.760970805964961"><ele>308.0</ele><time>2026-03-28T13:30:13.999Z</time></trkpt><trkpt lat="45.90672542228768" lon="8.76112375856887"><ele>311.0</ele><time>2026-03-28T13:30:14.999Z</time></trkpt><trkpt lat="45.90679278339971" lon="8.761269884037945"><ele>314.0</ele><time>2026-03-28T13:30:15.999Z</time></trkpt><trkpt lat="45.906855249685165" lon="8.761417311912712"><ele>317.0</ele><time>2026-03-28T13:30:16.999Z</time></trkpt><trkpt lat="45.90690225177571" lon="8.761557520940292"><ele>320.0</ele><time>2026-03-28T13:30:17.999Z</time></trkpt><trkpt lat="45.906950806060316" lon="8.761684823484345"><ele>320.0</ele><time>2026-03-28T13:30:18.999Z</time></trkpt><trkpt lat="45.90701795319317" lon="8.761810576208317"><ele>320.0</ele><time>2026-03-28T13:30:19.999Z</time></trkpt><trkpt lat="45.90711088008218" lon="8.761936139225499"><ele>320.0</ele><time>2026-03-28T13:30:20.999Z</time></trkpt><trkpt lat="45.907210958361055" lon="8.762066193080589"><ele>320.0</ele><time>2026-03-28T13:30:21.999Z</time></trkpt><trkpt lat="45.90729346741472" lon="8.762192195304955"><ele>319.0</ele><time>2026-03-28T13:30:22.999Z</time></trkpt><trkpt lat="45.907354687510704" lon="8.762320658752692"><ele>318.0</ele><time>2026-03-28T13:30:23.999Z</time></trkpt><trkpt lat="45.907396575434184" lon="8.762452274668595"><ele>317.0</ele><time>2026-03-28T13:30:24.999Z</time></trkpt><trkpt lat="45.90744274844835" lon="8.762555457138927"><ele>316.0</ele><time>2026-03-28T13:30:25.999Z</time></trkpt><trkpt lat="45.907504033584424" lon="8.762604293202614"><ele>315.0</ele><time>2026-03-28T13:30:26.999Z</time></trkpt><trkpt lat="45.90757287042222" lon="8.762628709504375"><ele>314.0</ele><time>2026-03-28T13:30:27.999Z</time></trkpt><trkpt lat="45.90764833088386" lon="8.762642102807236"><ele>316.0</ele><time>2026-03-28T13:30:28.999Z</time></trkpt><trkpt lat="45.90772803099829" lon="8.76263709329288"><ele>318.0</ele><time>2026-03-28T13:30:30Z</time></trkpt><trkpt lat="45.90781992958897" lon="8.762632656852851"><ele>320.0</ele><time>2026-03-28T13:30:31Z</time></trkpt><trkpt lat="45.90790910554877" lon="8.762647584035367"><ele>322.0</ele><time>2026-03-28T13:30:32Z</time></trkpt><trkpt lat="45.907996860609636" lon="8.762645377460153"><ele>324.0</ele><time>2026-03-28T13:30:33Z</time></trkpt><trkpt lat="45.90808635220967" lon="8.762605536608957"><ele>326.0</ele><time>2026-03-28T13:30:34Z</time></trkpt><trkpt lat="45.90816304070439" lon="8.762548016827107"><ele>326.0</ele><time>2026-03-28T13:30:35Z</time></trkpt><trkpt lat="45.9082241937266" lon="8.762494654882415"><ele>326.0</ele><time>2026-03-28T13:30:36Z</time></trkpt><trkpt lat="45.90821466465707" lon="8.762326467164742"><ele>326.0</ele><time>2026-03-28T13:30:38Z</time></trkpt><trkpt lat="45.908177297624206" lon="8.762238844015194"><ele>326.0</ele><time>2026-03-28T13:30:43Z</time></trkpt><trkpt lat="45.9082572820123" lon="8.762117222424425"><ele>326.0</ele><time>2026-03-28T13:30:45Z</time></trkpt><trkpt lat="45.908334382897806" lon="8.762046095267696"><ele>326.0</ele><time>2026-03-28T13:30:46Z</time></trkpt><trkpt lat="45.90840935117968" lon="8.76198509318623"><ele>326.0</ele><time>2026-03-28T13:30:47Z</time></trkpt><trkpt lat="45.9084783965231" lon="8.761944253959696"><ele>326.0</ele><time>2026-03-28T13:30:48Z</time></trkpt><trkpt lat="45.908554049856306" lon="8.761889839375062"><ele>326.0</ele><time>2026-03-28T13:30:49Z</time></trkpt><trkpt lat="45.90863336753369" lon="8.761815398238683"><ele>326.0</ele><time>2026-03-28T13:30:51Z</time></trkpt><trkpt lat="45.908675465463865" lon="8.76170495803717"><ele>326.0</ele><time>2026-03-28T13:30:53Z</time></trkpt><trkpt lat="45.90870847628924" lon="8.761622706881301"><ele>328.20000000000005</ele><time>2026-03-28T13:30:54Z</time></trkpt><trkpt lat="45.908751744072134" lon="8.76154626111244"><ele>330.40000000000003</ele><time>2026-03-28T13:30:55Z</time></trkpt><trkpt lat="45.90883192000172" lon="8.761437073157278"><ele>332.6</ele><time>2026-03-28T13:30:57Z</time></trkpt><trkpt lat="45.908930811334955" lon="8.761400348362717"><ele>334.8</ele><time>2026-03-28T13:30:59Z</time></trkpt><trkpt lat="45.90904453058229" lon="8.761443465340346"><ele>337.0</ele><time>2026-03-28T13:31:01Z</time></trkpt><trkpt lat="45.90910444685477" lon="8.761477113291336"><ele>337.0</ele><time>2026-03-28T13:31:02Z</time></trkpt><trkpt lat="45.90919490290857" lon="8.761579255213823"><ele>337.0</ele><time>2026-03-28T13:31:04Z</time></trkpt><trkpt lat="45.909274750492465" lon="8.761479378672243"><ele>337.0</ele><time>2026-03-28T13:31:07Z</time></trkpt><trkpt lat="45.909357797251054" lon="8.761424698084674"><ele>337.0</ele><time>2026-03-28T13:31:09Z</time></trkpt><trkpt lat="45.909424753556955" lon="8.761385374691036"><ele>337.0</ele><time>2026-03-28T13:31:10Z</time></trkpt><trkpt lat="45.90949685275552" lon="8.76140946621422"><ele>337.20000000000005</ele><time>2026-03-28T13:31:12Z</time></trkpt><trkpt lat="45.90954539448887" lon="8.761482755521646"><ele>337.4</ele><time>2026-03-28T13:31:18Z</time></trkpt><trkpt lat="45.909630706814035" lon="8.761608912500785"><ele>337.6</ele><time>2026-03-28T13:31:20Z</time></trkpt><trkpt lat="45.90966898046241" lon="8.7617109926675"><ele>337.79999999999995</ele><time>2026-03-28T13:31:21Z</time></trkpt><trkpt lat="45.90973981438047" lon="8.761804919568078"><ele>338.0</ele><time>2026-03-28T13:31:22Z</time></trkpt><trkpt lat="45.90981771538738" lon="8.761906880067455"><ele>338.6666666666667</ele><time>2026-03-28T13:31:23Z</time></trkpt><trkpt lat="45.90986079976072" lon="8.762006827150335"><ele>339.33333333333337</ele><time>2026-03-28T13:31:24Z</time></trkpt><trkpt lat="45.90988255881688" lon="8.76211398001669"><ele>340.0</ele><time>2026-03-28T13:31:25Z</time></trkpt><trkpt lat="45.909918974731774" lon="8.762223660425233"><ele>340.6666666666667</ele><time>2026-03-28T13:31:26Z</time></trkpt><trkpt lat="45.90995941005505" lon="8.762307942841035"><ele>341.3333333333333</ele><time>2026-03-28T13:31:27Z</time></trkpt><trkpt lat="45.91002104285926" lon="8.762373993696563"><ele>342.0</ele><time>2026-03-28T13:31:28Z</time></trkpt><trkpt lat="45.91008651723023" lon="8.762443116964256"><ele>340.8</ele><time>2026-03-28T13:31:29Z</time></trkpt><trkpt lat="45.91013352761184" lon="8.762529529525716"><ele>339.6</ele><time>2026-03-28T13:31:30Z</time></trkpt><trkpt lat="45.91020591746165" lon="8.762611303775536"><ele>338.40000000000003</ele><time>2026-03-28T13:31:31Z</time></trkpt><trkpt lat="45.9102736827512" lon="8.762694301545004"><ele>337.20000000000005</ele><time>2026-03-28T13:31:32Z</time></trkpt><trkpt lat="45.91034590565382" lon="8.762795683868609"><ele>336.0</ele><time>2026-03-28T13:31:33Z</time></trkpt><trkpt lat="45.91042548941658" lon="8.762907264401557"><ele>336.0</ele><time>2026-03-28T13:31:34Z</time></trkpt><trkpt lat="45.91050263100764" lon="8.763003219895953"><ele>336.0</ele><time>2026-03-28T13:31:35Z</time></trkpt><trkpt lat="45.91059516948187" lon="8.763088419251135"><ele>336.0</ele><time>2026-03-28T13:31:36Z</time></trkpt><trkpt lat="45.91066791485331" lon="8.763154233318573"><ele>336.0</ele><time>2026-03-28T13:31:37Z</time></trkpt><trkpt lat="45.910714310280795" lon="8.763247827652204"><ele>336.0</ele><time>2026-03-28T13:31:38Z</time></trkpt><trkpt lat="45.91078326508172" lon="8.763348225541602"><ele>336.0</ele><time>2026-03-28T13:31:39Z</time></trkpt><trkpt lat="45.910845709226" lon="8.763480394811111"><ele>336.0</ele><time>2026-03-28T13:31:40Z</time></trkpt><trkpt lat="45.910910835764504" lon="8.76361413945936"><ele>336.0</ele><time>2026-03-28T13:31:41Z</time></trkpt><trkpt lat="45.91099674622382" lon="8.763789113982"><ele>336.0</ele><time>2026-03-28T13:31:42Z</time></trkpt><trkpt lat="45.91106989723497" lon="8.76394200418865"><ele>335.5</ele><time>2026-03-28T13:31:43Z</time></trkpt><trkpt lat="45.91112433047083" lon="8.764058006726755"><ele>335.0</ele><time>2026-03-28T13:31:44.001Z</time></trkpt><trkpt lat="45.91116661109445" lon="8.764152098442404"><ele>334.5</ele><time>2026-03-28T13:31:45.001Z</time></trkpt><trkpt lat="45.911197964825" lon="8.764266842479348"><ele>334.0</ele><time>2026-03-28T13:31:46.001Z</time></trkpt><trkpt lat="45.91120985871762" lon="8.76440607443588"><ele>333.5</ele><time>2026-03-28T13:31:47.001Z</time></trkpt><trkpt lat="45.91120502039975" lon="8.764525852807799"><ele>333.0</ele><time>2026-03-28T13:31:48.001Z</time></trkpt><trkpt lat="45.9111869581908" lon="8.76462528107139"><ele>335.4</ele><time>2026-03-28T13:31:49.001Z</time></trkpt><trkpt lat="45.91123954647791" lon="8.764784131708838"><ele>337.79999999999995</ele><time>2026-03-28T13:31:51.001Z</time></trkpt><trkpt lat="45.91126528382884" lon="8.76490011723277"><ele>340.2</ele><time>2026-03-28T13:31:52.001Z</time></trkpt><trkpt lat="45.91128879487556" lon="8.765018064291509"><ele>342.6</ele><time>2026-03-28T13:31:53.001Z</time></trkpt><trkpt lat="45.911345737808546" lon="8.765110565098153"><ele>345.0</ele><time>2026-03-28T13:31:54.001Z</time></trkpt><trkpt lat="45.911405228413884" lon="8.765181375496597"><ele>345.6</ele><time>2026-03-28T13:31:55.001Z</time></trkpt><trkpt lat="45.91148487142163" lon="8.765257993983232"><ele>346.2</ele><time>2026-03-28T13:31:56.001Z</time></trkpt><trkpt lat="45.911580835056576" lon="8.765325623215938"><ele>346.79999999999995</ele><time>2026-03-28T13:31:57.001Z</time></trkpt><trkpt lat="45.91168688366628" lon="8.765379831512654"><ele>347.4</ele><time>2026-03-28T13:31:58.001Z</time></trkpt><trkpt lat="45.91180147023289" lon="8.7654343792955"><ele>348.0</ele><time>2026-03-28T13:31:59.001Z</time></trkpt><trkpt lat="45.911876701181235" lon="8.765481837240602"><ele>346.2</ele><time>2026-03-28T13:32:00.001Z</time></trkpt><trkpt lat="45.91195014618839" lon="8.765634802455288"><ele>344.4</ele><time>2026-03-28T13:32:02.001Z</time></trkpt><trkpt lat="45.9120214039706" lon="8.765782639848185"><ele>342.59999999999997</ele><time>2026-03-28T13:32:04.001Z</time></trkpt><trkpt lat="45.91204873747408" lon="8.765889271296178"><ele>340.79999999999995</ele><time>2026-03-28T13:32:05.001Z</time></trkpt><trkpt lat="45.912080264573994" lon="8.766003831139287"><ele>339.0</ele><time>2026-03-28T13:32:06.001Z</time></trkpt><trkpt lat="45.91211468577347" lon="8.76608805797177"><ele>339.0</ele><time>2026-03-28T13:32:07.001Z</time></trkpt><trkpt lat="45.91216853645366" lon="8.766183744131151"><ele>339.0</ele><time>2026-03-28T13:32:08.001Z</time></trkpt><trkpt lat="45.912209434595454" lon="8.76626308893034"><ele>339.0</ele><time>2026-03-28T13:32:09.001Z</time></trkpt><trkpt lat="45.9122449225069" lon="8.766341801231864"><ele>339.0</ele><time>2026-03-28T13:32:10.001Z</time></trkpt><trkpt lat="45.912325851809086" lon="8.766434912363843"><ele>339.0</ele><time>2026-03-28T13:32:11.001Z</time></trkpt><trkpt lat="45.912383454545434" lon="8.76655449872683"><ele>339.0</ele><time>2026-03-28T13:32:12.001Z</time></trkpt><trkpt lat="45.91241402912544" lon="8.766686564726806"><ele>339.0</ele><time>2026-03-28T13:32:13.001Z</time></trkpt><trkpt lat="45.91244189584634" lon="8.766832469690122"><ele>339.0</ele><time>2026-03-28T13:32:14.001Z</time></trkpt><trkpt lat="45.912482387088296" lon="8.76696787589386"><ele>339.0</ele><time>2026-03-28T13:32:15.001Z</time></trkpt><trkpt lat="45.912545401047055" lon="8.767105112827082"><ele>339.0</ele><time>2026-03-28T13:32:16Z</time></trkpt><trkpt lat="45.91263106239247" lon="8.767262092810562"><ele>337.4</ele><time>2026-03-28T13:32:17Z</time></trkpt><trkpt lat="45.91271745492488" lon="8.767396282791209"><ele>335.79999999999995</ele><time>2026-03-28T13:32:18Z</time></trkpt><trkpt lat="45.9127814602535" lon="8.767506918904411"><ele>334.20000000000005</ele><time>2026-03-28T13:32:19Z</time></trkpt><trkpt lat="45.91284912223989" lon="8.767591436416108"><ele>332.6</ele><time>2026-03-28T13:32:20Z</time></trkpt><trkpt lat="45.91290224057004" lon="8.767686679292602"><ele>331.0</ele><time>2026-03-28T13:32:21Z</time></trkpt><trkpt lat="45.912940178606576" lon="8.767784406454071"><ele>331.0</ele><time>2026-03-28T13:32:22Z</time></trkpt><trkpt lat="45.91296920324253" lon="8.767871872084573"><ele>331.0</ele><time>2026-03-28T13:32:23Z</time></trkpt><trkpt lat="45.9130326248887" lon="8.767914200198042"><ele>331.0</ele><time>2026-03-28T13:32:27Z</time></trkpt><trkpt lat="45.91309974956349" lon="8.767867228925992"><ele>331.0</ele><time>2026-03-28T13:32:52Z</time></trkpt><trkpt lat="45.91315275768539" lon="8.7677974452404"><ele>331.0</ele><time>2026-03-28T13:32:53Z</time></trkpt><trkpt lat="45.91321507988312" lon="8.767686731206508"><ele>331.0</ele><time>2026-03-28T13:32:54Z</time></trkpt><trkpt lat="45.913276127200376" lon="8.767570069877255"><ele>331.0</ele><time>2026-03-28T13:32:55Z</time></trkpt><trkpt lat="45.91334380093851" lon="8.7674955765536"><ele>331.0</ele><time>2026-03-28T13:32:56Z</time></trkpt><trkpt lat="45.913439871010496" lon="8.767414431067941"><ele>331.0</ele><time>2026-03-28T13:32:58Z</time></trkpt><trkpt lat="45.913438459385695" lon="8.767248091439754"><ele>331.0</ele><time>2026-03-28T13:33:00Z</time></trkpt><trkpt lat="45.91338879650313" lon="8.767087402278186"><ele>331.0</ele><time>2026-03-28T13:33:01Z</time></trkpt><trkpt lat="45.913392021855394" lon="8.76697819331812"><ele>327.16666666666663</ele><time>2026-03-28T13:33:02Z</time></trkpt><trkpt lat="45.913466647904144" lon="8.766892206682572"><ele>323.3333333333333</ele><time>2026-03-28T13:33:04.001Z</time></trkpt><trkpt lat="45.91352824074929" lon="8.766924080255734"><ele>319.5</ele><time>2026-03-28T13:33:05.001Z</time></trkpt><trkpt lat="45.91357258196344" lon="8.767004984127823"><ele>315.6666666666667</ele><time>2026-03-28T13:33:06.001Z</time></trkpt><trkpt lat="45.913580261496236" lon="8.767147402827227"><ele>311.83333333333337</ele><time>2026-03-28T13:33:07.001Z</time></trkpt><trkpt lat="45.9136022450776" lon="8.76726213192841"><ele>308.0</ele><time>2026-03-28T13:33:08.001Z</time></trkpt><trkpt lat="45.91365742301296" lon="8.767408218379137"><ele>308.0</ele><time>2026-03-28T13:33:10.001Z</time></trkpt><trkpt lat="45.91371850099573" lon="8.767459429976718"><ele>308.0</ele><time>2026-03-28T13:33:15.001Z</time></trkpt><trkpt lat="45.913761882889716" lon="8.76756402419453"><ele>308.0</ele><time>2026-03-28T13:33:36.001Z</time></trkpt><trkpt lat="45.91378395312689" lon="8.767667080825394"><ele>308.0</ele><time>2026-03-28T13:33:42.001Z</time></trkpt><trkpt lat="45.91386498447492" lon="8.767729247170594"><ele>308.0</ele><time>2026-03-28T13:33:44.001Z</time></trkpt><trkpt lat="45.91393504700076" lon="8.767746586205494"><ele>308.0</ele><time>2026-03-28T13:33:45.001Z</time></trkpt><trkpt lat="45.914038212754484" lon="8.767738665579218"><ele>307.4</ele><time>2026-03-28T13:33:47.001Z</time></trkpt><trkpt lat="45.914128569185344" lon="8.767766045715428"><ele>306.8</ele><time>2026-03-28T13:33:49.001Z</time></trkpt><trkpt lat="45.91417765910184" lon="8.767825256335206"><ele>306.2</ele><time>2026-03-28T13:33:50.001Z</time></trkpt><trkpt lat="45.914239786180396" lon="8.767924346232755"><ele>305.6</ele><time>2026-03-28T13:33:51.001Z</time></trkpt><trkpt lat="45.914317406448795" lon="8.768037257179083"><ele>305.0</ele><time>2026-03-28T13:33:52.001Z</time></trkpt><trkpt lat="45.91441445693967" lon="8.768146196210054"><ele>303.33333333333337</ele><time>2026-03-28T13:33:53.001Z</time></trkpt><trkpt lat="45.91449798337302" lon="8.76822864839979"><ele>301.6666666666667</ele><time>2026-03-28T13:33:54.001Z</time></trkpt><trkpt lat="45.91457102496891" lon="8.768295129256298"><ele>300.0</ele><time>2026-03-28T13:33:55.001Z</time></trkpt><trkpt lat="45.914644930251946" lon="8.768343992860215"><ele>298.3333333333333</ele><time>2026-03-28T13:33:56.001Z</time></trkpt><trkpt lat="45.91470927026257" lon="8.768385418745273"><ele>296.66666666666663</ele><time>2026-03-28T13:33:57.001Z</time></trkpt><trkpt lat="45.91479370343898" lon="8.768441265194177"><ele>295.0</ele><time>2026-03-28T13:33:59.001Z</time></trkpt><trkpt lat="45.91486470694357" lon="8.768444539200745"><ele>295.0</ele><time>2026-03-28T13:34:01.001Z</time></trkpt><trkpt lat="45.914929696185126" lon="8.768478277448626"><ele>295.0</ele><time>2026-03-28T13:34:03.001Z</time></trkpt><trkpt lat="45.91496083833834" lon="8.768561844596695"><ele>295.0</ele><time>2026-03-28T13:34:05.001Z</time></trkpt><trkpt lat="45.91494742838557" lon="8.76866922394572"><ele>295.0</ele><time>2026-03-28T13:34:08.001Z</time></trkpt><trkpt lat="45.91497956389729" lon="8.76878052279443"><ele>295.0</ele><time>2026-03-28T13:34:19.001Z</time></trkpt><trkpt lat="45.91508149711331" lon="8.768926938125038"><ele>295.0</ele><time>2026-03-28T13:34:21.001Z</time></trkpt><trkpt lat="45.91512104168535" lon="8.769012766689233"><ele>294.2</ele><time>2026-03-28T13:34:22.001Z</time></trkpt><trkpt lat="45.91519859292447" lon="8.769125539398658"><ele>293.4</ele><time>2026-03-28T13:34:24.001Z</time></trkpt><trkpt lat="45.91529421280094" lon="8.769210465274268"><ele>292.6</ele><time>2026-03-28T13:34:26.001Z</time></trkpt><trkpt lat="45.91532238133829" lon="8.769370818021965"><ele>291.8</ele><time>2026-03-28T13:34:28.001Z</time></trkpt><trkpt lat="45.91535015795677" lon="8.769471990954596"><ele>291.0</ele><time>2026-03-28T13:34:30.001Z</time></trkpt><trkpt lat="45.9154206044304" lon="8.769535364478708"><ele>291.0</ele><time>2026-03-28T13:34:31.001Z</time></trkpt><trkpt lat="45.91550732095966" lon="8.769608876952349"><ele>291.0</ele><time>2026-03-28T13:34:32.001Z</time></trkpt><trkpt lat="45.915575342858745" lon="8.76966915469342"><ele>291.0</ele><time>2026-03-28T13:34:33.001Z</time></trkpt><trkpt lat="45.91566523517765" lon="8.769725870205097"><ele>291.0</ele><time>2026-03-28T13:34:35.001Z</time></trkpt><trkpt lat="45.91573046657595" lon="8.769757927790153"><ele>291.0</ele><time>2026-03-28T13:34:37.001Z</time></trkpt><trkpt lat="45.91578833925953" lon="8.769859185040923"><ele>291.0</ele><time>2026-03-28T13:35:29.001Z</time></trkpt><trkpt lat="45.91583291183721" lon="8.76992799666495"><ele>291.0</ele><time>2026-03-28T13:35:30.001Z</time></trkpt><trkpt lat="45.91587029597731" lon="8.770027836391698"><ele>291.0</ele><time>2026-03-28T13:35:31.001Z</time></trkpt><trkpt lat="45.91592381923944" lon="8.770132119433587"><ele>291.0</ele><time>2026-03-28T13:35:32.001Z</time></trkpt><trkpt lat="45.915989949572165" lon="8.77026487685644"><ele>291.0</ele><time>2026-03-28T13:35:34.001Z</time></trkpt><trkpt lat="45.91611664421112" lon="8.770244452163226"><ele>291.0</ele><time>2026-03-28T13:35:36.001Z</time></trkpt><trkpt lat="45.916192404673254" lon="8.77016559193927"><ele>290.0</ele><time>2026-03-28T13:35:37.001Z</time></trkpt><trkpt lat="45.91628292432123" lon="8.770074275621448"><ele>289.0</ele><time>2026-03-28T13:35:38.001Z</time></trkpt><trkpt lat="45.91638565801256" lon="8.769975237655506"><ele>288.0</ele><time>2026-03-28T13:35:39.001Z</time></trkpt><trkpt lat="45.91650149813002" lon="8.769864329390446"><ele>287.0</ele><time>2026-03-28T13:35:40.001Z</time></trkpt><trkpt lat="45.91663300836718" lon="8.769751581680985"><ele>286.0</ele><time>2026-03-28T13:35:41.001Z</time></trkpt><trkpt lat="45.91675650149408" lon="8.769651203896215"><ele>285.0</ele><time>2026-03-28T13:35:42.001Z</time></trkpt><trkpt lat="45.916868570282425" lon="8.769557029939792"><ele>284.0</ele><time>2026-03-28T13:35:43.001Z</time></trkpt><trkpt lat="45.91699212753927" lon="8.7694656675575"><ele>283.0</ele><time>2026-03-28T13:35:44.001Z</time></trkpt><trkpt lat="45.91711827405736" lon="8.769346888179323"><ele>282.66666666666663</ele><time>2026-03-28T13:35:45.001Z</time></trkpt><trkpt lat="45.9172560111412" lon="8.76922509028854"><ele>282.3333333333333</ele><time>2026-03-28T13:35:46.001Z</time></trkpt><trkpt lat="45.91739323033679" lon="8.769116604248028"><ele>282.0</ele><time>2026-03-28T13:35:47.001Z</time></trkpt><trkpt lat="45.91751727593733" lon="8.769026961108516"><ele>280.2</ele><time>2026-03-28T13:35:48.001Z</time></trkpt><trkpt lat="45.917640113302994" lon="8.768959512085525"><ele>278.4</ele><time>2026-03-28T13:35:49.001Z</time></trkpt><trkpt lat="45.917767410013646" lon="8.76893542611573"><ele>276.6</ele><time>2026-03-28T13:35:50.001Z</time></trkpt><trkpt lat="45.917870480862824" lon="8.768918128055555"><ele>274.8</ele><time>2026-03-28T13:35:51.001Z</time></trkpt><trkpt lat="45.917949940042675" lon="8.768922618107652"><ele>273.0</ele><time>2026-03-28T13:35:52.001Z</time></trkpt><trkpt lat="45.91801245362542" lon="8.76897518520286"><ele>273.0</ele><time>2026-03-28T13:35:53.001Z</time></trkpt><trkpt lat="45.91808470805193" lon="8.769087020890131"><ele>273.0</ele><time>2026-03-28T13:35:54.001Z</time></trkpt><trkpt lat="45.91818798526009" lon="8.769224744241857"><ele>273.0</ele><time>2026-03-28T13:35:55.001Z</time></trkpt><trkpt lat="45.918274626617055" lon="8.769338742223923"><ele>273.0</ele><time>2026-03-28T13:35:56.001Z</time></trkpt><trkpt lat="45.91833705789908" lon="8.769461445840205"><ele>273.0</ele><time>2026-03-28T13:35:57.001Z</time></trkpt><trkpt lat="45.91836927673667" lon="8.769580359994343"><ele>273.0</ele><time>2026-03-28T13:35:58.001Z</time></trkpt><trkpt lat="45.91838697682705" lon="8.769676170894863"><ele>273.0</ele><time>2026-03-28T13:35:59.001Z</time></trkpt><trkpt lat="45.91844112116392" lon="8.769754227927978"><ele>273.0</ele><time>2026-03-28T13:36:00.001Z</time></trkpt><trkpt lat="45.91853283722777" lon="8.76981062237966"><ele>273.0</ele><time>2026-03-28T13:36:01.001Z</time></trkpt><trkpt lat="45.91865473361635" lon="8.76983640930491"><ele>271.6</ele><time>2026-03-28T13:36:02.001Z</time></trkpt><trkpt lat="45.91876607680062" lon="8.769873406423025"><ele>270.20000000000005</ele><time>2026-03-28T13:36:03.001Z</time></trkpt><trkpt lat="45.91885949192199" lon="8.769913741243343"><ele>268.8</ele><time>2026-03-28T13:36:04.001Z</time></trkpt><trkpt lat="45.9189529892806" lon="8.769956587862131"><ele>267.40000000000003</ele><time>2026-03-28T13:36:05.001Z</time></trkpt><trkpt lat="45.919060123781136" lon="8.76999646965093"><ele>266.0</ele><time>2026-03-28T13:36:06.001Z</time></trkpt><trkpt lat="45.91917356429761" lon="8.770032458501696"><ele>264.75</ele><time>2026-03-28T13:36:07.001Z</time></trkpt><trkpt lat="45.919280332743625" lon="8.770054162360044"><ele>263.5</ele><time>2026-03-28T13:36:08.001Z</time></trkpt><trkpt lat="45.91938675890483" lon="8.770074820762257"><ele>262.25</ele><time>2026-03-28T13:36:09.001Z</time></trkpt><trkpt lat="45.91950775511942" lon="8.770103894497817"><ele>261.0</ele><time>2026-03-28T13:36:10.001Z</time></trkpt><trkpt lat="45.91962782740902" lon="8.770126070883945"><ele>261.0</ele><time>2026-03-28T13:36:11.001Z</time></trkpt><trkpt lat="45.919738393950716" lon="8.770144725502037"><ele>261.0</ele><time>2026-03-28T13:36:12.001Z</time></trkpt><trkpt lat="45.919862239787165" lon="8.770154122989803"><ele>261.0</ele><time>2026-03-28T13:36:13.001Z</time></trkpt><trkpt lat="45.91998209905545" lon="8.77017235976772"><ele>261.0</ele><time>2026-03-28T13:36:14.001Z</time></trkpt><trkpt lat="45.920087934150615" lon="8.77019708761412"><ele>260.6666666666667</ele><time>2026-03-28T13:36:15.001Z</time></trkpt><trkpt lat="45.920187626780994" lon="8.770225182223058"><ele>260.3333333333333</ele><time>2026-03-28T13:36:16.001Z</time></trkpt><trkpt lat="45.92026435804687" lon="8.770232961711113"><ele>260.0</ele><time>2026-03-28T13:36:17.001Z</time></trkpt><trkpt lat="45.92035443436854" lon="8.77024376655742"><ele>259.66666666666663</ele><time>2026-03-28T13:36:19.001Z</time></trkpt><trkpt lat="45.92042390849963" lon="8.770261404621918"><ele>259.3333333333333</ele><time>2026-03-28T13:36:26.001Z</time></trkpt><trkpt lat="45.92049143054081" lon="8.770274472923324"><ele>259.0</ele><time>2026-03-28T13:36:27.001Z</time></trkpt><trkpt lat="45.92059208968869" lon="8.770282248655546"><ele>259.0</ele><time>2026-03-28T13:36:28.001Z</time></trkpt><trkpt lat="45.92071472259155" lon="8.770284791986105"><ele>259.0</ele><time>2026-03-28T13:36:29.001Z</time></trkpt><trkpt lat="45.920851100569166" lon="8.770307186282103"><ele>259.0</ele><time>2026-03-28T13:36:30.001Z</time></trkpt><trkpt lat="45.920994133249984" lon="8.770343961611866"><ele>259.0</ele><time>2026-03-28T13:36:31.001Z</time></trkpt><trkpt lat="45.92112682788808" lon="8.770380650657977"><ele>258.59999999999997</ele><time>2026-03-28T13:36:32.001Z</time></trkpt><trkpt lat="45.921240196475644" lon="8.77039999632445"><ele>258.2</ele><time>2026-03-28T13:36:33.001Z</time></trkpt><trkpt lat="45.92134971022729" lon="8.77044325062234"><ele>257.79999999999995</ele><time>2026-03-28T13:36:34.001Z</time></trkpt><trkpt lat="45.921460090532634" lon="8.770493982325194"><ele>257.4</ele><time>2026-03-28T13:36:35.001Z</time></trkpt><trkpt lat="45.92155992849751" lon="8.770524185819118"><ele>257.0</ele><time>2026-03-28T13:36:36.001Z</time></trkpt><trkpt lat="45.921639376472406" lon="8.770521803473702"><ele>257.0</ele><time>2026-03-28T13:36:37.001Z</time></trkpt><trkpt lat="45.92171161730076" lon="8.770504753264204"><ele>257.0</ele><time>2026-03-28T13:36:38.001Z</time></trkpt><trkpt lat="45.921788598808554" lon="8.770479697687009"><ele>257.0</ele><time>2026-03-28T13:36:39.001Z</time></trkpt><trkpt lat="45.92186303298617" lon="8.770449007576216"><ele>257.0</ele><time>2026-03-28T13:36:40.001Z</time></trkpt><trkpt lat="45.92193686402348" lon="8.770401714881926"><ele>257.0</ele><time>2026-03-28T13:36:41.001Z</time></trkpt><trkpt lat="45.92199941489808" lon="8.770352323513398"><ele>257.0</ele><time>2026-03-28T13:36:42.001Z</time></trkpt><trkpt lat="45.92206367283739" lon="8.77030015375268"><ele>256.8</ele><time>2026-03-28T13:36:43.001Z</time></trkpt><trkpt lat="45.92214438558745" lon="8.770242999381571"><ele>256.6</ele><time>2026-03-28T13:36:44.001Z</time></trkpt><trkpt lat="45.92224025182525" lon="8.770203376337836"><ele>256.40000000000003</ele><time>2026-03-28T13:36:45.001Z</time></trkpt><trkpt lat="45.92234330332765" lon="8.770176872711824"><ele>256.2</ele><time>2026-03-28T13:36:46.001Z</time></trkpt><trkpt lat="45.922446079900176" lon="8.77016531443123"><ele>256.0</ele><time>2026-03-28T13:36:47.001Z</time></trkpt><trkpt lat="45.92254516115902" lon="8.77015081884858"><ele>256.0</ele><time>2026-03-28T13:36:48.001Z</time></trkpt><trkpt lat="45.92265111891137" lon="8.770141620277897"><ele>256.0</ele><time>2026-03-28T13:36:49.001Z</time></trkpt><trkpt lat="45.92275915391635" lon="8.770141760536939"><ele>256.0</ele><time>2026-03-28T13:36:50.001Z</time></trkpt><trkpt lat="45.92287238211543" lon="8.770157545839066"><ele>256.0</ele><time>2026-03-28T13:36:51.001Z</time></trkpt><trkpt lat="45.92298636129479" lon="8.77016702745839"><ele>256.0</ele><time>2026-03-28T13:36:52.001Z</time></trkpt><trkpt lat="45.92309789344966" lon="8.770155437114719"><ele>256.0</ele><time>2026-03-28T13:36:53.001Z</time></trkpt><trkpt lat="45.92321100443155" lon="8.770139192130603"><ele>256.0</ele><time>2026-03-28T13:36:54.001Z</time></trkpt><trkpt lat="45.92332853166201" lon="8.770124153013585"><ele>256.0</ele><time>2026-03-28T13:36:55.001Z</time></trkpt><trkpt lat="45.92343556048474" lon="8.77010861741204"><ele>256.0</ele><time>2026-03-28T13:36:56.001Z</time></trkpt><trkpt lat="45.923537833802314" lon="8.770113926540906"><ele>256.0</ele><time>2026-03-28T13:36:57.001Z</time></trkpt><trkpt lat="45.923636009150115" lon="8.770105762791712"><ele>256.5</ele><time>2026-03-28T13:36:58.001Z</time></trkpt><trkpt lat="45.923718813327646" lon="8.770084873858242"><ele>257.0</ele><time>2026-03-28T13:36:59.001Z</time></trkpt><trkpt lat="45.923789749678654" lon="8.77005071893892"><ele>257.5</ele><time>2026-03-28T13:37:00.001Z</time></trkpt><trkpt lat="45.92385661040884" lon="8.76997852465782"><ele>258.0</ele><time>2026-03-28T13:37:01.001Z</time></trkpt><trkpt lat="45.92391449647823" lon="8.769892388575567"><ele>258.5</ele><time>2026-03-28T13:37:02.001Z</time></trkpt><trkpt lat="45.923964766070206" lon="8.769823121322622"><ele>259.0</ele><time>2026-03-28T13:37:03.001Z</time></trkpt><trkpt lat="45.92400783319213" lon="8.769743566332684"><ele>259.0</ele><time>2026-03-28T13:37:04.001Z</time></trkpt><trkpt lat="45.92406887456683" lon="8.769683723619424"><ele>259.0</ele><time>2026-03-28T13:37:05.001Z</time></trkpt><trkpt lat="45.92415008505488" lon="8.769649086003744"><ele>259.0</ele><time>2026-03-28T13:37:06.001Z</time></trkpt><trkpt lat="45.924239763651244" lon="8.769615572070474"><ele>259.0</ele><time>2026-03-28T13:37:07.001Z</time></trkpt><trkpt lat="45.924321335717366" lon="8.76955578708047"><ele>259.0</ele><time>2026-03-28T13:37:08.001Z</time></trkpt><trkpt lat="45.92439467519014" lon="8.769499594584252"><ele>259.0</ele><time>2026-03-28T13:37:09.001Z</time></trkpt><trkpt lat="45.92447631273509" lon="8.769456543888102"><ele>260.16666666666663</ele><time>2026-03-28T13:37:10.001Z</time></trkpt><trkpt lat="45.92456105599018" lon="8.769425605048676"><ele>261.3333333333333</ele><time>2026-03-28T13:37:11.001Z</time></trkpt><trkpt lat="45.924637198834596" lon="8.769365564268254"><ele>262.5</ele><time>2026-03-28T13:37:12.001Z</time></trkpt><trkpt lat="45.9247132456952" lon="8.769303880440322"><ele>263.6666666666667</ele><time>2026-03-28T13:37:13.001Z</time></trkpt><trkpt lat="45.92478918754883" lon="8.769267900175077"><ele>264.83333333333337</ele><time>2026-03-28T13:37:14.001Z</time></trkpt><trkpt lat="45.92487040316103" lon="8.76927761632027"><ele>266.0</ele><time>2026-03-28T13:37:15.001Z</time></trkpt><trkpt lat="45.92496119636214" lon="8.769285505540081"><ele>266.6</ele><time>2026-03-28T13:37:17.001Z</time></trkpt><trkpt lat="45.92505492549297" lon="8.769299478174238"><ele>267.20000000000005</ele><time>2026-03-28T13:37:20.001Z</time></trkpt><trkpt lat="45.92516070221484" lon="8.769331149932693"><ele>267.79999999999995</ele><time>2026-03-28T13:37:22.001Z</time></trkpt><trkpt lat="45.925233548689945" lon="8.769313615836863"><ele>268.4</ele><time>2026-03-28T13:37:23.001Z</time></trkpt><trkpt lat="45.9253369724208" lon="8.769324096964484"><ele>269.0</ele><time>2026-03-28T13:37:24.001Z</time></trkpt><trkpt lat="45.9254644750483" lon="8.769349840728621"><ele>269.8</ele><time>2026-03-28T13:37:25.001Z</time></trkpt><trkpt lat="45.92557442753527" lon="8.769356485772882"><ele>270.59999999999997</ele><time>2026-03-28T13:37:26.001Z</time></trkpt><trkpt lat="45.92566138567306" lon="8.769370824068902"><ele>271.4</ele><time>2026-03-28T13:37:27.001Z</time></trkpt><trkpt lat="45.92574699264373" lon="8.769381038826591"><ele>272.2</ele><time>2026-03-28T13:37:28.001Z</time></trkpt><trkpt lat="45.92585057938675" lon="8.769419556578518"><ele>273.0</ele><time>2026-03-28T13:37:29.001Z</time></trkpt><trkpt lat="45.92596081372123" lon="8.76948558145163"><ele>274.8</ele><time>2026-03-28T13:37:30.001Z</time></trkpt><trkpt lat="45.92605886773058" lon="8.76956295014225"><ele>276.6</ele><time>2026-03-28T13:37:31.001Z</time></trkpt><trkpt lat="45.926150938331745" lon="8.769589427050443"><ele>278.4</ele><time>2026-03-28T13:37:32.001Z</time></trkpt><trkpt lat="45.92624270850702" lon="8.769595151403061"><ele>280.2</ele><time>2026-03-28T13:37:33.001Z</time></trkpt><trkpt lat="45.92636755315895" lon="8.769601694642198"><ele>282.0</ele><time>2026-03-28T13:37:34.001Z</time></trkpt><trkpt lat="45.92652287996866" lon="8.769597827432337"><ele>282.0</ele><time>2026-03-28T13:37:35.001Z</time></trkpt><trkpt lat="45.92665268174843" lon="8.769612596592934"><ele>282.0</ele><time>2026-03-28T13:37:36.001Z</time></trkpt><trkpt lat="45.926751254458345" lon="8.769605690828168"><ele>282.0</ele><time>2026-03-28T13:37:37.001Z</time></trkpt><trkpt lat="45.92685771469562" lon="8.769595899557311"><ele>282.0</ele><time>2026-03-28T13:37:38.001Z</time></trkpt><trkpt lat="45.926954132755654" lon="8.76956366344631"><ele>282.0</ele><time>2026-03-28T13:37:39.001Z</time></trkpt><trkpt lat="45.9270356019934" lon="8.76952998028307"><ele>282.0</ele><time>2026-03-28T13:37:40.001Z</time></trkpt><trkpt lat="45.927139194145035" lon="8.769496712195368"><ele>282.0</ele><time>2026-03-28T13:37:41.001Z</time></trkpt><trkpt lat="45.927275199727795" lon="8.769443432555578"><ele>282.0</ele><time>2026-03-28T13:37:42.001Z</time></trkpt><trkpt lat="45.92741290331431" lon="8.769404173970782"><ele>282.0</ele><time>2026-03-28T13:37:43.001Z</time></trkpt><trkpt lat="45.92754157784534" lon="8.769407532664461"><ele>282.0</ele><time>2026-03-28T13:37:44.001Z</time></trkpt><trkpt lat="45.9276674857771" lon="8.769403416324971"><ele>282.0</ele><time>2026-03-28T13:37:45.001Z</time></trkpt><trkpt lat="45.92779147782364" lon="8.769366128118486"><ele>282.0</ele><time>2026-03-28T13:37:46.001Z</time></trkpt><trkpt lat="45.92790612031496" lon="8.76930815207459"><ele>282.0</ele><time>2026-03-28T13:37:47.001Z</time></trkpt><trkpt lat="45.928019902474674" lon="8.769282806907391"><ele>282.25</ele><time>2026-03-28T13:37:48.001Z</time></trkpt><trkpt lat="45.928149902964265" lon="8.76927089627674"><ele>282.5</ele><time>2026-03-28T13:37:49.001Z</time></trkpt><trkpt lat="45.92829072637675" lon="8.769256193805598"><ele>282.75</ele><time>2026-03-28T13:37:50.001Z</time></trkpt><trkpt lat="45.928404604605745" lon="8.76920863450394"><ele>283.0</ele><time>2026-03-28T13:37:51.001Z</time></trkpt><trkpt lat="45.92850452753401" lon="8.769164907087632"><ele>283.0</ele><time>2026-03-28T13:37:52.001Z</time></trkpt><trkpt lat="45.92859682261466" lon="8.769169505127367"><ele>283.0</ele><time>2026-03-28T13:37:53.001Z</time></trkpt><trkpt lat="45.92868740241979" lon="8.769214836447771"><ele>283.0</ele><time>2026-03-28T13:37:54.001Z</time></trkpt><trkpt lat="45.928796643064395" lon="8.769255843152157"><ele>283.0</ele><time>2026-03-28T13:37:55.001Z</time></trkpt><trkpt lat="45.928945722252394" lon="8.769298814043657"><ele>283.0</ele><time>2026-03-28T13:37:56.001Z</time></trkpt><trkpt lat="45.929094330849615" lon="8.76932779978786"><ele>283.0</ele><time>2026-03-28T13:37:57.001Z</time></trkpt><trkpt lat="45.92922357927291" lon="8.769325928503442"><ele>283.0</ele><time>2026-03-28T13:37:58.001Z</time></trkpt><trkpt lat="45.9293360574006" lon="8.769294992433851"><ele>283.0</ele><time>2026-03-28T13:37:59.001Z</time></trkpt><trkpt lat="45.929465099945254" lon="8.769230516317858"><ele>284.2</ele><time>2026-03-28T13:38:00.001Z</time></trkpt><trkpt lat="45.92958177405809" lon="8.769169931030754"><ele>285.4</ele><time>2026-03-28T13:38:01.001Z</time></trkpt><trkpt lat="45.929667969835435" lon="8.769116616242632"><ele>286.59999999999997</ele><time>2026-03-28T13:38:02.001Z</time></trkpt><trkpt lat="45.92975011412215" lon="8.769079260228535"><ele>287.8</ele><time>2026-03-28T13:38:03.001Z</time></trkpt><trkpt lat="45.929852594213585" lon="8.769049181888459"><ele>289.0</ele><time>2026-03-28T13:38:04.001Z</time></trkpt><trkpt lat="45.92997783705346" lon="8.769025485864223"><ele>290.2</ele><time>2026-03-28T13:38:05.001Z</time></trkpt><trkpt lat="45.93009336992255" lon="8.769011739927937"><ele>291.4</ele><time>2026-03-28T13:38:06.001Z</time></trkpt><trkpt lat="45.9301896910929" lon="8.768995607199482"><ele>292.6</ele><time>2026-03-28T13:38:07.001Z</time></trkpt><trkpt lat="45.930282688880624" lon="8.768972418267511"><ele>293.8</ele><time>2026-03-28T13:38:08.001Z</time></trkpt><trkpt lat="45.93037781380359" lon="8.76894535701589"><ele>295.0</ele><time>2026-03-28T13:38:09.001Z</time></trkpt><trkpt lat="45.93046603346436" lon="8.76891929946554"><ele>295.0</ele><time>2026-03-28T13:38:10.001Z</time></trkpt><trkpt lat="45.930533722376836" lon="8.76888890129929"><ele>295.0</ele><time>2026-03-28T13:38:11.001Z</time></trkpt><trkpt lat="45.930608485934876" lon="8.768874287205763"><ele>295.0</ele><time>2026-03-28T13:38:12.001Z</time></trkpt><trkpt lat="45.93067689525761" lon="8.768857490015137"><ele>295.0</ele><time>2026-03-28T13:38:13.001Z</time></trkpt><trkpt lat="45.930750104758346" lon="8.768832773963005"><ele>295.0</ele><time>2026-03-28T13:38:14.001Z</time></trkpt><trkpt lat="45.93083226160163" lon="8.768818522803672"><ele>295.0</ele><time>2026-03-28T13:38:15.001Z</time></trkpt><trkpt lat="45.93091442163675" lon="8.768808507695882"><ele>296.2</ele><time>2026-03-28T13:38:16.001Z</time></trkpt><trkpt lat="45.931007903418184" lon="8.768806780036059"><ele>297.4</ele><time>2026-03-28T13:38:17.001Z</time></trkpt><trkpt lat="45.931106536126244" lon="8.76880032293991"><ele>298.6</ele><time>2026-03-28T13:38:18.001Z</time></trkpt><trkpt lat="45.93123292518391" lon="8.768858863138373"><ele>299.8</ele><time>2026-03-28T13:38:19.001Z</time></trkpt><trkpt lat="45.93132004445018" lon="8.768907472734622"><ele>301.0</ele><time>2026-03-28T13:38:20.001Z</time></trkpt><trkpt lat="45.93140181509996" lon="8.768961649900197"><ele>301.0</ele><time>2026-03-28T13:38:21.001Z</time></trkpt><trkpt lat="45.93150035010691" lon="8.76898076526191"><ele>301.0</ele><time>2026-03-28T13:38:22.001Z</time></trkpt><trkpt lat="45.93159464538964" lon="8.768994235208101"><ele>301.0</ele><time>2026-03-28T13:38:23.001Z</time></trkpt><trkpt lat="45.93166875508906" lon="8.768971852251173"><ele>301.0</ele><time>2026-03-28T13:38:24.001Z</time></trkpt><trkpt lat="45.93174064590106" lon="8.76896834898195"><ele>301.0</ele><time>2026-03-28T13:38:25.001Z</time></trkpt><trkpt lat="45.93181730057854" lon="8.768972463047282"><ele>301.0</ele><time>2026-03-28T13:38:26.001Z</time></trkpt><trkpt lat="45.93189581860144" lon="8.768994108251489"><ele>301.3333333333333</ele><time>2026-03-28T13:38:27.001Z</time></trkpt><trkpt lat="45.93197756857092" lon="8.76903082040161"><ele>301.66666666666663</ele><time>2026-03-28T13:38:28.001Z</time></trkpt><trkpt lat="45.932058188380005" lon="8.769075485150779"><ele>302.0</ele><time>2026-03-28T13:38:29.001Z</time></trkpt><trkpt lat="45.93212586423882" lon="8.76917546778248"><ele>302.3333333333333</ele><time>2026-03-28T13:38:30.001Z</time></trkpt><trkpt lat="45.932194522163826" lon="8.769271873353862"><ele>302.6666666666667</ele><time>2026-03-28T13:38:31.001Z</time></trkpt><trkpt lat="45.932252828221976" lon="8.769330288316247"><ele>303.0</ele><time>2026-03-28T13:38:32.001Z</time></trkpt><trkpt lat="45.932349420464206" lon="8.769403177121312"><ele>303.0</ele><time>2026-03-28T13:38:34Z</time></trkpt><trkpt lat="45.932411069861665" lon="8.76943384383987"><ele>303.0</ele><time>2026-03-28T13:38:36Z</time></trkpt><trkpt lat="45.932447023620604" lon="8.769349282609205"><ele>303.0</ele><time>2026-03-28T13:38:38Z</time></trkpt><trkpt lat="45.932458457115" lon="8.769252756908049"><ele>303.0</ele><time>2026-03-28T13:38:39Z</time></trkpt><trkpt lat="45.93247860898925" lon="8.769130451939962"><ele>303.0</ele><time>2026-03-28T13:38:40Z</time></trkpt><trkpt lat="45.93250532901307" lon="8.769005200176146"><ele>303.0</ele><time>2026-03-28T13:38:41Z</time></trkpt><trkpt lat="45.932533173070986" lon="8.768862556278409"><ele>303.1666666666667</ele><time>2026-03-28T13:38:42Z</time></trkpt><trkpt lat="45.93254391886535" lon="8.768750003417392"><ele>303.3333333333333</ele><time>2026-03-28T13:38:43Z</time></trkpt><trkpt lat="45.93256426766929" lon="8.768662235559523"><ele>303.5</ele><time>2026-03-28T13:38:44Z</time></trkpt><trkpt lat="45.93260699159029" lon="8.76857957812787"><ele>303.66666666666663</ele><time>2026-03-28T13:38:45Z</time></trkpt><trkpt lat="45.93267848851266" lon="8.768528059099362"><ele>303.8333333333333</ele><time>2026-03-28T13:38:46Z</time></trkpt><trkpt lat="45.932746585832724" lon="8.768448313125662"><ele>304.0</ele><time>2026-03-28T13:38:47Z</time></trkpt><trkpt lat="45.93277133115217" lon="8.768322341545348"><ele>305.0</ele><time>2026-03-28T13:38:48Z</time></trkpt><trkpt lat="45.93277225009915" lon="8.768201221725207"><ele>306.0</ele><time>2026-03-28T13:38:49Z</time></trkpt><trkpt lat="45.93278926675989" lon="8.768107819615993"><ele>307.0</ele><time>2026-03-28T13:38:50Z</time></trkpt><trkpt lat="45.932846712681794" lon="8.76804134109093"><ele>308.0</ele><time>2026-03-28T13:38:52Z</time></trkpt><trkpt lat="45.93296790749651" lon="8.7681257269032"><ele>309.0</ele><time>2026-03-28T13:38:54Z</time></trkpt><trkpt lat="45.93305549277113" lon="8.768196604752257"><ele>309.0</ele><time>2026-03-28T13:38:55Z</time></trkpt><trkpt lat="45.933150788320276" lon="8.768323627687742"><ele>309.0</ele><time>2026-03-28T13:38:56Z</time></trkpt><trkpt lat="45.93322631392682" lon="8.768452239729479"><ele>309.0</ele><time>2026-03-28T13:38:57Z</time></trkpt><trkpt lat="45.933292630159116" lon="8.76852763088466"><ele>309.0</ele><time>2026-03-28T13:38:58Z</time></trkpt><trkpt lat="45.933372193793176" lon="8.768575685435147"><ele>309.0</ele><time>2026-03-28T13:38:59Z</time></trkpt><trkpt lat="45.93346765319825" lon="8.768575191346871"><ele>312.25</ele><time>2026-03-28T13:39:00Z</time></trkpt><trkpt lat="45.933572276628" lon="8.768513468459147"><ele>315.5</ele><time>2026-03-28T13:39:01Z</time></trkpt><trkpt lat="45.93369285017433" lon="8.768443276901065"><ele>318.75</ele><time>2026-03-28T13:39:02Z</time></trkpt><trkpt lat="45.93380521645282" lon="8.76838016306999"><ele>322.0</ele><time>2026-03-28T13:39:03Z</time></trkpt><trkpt lat="45.933901378091925" lon="8.768270086460738"><ele>322.0</ele><time>2026-03-28T13:39:04Z</time></trkpt><trkpt lat="45.93398657353578" lon="8.768165843098016"><ele>322.0</ele><time>2026-03-28T13:39:05Z</time></trkpt><trkpt lat="45.934054928324784" lon="8.768121966909765"><ele>322.0</ele><time>2026-03-28T13:39:06Z</time></trkpt><trkpt lat="45.9341300407477" lon="8.768094089065638"><ele>322.0</ele><time>2026-03-28T13:39:07Z</time></trkpt><trkpt lat="45.93422587168978" lon="8.768070437279135"><ele>322.0</ele><time>2026-03-28T13:39:08Z</time></trkpt><trkpt lat="45.934339229474816" lon="8.768054609799663"><ele>322.5</ele><time>2026-03-28T13:39:09Z</time></trkpt><trkpt lat="45.934446134873596" lon="8.767970562943264"><ele>323.0</ele><time>2026-03-28T13:39:10Z</time></trkpt><trkpt lat="45.93455332373044" lon="8.767832501140314"><ele>323.5</ele><time>2026-03-28T13:39:11Z</time></trkpt><trkpt lat="45.934668638306526" lon="8.767696531251737"><ele>324.0</ele><time>2026-03-28T13:39:12Z</time></trkpt><trkpt lat="45.93474570049798" lon="8.767545634463241"><ele>325.75</ele><time>2026-03-28T13:39:13Z</time></trkpt><trkpt lat="45.93481411032729" lon="8.767398080329391"><ele>327.5</ele><time>2026-03-28T13:39:14Z</time></trkpt><trkpt lat="45.93488059631955" lon="8.767284150816593"><ele>329.25</ele><time>2026-03-28T13:39:15Z</time></trkpt><trkpt lat="45.934970158772046" lon="8.76718687970802"><ele>331.0</ele><time>2026-03-28T13:39:16Z</time></trkpt><trkpt lat="45.935071886979046" lon="8.767089953272794"><ele>331.0</ele><time>2026-03-28T13:39:17Z</time></trkpt><trkpt lat="45.93516126282389" lon="8.767042091745397"><ele>331.0</ele><time>2026-03-28T13:39:18Z</time></trkpt><trkpt lat="45.93522273041781" lon="8.766943731413908"><ele>331.0</ele><time>2026-03-28T13:39:19Z</time></trkpt><trkpt lat="45.935272963797466" lon="8.766818022749664"><ele>331.0</ele><time>2026-03-28T13:39:20Z</time></trkpt><trkpt lat="45.93529990691006" lon="8.766652209371975"><ele>331.0</ele><time>2026-03-28T13:39:21Z</time></trkpt><trkpt lat="45.93531228922897" lon="8.766469102781882"><ele>333.8</ele><time>2026-03-28T13:39:22Z</time></trkpt><trkpt lat="45.93531339507589" lon="8.76630296832791"><ele>336.6</ele><time>2026-03-28T13:39:23Z</time></trkpt><trkpt lat="45.93530348110459" lon="8.766183350003148"><ele>339.4</ele><time>2026-03-28T13:39:24Z</time></trkpt><trkpt lat="45.93535257501092" lon="8.766047510576543"><ele>342.2</ele><time>2026-03-28T13:39:26Z</time></trkpt><trkpt lat="45.935389522425226" lon="8.765944160347829"><ele>345.0</ele><time>2026-03-28T13:39:27Z</time></trkpt><trkpt lat="45.93544340364093" lon="8.765836097637198"><ele>347.5</ele><time>2026-03-28T13:39:28Z</time></trkpt><trkpt lat="45.935495794952736" lon="8.765688619938723"><ele>350.0</ele><time>2026-03-28T13:39:29Z</time></trkpt><trkpt lat="45.935573904204425" lon="8.765553761766244"><ele>352.5</ele><time>2026-03-28T13:39:30Z</time></trkpt><trkpt lat="45.93567733603099" lon="8.765442884248666"><ele>355.0</ele><time>2026-03-28T13:39:31Z</time></trkpt><trkpt lat="45.935775827569785" lon="8.765356131103287"><ele>355.0</ele><time>2026-03-28T13:39:32Z</time></trkpt><trkpt lat="45.93584515298853" lon="8.765281334494777"><ele>355.0</ele><time>2026-03-28T13:39:33Z</time></trkpt><trkpt lat="45.93590210019385" lon="8.765202806388986"><ele>355.0</ele><time>2026-03-28T13:39:34Z</time></trkpt><trkpt lat="45.93596429871719" lon="8.765131729296503"><ele>355.0</ele><time>2026-03-28T13:39:35Z</time></trkpt><trkpt lat="45.93603317015549" lon="8.765036483343675"><ele>355.0</ele><time>2026-03-28T13:39:36Z</time></trkpt><trkpt lat="45.93611124928084" lon="8.764906694480581"><ele>354.4</ele><time>2026-03-28T13:39:37Z</time></trkpt><trkpt lat="45.936177553620894" lon="8.764773486916893"><ele>353.8</ele><time>2026-03-28T13:39:38Z</time></trkpt><trkpt lat="45.936238457881686" lon="8.764651464384597"><ele>353.20000000000005</ele><time>2026-03-28T13:39:39Z</time></trkpt><trkpt lat="45.93628869001988" lon="8.764545582909305"><ele>352.6</ele><time>2026-03-28T13:39:40Z</time></trkpt><trkpt lat="45.936335822940855" lon="8.764447310057013"><ele>352.0</ele><time>2026-03-28T13:39:41Z</time></trkpt><trkpt lat="45.93633584461333" lon="8.764283705496796"><ele>352.0</ele><time>2026-03-28T13:39:43Z</time></trkpt><trkpt lat="45.936339882664925" lon="8.764129985937153"><ele>352.0</ele><time>2026-03-28T13:39:45Z</time></trkpt><trkpt lat="45.9363659699816" lon="8.76402791106476"><ele>352.0</ele><time>2026-03-28T13:39:46Z</time></trkpt><trkpt lat="45.93641112543864" lon="8.763912495487295"><ele>352.0</ele><time>2026-03-28T13:39:47Z</time></trkpt><trkpt lat="45.936454702242195" lon="8.763774677327588"><ele>352.0</ele><time>2026-03-28T13:39:48Z</time></trkpt><trkpt lat="45.93647959715633" lon="8.763621354216248"><ele>354.25</ele><time>2026-03-28T13:39:49Z</time></trkpt><trkpt lat="45.93648692379038" lon="8.763452255095054"><ele>356.5</ele><time>2026-03-28T13:39:50Z</time></trkpt><trkpt lat="45.93646997750929" lon="8.763281063156064"><ele>358.75</ele><time>2026-03-28T13:39:51Z</time></trkpt><trkpt lat="45.9364542581882" lon="8.763109601853069"><ele>361.0</ele><time>2026-03-28T13:39:52Z</time></trkpt><trkpt lat="45.93644283103901" lon="8.762969745008355"><ele>361.0</ele><time>2026-03-28T13:39:53Z</time></trkpt><trkpt lat="45.93644077250869" lon="8.762852051015047"><ele>361.0</ele><time>2026-03-28T13:39:54Z</time></trkpt><trkpt lat="45.93645348793142" lon="8.76274745009214"><ele>361.0</ele><time>2026-03-28T13:39:55Z</time></trkpt><trkpt lat="45.93646922952266" lon="8.762644575132079"><ele>361.0</ele><time>2026-03-28T13:39:56Z</time></trkpt><trkpt lat="45.93647599206335" lon="8.76254159760359"><ele>361.0</ele><time>2026-03-28T13:39:57Z</time></trkpt><trkpt lat="45.93647803109544" lon="8.762443496933917"><ele>361.0</ele><time>2026-03-28T13:39:58Z</time></trkpt><trkpt lat="45.93648211819954" lon="8.762253149123678"><ele>362.16666666666663</ele><time>2026-03-28T13:40:00Z</time></trkpt><trkpt lat="45.93649518994434" lon="8.7620966851927"><ele>363.3333333333333</ele><time>2026-03-28T13:40:02Z</time></trkpt><trkpt lat="45.936543290047545" lon="8.762001334319239"><ele>364.5</ele><time>2026-03-28T13:40:04Z</time></trkpt><trkpt lat="45.93658305268676" lon="8.761929587410597"><ele>365.6666666666667</ele><time>2026-03-28T13:40:07Z</time></trkpt><trkpt lat="45.93651920720387" lon="8.762061444439153"><ele>366.83333333333337</ele><time>2026-03-28T13:41:03Z</time></trkpt><trkpt lat="45.936483203730866" lon="8.762144296957805"><ele>368.0</ele><time>2026-03-28T13:41:06Z</time></trkpt><trkpt lat="45.93648183654349" lon="8.76223983427823"><ele>368.0</ele><time>2026-03-28T13:41:08Z</time></trkpt><trkpt lat="45.93646711792404" lon="8.762406436194553"><ele>368.0</ele><time>2026-03-28T13:41:10Z</time></trkpt><trkpt lat="45.936460908232846" lon="8.762504753800425"><ele>368.0</ele><time>2026-03-28T13:41:12Z</time></trkpt><trkpt lat="45.93655796321083" lon="8.762543997287215"><ele>368.0</ele><time>2026-03-28T13:41:16Z</time></trkpt><trkpt lat="45.93664732005019" lon="8.762546039337481"><ele>368.0</ele><time>2026-03-28T13:41:18Z</time></trkpt><trkpt lat="45.93674736979729" lon="8.762618465506097"><ele>367.25</ele><time>2026-03-28T13:41:20Z</time></trkpt><trkpt lat="45.93679492340039" lon="8.762776004398793"><ele>366.5</ele><time>2026-03-28T13:41:22Z</time></trkpt><trkpt lat="45.93683553138351" lon="8.762954405121901"><ele>365.75</ele><time>2026-03-28T13:41:24Z</time></trkpt><trkpt lat="45.93688666230398" lon="8.76305354199154"><ele>365.0</ele><time>2026-03-28T13:41:25Z</time></trkpt><trkpt lat="45.93698282773955" lon="8.763156018372973"><ele>365.0</ele><time>2026-03-28T13:41:27Z</time></trkpt><trkpt lat="45.93708289885014" lon="8.763220950314912"><ele>365.0</ele><time>2026-03-28T13:41:29Z</time></trkpt><trkpt lat="45.9371322893736" lon="8.763299546345204"><ele>365.0</ele><time>2026-03-28T13:41:30Z</time></trkpt><trkpt lat="45.937190753872486" lon="8.76341081125021"><ele>365.0</ele><time>2026-03-28T13:41:31Z</time></trkpt><trkpt lat="45.93726786227231" lon="8.763539651447033"><ele>365.0</ele><time>2026-03-28T13:41:32Z</time></trkpt><trkpt lat="45.93733492481159" lon="8.76363442907415"><ele>363.5</ele><time>2026-03-28T13:41:33Z</time></trkpt><trkpt lat="45.93738146644921" lon="8.763713504516502"><ele>362.0</ele><time>2026-03-28T13:41:34Z</time></trkpt><trkpt lat="45.93743057186508" lon="8.763784926205782"><ele>360.5</ele><time>2026-03-28T13:41:35Z</time></trkpt><trkpt lat="45.93751402111769" lon="8.763852186210263"><ele>359.0</ele><time>2026-03-28T13:41:37Z</time></trkpt><trkpt lat="45.93757651495296" lon="8.763840662615067"><ele>357.5</ele><time>2026-03-28T13:41:38Z</time></trkpt><trkpt lat="45.93764549257976" lon="8.763794094951317"><ele>356.0</ele><time>2026-03-28T13:41:39Z</time></trkpt><trkpt lat="45.937717675545805" lon="8.76375841156026"><ele>355.6666666666667</ele><time>2026-03-28T13:41:40Z</time></trkpt><trkpt lat="45.93783765647214" lon="8.763742475083207"><ele>355.33333333333337</ele><time>2026-03-28T13:41:42Z</time></trkpt><trkpt lat="45.93787610005994" lon="8.763660896009325"><ele>355.0</ele><time>2026-03-28T13:41:49Z</time></trkpt><trkpt lat="45.93793481039868" lon="8.763607488639327"><ele>354.6666666666667</ele><time>2026-03-28T13:41:58Z</time></trkpt><trkpt lat="45.938002059327495" lon="8.763580845114026"><ele>354.3333333333333</ele><time>2026-03-28T13:42:00Z</time></trkpt><trkpt lat="45.9380770898485" lon="8.763650400447265"><ele>354.0</ele><time>2026-03-28T13:42:02Z</time></trkpt><trkpt lat="45.938133333956046" lon="8.763869800855401"><ele>354.0</ele><time>2026-03-28T13:42:04Z</time></trkpt><trkpt lat="45.938171920180864" lon="8.764004848270234"><ele>354.0</ele><time>2026-03-28T13:42:05Z</time></trkpt><trkpt lat="45.938181965673344" lon="8.764133008822752"><ele>354.0</ele><time>2026-03-28T13:42:06Z</time></trkpt><trkpt lat="45.93818460983497" lon="8.764230352269971"><ele>354.0</ele><time>2026-03-28T13:42:07Z</time></trkpt><trkpt lat="45.93821624308807" lon="8.76439628145036"><ele>354.0</ele><time>2026-03-28T13:42:09Z</time></trkpt><trkpt lat="45.93831063264916" lon="8.764388905068289"><ele>353.1666666666667</ele><time>2026-03-28T13:42:24Z</time></trkpt><trkpt lat="45.93838466257518" lon="8.764390148510891"><ele>352.3333333333333</ele><time>2026-03-28T13:42:26Z</time></trkpt><trkpt lat="45.93845004964121" lon="8.764468333285864"><ele>351.5</ele><time>2026-03-28T13:42:29Z</time></trkpt><trkpt lat="45.93847892225142" lon="8.7645835923791"><ele>350.66666666666663</ele><time>2026-03-28T13:42:31Z</time></trkpt><trkpt lat="45.9385537970459" lon="8.76458903944497"><ele>349.8333333333333</ele><time>2026-03-28T13:42:34Z</time></trkpt><trkpt lat="45.93862399373387" lon="8.764585064007479"><ele>349.0</ele><time>2026-03-28T13:42:36Z</time></trkpt><trkpt lat="45.93869931630032" lon="8.764584567453724"><ele>348.0</ele><time>2026-03-28T13:42:39Z</time></trkpt><trkpt lat="45.93876317083459" lon="8.764651302918985"><ele>347.0</ele><time>2026-03-28T13:42:41Z</time></trkpt><trkpt lat="45.93879794045014" lon="8.764562552099973"><ele>346.0</ele><time>2026-03-28T13:42:44Z</time></trkpt><trkpt lat="45.938796931378924" lon="8.764419889011164"><ele>345.0</ele><time>2026-03-28T13:42:46Z</time></trkpt><trkpt lat="45.93884177122859" lon="8.76432387529694"><ele>344.0</ele><time>2026-03-28T13:42:48Z</time></trkpt><trkpt lat="45.938933354025906" lon="8.764343475323313"><ele>343.0</ele><time>2026-03-28T13:42:51Z</time></trkpt><trkpt lat="45.9389899284238" lon="8.764384089632728"><ele>341.16666666666663</ele><time>2026-03-28T13:42:53Z</time></trkpt><trkpt lat="45.93904379153918" lon="8.764456504758138"><ele>339.3333333333333</ele><time>2026-03-28T13:42:56Z</time></trkpt><trkpt lat="45.93910712246455" lon="8.764550039192962"><ele>337.5</ele><time>2026-03-28T13:42:59Z</time></trkpt><trkpt lat="45.939125130259605" lon="8.764693240371917"><ele>335.6666666666667</ele><time>2026-03-28T13:43:01Z</time></trkpt><trkpt lat="45.93908433706484" lon="8.764808939042489"><ele>333.83333333333337</ele><time>2026-03-28T13:43:03Z</time></trkpt><trkpt lat="45.93905492891538" lon="8.764908996586527"><ele>332.0</ele><time>2026-03-28T13:43:04Z</time></trkpt><trkpt lat="45.93899849348841" lon="8.76496835289968"><ele>332.0</ele><time>2026-03-28T13:43:05Z</time></trkpt><trkpt lat="45.9389312186697" lon="8.765043171522278"><ele>332.0</ele><time>2026-03-28T13:43:07Z</time></trkpt><trkpt lat="45.93890386571942" lon="8.765167113349266"><ele>332.0</ele><time>2026-03-28T13:43:09Z</time></trkpt><trkpt lat="45.9389124365286" lon="8.765313801171168"><ele>332.0</ele><time>2026-03-28T13:43:11Z</time></trkpt><trkpt lat="45.93892366357958" lon="8.765422718243006"><ele>332.0</ele><time>2026-03-28T13:43:13Z</time></trkpt><trkpt lat="45.938962037282124" lon="8.765504210449523"><ele>332.0</ele><time>2026-03-28T13:43:15Z</time></trkpt><trkpt lat="45.939037648995665" lon="8.765542630225044"><ele>330.0</ele><time>2026-03-28T13:43:17Z</time></trkpt><trkpt lat="45.939112987750434" lon="8.765617393842794"><ele>328.0</ele><time>2026-03-28T13:43:20Z</time></trkpt><trkpt lat="45.93911663179396" lon="8.765728276383758"><ele>326.0</ele><time>2026-03-28T13:43:22Z</time></trkpt><trkpt lat="45.93910218399192" lon="8.765840772796846"><ele>324.0</ele><time>2026-03-28T13:43:25Z</time></trkpt><trkpt lat="45.93916799604856" lon="8.765871321050067"><ele>322.0</ele><time>2026-03-28T13:43:29Z</time></trkpt><trkpt lat="45.93923602068911" lon="8.765835302155594"><ele>320.0</ele><time>2026-03-28T13:43:35Z</time></trkpt><trkpt lat="45.93930699696781" lon="8.765786532452937"><ele>319.6</ele><time>2026-03-28T13:43:37Z</time></trkpt><trkpt lat="45.93941455723999" lon="8.765769320830172"><ele>319.2</ele><time>2026-03-28T13:43:39Z</time></trkpt><trkpt lat="45.93952386774981" lon="8.765778021201024"><ele>318.8</ele><time>2026-03-28T13:43:41Z</time></trkpt><trkpt lat="45.93961468309306" lon="8.765874174470023"><ele>318.4</ele><time>2026-03-28T13:43:43Z</time></trkpt><trkpt lat="45.939679516545965" lon="8.76594953645617"><ele>318.0</ele><time>2026-03-28T13:43:44Z</time></trkpt><trkpt lat="45.939730764389004" lon="8.766048692946109"><ele>318.0</ele><time>2026-03-28T13:43:45Z</time></trkpt><trkpt lat="45.93975089543182" lon="8.766159410346818"><ele>318.0</ele><time>2026-03-28T13:43:46Z</time></trkpt><trkpt lat="45.93980386470229" lon="8.76628449752106"><ele>318.0</ele><time>2026-03-28T13:43:48Z</time></trkpt><trkpt lat="45.93988148868228" lon="8.766260169405113"><ele>318.0</ele><time>2026-03-28T13:43:51Z</time></trkpt><trkpt lat="45.93998504873844" lon="8.766123172189225"><ele>318.0</ele><time>2026-03-28T13:43:57Z</time></trkpt><trkpt lat="45.940046685154876" lon="8.765975160865725"><ele>318.6</ele><time>2026-03-28T13:43:59Z</time></trkpt><trkpt lat="45.94005105836886" lon="8.765861946243232"><ele>319.20000000000005</ele><time>2026-03-28T13:44:00Z</time></trkpt><trkpt lat="45.94006478885518" lon="8.76574256361248"><ele>319.8</ele><time>2026-03-28T13:44:01Z</time></trkpt><trkpt lat="45.940103163579806" lon="8.765619315511813"><ele>320.40000000000003</ele><time>2026-03-28T13:44:02Z</time></trkpt><trkpt lat="45.940139470285644" lon="8.765485526326744"><ele>321.0</ele><time>2026-03-28T13:44:03Z</time></trkpt><trkpt lat="45.94017934248638" lon="8.76535116200748"><ele>321.0</ele><time>2026-03-28T13:44:04Z</time></trkpt><trkpt lat="45.9402182510506" lon="8.765239280018848"><ele>321.0</ele><time>2026-03-28T13:44:05Z</time></trkpt><trkpt lat="45.94025613589574" lon="8.76512894911543"><ele>321.0</ele><time>2026-03-28T13:44:06Z</time></trkpt><trkpt lat="45.940301304859396" lon="8.765035159343928"><ele>321.0</ele><time>2026-03-28T13:44:07Z</time></trkpt><trkpt lat="45.94033738792892" lon="8.764957459482646"><ele>321.0</ele><time>2026-03-28T13:44:08Z</time></trkpt><trkpt lat="45.94040094249347" lon="8.764907960592824"><ele>321.0</ele><time>2026-03-28T13:44:09Z</time></trkpt><trkpt lat="45.940477234617425" lon="8.76490121743475"><ele>321.8</ele><time>2026-03-28T13:44:10Z</time></trkpt><trkpt lat="45.940560091459034" lon="8.76492775607837"><ele>322.6</ele><time>2026-03-28T13:44:11Z</time></trkpt><trkpt lat="45.94063018190154" lon="8.76492807561243"><ele>323.4</ele><time>2026-03-28T13:44:12Z</time></trkpt><trkpt lat="45.94073980227977" lon="8.764851067661589"><ele>324.2</ele><time>2026-03-28T13:44:14Z</time></trkpt><trkpt lat="45.94081744066691" lon="8.764898714126929"><ele>325.0</ele><time>2026-03-28T13:44:16Z</time></trkpt><trkpt lat="45.9408939474227" lon="8.764987850414244"><ele>325.0</ele><time>2026-03-28T13:44:17Z</time></trkpt><trkpt lat="45.94096415055964" lon="8.765025150953223"><ele>325.0</ele><time>2026-03-28T13:44:18Z</time></trkpt><trkpt lat="45.94103524504286" lon="8.765043552033513"><ele>325.0</ele><time>2026-03-28T13:44:19Z</time></trkpt><trkpt lat="45.94111465190607" lon="8.765043696331462"><ele>325.0</ele><time>2026-03-28T13:44:21Z</time></trkpt><trkpt lat="45.941209275525" lon="8.764944150232225"><ele>325.0</ele><time>2026-03-28T13:44:44Z</time></trkpt><trkpt lat="45.94125496512516" lon="8.764839346836478"><ele>325.0</ele><time>2026-03-28T13:44:45Z</time></trkpt><trkpt lat="45.94129377833354" lon="8.76473945808562"><ele>325.0</ele><time>2026-03-28T13:44:46Z</time></trkpt><trkpt lat="45.941313574472176" lon="8.76462115090155"><ele>325.0</ele><time>2026-03-28T13:44:47Z</time></trkpt><trkpt lat="45.94137820377758" lon="8.764493958597878"><ele>325.0</ele><time>2026-03-28T13:44:49Z</time></trkpt><trkpt lat="45.941459415139654" lon="8.76445621220789"><ele>325.0</ele><time>2026-03-28T13:44:51Z</time></trkpt><trkpt lat="45.94151265289571" lon="8.764395159797672"><ele>325.0</ele><time>2026-03-28T13:44:58Z</time></trkpt><trkpt lat="45.941594002662065" lon="8.764307737461767"><ele>325.0</ele><time>2026-03-28T13:45:01Z</time></trkpt><trkpt lat="45.94166108337184" lon="8.76417461001211"><ele>322.3333333333333</ele><time>2026-03-28T13:45:03Z</time></trkpt><trkpt lat="45.941717606998786" lon="8.764120689079167"><ele>319.66666666666663</ele><time>2026-03-28T13:45:04Z</time></trkpt><trkpt lat="45.941764574082235" lon="8.764059131770617"><ele>317.0</ele><time>2026-03-28T13:45:05Z</time></trkpt><trkpt lat="45.94182463561346" lon="8.764004630895712"><ele>314.3333333333333</ele><time>2026-03-28T13:45:08Z</time></trkpt><trkpt lat="45.941840374447715" lon="8.763904895481657"><ele>311.6666666666667</ele><time>2026-03-28T13:45:23Z</time></trkpt><trkpt lat="45.94179806119729" lon="8.763799996390977"><ele>309.0</ele><time>2026-03-28T13:45:30Z</time></trkpt><trkpt lat="45.94171747197975" lon="8.763734214938994"><ele>312.8333333333333</ele><time>2026-03-28T13:45:32Z</time></trkpt><trkpt lat="45.94165455090961" lon="8.763675572704502"><ele>316.6666666666667</ele><time>2026-03-28T13:45:34Z</time></trkpt><trkpt lat="45.941560301435906" lon="8.763620895986021"><ele>320.5</ele><time>2026-03-28T13:45:36Z</time></trkpt><trkpt lat="45.94147315961013" lon="8.763637453942625"><ele>324.33333333333337</ele><time>2026-03-28T13:45:38Z</time></trkpt><trkpt lat="45.94140330648855" lon="8.763633686116345"><ele>328.1666666666667</ele><time>2026-03-28T13:45:43Z</time></trkpt><trkpt lat="45.941393490265035" lon="8.763524022108633"><ele>332.0</ele><time>2026-03-28T13:45:47Z</time></trkpt><trkpt lat="45.94133764094122" lon="8.763416394521489"><ele>333.8</ele><time>2026-03-28T13:45:52Z</time></trkpt><trkpt lat="45.941265669254896" lon="8.763297288318997"><ele>335.6</ele><time>2026-03-28T13:45:54Z</time></trkpt><trkpt lat="45.94122250138186" lon="8.763203013877915"><ele>337.40000000000003</ele><time>2026-03-28T13:45:55Z</time></trkpt><trkpt lat="45.94116196720759" lon="8.763129695567208"><ele>339.20000000000005</ele><time>2026-03-28T13:45:56Z</time></trkpt><trkpt lat="45.94107540893604" lon="8.76305572067649"><ele>341.0</ele><time>2026-03-28T13:45:57Z</time></trkpt><trkpt lat="45.941000298070534" lon="8.762953507141683"><ele>341.0</ele><time>2026-03-28T13:45:59Z</time></trkpt><trkpt lat="45.94096167200143" lon="8.762817979255443"><ele>341.0</ele><time>2026-03-28T13:46:01Z</time></trkpt><trkpt lat="45.94094889027655" lon="8.762717694128902"><ele>341.0</ele><time>2026-03-28T13:46:02Z</time></trkpt><trkpt lat="45.9409290027976" lon="8.762605465632362"><ele>341.0</ele><time>2026-03-28T13:46:03Z</time></trkpt><trkpt lat="45.94091133591489" lon="8.762487183815871"><ele>341.0</ele><time>2026-03-28T13:46:04Z</time></trkpt><trkpt lat="45.940888603574656" lon="8.76237846450242"><ele>341.0</ele><time>2026-03-28T13:46:05Z</time></trkpt><trkpt lat="45.940895747960056" lon="8.762258836680235"><ele>343.0</ele><time>2026-03-28T13:46:07Z</time></trkpt><trkpt lat="45.940973115555636" lon="8.762155031189954"><ele>345.0</ele><time>2026-03-28T13:46:09Z</time></trkpt><trkpt lat="45.94103519957452" lon="8.762134390729411"><ele>347.0</ele><time>2026-03-28T13:46:10Z</time></trkpt><trkpt lat="45.941101319656745" lon="8.762112966982363"><ele>349.0</ele><time>2026-03-28T13:46:11Z</time></trkpt><trkpt lat="45.94122780842367" lon="8.76201889428231"><ele>351.0</ele><time>2026-03-28T13:46:13Z</time></trkpt><trkpt lat="45.94129947006253" lon="8.762079070510088"><ele>351.0</ele><time>2026-03-28T13:46:15Z</time></trkpt><trkpt lat="45.94132302901681" lon="8.762177813572565"><ele>351.0</ele><time>2026-03-28T13:46:16Z</time></trkpt><trkpt lat="45.941369117498226" lon="8.762264240355632"><ele>351.0</ele><time>2026-03-28T13:46:17Z</time></trkpt><trkpt lat="45.94143734782551" lon="8.762294309863503"><ele>351.0</ele><time>2026-03-28T13:46:18Z</time></trkpt><trkpt lat="45.94150580420072" lon="8.762289628725444"><ele>351.0</ele><time>2026-03-28T13:46:19Z</time></trkpt><trkpt lat="45.941607580911636" lon="8.762222839875646"><ele>351.0</ele><time>2026-03-28T13:46:21Z</time></trkpt><trkpt lat="45.941664573096126" lon="8.762176615300895"><ele>348.6666666666667</ele><time>2026-03-28T13:46:22Z</time></trkpt><trkpt lat="45.94174974558433" lon="8.762068132346107"><ele>346.3333333333333</ele><time>2026-03-28T13:46:24Z</time></trkpt><trkpt lat="45.94178453707181" lon="8.761980500315506"><ele>344.0</ele><time>2026-03-28T13:46:25Z</time></trkpt><trkpt lat="45.941813219120455" lon="8.76189706126097"><ele>341.66666666666663</ele><time>2026-03-28T13:46:26Z</time></trkpt><trkpt lat="45.94184609449025" lon="8.761785193433848"><ele>339.3333333333333</ele><time>2026-03-28T13:46:27Z</time></trkpt><trkpt lat="45.94190416304919" lon="8.761653620744646"><ele>337.0</ele><time>2026-03-28T13:46:28Z</time></trkpt><trkpt lat="45.94187709214903" lon="8.761549253558975"><ele>337.0</ele><time>2026-03-28T13:46:29Z</time></trkpt><trkpt lat="45.94185955307955" lon="8.761384857997061"><ele>337.0</ele><time>2026-03-28T13:46:31Z</time></trkpt><trkpt lat="45.94186506230853" lon="8.761293455469986"><ele>337.0</ele><time>2026-03-28T13:46:33Z</time></trkpt><trkpt lat="45.941845906616514" lon="8.761200328556093"><ele>337.0</ele><time>2026-03-28T13:46:38Z</time></trkpt><trkpt lat="45.94185238689374" lon="8.761084642503759"><ele>337.0</ele><time>2026-03-28T13:46:39Z</time></trkpt><trkpt lat="45.941837343417355" lon="8.760922181556165"><ele>337.0</ele><time>2026-03-28T13:46:40Z</time></trkpt><trkpt lat="45.9418336807169" lon="8.760777474693526"><ele>338.5</ele><time>2026-03-28T13:46:41Z</time></trkpt><trkpt lat="45.941842282344794" lon="8.760684663468428"><ele>340.0</ele><time>2026-03-28T13:46:42Z</time></trkpt><trkpt lat="45.94185981675707" lon="8.760574099782133"><ele>341.5</ele><time>2026-03-28T13:46:43Z</time></trkpt><trkpt lat="45.9418757616459" lon="8.760439627161668"><ele>343.0</ele><time>2026-03-28T13:46:44Z</time></trkpt><trkpt lat="45.94188844124455" lon="8.76032076227364"><ele>344.5</ele><time>2026-03-28T13:46:45Z</time></trkpt><trkpt lat="45.94190632426107" lon="8.76020619482063"><ele>346.0</ele><time>2026-03-28T13:46:46Z</time></trkpt><trkpt lat="45.94195015060286" lon="8.760092773408669"><ele>347.0</ele><time>2026-03-28T13:46:47Z</time></trkpt><trkpt lat="45.941994571026264" lon="8.759953603752207"><ele>348.0</ele><time>2026-03-28T13:46:48Z</time></trkpt><trkpt lat="45.94202391470691" lon="8.759845115503222"><ele>349.0</ele><time>2026-03-28T13:46:49Z</time></trkpt><trkpt lat="45.94204904753644" lon="8.7597461600094"><ele>350.0</ele><time>2026-03-28T13:46:50Z</time></trkpt><trkpt lat="45.942027454373786" lon="8.759564892606182"><ele>351.0</ele><time>2026-03-28T13:46:52Z</time></trkpt><trkpt lat="45.942019333090556" lon="8.759461803086808"><ele>352.6</ele><time>2026-03-28T13:46:53Z</time></trkpt><trkpt lat="45.942004468902624" lon="8.759312791052011"><ele>354.20000000000005</ele><time>2026-03-28T13:46:55Z</time></trkpt><trkpt lat="45.941977807835976" lon="8.759193079853443"><ele>355.79999999999995</ele><time>2026-03-28T13:46:57Z</time></trkpt><trkpt lat="45.94205887995776" lon="8.759174028644354"><ele>357.4</ele><time>2026-03-28T13:47:00Z</time></trkpt><trkpt lat="45.94212870216692" lon="8.75928591594953"><ele>359.0</ele><time>2026-03-28T13:47:02Z</time></trkpt><trkpt lat="45.942201950899225" lon="8.75927461129446"><ele>359.0</ele><time>2026-03-28T13:47:03Z</time></trkpt><trkpt lat="45.94227994172472" lon="8.759265581431666"><ele>359.0</ele><time>2026-03-28T13:47:04Z</time></trkpt><trkpt lat="45.94235551435061" lon="8.759262754617689"><ele>359.0</ele><time>2026-03-28T13:47:05Z</time></trkpt><trkpt lat="45.94245647312419" lon="8.75929587358091"><ele>359.0</ele><time>2026-03-28T13:47:07Z</time></trkpt><trkpt lat="45.94253429351844" lon="8.759303109292157"><ele>359.0</ele><time>2026-03-28T13:47:09Z</time></trkpt><trkpt lat="45.9425373514921" lon="8.759197969682"><ele>359.0</ele><time>2026-03-28T13:47:11Z</time></trkpt><trkpt lat="45.9425428157076" lon="8.759084122010345"><ele>359.0</ele><time>2026-03-28T13:48:34Z</time></trkpt><trkpt lat="45.94254979740152" lon="8.758916282358978"><ele>359.0</ele><time>2026-03-28T13:48:36Z</time></trkpt><trkpt lat="45.942578703934196" lon="8.758772334907405"><ele>359.0</ele><time>2026-03-28T13:48:37Z</time></trkpt><trkpt lat="45.942601646586105" lon="8.758619127174601"><ele>359.0</ele><time>2026-03-28T13:48:38Z</time></trkpt><trkpt lat="45.94261912051245" lon="8.758461134249028"><ele>359.0</ele><time>2026-03-28T13:48:39Z</time></trkpt><trkpt lat="45.94261860054733" lon="8.758316100314952"><ele>357.6666666666667</ele><time>2026-03-28T13:48:40Z</time></trkpt><trkpt lat="45.94260830857868" lon="8.758179922682958"><ele>356.33333333333337</ele><time>2026-03-28T13:48:41Z</time></trkpt><trkpt lat="45.94260459512685" lon="8.7580299943158"><ele>355.0</ele><time>2026-03-28T13:48:42Z</time></trkpt><trkpt lat="45.94261979545936" lon="8.757884761871438"><ele>353.6666666666667</ele><time>2026-03-28T13:48:43Z</time></trkpt><trkpt lat="45.942626381965454" lon="8.75776967433092"><ele>352.3333333333333</ele><time>2026-03-28T13:48:44Z</time></trkpt><trkpt lat="45.94262234569555" lon="8.75767481949434"><ele>351.0</ele><time>2026-03-28T13:48:45Z</time></trkpt><trkpt lat="45.942635958347694" lon="8.757585111314171"><ele>349.25</ele><time>2026-03-28T13:48:46Z</time></trkpt><trkpt lat="45.94273935953589" lon="8.757445282305243"><ele>347.5</ele><time>2026-03-28T13:48:48Z</time></trkpt><trkpt lat="45.94281408267481" lon="8.757357449481013"><ele>345.75</ele><time>2026-03-28T13:48:49Z</time></trkpt><trkpt lat="45.94287703924529" lon="8.757223609797697"><ele>344.0</ele><time>2026-03-28T13:48:50Z</time></trkpt><trkpt lat="45.94292674562808" lon="8.757086569025667"><ele>344.0</ele><time>2026-03-28T13:48:51Z</time></trkpt><trkpt lat="45.94296362178487" lon="8.756974354785568"><ele>344.0</ele><time>2026-03-28T13:48:52Z</time></trkpt><trkpt lat="45.94299755998222" lon="8.75688626081327"><ele>344.0</ele><time>2026-03-28T13:48:53Z</time></trkpt><trkpt lat="45.943025219302505" lon="8.756801868956412"><ele>344.0</ele><time>2026-03-28T13:48:54Z</time></trkpt><trkpt lat="45.94305471279304" lon="8.756682837080538"><ele>344.0</ele><time>2026-03-28T13:48:55Z</time></trkpt><trkpt lat="45.943079162836945" lon="8.75653400015813"><ele>344.0</ele><time>2026-03-28T13:48:56Z</time></trkpt><trkpt lat="45.94310123543216" lon="8.756367331290706"><ele>344.0</ele><time>2026-03-28T13:48:57Z</time></trkpt><trkpt lat="45.94309791358246" lon="8.756243712273344"><ele>344.0</ele><time>2026-03-28T13:48:58Z</time></trkpt><trkpt lat="45.94310806487866" lon="8.756119622666967"><ele>344.0</ele><time>2026-03-28T13:48:59Z</time></trkpt><trkpt lat="45.94311439694149" lon="8.75595314081402"><ele>344.0</ele><time>2026-03-28T13:49:01Z</time></trkpt><trkpt lat="45.94304866047539" lon="8.755872202488494"><ele>344.0</ele><time>2026-03-28T13:49:03Z</time></trkpt><trkpt lat="45.94294560456983" lon="8.755791969815663"><ele>345.0</ele><time>2026-03-28T13:49:05Z</time></trkpt><trkpt lat="45.94289550442642" lon="8.755732000114998"><ele>346.0</ele><time>2026-03-28T13:49:06Z</time></trkpt><trkpt lat="45.94281453476846" lon="8.755623928785274"><ele>347.0</ele><time>2026-03-28T13:49:08Z</time></trkpt><trkpt lat="45.942760174147594" lon="8.755543877384063"><ele>348.0</ele><time>2026-03-28T13:49:09Z</time></trkpt><trkpt lat="45.94271146883311" lon="8.755481886179291"><ele>349.0</ele><time>2026-03-28T13:49:10Z</time></trkpt><trkpt lat="45.942665893583616" lon="8.755418070673578"><ele>350.0</ele><time>2026-03-28T13:49:11Z</time></trkpt><trkpt lat="45.942599079686424" lon="8.755383843695627"><ele>350.0</ele><time>2026-03-28T13:49:13Z</time></trkpt><trkpt lat="45.94258235196936" lon="8.75551107147289"><ele>350.0</ele><time>2026-03-28T13:49:15Z</time></trkpt><trkpt lat="45.94256662363478" lon="8.75560160936062"><ele>350.0</ele><time>2026-03-28T13:49:16Z</time></trkpt><trkpt lat="45.942559547996986" lon="8.75569920271602"><ele>350.0</ele><time>2026-03-28T13:49:17Z</time></trkpt><trkpt lat="45.94246462411937" lon="8.755814164255833"><ele>350.0</ele><time>2026-03-28T13:49:19Z</time></trkpt><trkpt lat="45.942410132814224" lon="8.755867344442413"><ele>350.0</ele><time>2026-03-28T13:49:20Z</time></trkpt><trkpt lat="45.94229634911322" lon="8.75590942591267"><ele>353.83333333333337</ele><time>2026-03-28T13:49:22Z</time></trkpt><trkpt lat="45.94219511790483" lon="8.755953986443563"><ele>357.6666666666667</ele><time>2026-03-28T13:49:24Z</time></trkpt><trkpt lat="45.94210452226702" lon="8.755991318821247"><ele>361.5</ele><time>2026-03-28T13:49:26Z</time></trkpt><trkpt lat="45.942033676339605" lon="8.756025126414503"><ele>365.3333333333333</ele><time>2026-03-28T13:49:27Z</time></trkpt><trkpt lat="45.94196862664575" lon="8.75605632237991"><ele>369.16666666666663</ele><time>2026-03-28T13:49:28Z</time></trkpt><trkpt lat="45.94190498525089" lon="8.755990744087622"><ele>373.0</ele><time>2026-03-28T13:49:31Z</time></trkpt><trkpt lat="45.941878143895906" lon="8.755840239629729"><ele>374.4</ele><time>2026-03-28T13:49:33Z</time></trkpt><trkpt lat="45.94184798359674" lon="8.755742306295495"><ele>375.79999999999995</ele><time>2026-03-28T13:49:34Z</time></trkpt><trkpt lat="45.94181449039873" lon="8.75563148350821"><ele>377.2</ele><time>2026-03-28T13:49:35Z</time></trkpt><trkpt lat="45.94177851998975" lon="8.755479869253726"><ele>378.6</ele><time>2026-03-28T13:49:37Z</time></trkpt><trkpt lat="45.94172767635463" lon="8.755284285546376"><ele>380.0</ele><time>2026-03-28T13:49:39Z</time></trkpt><trkpt lat="45.94167954155949" lon="8.75516658450411"><ele>387.6</ele><time>2026-03-28T13:49:41Z</time></trkpt><trkpt lat="45.941589634883506" lon="8.75514520489827"><ele>395.2</ele><time>2026-03-28T13:49:43Z</time></trkpt><trkpt lat="45.94150456573698" lon="8.755051685840591"><ele>402.79999999999995</ele><time>2026-03-28T13:49:45Z</time></trkpt><trkpt lat="45.941447575132536" lon="8.754951992754993"><ele>410.4</ele><time>2026-03-28T13:49:47Z</time></trkpt><trkpt lat="45.94133206665062" lon="8.755031864264929"><ele>418.0</ele><time>2026-03-28T13:49:50Z</time></trkpt><trkpt lat="45.941273109141825" lon="8.755066515460973"><ele>418.0</ele><time>2026-03-28T13:49:51Z</time></trkpt><trkpt lat="45.94112684915805" lon="8.755020327531549"><ele>418.0</ele><time>2026-03-28T13:49:53Z</time></trkpt><trkpt lat="45.94100301637825" lon="8.754990931174104"><ele>418.0</ele><time>2026-03-28T13:49:54Z</time></trkpt><trkpt lat="45.940917044591735" lon="8.755032933108039"><ele>418.0</ele><time>2026-03-28T13:49:55Z</time></trkpt><trkpt lat="45.940866895311736" lon="8.755091067127234"><ele>418.0</ele><time>2026-03-28T13:49:56Z</time></trkpt><trkpt lat="45.940819084412325" lon="8.755156117966694"><ele>419.33333333333337</ele><time>2026-03-28T13:50:00Z</time></trkpt><trkpt lat="45.94075235484737" lon="8.755206498037852"><ele>420.6666666666667</ele><time>2026-03-28T13:50:02Z</time></trkpt><trkpt lat="45.94067516381416" lon="8.755258031558016"><ele>422.0</ele><time>2026-03-28T13:50:04Z</time></trkpt><trkpt lat="45.940606097042206" lon="8.755311412254045"><ele>423.33333333333337</ele><time>2026-03-28T13:50:06Z</time></trkpt><trkpt lat="45.940545559493444" lon="8.755386938292963"><ele>424.6666666666667</ele><time>2026-03-28T13:50:08Z</time></trkpt><trkpt lat="45.940486940109004" lon="8.755488806444136"><ele>426.0</ele><time>2026-03-28T13:50:15Z</time></trkpt><trkpt lat="45.940419448361325" lon="8.755377145157068"><ele>426.0</ele><time>2026-03-28T13:50:28Z</time></trkpt><trkpt lat="45.94036975348575" lon="8.755265911262876"><ele>426.0</ele><time>2026-03-28T13:50:32Z</time></trkpt><trkpt lat="45.940418921503635" lon="8.75514735111722"><ele>426.0</ele><time>2026-03-28T13:50:34Z</time></trkpt><trkpt lat="45.94048970250604" lon="8.755047118194437"><ele>426.0</ele><time>2026-03-28T13:50:35Z</time></trkpt><trkpt lat="45.94056493404894" lon="8.754971353993033"><ele>426.0</ele><time>2026-03-28T13:50:36Z</time></trkpt><trkpt lat="45.94064827525552" lon="8.754920303316231"><ele>428.6</ele><time>2026-03-28T13:50:37Z</time></trkpt><trkpt lat="45.940731015919546" lon="8.754859352860091"><ele>431.20000000000005</ele><time>2026-03-28T13:50:38Z</time></trkpt><trkpt lat="45.940805822912026" lon="8.754786177603352"><ele>433.79999999999995</ele><time>2026-03-28T13:50:39Z</time></trkpt><trkpt lat="45.94082895919502" lon="8.7546411164426"><ele>436.4</ele><time>2026-03-28T13:50:41Z</time></trkpt><trkpt lat="45.94083162554585" lon="8.754462733914933"><ele>439.0</ele><time>2026-03-28T13:50:43Z</time></trkpt><trkpt lat="45.94085405333726" lon="8.754345655577069"><ele>441.79999999999995</ele><time>2026-03-28T13:50:45Z</time></trkpt><trkpt lat="45.94080209480283" lon="8.754198716134638"><ele>444.59999999999997</ele><time>2026-03-28T13:50:47Z</time></trkpt><trkpt lat="45.9407693325287" lon="8.754093260602344"><ele>447.4</ele><time>2026-03-28T13:50:48Z</time></trkpt><trkpt lat="45.94073282967092" lon="8.753949481588172"><ele>450.2</ele><time>2026-03-28T13:50:50Z</time></trkpt><trkpt lat="45.94071152147754" lon="8.753843157027145"><ele>453.0</ele><time>2026-03-28T13:50:52Z</time></trkpt><trkpt lat="45.94071864219454" lon="8.753726813877574"><ele>453.0</ele><time>2026-03-28T13:51:12Z</time></trkpt><trkpt lat="45.94071511019247" lon="8.753610343239247"><ele>453.0</ele><time>2026-03-28T13:51:14Z</time></trkpt><trkpt lat="45.94076260544986" lon="8.75351577054559"><ele>453.0</ele><time>2026-03-28T13:51:16Z</time></trkpt><trkpt lat="45.94079497357964" lon="8.75339305230872"><ele>453.0</ele><time>2026-03-28T13:51:18Z</time></trkpt><trkpt lat="45.940876396420315" lon="8.753314139416815"><ele>453.0</ele><time>2026-03-28T13:51:20Z</time></trkpt><trkpt lat="45.940925448575975" lon="8.753238824636906"><ele>453.0</ele><time>2026-03-28T13:51:22Z</time></trkpt><trkpt lat="45.940954483904655" lon="8.753072349724972"><ele>451.59999999999997</ele><time>2026-03-28T13:51:36Z</time></trkpt><trkpt lat="45.941003181466264" lon="8.752961890297271"><ele>450.19999999999993</ele><time>2026-03-28T13:51:38Z</time></trkpt><trkpt lat="45.94107833801" lon="8.75285581824389"><ele>448.8</ele><time>2026-03-28T13:51:40Z</time></trkpt><trkpt lat="45.94111388596697" lon="8.752775458975972"><ele>447.4</ele><time>2026-03-28T13:51:41Z</time></trkpt><trkpt lat="45.94117205069703" lon="8.752638582515537"><ele>446.0</ele><time>2026-03-28T13:51:43Z</time></trkpt><trkpt lat="45.94119365221535" lon="8.752498848382155"><ele>445.99999999999994</ele><time>2026-03-28T13:51:45Z</time></trkpt><trkpt lat="45.94117934753563" lon="8.752346799551626"><ele>446.0</ele><time>2026-03-28T13:51:47Z</time></trkpt><trkpt lat="45.9411508015133" lon="8.752239858028588"><ele>446.0</ele><time>2026-03-28T13:51:48Z</time></trkpt><trkpt lat="45.94115276469357" lon="8.752148786183303"><ele>446.0</ele><time>2026-03-28T13:51:49Z</time></trkpt><trkpt lat="45.941164403439416" lon="8.752013211778966"><ele>445.99999999999994</ele><time>2026-03-28T13:51:51Z</time></trkpt><trkpt lat="45.941073917369735" lon="8.751969617800883"><ele>446.0</ele><time>2026-03-28T13:51:58Z</time></trkpt><trkpt lat="45.94095256391717" lon="8.751987863518577"><ele>451.8333333333333</ele><time>2026-03-28T13:52:00Z</time></trkpt><trkpt lat="45.94088186738783" lon="8.752042339831268"><ele>457.66666666666663</ele><time>2026-03-28T13:52:02Z</time></trkpt><trkpt lat="45.94078500387863" lon="8.752067770625853"><ele>463.5</ele><time>2026-03-28T13:52:05Z</time></trkpt><trkpt lat="45.940719092136156" lon="8.752106803515627"><ele>469.33333333333337</ele><time>2026-03-28T13:52:06Z</time></trkpt><trkpt lat="45.94065608785711" lon="8.75214161545594"><ele>475.1666666666667</ele><time>2026-03-28T13:52:07Z</time></trkpt><trkpt lat="45.94057781667236" lon="8.75208073187733"><ele>481.0</ele><time>2026-03-28T13:52:10Z</time></trkpt><trkpt lat="45.940497774781505" lon="8.752070078341388"><ele>481.00000000000006</ele><time>2026-03-28T13:52:13Z</time></trkpt><trkpt lat="45.94045905726073" lon="8.75198361308914"><ele>481.0</ele><time>2026-03-28T13:52:54Z</time></trkpt><trkpt lat="45.94052212234694" lon="8.751851765960534"><ele>481.0</ele><time>2026-03-28T13:52:56Z</time></trkpt><trkpt lat="45.94052029823341" lon="8.75174177799592"><ele>481.0</ele><time>2026-03-28T13:52:57Z</time></trkpt><trkpt lat="45.940543118803234" lon="8.75161649533976"><ele>481.00000000000006</ele><time>2026-03-28T13:52:59Z</time></trkpt><trkpt lat="45.94057091916019" lon="8.75149855208564"><ele>481.0</ele><time>2026-03-28T13:53:01Z</time></trkpt><trkpt lat="45.94064982805432" lon="8.751283636849237"><ele>483.0</ele><time>2026-03-28T13:53:03Z</time></trkpt><trkpt lat="45.94067788347861" lon="8.751165884523726"><ele>485.0</ele><time>2026-03-28T13:53:04Z</time></trkpt><trkpt lat="45.94063720031077" lon="8.750977758953091"><ele>487.0</ele><time>2026-03-28T13:53:06Z</time></trkpt><trkpt lat="45.94058895876661" lon="8.750841678556366"><ele>489.0</ele><time>2026-03-28T13:53:07Z</time></trkpt><trkpt lat="45.940575523549626" lon="8.75074047362883"><ele>491.0</ele><time>2026-03-28T13:53:08Z</time></trkpt><trkpt lat="45.94058915540222" lon="8.750648222966182"><ele>492.3333333333333</ele><time>2026-03-28T13:53:10Z</time></trkpt><trkpt lat="45.940634869672216" lon="8.750558449074777"><ele>493.66666666666663</ele><time>2026-03-28T13:54:29Z</time></trkpt><trkpt lat="45.940555557725716" lon="8.750547354119902"><ele>495.0</ele><time>2026-03-28T13:54:31Z</time></trkpt><trkpt lat="45.940489115002556" lon="8.750586844042004"><ele>496.33333333333337</ele><time>2026-03-28T13:54:32Z</time></trkpt><trkpt lat="45.94040735914039" lon="8.750635774347742"><ele>497.6666666666667</ele><time>2026-03-28T13:54:33Z</time></trkpt><trkpt lat="45.940320381162806" lon="8.750668026803536"><ele>499.0</ele><time>2026-03-28T13:54:34Z</time></trkpt><trkpt lat="45.94026876394517" lon="8.75074457055893"><ele>499.0</ele><time>2026-03-28T13:54:35Z</time></trkpt><trkpt lat="45.940219667930904" lon="8.750821865427541"><ele>499.0</ele><time>2026-03-28T13:54:36Z</time></trkpt><trkpt lat="45.94014456284122" lon="8.750879513308226"><ele>499.0</ele><time>2026-03-28T13:54:37Z</time></trkpt><trkpt lat="45.940047257663856" lon="8.750942146565443"><ele>499.0</ele><time>2026-03-28T13:54:39Z</time></trkpt><trkpt lat="45.93992572390676" lon="8.750948402584902"><ele>499.0</ele><time>2026-03-28T13:54:41Z</time></trkpt><trkpt lat="45.939859657464396" lon="8.750878712472142"><ele>503.00000000000006</ele><time>2026-03-28T13:54:43Z</time></trkpt><trkpt lat="45.93984087078033" lon="8.750775044447547"><ele>507.0</ele><time>2026-03-28T13:54:45Z</time></trkpt><trkpt lat="45.93983506082297" lon="8.75066320046264"><ele>511.0</ele><time>2026-03-28T13:54:47Z</time></trkpt><trkpt lat="45.939828789576744" lon="8.75054640213917"><ele>515.0</ele><time>2026-03-28T13:54:50Z</time></trkpt><trkpt lat="45.939730871274435" lon="8.750549994801075"><ele>519.0</ele><time>2026-03-28T13:54:52Z</time></trkpt><trkpt lat="45.93966578340694" lon="8.750589784762424"><ele>523.0</ele><time>2026-03-28T13:54:53Z</time></trkpt><trkpt lat="45.93959972087891" lon="8.750593527579275"><ele>523.0</ele><time>2026-03-28T13:54:54Z</time></trkpt><trkpt lat="45.93950600938114" lon="8.75057266690529"><ele>523.0</ele><time>2026-03-28T13:54:55Z</time></trkpt><trkpt lat="45.939440909654785" lon="8.750516241599284"><ele>523.0</ele><time>2026-03-28T13:54:57Z</time></trkpt><trkpt lat="45.93937776651003" lon="8.750508318872924"><ele>523.0</ele><time>2026-03-28T13:54:59Z</time></trkpt><trkpt lat="45.939275158595" lon="8.75059256503021"><ele>523.0</ele><time>2026-03-28T13:55:01Z</time></trkpt><trkpt lat="45.9392247820461" lon="8.75069157277292"><ele>523.0</ele><time>2026-03-28T13:55:02Z</time></trkpt><trkpt lat="45.93918001133595" lon="8.750776970452966"><ele>525.3333333333334</ele><time>2026-03-28T13:55:03Z</time></trkpt><trkpt lat="45.939118649172734" lon="8.750854418706345"><ele>527.6666666666667</ele><time>2026-03-28T13:55:04Z</time></trkpt><trkpt lat="45.93905390510604" lon="8.7509426034707"><ele>530.0</ele><time>2026-03-28T13:55:05Z</time></trkpt><trkpt lat="45.93900172792538" lon="8.751011639544071"><ele>532.3333333333334</ele><time>2026-03-28T13:55:06Z</time></trkpt><trkpt lat="45.938943822555615" lon="8.751048829189674"><ele>534.6666666666666</ele><time>2026-03-28T13:55:07Z</time></trkpt><trkpt lat="45.93885536473521" lon="8.751023368594716"><ele>537.0</ele><time>2026-03-28T13:55:09Z</time></trkpt><trkpt lat="45.9387949306717" lon="8.750953574273284"><ele>537.2</ele><time>2026-03-28T13:55:11Z</time></trkpt><trkpt lat="45.938677311398784" lon="8.750974576221381"><ele>537.4000000000001</ele><time>2026-03-28T13:55:14Z</time></trkpt><trkpt lat="45.9385943187842" lon="8.750962217006245"><ele>537.5999999999999</ele><time>2026-03-28T13:55:15Z</time></trkpt><trkpt lat="45.93849820463529" lon="8.75094902418988"><ele>537.8</ele><time>2026-03-28T13:55:16Z</time></trkpt><trkpt lat="45.93842621131123" lon="8.750907890736924"><ele>538.0</ele><time>2026-03-28T13:55:17Z</time></trkpt><trkpt lat="45.93835439605317" lon="8.75086872759706"><ele>542.1999999999999</ele><time>2026-03-28T13:55:18Z</time></trkpt><trkpt lat="45.93827981815992" lon="8.750792134284557"><ele>546.4</ele><time>2026-03-28T13:55:20Z</time></trkpt><trkpt lat="45.93818101497033" lon="8.750781913226906"><ele>550.5999999999999</ele><time>2026-03-28T13:55:22Z</time></trkpt><trkpt lat="45.93814963756009" lon="8.750661512148676"><ele>554.8</ele><time>2026-03-28T13:55:24Z</time></trkpt><trkpt lat="45.9380452917105" lon="8.750543607566762"><ele>559.0</ele><time>2026-03-28T13:55:26Z</time></trkpt><trkpt lat="45.93800111415815" lon="8.750419694130162"><ele>559.0</ele><time>2026-03-28T13:55:28Z</time></trkpt><trkpt lat="45.93801358855797" lon="8.750237149166034"><ele>559.0</ele><time>2026-03-28T13:55:30Z</time></trkpt><trkpt lat="45.938030880386194" lon="8.75006560265684"><ele>559.0</ele><time>2026-03-28T13:55:32Z</time></trkpt><trkpt lat="45.93801435366096" lon="8.749966983390511"><ele>559.0</ele><time>2026-03-28T13:55:33Z</time></trkpt><trkpt lat="45.937964826470136" lon="8.749879305005518"><ele>559.0</ele><time>2026-03-28T13:55:34Z</time></trkpt><trkpt lat="45.937923501348614" lon="8.749802260895644"><ele>561.5</ele><time>2026-03-28T13:55:35Z</time></trkpt><trkpt lat="45.93789235413667" lon="8.74972204257111"><ele>564.0</ele><time>2026-03-28T13:55:36Z</time></trkpt><trkpt lat="45.937871140142484" lon="8.749625603793259"><ele>566.5</ele><time>2026-03-28T13:55:37Z</time></trkpt><trkpt lat="45.93784316618617" lon="8.74953065871369"><ele>569.0</ele><time>2026-03-28T13:55:38Z</time></trkpt><trkpt lat="45.93775017129258" lon="8.749418809057314"><ele>571.5</ele><time>2026-03-28T13:55:40Z</time></trkpt><trkpt lat="45.93767672352428" lon="8.749376355449046"><ele>574.0</ele><time>2026-03-28T13:55:41Z</time></trkpt><trkpt lat="45.9375757937323" lon="8.74935070498134"><ele>576.4</ele><time>2026-03-28T13:55:43Z</time></trkpt><trkpt lat="45.93750770381665" lon="8.749346330279469"><ele>578.8</ele><time>2026-03-28T13:55:45Z</time></trkpt><trkpt lat="45.937541950579316" lon="8.749211557250876"><ele>581.2</ele><time>2026-03-28T13:55:47Z</time></trkpt><trkpt lat="45.93759023429412" lon="8.749090795726223"><ele>583.6</ele><time>2026-03-28T13:55:48Z</time></trkpt><trkpt lat="45.937657176604" lon="8.74894789691678"><ele>586.0</ele><time>2026-03-28T13:55:49Z</time></trkpt><trkpt lat="45.93768727786008" lon="8.748811400419804"><ele>586.0</ele><time>2026-03-28T13:55:50Z</time></trkpt><trkpt lat="45.937721029886184" lon="8.748711690653883"><ele>586.0</ele><time>2026-03-28T13:55:51Z</time></trkpt><trkpt lat="45.93774599892728" lon="8.74858894135125"><ele>586.0</ele><time>2026-03-28T13:56:03Z</time></trkpt><trkpt lat="45.937740743055066" lon="8.748449046621044"><ele>586.0</ele><time>2026-03-28T13:56:05Z</time></trkpt><trkpt lat="45.937725443239785" lon="8.748311644198154"><ele>586.0</ele><time>2026-03-28T13:56:07Z</time></trkpt><trkpt lat="45.93767462016703" lon="8.74822979561906"><ele>586.0</ele><time>2026-03-28T13:56:09Z</time></trkpt><trkpt lat="45.93764156659276" lon="8.748080072074881"><ele>586.5</ele><time>2026-03-28T13:56:11Z</time></trkpt><trkpt lat="45.93757947754293" lon="8.747967596054078"><ele>587.0</ele><time>2026-03-28T13:56:13Z</time></trkpt><trkpt lat="45.93753097720707" lon="8.747908075259668"><ele>587.5</ele><time>2026-03-28T13:56:15Z</time></trkpt><trkpt lat="45.937441352059025" lon="8.747862855039976"><ele>588.0</ele><time>2026-03-28T13:56:18Z</time></trkpt><trkpt lat="45.937353511569164" lon="8.747862807487948"><ele>588.5</ele><time>2026-03-28T13:56:20Z</time></trkpt><trkpt lat="45.93728331833323" lon="8.747818260206"><ele>589.0</ele><time>2026-03-28T13:56:28Z</time></trkpt><trkpt lat="45.937278102869065" lon="8.747646605713205"><ele>593.3333333333334</ele><time>2026-03-28T13:56:30Z</time></trkpt><trkpt lat="45.93729703969704" lon="8.747554039357325"><ele>597.6666666666667</ele><time>2026-03-28T13:56:31Z</time></trkpt><trkpt lat="45.93732621049135" lon="8.747415515213605"><ele>602.0</ele><time>2026-03-28T13:56:33Z</time></trkpt><trkpt lat="45.937295875184766" lon="8.747315595029734"><ele>606.3333333333334</ele><time>2026-03-28T13:56:35Z</time></trkpt><trkpt lat="45.9372472745102" lon="8.747143798994303"><ele>610.6666666666666</ele><time>2026-03-28T13:56:37Z</time></trkpt><trkpt lat="45.937244231036956" lon="8.747037807280844"><ele>615.0</ele><time>2026-03-28T13:56:38Z</time></trkpt><trkpt lat="45.93722340506601" lon="8.746923549742034"><ele>616.8</ele><time>2026-03-28T13:56:39Z</time></trkpt><trkpt lat="45.93716791582683" lon="8.74681321394647"><ele>618.6</ele><time>2026-03-28T13:56:40Z</time></trkpt><trkpt lat="45.937126901541276" lon="8.746683589579082"><ele>620.4</ele><time>2026-03-28T13:56:41Z</time></trkpt><trkpt lat="45.93710877808946" lon="8.74649864075435"><ele>622.2</ele><time>2026-03-28T13:56:43Z</time></trkpt><trkpt lat="45.93715214594824" lon="8.746354345717036"><ele>624.0</ele><time>2026-03-28T13:56:45Z</time></trkpt><trkpt lat="45.937194572094974" lon="8.74618159242707"><ele>624.0</ele><time>2026-03-28T13:56:47Z</time></trkpt><trkpt lat="45.937132794528566" lon="8.746157116840692"><ele>624.0</ele><time>2026-03-28T13:56:50Z</time></trkpt><trkpt lat="45.93707312335423" lon="8.746209218932528"><ele>624.0</ele><time>2026-03-28T13:56:54Z</time></trkpt><trkpt lat="45.9370152514055" lon="8.746275873885672"><ele>624.0</ele><time>2026-03-28T13:56:55Z</time></trkpt><trkpt lat="45.9369352211057" lon="8.74634396715305"><ele>624.0</ele><time>2026-03-28T13:56:56Z</time></trkpt><trkpt lat="45.93684611107395" lon="8.746431829861992"><ele>624.0</ele><time>2026-03-28T13:56:57Z</time></trkpt><trkpt lat="45.93676294088904" lon="8.746524536685738"><ele>623.6</ele><time>2026-03-28T13:56:58Z</time></trkpt><trkpt lat="45.93667040776245" lon="8.746629743967516"><ele>623.2</ele><time>2026-03-28T13:56:59Z</time></trkpt><trkpt lat="45.93658802314849" lon="8.746728463168303"><ele>622.8000000000001</ele><time>2026-03-28T13:57:00Z</time></trkpt><trkpt lat="45.93650596110969" lon="8.746830216578438"><ele>622.4</ele><time>2026-03-28T13:57:01Z</time></trkpt><trkpt lat="45.93642769072879" lon="8.746891853623275"><ele>622.0</ele><time>2026-03-28T13:57:02Z</time></trkpt><trkpt lat="45.93634027055237" lon="8.746934711981796"><ele>622.0</ele><time>2026-03-28T13:57:03Z</time></trkpt><trkpt lat="45.936236344693505" lon="8.746975164571078"><ele>622.0</ele><time>2026-03-28T13:57:04Z</time></trkpt><trkpt lat="45.93612227621761" lon="8.747012381814248"><ele>622.0</ele><time>2026-03-28T13:57:05Z</time></trkpt><trkpt lat="45.93603957037042" lon="8.747052658036637"><ele>622.0</ele><time>2026-03-28T13:57:06Z</time></trkpt><trkpt lat="45.93596924832916" lon="8.747209480199153"><ele>622.0</ele><time>2026-03-28T13:57:08Z</time></trkpt><trkpt lat="45.93589134540508" lon="8.747235301735106"><ele>622.0</ele><time>2026-03-28T13:57:10Z</time></trkpt><trkpt lat="45.93588778712753" lon="8.747073112863182"><ele>622.0</ele><time>2026-03-28T13:57:12Z</time></trkpt><trkpt lat="45.935943227943646" lon="8.74696671721309"><ele>622.0</ele><time>2026-03-28T13:57:13Z</time></trkpt><trkpt lat="45.936013063682225" lon="8.746801217345064"><ele>622.0</ele><time>2026-03-28T13:57:14Z</time></trkpt><trkpt lat="45.93607007506238" lon="8.74661105025018"><ele>624.4</ele><time>2026-03-28T13:57:15Z</time></trkpt><trkpt lat="45.93612272421907" lon="8.74647177726575"><ele>626.8000000000001</ele><time>2026-03-28T13:57:16Z</time></trkpt><trkpt lat="45.936190013078246" lon="8.74636544370045"><ele>629.2</ele><time>2026-03-28T13:57:17Z</time></trkpt><trkpt lat="45.93627189223922" lon="8.746266653557845"><ele>631.6</ele><time>2026-03-28T13:57:18Z</time></trkpt><trkpt lat="45.936342016541985" lon="8.74619227542819"><ele>634.0</ele><time>2026-03-28T13:57:19Z</time></trkpt><trkpt lat="45.93633236364392" lon="8.746076989339503"><ele>634.0</ele><time>2026-03-28T13:57:21Z</time></trkpt><trkpt lat="45.93626971345057" lon="8.746054291624288"><ele>634.0</ele><time>2026-03-28T13:57:22Z</time></trkpt><trkpt lat="45.93616050430548" lon="8.746030801888132"><ele>634.0</ele><time>2026-03-28T13:57:23Z</time></trkpt><trkpt lat="45.936039369984925" lon="8.74599412105773"><ele>634.0</ele><time>2026-03-28T13:57:24Z</time></trkpt><trkpt lat="45.93592014604429" lon="8.745950993493071"><ele>634.0</ele><time>2026-03-28T13:57:25Z</time></trkpt><trkpt lat="45.93583496468676" lon="8.74594533999586"><ele>638.4</ele><time>2026-03-28T13:57:26Z</time></trkpt><trkpt lat="45.93575539003349" lon="8.745977376276183"><ele>642.8</ele><time>2026-03-28T13:57:27Z</time></trkpt><trkpt lat="45.93567112685251" lon="8.746038514892872"><ele>647.1999999999999</ele><time>2026-03-28T13:57:28Z</time></trkpt><trkpt lat="45.93559478723194" lon="8.746132314538542"><ele>651.5999999999999</ele><time>2026-03-28T13:57:29Z</time></trkpt><trkpt lat="45.935514258877895" lon="8.74624990339622"><ele>656.0</ele><time>2026-03-28T13:57:30Z</time></trkpt><trkpt lat="45.93546396624899" lon="8.746327032986141"><ele>656.0</ele><time>2026-03-28T13:57:31Z</time></trkpt><trkpt lat="45.93540109447657" lon="8.746364506959663"><ele>656.0</ele><time>2026-03-28T13:57:32Z</time></trkpt><trkpt lat="45.93529167770116" lon="8.746412743024823"><ele>656.0</ele><time>2026-03-28T13:57:33Z</time></trkpt><trkpt lat="45.935194136874095" lon="8.746443716010818"><ele>656.0</ele><time>2026-03-28T13:57:34Z</time></trkpt><trkpt lat="45.93510596081727" lon="8.746494993796109"><ele>656.0</ele><time>2026-03-28T13:57:35Z</time></trkpt><trkpt lat="45.93502519706497" lon="8.746541882826653"><ele>661.1999999999999</ele><time>2026-03-28T13:57:36Z</time></trkpt><trkpt lat="45.93496646384658" lon="8.746591311834274"><ele>666.4</ele><time>2026-03-28T13:57:37Z</time></trkpt><trkpt lat="45.93486269989521" lon="8.746664668645197"><ele>671.6</ele><time>2026-03-28T13:57:39Z</time></trkpt><trkpt lat="45.934758146431115" lon="8.746672492713163"><ele>676.8</ele><time>2026-03-28T13:57:41Z</time></trkpt><trkpt lat="45.93466846022398" lon="8.746626378358894"><ele>682.0</ele><time>2026-03-28T13:57:43Z</time></trkpt><trkpt lat="45.93457147488258" lon="8.746602239049052"><ele>682.0</ele><time>2026-03-28T13:57:48Z</time></trkpt><trkpt lat="45.93450252572906" lon="8.746599342606812"><ele>682.0</ele><time>2026-03-28T13:57:50Z</time></trkpt><trkpt lat="45.934404102980125" lon="8.746614393939941"><ele>682.0</ele><time>2026-03-28T13:57:54Z</time></trkpt><trkpt lat="45.93433278452914" lon="8.746655948450885"><ele>682.0</ele><time>2026-03-28T13:57:57Z</time></trkpt><trkpt lat="45.93425496968123" lon="8.74663304258435"><ele>682.0</ele><time>2026-03-28T13:57:59Z</time></trkpt><trkpt lat="45.9342308195802" lon="8.746512289029218"><ele>682.0</ele><time>2026-03-28T13:58:02Z</time></trkpt><trkpt lat="45.934228053903446" lon="8.746397574110048"><ele>682.0</ele><time>2026-03-28T13:58:03Z</time></trkpt><trkpt lat="45.934216747946" lon="8.746306783221694"><ele>682.0</ele><time>2026-03-28T13:58:04Z</time></trkpt><trkpt lat="45.93422684005431" lon="8.746139314785516"><ele>682.0</ele><time>2026-03-28T13:58:19Z</time></trkpt><trkpt lat="45.934265616480445" lon="8.74601632442893"><ele>682.0</ele><time>2026-03-28T13:58:20Z</time></trkpt><trkpt lat="45.93431994842096" lon="8.745889154300121"><ele>682.0</ele><time>2026-03-28T13:58:21Z</time></trkpt><trkpt lat="45.93434347015116" lon="8.745781049741403"><ele>683.0</ele><time>2026-03-28T13:58:22Z</time></trkpt><trkpt lat="45.93434874622283" lon="8.745671019066577"><ele>684.0</ele><time>2026-03-28T13:58:24Z</time></trkpt><trkpt lat="45.93426701377393" lon="8.745648590740062"><ele>685.0</ele><time>2026-03-28T13:58:26Z</time></trkpt><trkpt lat="45.93419867835415" lon="8.745805415917985"><ele>686.0</ele><time>2026-03-28T13:58:28Z</time></trkpt><trkpt lat="45.934161280049736" lon="8.745899353792161"><ele>687.0</ele><time>2026-03-28T13:58:29Z</time></trkpt><trkpt lat="45.93403913705202" lon="8.746030128059031"><ele>691.6666666666666</ele><time>2026-03-28T13:58:31Z</time></trkpt><trkpt lat="45.933967207862054" lon="8.746114038532294"><ele>696.3333333333334</ele><time>2026-03-28T13:58:32Z</time></trkpt><trkpt lat="45.93392481541138" lon="8.746182022227984"><ele>701.0</ele><time>2026-03-28T13:58:33Z</time></trkpt><trkpt lat="45.933906382169695" lon="8.746289666293649"><ele>705.6666666666667</ele><time>2026-03-28T13:58:34Z</time></trkpt><trkpt lat="45.93388082552247" lon="8.746419810783353"><ele>710.3333333333334</ele><time>2026-03-28T13:58:35Z</time></trkpt><trkpt lat="45.933833206499536" lon="8.746508084868598"><ele>715.0</ele><time>2026-03-28T13:58:36Z</time></trkpt><trkpt lat="45.933758715690885" lon="8.746579242516031"><ele>715.0</ele><time>2026-03-28T13:58:37Z</time></trkpt><trkpt lat="45.933678527704245" lon="8.746609934536899"><ele>715.0</ele><time>2026-03-28T13:58:39Z</time></trkpt><trkpt lat="45.93367495930898" lon="8.74647123481973"><ele>715.0</ele><time>2026-03-28T13:58:41Z</time></trkpt><trkpt lat="45.933720995651704" lon="8.746396116948528"><ele>715.0</ele><time>2026-03-28T13:58:42Z</time></trkpt><trkpt lat="45.93378610942128" lon="8.746310044807336"><ele>715.0</ele><time>2026-03-28T13:58:43Z</time></trkpt><trkpt lat="45.93379415362329" lon="8.746074469246913"><ele>717.0</ele><time>2026-03-28T13:58:45Z</time></trkpt><trkpt lat="45.933813799225724" lon="8.74591588796585"><ele>719.0</ele><time>2026-03-28T13:58:46Z</time></trkpt><trkpt lat="45.93385960431798" lon="8.74576869239078"><ele>721.0</ele><time>2026-03-28T13:58:47Z</time></trkpt><trkpt lat="45.93392471384793" lon="8.74559825230084"><ele>723.0</ele><time>2026-03-28T13:58:48Z</time></trkpt><trkpt lat="45.93396012427893" lon="8.745450715118471"><ele>723.0</ele><time>2026-03-28T13:58:49Z</time></trkpt><trkpt lat="45.93397159086734" lon="8.745327222858064"><ele>723.0</ele><time>2026-03-28T13:58:50Z</time></trkpt><trkpt lat="45.9339745936261" lon="8.745199680445936"><ele>723.0</ele><time>2026-03-28T13:58:51Z</time></trkpt><trkpt lat="45.93391489441854" lon="8.74514605321905"><ele>723.0</ele><time>2026-03-28T13:58:55Z</time></trkpt><trkpt lat="45.933870031135335" lon="8.745221426968676"><ele>723.0</ele><time>2026-03-28T13:58:56Z</time></trkpt><trkpt lat="45.93386333253697" lon="8.745378039218863"><ele>723.0</ele><time>2026-03-28T13:58:57Z</time></trkpt><trkpt lat="45.93385747130525" lon="8.745483645288592"><ele>723.0</ele><time>2026-03-28T13:58:58Z</time></trkpt><trkpt lat="45.93380405988117" lon="8.745562758270905"><ele>723.0</ele><time>2026-03-28T13:58:59Z</time></trkpt><trkpt lat="45.93371671445249" lon="8.745644636124398"><ele>723.0</ele><time>2026-03-28T13:59:00Z</time></trkpt><trkpt lat="45.93363469123337" lon="8.745711818262432"><ele>723.0</ele><time>2026-03-28T13:59:01Z</time></trkpt><trkpt lat="45.93358415261716" lon="8.745785869178594"><ele>723.0</ele><time>2026-03-28T13:59:02Z</time></trkpt><trkpt lat="45.933570123327016" lon="8.745891528638161"><ele>723.0</ele><time>2026-03-28T13:59:03Z</time></trkpt><trkpt lat="45.933487766694626" lon="8.74595051772545"><ele>723.0</ele><time>2026-03-28T13:59:05Z</time></trkpt><trkpt lat="45.93345988951415" lon="8.745789526568846"><ele>723.0</ele><time>2026-03-28T13:59:07Z</time></trkpt><trkpt lat="45.93351981840089" lon="8.745673938862009"><ele>723.0</ele><time>2026-03-28T13:59:08Z</time></trkpt><trkpt lat="45.93361996531147" lon="8.745541197762455"><ele>723.0</ele><time>2026-03-28T13:59:09Z</time></trkpt><trkpt lat="45.933684382787995" lon="8.745420398200691"><ele>723.0</ele><time>2026-03-28T13:59:10Z</time></trkpt><trkpt lat="45.933726678264755" lon="8.745322071175423"><ele>723.0</ele><time>2026-03-28T13:59:11Z</time></trkpt><trkpt lat="45.933749381432044" lon="8.745202539434523"><ele>723.0</ele><time>2026-03-28T13:59:12Z</time></trkpt><trkpt lat="45.933753312910206" lon="8.745074685738158"><ele>723.0</ele><time>2026-03-28T13:59:13Z</time></trkpt><trkpt lat="45.93375034550285" lon="8.744930720333823"><ele>723.0</ele><time>2026-03-28T13:59:14Z</time></trkpt><trkpt lat="45.933751224999114" lon="8.744793714493452"><ele>723.6666666666666</ele><time>2026-03-28T13:59:15Z</time></trkpt><trkpt lat="45.93375766861099" lon="8.744659316378444"><ele>724.3333333333334</ele><time>2026-03-28T13:59:16Z</time></trkpt><trkpt lat="45.93377857497711" lon="8.744535366024966"><ele>725.0</ele><time>2026-03-28T13:59:17Z</time></trkpt><trkpt lat="45.933791561776026" lon="8.744414174078251"><ele>725.6666666666667</ele><time>2026-03-28T13:59:18Z</time></trkpt><trkpt lat="45.9338122224941" lon="8.744301433651277"><ele>726.3333333333334</ele><time>2026-03-28T13:59:19Z</time></trkpt><trkpt lat="45.93383864900907" lon="8.744210622356816"><ele>727.0</ele><time>2026-03-28T13:59:20Z</time></trkpt><trkpt lat="45.93389811775848" lon="8.744114067113765"><ele>728.5</ele><time>2026-03-28T13:59:21Z</time></trkpt><trkpt lat="45.93395841951295" lon="8.744004085675424"><ele>730.0</ele><time>2026-03-28T13:59:22Z</time></trkpt><trkpt lat="45.9340171135269" lon="8.743901060365868"><ele>731.5</ele><time>2026-03-28T13:59:24Z</time></trkpt><trkpt lat="45.93398130407188" lon="8.74377340332191"><ele>733.0</ele><time>2026-03-28T14:15:05Z</time></trkpt><trkpt lat="45.933990978996384" lon="8.743673533403381"><ele>734.5</ele><time>2026-03-28T14:15:07Z</time></trkpt><trkpt lat="45.93400097283836" lon="8.743582723439465"><ele>736.0</ele><time>2026-03-28T14:15:13Z</time></trkpt><trkpt lat="45.93398440820102" lon="8.74343329304138"><ele>739.0</ele><time>2026-03-28T14:15:18Z</time></trkpt><trkpt lat="45.933910089299516" lon="8.74328040540529"><ele>742.0</ele><time>2026-03-28T14:15:20Z</time></trkpt><trkpt lat="45.933905611136815" lon="8.74316408941784"><ele>745.0</ele><time>2026-03-28T14:15:21Z</time></trkpt><trkpt lat="45.93386128948401" lon="8.743023232642955"><ele>748.0</ele><time>2026-03-28T14:15:23Z</time></trkpt><trkpt lat="45.93391596395348" lon="8.742911177506578"><ele>751.0</ele><time>2026-03-28T14:15:25Z</time></trkpt><trkpt lat="45.93400367896755" lon="8.742854401121155"><ele>751.0</ele><time>2026-03-28T14:15:26Z</time></trkpt><trkpt lat="45.93406924308637" lon="8.74279565561966"><ele>751.0</ele><time>2026-03-28T14:15:27Z</time></trkpt><trkpt lat="45.93412839942503" lon="8.742735787190217"><ele>751.0</ele><time>2026-03-28T14:15:33Z</time></trkpt><trkpt lat="45.93421099359545" lon="8.742732883053959"><ele>751.0</ele><time>2026-03-28T14:15:40Z</time></trkpt><trkpt lat="45.934273761149264" lon="8.742697523020619"><ele>751.0</ele><time>2026-03-28T14:15:41Z</time></trkpt><trkpt lat="45.9343187891755" lon="8.742541301718333"><ele>751.0</ele><time>2026-03-28T14:15:42.999Z</time></trkpt><trkpt lat="45.93429924154574" lon="8.742389910757554"><ele>753.5</ele><time>2026-03-28T14:15:44.999Z</time></trkpt><trkpt lat="45.93426585218486" lon="8.742290283467053"><ele>756.0</ele><time>2026-03-28T14:15:45.999Z</time></trkpt><trkpt lat="45.934230896949884" lon="8.742195574878368"><ele>758.5</ele><time>2026-03-28T14:15:46.999Z</time></trkpt><trkpt lat="45.934221052887615" lon="8.742067891697646"><ele>761.0</ele><time>2026-03-28T14:15:47.999Z</time></trkpt><trkpt lat="45.93419103656528" lon="8.741953765198033"><ele>763.5</ele><time>2026-03-28T14:15:48.999Z</time></trkpt><trkpt lat="45.93416527115324" lon="8.74186701776265"><ele>766.0</ele><time>2026-03-28T14:15:49.999Z</time></trkpt><trkpt lat="45.93416505027125" lon="8.741726212232908"><ele>760.6666666666667</ele><time>2026-03-28T14:15:51.999Z</time></trkpt><trkpt lat="45.934242443209456" lon="8.741724797949395"><ele>755.3333333333334</ele><time>2026-03-28T14:15:53.999Z</time></trkpt><trkpt lat="45.93435563366368" lon="8.741727933232308"><ele>750.0</ele><time>2026-03-28T14:15:55.999Z</time></trkpt><trkpt lat="45.93444640977132" lon="8.7416753626117"><ele>744.6666666666666</ele><time>2026-03-28T14:15:56.999Z</time></trkpt><trkpt lat="45.934517328792246" lon="8.741601711579799"><ele>739.3333333333333</ele><time>2026-03-28T14:15:57.999Z</time></trkpt><trkpt lat="45.93456129446856" lon="8.74152981759457"><ele>734.0</ele><time>2026-03-28T14:15:58.999Z</time></trkpt><trkpt lat="45.93461672740742" lon="8.741437486053636"><ele>734.0</ele><time>2026-03-28T14:15:59.999Z</time></trkpt><trkpt lat="45.93466503891848" lon="8.74132356037776"><ele>734.0</ele><time>2026-03-28T14:16:00.999Z</time></trkpt><trkpt lat="45.934725943436064" lon="8.741177891177367"><ele>734.0</ele><time>2026-03-28T14:16:01.999Z</time></trkpt><trkpt lat="45.934762881639436" lon="8.74107663639682"><ele>734.0</ele><time>2026-03-28T14:16:02.999Z</time></trkpt><trkpt lat="45.93472380632822" lon="8.740955725181667"><ele>734.0</ele><time>2026-03-28T14:16:04.999Z</time></trkpt><trkpt lat="45.93468966641637" lon="8.740813438247502"><ele>735.8333333333333</ele><time>2026-03-28T14:16:06.999Z</time></trkpt><trkpt lat="45.93475951498949" lon="8.740713547034677"><ele>737.6666666666666</ele><time>2026-03-28T14:16:08.999Z</time></trkpt><trkpt lat="45.93479139218696" lon="8.740549664266938"><ele>739.5</ele><time>2026-03-28T14:16:10.999Z</time></trkpt><trkpt lat="45.93479210432617" lon="8.740446540318047"><ele>741.3333333333334</ele><time>2026-03-28T14:16:11.999Z</time></trkpt><trkpt lat="45.934810207688294" lon="8.74034179189997"><ele>743.1666666666667</ele><time>2026-03-28T14:16:12.999Z</time></trkpt><trkpt lat="45.93483739541167" lon="8.740248678195844"><ele>745.0</ele><time>2026-03-28T14:16:13.999Z</time></trkpt><trkpt lat="45.934874398244524" lon="8.740173122826"><ele>747.0</ele><time>2026-03-28T14:16:14.999Z</time></trkpt><trkpt lat="45.934851615658324" lon="8.740044055628736"><ele>749.0</ele><time>2026-03-28T14:16:16.999Z</time></trkpt><trkpt lat="45.93486469036656" lon="8.73994586764596"><ele>751.0</ele><time>2026-03-28T14:16:18.999Z</time></trkpt><trkpt lat="45.9348719595684" lon="8.739851685468823"><ele>753.0</ele><time>2026-03-28T14:16:23.001Z</time></trkpt><trkpt lat="45.934889918643606" lon="8.739751158988087"><ele>755.0</ele><time>2026-03-28T14:16:31.001Z</time></trkpt><trkpt lat="45.934870062987606" lon="8.739641847136662"><ele>757.0</ele><time>2026-03-28T14:16:35Z</time></trkpt><trkpt lat="45.93484964221761" lon="8.739528502367154"><ele>757.0</ele><time>2026-03-28T14:16:38Z</time></trkpt><trkpt lat="45.93488485565731" lon="8.739401868819675"><ele>757.0</ele><time>2026-03-28T14:16:41Z</time></trkpt><trkpt lat="45.93494068403026" lon="8.739332822742293"><ele>757.0</ele><time>2026-03-28T14:16:53Z</time></trkpt><trkpt lat="45.93497605996328" lon="8.739248557132566"><ele>757.0</ele><time>2026-03-28T14:17:24Z</time></trkpt><trkpt lat="45.93500300204666" lon="8.739166726866102"><ele>757.0</ele><time>2026-03-28T14:25:06Z</time></trkpt><trkpt lat="45.93498134015592" lon="8.739256562763494"><ele>757.0</ele><time>2026-03-28T14:26:32.999Z</time></trkpt><trkpt lat="45.93493506224006" lon="8.739335965305537"><ele>757.0</ele><time>2026-03-28T14:28:09.999Z</time></trkpt><trkpt lat="45.934885579717196" lon="8.739411475612753"><ele>757.0</ele><time>2026-03-28T14:28:12.999Z</time></trkpt><trkpt lat="45.934873856695376" lon="8.739517518639682"><ele>757.0</ele><time>2026-03-28T14:28:15.999Z</time></trkpt><trkpt lat="45.93489065594541" lon="8.739636159671551"><ele>757.0</ele><time>2026-03-28T14:28:19.999Z</time></trkpt><trkpt lat="45.93490562504429" lon="8.739725705918529"><ele>757.0</ele><time>2026-03-28T14:28:23.999Z</time></trkpt><trkpt lat="45.93492869401558" lon="8.73985564772123"><ele>757.0</ele><time>2026-03-28T14:28:29.999Z</time></trkpt><trkpt lat="45.93493931487102" lon="8.73995091016595"><ele>757.0</ele><time>2026-03-28T14:28:30.999Z</time></trkpt><trkpt lat="45.93497426419231" lon="8.740031712035208"><ele>757.0</ele><time>2026-03-28T14:28:31.999Z</time></trkpt><trkpt lat="45.93492323329967" lon="8.740175116737458"><ele>755.0</ele><time>2026-03-28T14:28:33.999Z</time></trkpt><trkpt lat="45.93488217846671" lon="8.740260869677865"><ele>753.0</ele><time>2026-03-28T14:28:34.999Z</time></trkpt><trkpt lat="45.934852793698056" lon="8.740357852406067"><ele>751.0</ele><time>2026-03-28T14:28:35.999Z</time></trkpt><trkpt lat="45.93483542790824" lon="8.740468362667569"><ele>749.0</ele><time>2026-03-28T14:28:36.999Z</time></trkpt><trkpt lat="45.93482048693847" lon="8.74062000607493"><ele>747.0</ele><time>2026-03-28T14:28:38.999Z</time></trkpt><trkpt lat="45.934791155664826" lon="8.74073342535804"><ele>745.0</ele><time>2026-03-28T14:28:40.998Z</time></trkpt><trkpt lat="45.93473520909771" lon="8.740846702779567"><ele>745.0</ele><time>2026-03-28T14:28:42.998Z</time></trkpt><trkpt lat="45.9347825549748" lon="8.740988885166171"><ele>745.0</ele><time>2026-03-28T14:28:44.998Z</time></trkpt><trkpt lat="45.93479269224485" lon="8.741102105659188"><ele>745.0</ele><time>2026-03-28T14:28:46.998Z</time></trkpt><trkpt lat="45.934741313422286" lon="8.741199166025632"><ele>745.0</ele><time>2026-03-28T14:28:47.998Z</time></trkpt><trkpt lat="45.934680740520974" lon="8.74130847380108"><ele>745.0</ele><time>2026-03-28T14:28:48.998Z</time></trkpt><trkpt lat="45.934625879292184" lon="8.74141154636527"><ele>743.1666666666667</ele><time>2026-03-28T14:28:49.998Z</time></trkpt><trkpt lat="45.93458367699728" lon="8.741486171993254"><ele>741.3333333333334</ele><time>2026-03-28T14:28:50.998Z</time></trkpt><trkpt lat="45.93452276095988" lon="8.74154956605077"><ele>739.5</ele><time>2026-03-28T14:28:51.998Z</time></trkpt><trkpt lat="45.934417355162054" lon="8.741632769112817"><ele>737.6666666666666</ele><time>2026-03-28T14:28:53.998Z</time></trkpt><trkpt lat="45.93433928113552" lon="8.741660557570578"><ele>735.8333333333333</ele><time>2026-03-28T14:28:56Z</time></trkpt><trkpt lat="45.93425078348207" lon="8.741659588421937"><ele>734.0</ele><time>2026-03-28T14:29:00Z</time></trkpt><trkpt lat="45.93423541812425" lon="8.741818312437902"><ele>731.3333333333333</ele><time>2026-03-28T14:29:04Z</time></trkpt><trkpt lat="45.93427438311388" lon="8.741927953364423"><ele>728.6666666666666</ele><time>2026-03-28T14:29:05Z</time></trkpt><trkpt lat="45.93428664491148" lon="8.742039604883796"><ele>726.0</ele><time>2026-03-28T14:29:06Z</time></trkpt><trkpt lat="45.93432525041017" lon="8.742158817673822"><ele>723.3333333333334</ele><time>2026-03-28T14:29:07Z</time></trkpt><trkpt lat="45.934328383361866" lon="8.742261521407327"><ele>720.6666666666667</ele><time>2026-03-28T14:29:08Z</time></trkpt><trkpt lat="45.934356908061964" lon="8.74242446152074"><ele>718.0</ele><time>2026-03-28T14:29:10Z</time></trkpt><trkpt lat="45.93435792269405" lon="8.742533808306574"><ele>718.0</ele><time>2026-03-28T14:29:12Z</time></trkpt><trkpt lat="45.93430629405349" lon="8.74263893220968"><ele>718.0</ele><time>2026-03-28T14:29:14Z</time></trkpt><trkpt lat="45.93424041431657" lon="8.74268601019714"><ele>718.0</ele><time>2026-03-28T14:29:39Z</time></trkpt><trkpt lat="45.93417405272597" lon="8.74268380828194"><ele>718.0</ele><time>2026-03-28T14:29:43.999Z</time></trkpt><trkpt lat="45.934116998709264" lon="8.742752869154614"><ele>718.0</ele><time>2026-03-28T14:29:54.999Z</time></trkpt><trkpt lat="45.93404423016897" lon="8.742852749201049"><ele>718.0</ele><time>2026-03-28T14:29:56.999Z</time></trkpt><trkpt lat="45.93398794943775" lon="8.742902787494812"><ele>724.5999999999999</ele><time>2026-03-28T14:29:57.999Z</time></trkpt><trkpt lat="45.93392631548865" lon="8.742953369972193"><ele>731.1999999999999</ele><time>2026-03-28T14:29:58.999Z</time></trkpt><trkpt lat="45.9338774424281" lon="8.743062947135535"><ele>737.8</ele><time>2026-03-28T14:30:00.999Z</time></trkpt><trkpt lat="45.9339553295662" lon="8.743197826101397"><ele>744.4</ele><time>2026-03-28T14:30:02.999Z</time></trkpt><trkpt lat="45.93399572672177" lon="8.743290371658167"><ele>751.0</ele><time>2026-03-28T14:30:03.999Z</time></trkpt><trkpt lat="45.93402388034555" lon="8.743466524104262"><ele>748.5</ele><time>2026-03-28T14:30:05.999Z</time></trkpt><trkpt lat="45.93402667224624" lon="8.743558065974936"><ele>746.0</ele><time>2026-03-28T14:30:07.999Z</time></trkpt><trkpt lat="45.93401519738882" lon="8.743695684427275"><ele>743.5</ele><time>2026-03-28T14:30:09.999Z</time></trkpt><trkpt lat="45.9339836014649" lon="8.743780480453417"><ele>741.0</ele><time>2026-03-28T14:30:11.999Z</time></trkpt><trkpt lat="45.933920509320984" lon="8.74389354106064"><ele>738.5</ele><time>2026-03-28T14:30:25.999Z</time></trkpt><trkpt lat="45.933870535261576" lon="8.743989347255207"><ele>736.0</ele><time>2026-03-28T14:30:26.999Z</time></trkpt><trkpt lat="45.933814087326894" lon="8.744117951577884"><ele>736.0</ele><time>2026-03-28T14:30:27.999Z</time></trkpt><trkpt lat="45.933731992136835" lon="8.744277784509126"><ele>736.0</ele><time>2026-03-28T14:30:28.999Z</time></trkpt><trkpt lat="45.93366238860303" lon="8.744441262470835"><ele>736.0</ele><time>2026-03-28T14:30:29.999Z</time></trkpt><trkpt lat="45.93361590553006" lon="8.744593457754014"><ele>736.0</ele><time>2026-03-28T14:30:30.999Z</time></trkpt><trkpt lat="45.93356058567858" lon="8.744748196490871"><ele>734.5</ele><time>2026-03-28T14:30:31.999Z</time></trkpt><trkpt lat="45.93351101076611" lon="8.74488829771752"><ele>733.0</ele><time>2026-03-28T14:30:32.999Z</time></trkpt><trkpt lat="45.93346925296932" lon="8.745001996992322"><ele>731.5</ele><time>2026-03-28T14:30:33.999Z</time></trkpt><trkpt lat="45.93342223925912" lon="8.745087598140664"><ele>730.0</ele><time>2026-03-28T14:30:34.999Z</time></trkpt><trkpt lat="45.93336066661127" lon="8.745157940211433"><ele>728.5</ele><time>2026-03-28T14:30:35.999Z</time></trkpt><trkpt lat="45.9332973481354" lon="8.745257585766902"><ele>727.0</ele><time>2026-03-28T14:30:36.999Z</time></trkpt><trkpt lat="45.933249287945685" lon="8.745361375043288"><ele>735.75</ele><time>2026-03-28T14:30:37.999Z</time></trkpt><trkpt lat="45.93319000704813" lon="8.745510113215406"><ele>744.5</ele><time>2026-03-28T14:30:38.999Z</time></trkpt><trkpt lat="45.933118231547176" lon="8.745656932443739"><ele>753.25</ele><time>2026-03-28T14:30:39.999Z</time></trkpt><trkpt lat="45.9330415290498" lon="8.74580941751327"><ele>762.0</ele><time>2026-03-28T14:30:40.999Z</time></trkpt><trkpt lat="45.932972000667604" lon="8.745946499770042"><ele>759.2</ele><time>2026-03-28T14:30:41.999Z</time></trkpt><trkpt lat="45.93290269925296" lon="8.746051164591556"><ele>756.4000000000001</ele><time>2026-03-28T14:30:42.999Z</time></trkpt><trkpt lat="45.932840696622456" lon="8.746142992684696"><ele>753.5999999999999</ele><time>2026-03-28T14:30:43.999Z</time></trkpt><trkpt lat="45.93277574253137" lon="8.746239921093968"><ele>750.8</ele><time>2026-03-28T14:30:44.999Z</time></trkpt><trkpt lat="45.93270022348673" lon="8.746302262148632"><ele>748.0</ele><time>2026-03-28T14:30:45.998Z</time></trkpt><trkpt lat="45.93261316291074" lon="8.74640604011429"><ele>758.25</ele><time>2026-03-28T14:30:46.998Z</time></trkpt><trkpt lat="45.932516060656084" lon="8.74651276919802"><ele>768.5</ele><time>2026-03-28T14:30:47.998Z</time></trkpt><trkpt lat="45.932421657896526" lon="8.746621690570398"><ele>778.75</ele><time>2026-03-28T14:30:48.998Z</time></trkpt><trkpt lat="45.932339632933115" lon="8.746737754639359"><ele>789.0</ele><time>2026-03-28T14:30:49.998Z</time></trkpt><trkpt lat="45.932260521780016" lon="8.746873238941385"><ele>788.2</ele><time>2026-03-28T14:30:50.998Z</time></trkpt><trkpt lat="45.93219485090428" lon="8.747007062412495"><ele>787.4000000000001</ele><time>2026-03-28T14:30:51.998Z</time></trkpt><trkpt lat="45.93213629165109" lon="8.747145184144621"><ele>786.6</ele><time>2026-03-28T14:30:52.998Z</time></trkpt><trkpt lat="45.93209068528194" lon="8.747290227426657"><ele>785.8</ele><time>2026-03-28T14:30:53.998Z</time></trkpt><trkpt lat="45.93205903197008" lon="8.74740452207201"><ele>785.0</ele><time>2026-03-28T14:30:54.998Z</time></trkpt><trkpt lat="45.93196621679135" lon="8.747522201471407"><ele>785.0000000000001</ele><time>2026-03-28T14:30:56.998Z</time></trkpt><trkpt lat="45.931886491653565" lon="8.747573824427594"><ele>785.0</ele><time>2026-03-28T14:30:57.998Z</time></trkpt><trkpt lat="45.9317939999441" lon="8.74762643236393"><ele>785.0</ele><time>2026-03-28T14:30:58.998Z</time></trkpt><trkpt lat="45.93172218387651" lon="8.747660964531278"><ele>785.0</ele><time>2026-03-28T14:30:59.998Z</time></trkpt><trkpt lat="45.93163967557014" lon="8.747685742751296"><ele>785.0000000000001</ele><time>2026-03-28T14:31:00.998Z</time></trkpt><trkpt lat="45.93154827701607" lon="8.747705217784429"><ele>785.0</ele><time>2026-03-28T14:31:02Z</time></trkpt><trkpt lat="45.93144840876174" lon="8.74770290954359"><ele>787.0</ele><time>2026-03-28T14:31:03Z</time></trkpt><trkpt lat="45.93133941719893" lon="8.747692346784499"><ele>789.0</ele><time>2026-03-28T14:31:04Z</time></trkpt><trkpt lat="45.931227292365335" lon="8.747698830971004"><ele>791.0</ele><time>2026-03-28T14:31:05Z</time></trkpt><trkpt lat="45.93112700400533" lon="8.747709679353623"><ele>793.0</ele><time>2026-03-28T14:31:06Z</time></trkpt><trkpt lat="45.93103760113964" lon="8.747714950737379"><ele>795.0</ele><time>2026-03-28T14:31:07Z</time></trkpt><trkpt lat="45.93096380993937" lon="8.74770469397408"><ele>799.6666666666666</ele><time>2026-03-28T14:31:08Z</time></trkpt><trkpt lat="45.93088623801221" lon="8.747680908464837"><ele>804.3333333333333</ele><time>2026-03-28T14:31:09Z</time></trkpt><trkpt lat="45.930818194147754" lon="8.747646938954425"><ele>809.0</ele><time>2026-03-28T14:31:10Z</time></trkpt><trkpt lat="45.930745642900796" lon="8.74758467431377"><ele>813.6666666666666</ele><time>2026-03-28T14:31:11Z</time></trkpt><trkpt lat="45.93066522878105" lon="8.747531689195824"><ele>818.3333333333333</ele><time>2026-03-28T14:31:12Z</time></trkpt><trkpt lat="45.93057984553019" lon="8.747484446348214"><ele>823.0</ele><time>2026-03-28T14:31:13Z</time></trkpt><trkpt lat="45.93050218562229" lon="8.747459566564434"><ele>822.9999999999999</ele><time>2026-03-28T14:31:14Z</time></trkpt><trkpt lat="45.930414610169954" lon="8.747468438303384"><ele>823.0</ele><time>2026-03-28T14:31:15Z</time></trkpt><trkpt lat="45.930323049828" lon="8.74746611243392"><ele>823.0</ele><time>2026-03-28T14:31:16Z</time></trkpt><trkpt lat="45.93023996343147" lon="8.747449382792514"><ele>823.0</ele><time>2026-03-28T14:31:17Z</time></trkpt><trkpt lat="45.93016563819848" lon="8.747426992943874"><ele>822.9999999999999</ele><time>2026-03-28T14:31:18Z</time></trkpt><trkpt lat="45.930091723986514" lon="8.747399303220323"><ele>823.0</ele><time>2026-03-28T14:31:19Z</time></trkpt><trkpt lat="45.93001897638846" lon="8.74736130050135"><ele>824.1666666666666</ele><time>2026-03-28T14:31:20Z</time></trkpt><trkpt lat="45.92991258825313" lon="8.747328343767938"><ele>825.3333333333333</ele><time>2026-03-28T14:31:22Z</time></trkpt><trkpt lat="45.929862590683435" lon="8.74739308064662"><ele>826.5</ele><time>2026-03-28T14:31:23Z</time></trkpt><trkpt lat="45.9298032141852" lon="8.747480338380967"><ele>827.6666666666667</ele><time>2026-03-28T14:31:24Z</time></trkpt><trkpt lat="45.929737316274704" lon="8.7475736652585"><ele>828.8333333333334</ele><time>2026-03-28T14:31:25Z</time></trkpt><trkpt lat="45.9296873843614" lon="8.747666345093105"><ele>830.0</ele><time>2026-03-28T14:31:26Z</time></trkpt><trkpt lat="45.92965000094902" lon="8.747747367924735"><ele>827.0000000000001</ele><time>2026-03-28T14:31:27Z</time></trkpt><trkpt lat="45.92961804641949" lon="8.747839243486723"><ele>824.0</ele><time>2026-03-28T14:31:28Z</time></trkpt><trkpt lat="45.92960415012523" lon="8.747939836169571"><ele>821.0</ele><time>2026-03-28T14:31:29Z</time></trkpt><trkpt lat="45.929586270340984" lon="8.74805372272477"><ele>818.0</ele><time>2026-03-28T14:31:30Z</time></trkpt><trkpt lat="45.92956030585082" lon="8.748163276611669"><ele>815.0000000000001</ele><time>2026-03-28T14:31:31Z</time></trkpt><trkpt lat="45.92952642325539" lon="8.748264638065036"><ele>812.0</ele><time>2026-03-28T14:31:32Z</time></trkpt><trkpt lat="45.9295119705416" lon="8.748373478432766"><ele>811.6</ele><time>2026-03-28T14:31:33Z</time></trkpt><trkpt lat="45.92948643011412" lon="8.74855285657474"><ele>811.2</ele><time>2026-03-28T14:31:35Z</time></trkpt><trkpt lat="45.929459833066886" lon="8.748698440564247"><ele>810.8</ele><time>2026-03-28T14:31:37Z</time></trkpt><trkpt lat="45.92940950084066" lon="8.748761186751354"><ele>810.4</ele><time>2026-03-28T14:31:38Z</time></trkpt><trkpt lat="45.9293358015292" lon="8.748769179761457"><ele>810.0</ele><time>2026-03-28T14:31:39Z</time></trkpt><trkpt lat="45.929265412400625" lon="8.748822268714221"><ele>816.6</ele><time>2026-03-28T14:31:40Z</time></trkpt><trkpt lat="45.9292018856902" lon="8.748858223417383"><ele>823.2</ele><time>2026-03-28T14:31:41Z</time></trkpt><trkpt lat="45.9291083137951" lon="8.74888898418972"><ele>829.8</ele><time>2026-03-28T14:31:42Z</time></trkpt><trkpt lat="45.92904604538012" lon="8.748915517431895"><ele>836.4</ele><time>2026-03-28T14:31:43Z</time></trkpt><trkpt lat="45.92891577820436" lon="8.7489821521456"><ele>843.0</ele><time>2026-03-28T14:31:45Z</time></trkpt><trkpt lat="45.928829800270314" lon="8.74902211572202"><ele>843.0</ele><time>2026-03-28T14:31:46Z</time></trkpt><trkpt lat="45.92872998131544" lon="8.749059776584541"><ele>843.0</ele><time>2026-03-28T14:31:48Z</time></trkpt><trkpt lat="45.9286118023489" lon="8.74905364202861"><ele>843.0</ele><time>2026-03-28T14:33:44Z</time></trkpt><trkpt lat="45.92853964217679" lon="8.748970982822884"><ele>843.0</ele><time>2026-03-28T14:33:46Z</time></trkpt><trkpt lat="45.928471440226794" lon="8.748920888146797"><ele>843.0</ele><time>2026-03-28T14:33:47Z</time></trkpt><trkpt lat="45.92838565365545" lon="8.748858220327534"><ele>840.25</ele><time>2026-03-28T14:33:48Z</time></trkpt><trkpt lat="45.92829068241674" lon="8.748752674308536"><ele>837.5</ele><time>2026-03-28T14:33:49Z</time></trkpt><trkpt lat="45.92819454639698" lon="8.748644017936972"><ele>834.75</ele><time>2026-03-28T14:33:50Z</time></trkpt><trkpt lat="45.928093684913016" lon="8.74853131223508"><ele>832.0</ele><time>2026-03-28T14:33:51Z</time></trkpt><trkpt lat="45.92798070999954" lon="8.748366804549436"><ele>838.0</ele><time>2026-03-28T14:33:52Z</time></trkpt><trkpt lat="45.927880524719754" lon="8.748213544588635"><ele>844.0</ele><time>2026-03-28T14:33:53Z</time></trkpt><trkpt lat="45.927801212728305" lon="8.748104491090174"><ele>850.0</ele><time>2026-03-28T14:33:54Z</time></trkpt><trkpt lat="45.92769218493981" lon="8.748022680470202"><ele>856.0</ele><time>2026-03-28T14:33:54.999Z</time></trkpt><trkpt lat="45.92756656447557" lon="8.747942038613692"><ele>860.0</ele><time>2026-03-28T14:33:55.999Z</time></trkpt><trkpt lat="45.92744755378938" lon="8.74785994092388"><ele>864.0</ele><time>2026-03-28T14:33:56.999Z</time></trkpt><trkpt lat="45.927346730004466" lon="8.747784665423564"><ele>868.0</ele><time>2026-03-28T14:33:57.999Z</time></trkpt><trkpt lat="45.92722745832182" lon="8.747711979417348"><ele>872.0</ele><time>2026-03-28T14:33:58.999Z</time></trkpt><trkpt lat="45.92709470964481" lon="8.747645031339028"><ele>872.0</ele><time>2026-03-28T14:33:59.999Z</time></trkpt><trkpt lat="45.92696174795717" lon="8.7475812460726"><ele>872.0</ele><time>2026-03-28T14:34:00.999Z</time></trkpt><trkpt lat="45.92682637219878" lon="8.747532657056624"><ele>872.0</ele><time>2026-03-28T14:34:01.999Z</time></trkpt><trkpt lat="45.926693592902915" lon="8.74749322301523"><ele>872.0</ele><time>2026-03-28T14:34:02.999Z</time></trkpt><trkpt lat="45.92658430235544" lon="8.747475055287282"><ele>866.6</ele><time>2026-03-28T14:34:03.999Z</time></trkpt><trkpt lat="45.92647655426186" lon="8.74745629400931"><ele>861.2</ele><time>2026-03-28T14:34:04.999Z</time></trkpt><trkpt lat="45.92637383351405" lon="8.74742311698263"><ele>855.8</ele><time>2026-03-28T14:34:05.999Z</time></trkpt><trkpt lat="45.92628841771111" lon="8.747394473021085"><ele>850.4</ele><time>2026-03-28T14:34:06.999Z</time></trkpt><trkpt lat="45.926196684899566" lon="8.7473687149123"><ele>845.0</ele><time>2026-03-28T14:34:07.999Z</time></trkpt><trkpt lat="45.926087635447246" lon="8.74732543925809"><ele>845.0</ele><time>2026-03-28T14:34:08.999Z</time></trkpt><trkpt lat="45.92598519839296" lon="8.747269171138441"><ele>845.0</ele><time>2026-03-28T14:34:09.999Z</time></trkpt><trkpt lat="45.92590324333983" lon="8.74719272180525"><ele>845.0</ele><time>2026-03-28T14:34:10.999Z</time></trkpt><trkpt lat="45.925804980784996" lon="8.74713862849198"><ele>845.0</ele><time>2026-03-28T14:34:11.999Z</time></trkpt><trkpt lat="45.925674273087786" lon="8.747090358640556"><ele>845.0</ele><time>2026-03-28T14:34:12.999Z</time></trkpt><trkpt lat="45.925561451419036" lon="8.747015630643604"><ele>842.8</ele><time>2026-03-28T14:34:13.999Z</time></trkpt><trkpt lat="45.925471301757455" lon="8.74693193598682"><ele>840.6</ele><time>2026-03-28T14:34:14.999Z</time></trkpt><trkpt lat="45.925372407636495" lon="8.746857778044838"><ele>838.4000000000001</ele><time>2026-03-28T14:34:15.999Z</time></trkpt><trkpt lat="45.92527097537625" lon="8.746830450081704"><ele>836.2</ele><time>2026-03-28T14:34:16.999Z</time></trkpt><trkpt lat="45.92515031466838" lon="8.746814581457533"><ele>834.0</ele><time>2026-03-28T14:34:17.999Z</time></trkpt><trkpt lat="45.92502458924246" lon="8.74679515455327"><ele>830.75</ele><time>2026-03-28T14:34:18.999Z</time></trkpt><trkpt lat="45.92492004189927" lon="8.746784722679608"><ele>827.5</ele><time>2026-03-28T14:34:19.999Z</time></trkpt><trkpt lat="45.92481251523969" lon="8.74678968434753"><ele>824.25</ele><time>2026-03-28T14:34:20.999Z</time></trkpt><trkpt lat="45.92469240243659" lon="8.746842368834127"><ele>821.0</ele><time>2026-03-28T14:34:21.999Z</time></trkpt><trkpt lat="45.9245780530191" lon="8.746899450668954"><ele>821.0</ele><time>2026-03-28T14:34:22.999Z</time></trkpt><trkpt lat="45.924476125511404" lon="8.746943775144402"><ele>821.0</ele><time>2026-03-28T14:34:23.999Z</time></trkpt><trkpt lat="45.9243842939381" lon="8.746959575024515"><ele>821.0</ele><time>2026-03-28T14:34:24.999Z</time></trkpt><trkpt lat="45.92428696631411" lon="8.746921605464735"><ele>821.0</ele><time>2026-03-28T14:34:25.999Z</time></trkpt><trkpt lat="45.92417960335927" lon="8.746795032326318"><ele>821.0</ele><time>2026-03-28T14:34:26.999Z</time></trkpt><trkpt lat="45.92405547309861" lon="8.746617364029607"><ele>826.25</ele><time>2026-03-28T14:34:27.999Z</time></trkpt><trkpt lat="45.92393245805327" lon="8.74640556800192"><ele>831.5</ele><time>2026-03-28T14:34:28.999Z</time></trkpt><trkpt lat="45.92385222428982" lon="8.746243585734135"><ele>836.75</ele><time>2026-03-28T14:34:29.999Z</time></trkpt><trkpt lat="45.923793336666016" lon="8.746114598833586"><ele>842.0</ele><time>2026-03-28T14:34:30.999Z</time></trkpt><trkpt lat="45.92376193699549" lon="8.745989536777584"><ele>852.5</ele><time>2026-03-28T14:34:31.999Z</time></trkpt><trkpt lat="45.9237409472885" lon="8.745837993416133"><ele>863.0</ele><time>2026-03-28T14:34:32.999Z</time></trkpt><trkpt lat="45.92370056894945" lon="8.745689045916793"><ele>873.5</ele><time>2026-03-28T14:34:33.999Z</time></trkpt><trkpt lat="45.92359837304416" lon="8.745597813468557"><ele>884.0</ele><time>2026-03-28T14:34:34.999Z</time></trkpt><trkpt lat="45.92344015484119" lon="8.745564219774707"><ele>869.6666666666667</ele><time>2026-03-28T14:34:35.999Z</time></trkpt><trkpt lat="45.92323782429297" lon="8.745544479866789"><ele>855.3333333333333</ele><time>2026-03-28T14:34:36.999Z</time></trkpt><trkpt lat="45.92303724228931" lon="8.745509478340802"><ele>841.0</ele><time>2026-03-28T14:34:37.999Z</time></trkpt><trkpt lat="45.92284523568109" lon="8.745493342546162"><ele>841.0</ele><time>2026-03-28T14:34:38.999Z</time></trkpt><trkpt lat="45.92268606496721" lon="8.745529675955765"><ele>841.0</ele><time>2026-03-28T14:34:39.999Z</time></trkpt><trkpt lat="45.922540588668284" lon="8.745544481621298"><ele>841.0</ele><time>2026-03-28T14:34:40.999Z</time></trkpt><trkpt lat="45.92242580104586" lon="8.745556162805007"><ele>841.0</ele><time>2026-03-28T14:34:41.999Z</time></trkpt><trkpt lat="45.92233173615949" lon="8.745568042950994"><ele>839.0</ele><time>2026-03-28T14:34:42.999Z</time></trkpt><trkpt lat="45.92222723602609" lon="8.74556647477488"><ele>837.0</ele><time>2026-03-28T14:34:43.999Z</time></trkpt><trkpt lat="45.9221306752752" lon="8.745516374601728"><ele>835.0</ele><time>2026-03-28T14:34:44.999Z</time></trkpt><trkpt lat="45.922036343077934" lon="8.745420360468799"><ele>833.0</ele><time>2026-03-28T14:34:45.999Z</time></trkpt><trkpt lat="45.9219853018042" lon="8.74531369184996"><ele>831.0</ele><time>2026-03-28T14:34:46.999Z</time></trkpt><trkpt lat="45.921970957408384" lon="8.74518743198481"><ele>841.75</ele><time>2026-03-28T14:34:47.999Z</time></trkpt><trkpt lat="45.92195439643541" lon="8.745055238404234"><ele>852.5</ele><time>2026-03-28T14:34:48.999Z</time></trkpt><trkpt lat="45.92194369057267" lon="8.74488705955935"><ele>863.25</ele><time>2026-03-28T14:34:49.999Z</time></trkpt><trkpt lat="45.92193002299405" lon="8.744671321805221"><ele>874.0</ele><time>2026-03-28T14:34:50.999Z</time></trkpt><trkpt lat="45.92192722124546" lon="8.744436985823114"><ele>882.0</ele><time>2026-03-28T14:34:51.999Z</time></trkpt><trkpt lat="45.92191265250686" lon="8.744199706312271"><ele>890.0</ele><time>2026-03-28T14:34:52.999Z</time></trkpt><trkpt lat="45.92190143775524" lon="8.743974192375005"><ele>898.0</ele><time>2026-03-28T14:34:53.999Z</time></trkpt><trkpt lat="45.92189507605067" lon="8.743802684088447"><ele>906.0</ele><time>2026-03-28T14:34:54.999Z</time></trkpt><trkpt lat="45.92186918100821" lon="8.74365467288105"><ele>900.0</ele><time>2026-03-28T14:34:55.999Z</time></trkpt><trkpt lat="45.92181576496245" lon="8.743542272182667"><ele>894.0</ele><time>2026-03-28T14:34:56.998Z</time></trkpt><trkpt lat="45.9217269335044" lon="8.743454283931616"><ele>888.0</ele><time>2026-03-28T14:34:57.998Z</time></trkpt><trkpt lat="45.92161576800747" lon="8.74331035945089"><ele>882.0</ele><time>2026-03-28T14:34:58.998Z</time></trkpt><trkpt lat="45.92150049383446" lon="8.743147612710887"><ele>882.0</ele><time>2026-03-28T14:34:59.998Z</time></trkpt><trkpt lat="45.92139654508802" lon="8.743013174464346"><ele>882.0</ele><time>2026-03-28T14:35:00.998Z</time></trkpt><trkpt lat="45.92130083732733" lon="8.742929685517746"><ele>882.0</ele><time>2026-03-28T14:35:01.998Z</time></trkpt><trkpt lat="45.921206106181984" lon="8.74282860122786"><ele>882.0</ele><time>2026-03-28T14:35:02.998Z</time></trkpt><trkpt lat="45.92114523603603" lon="8.742724404833128"><ele>887.0</ele><time>2026-03-28T14:35:03.998Z</time></trkpt><trkpt lat="45.92110292269234" lon="8.742630553496397"><ele>892.0</ele><time>2026-03-28T14:35:04.998Z</time></trkpt><trkpt lat="45.92107395328368" lon="8.742500214364533"><ele>897.0</ele><time>2026-03-28T14:35:05.998Z</time></trkpt><trkpt lat="45.92106538484771" lon="8.742334578154164"><ele>902.0</ele><time>2026-03-28T14:35:06.998Z</time></trkpt><trkpt lat="45.92107194381145" lon="8.742169765212642"><ele>907.0</ele><time>2026-03-28T14:35:07.998Z</time></trkpt><trkpt lat="45.92110376786849" lon="8.742027357548684"><ele>906.9999999999999</ele><time>2026-03-28T14:35:08.998Z</time></trkpt><trkpt lat="45.92113287817119" lon="8.741927517319992"><ele>907.0</ele><time>2026-03-28T14:35:09.998Z</time></trkpt><trkpt lat="45.92115649818782" lon="8.741835282667623"><ele>907.0</ele><time>2026-03-28T14:35:10.998Z</time></trkpt><trkpt lat="45.92117871173999" lon="8.741749012188018"><ele>907.0</ele><time>2026-03-28T14:35:11.998Z</time></trkpt><trkpt lat="45.921208540269795" lon="8.74163798374171"><ele>906.9999999999999</ele><time>2026-03-28T14:35:12.998Z</time></trkpt><trkpt lat="45.921234211645924" lon="8.741509603261793"><ele>907.0</ele><time>2026-03-28T14:35:14Z</time></trkpt><trkpt lat="45.92124922051632" lon="8.741387743779011"><ele>905.2</ele><time>2026-03-28T14:35:15Z</time></trkpt><trkpt lat="45.921285512030174" lon="8.741266184044115"><ele>903.4000000000001</ele><time>2026-03-28T14:35:16Z</time></trkpt><trkpt lat="45.92132244280065" lon="8.74112898593432"><ele>901.5999999999999</ele><time>2026-03-28T14:35:17Z</time></trkpt><trkpt lat="45.921368268675415" lon="8.740984006837351"><ele>899.8</ele><time>2026-03-28T14:35:18Z</time></trkpt><trkpt lat="45.92141542802485" lon="8.740840058260021"><ele>898.0</ele><time>2026-03-28T14:35:19Z</time></trkpt><trkpt lat="45.92145875510216" lon="8.7406957989126"><ele>893.4</ele><time>2026-03-28T14:35:20Z</time></trkpt><trkpt lat="45.9214923350792" lon="8.740560011607423"><ele>888.8</ele><time>2026-03-28T14:35:21Z</time></trkpt><trkpt lat="45.921522180794945" lon="8.740421858706304"><ele>884.2</ele><time>2026-03-28T14:35:22Z</time></trkpt><trkpt lat="45.92155675457067" lon="8.74027387491906"><ele>879.6</ele><time>2026-03-28T14:35:23Z</time></trkpt><trkpt lat="45.921586433199266" lon="8.740155160968628"><ele>875.0</ele><time>2026-03-28T14:35:24Z</time></trkpt><trkpt lat="45.92162879641439" lon="8.74003550753275"><ele>878.4</ele><time>2026-03-28T14:35:25Z</time></trkpt><trkpt lat="45.921685083402814" lon="8.739936912883286"><ele>881.8</ele><time>2026-03-28T14:35:26Z</time></trkpt><trkpt lat="45.92179706809201" lon="8.739832599763659"><ele>885.2</ele><time>2026-03-28T14:35:27Z</time></trkpt><trkpt lat="45.921874320072064" lon="8.739714797459529"><ele>888.6</ele><time>2026-03-28T14:35:28Z</time></trkpt><trkpt lat="45.92192791195082" lon="8.739582001335837"><ele>892.0</ele><time>2026-03-28T14:35:29Z</time></trkpt><trkpt lat="45.921971709119035" lon="8.739448008638343"><ele>886.25</ele><time>2026-03-28T14:35:30Z</time></trkpt><trkpt lat="45.92198142839041" lon="8.739325132406947"><ele>880.5</ele><time>2026-03-28T14:35:31Z</time></trkpt><trkpt lat="45.92196816807963" lon="8.739138158296953"><ele>874.75</ele><time>2026-03-28T14:35:32Z</time></trkpt><trkpt lat="45.92194295347633" lon="8.738943313605382"><ele>869.0</ele><time>2026-03-28T14:35:33Z</time></trkpt><trkpt lat="45.921922679369096" lon="8.738789135917633"><ele>869.0</ele><time>2026-03-28T14:35:34Z</time></trkpt><trkpt lat="45.92190878237099" lon="8.738660730458825"><ele>869.0000000000001</ele><time>2026-03-28T14:35:35Z</time></trkpt><trkpt lat="45.92192785131007" lon="8.738494228148847"><ele>869.0000000000001</ele><time>2026-03-28T14:35:37Z</time></trkpt><trkpt lat="45.921985235952526" lon="8.738423981087852"><ele>869.0</ele><time>2026-03-28T14:35:38Z</time></trkpt><trkpt lat="45.92210311975806" lon="8.738352674969237"><ele>869.0</ele><time>2026-03-28T14:35:39Z</time></trkpt><trkpt lat="45.92222273520572" lon="8.738273877796747"><ele>867.25</ele><time>2026-03-28T14:35:40Z</time></trkpt><trkpt lat="45.922350122065566" lon="8.738180431895263"><ele>865.5</ele><time>2026-03-28T14:35:41Z</time></trkpt><trkpt lat="45.92246612770078" lon="8.738061726838385"><ele>863.75</ele><time>2026-03-28T14:35:42Z</time></trkpt><trkpt lat="45.9225699398457" lon="8.737944257961773"><ele>862.0</ele><time>2026-03-28T14:35:43Z</time></trkpt><trkpt lat="45.92265012490313" lon="8.737839563124902"><ele>862.0</ele><time>2026-03-28T14:35:44Z</time></trkpt><trkpt lat="45.9227275089597" lon="8.737745037968454"><ele>862.0</ele><time>2026-03-28T14:35:45Z</time></trkpt><trkpt lat="45.92280075551148" lon="8.737660631203335"><ele>862.0</ele><time>2026-03-28T14:35:46Z</time></trkpt><trkpt lat="45.92287997095007" lon="8.737569782254367"><ele>862.0</ele><time>2026-03-28T14:35:47Z</time></trkpt><trkpt lat="45.92295309362158" lon="8.737498854103304"><ele>862.0</ele><time>2026-03-28T14:35:48Z</time></trkpt><trkpt lat="45.92301773231244" lon="8.737430218328754"><ele>856.9999999999999</ele><time>2026-03-28T14:35:49Z</time></trkpt><trkpt lat="45.92307671484688" lon="8.737347229111709"><ele>852.0</ele><time>2026-03-28T14:35:50Z</time></trkpt><trkpt lat="45.92312815434151" lon="8.737252494464567"><ele>847.0</ele><time>2026-03-28T14:35:51Z</time></trkpt><trkpt lat="45.92317447018317" lon="8.737168660532202"><ele>842.0</ele><time>2026-03-28T14:35:52Z</time></trkpt><trkpt lat="45.92322780981666" lon="8.737084539995514"><ele>836.9999999999999</ele><time>2026-03-28T14:35:53Z</time></trkpt><trkpt lat="45.92327897916322" lon="8.736996328879744"><ele>832.0</ele><time>2026-03-28T14:35:54Z</time></trkpt><trkpt lat="45.9233242875285" lon="8.736905058923664"><ele>829.4999999999999</ele><time>2026-03-28T14:35:55Z</time></trkpt><trkpt lat="45.92337054841624" lon="8.736815953871432"><ele>827.0</ele><time>2026-03-28T14:35:56Z</time></trkpt><trkpt lat="45.92337867235134" lon="8.736710657477262"><ele>824.5</ele><time>2026-03-28T14:35:57Z</time></trkpt><trkpt lat="45.92339124399565" lon="8.7366112600796"><ele>822.0</ele><time>2026-03-28T14:35:58Z</time></trkpt><trkpt lat="45.92341020095355" lon="8.736523575546103"><ele>819.4999999999999</ele><time>2026-03-28T14:35:59Z</time></trkpt><trkpt lat="45.92351324776135" lon="8.736399929194947"><ele>817.0</ele><time>2026-03-28T14:36:00.999Z</time></trkpt><trkpt lat="45.92360380706081" lon="8.736355389870592"><ele>816.9999999999999</ele><time>2026-03-28T14:36:01.999Z</time></trkpt><trkpt lat="45.9236755708671" lon="8.736309200506259"><ele>817.0</ele><time>2026-03-28T14:36:02.999Z</time></trkpt><trkpt lat="45.92373812362802" lon="8.736247214136258"><ele>817.0</ele><time>2026-03-28T14:36:03.999Z</time></trkpt><trkpt lat="45.92378476486382" lon="8.736158694883253"><ele>817.0</ele><time>2026-03-28T14:36:04.999Z</time></trkpt><trkpt lat="45.92382627648736" lon="8.736070186734858"><ele>816.9999999999999</ele><time>2026-03-28T14:36:05.999Z</time></trkpt><trkpt lat="45.923910742799436" lon="8.736005151257926"><ele>817.0</ele><time>2026-03-28T14:36:07.999Z</time></trkpt><trkpt lat="45.92400350208822" lon="8.736098225304856"><ele>817.0</ele><time>2026-03-28T14:36:09.999Z</time></trkpt><trkpt lat="45.92411981862969" lon="8.736095330456143"><ele>817.0</ele><time>2026-03-28T14:36:11.999Z</time></trkpt><trkpt lat="45.92419075766527" lon="8.736023737821688"><ele>817.0</ele><time>2026-03-28T14:36:12.999Z</time></trkpt><trkpt lat="45.92423387059279" lon="8.735911112926516"><ele>817.0</ele><time>2026-03-28T14:36:14.999Z</time></trkpt><trkpt lat="45.9242331032129" lon="8.735760566902808"><ele>817.0</ele><time>2026-03-28T14:36:16.999Z</time></trkpt><trkpt lat="45.92427688371569" lon="8.735586092251339"><ele>816.4000000000001</ele><time>2026-03-28T14:36:18.999Z</time></trkpt><trkpt lat="45.924311637988176" lon="8.735474608379283"><ele>815.8000000000001</ele><time>2026-03-28T14:36:19.999Z</time></trkpt><trkpt lat="45.92434476958913" lon="8.735369690551911"><ele>815.2</ele><time>2026-03-28T14:36:20.999Z</time></trkpt><trkpt lat="45.9243882987998" lon="8.73524102833253"><ele>814.6</ele><time>2026-03-28T14:36:21.999Z</time></trkpt><trkpt lat="45.924434547629374" lon="8.735112900337532"><ele>814.0</ele><time>2026-03-28T14:36:22.999Z</time></trkpt><trkpt lat="45.92448851286188" lon="8.734996847774102"><ele>814.0</ele><time>2026-03-28T14:36:23.999Z</time></trkpt><trkpt lat="45.92456920758577" lon="8.73487046828702"><ele>814.0</ele><time>2026-03-28T14:36:24.999Z</time></trkpt><trkpt lat="45.92463375476176" lon="8.734730222578056"><ele>814.0</ele><time>2026-03-28T14:36:25.999Z</time></trkpt><trkpt lat="45.92467921164007" lon="8.734581544772205"><ele>814.0</ele><time>2026-03-28T14:36:26.999Z</time></trkpt><trkpt lat="45.92470297749932" lon="8.734426635180366"><ele>811.6666666666666</ele><time>2026-03-28T14:36:27.999Z</time></trkpt><trkpt lat="45.924707256740376" lon="8.734304388203544"><ele>809.3333333333333</ele><time>2026-03-28T14:36:28.999Z</time></trkpt><trkpt lat="45.92469880723385" lon="8.7341931242699"><ele>807.0</ele><time>2026-03-28T14:36:29.999Z</time></trkpt><trkpt lat="45.9246823914183" lon="8.73410396925105"><ele>804.6666666666667</ele><time>2026-03-28T14:36:30.999Z</time></trkpt><trkpt lat="45.9245950187041" lon="8.734018698885539"><ele>802.3333333333334</ele><time>2026-03-28T14:36:32.999Z</time></trkpt><trkpt lat="45.924501277016766" lon="8.733987356863897"><ele>800.0</ele><time>2026-03-28T14:36:33.999Z</time></trkpt><trkpt lat="45.92442584866951" lon="8.733909667714771"><ele>800.0</ele><time>2026-03-28T14:36:34.999Z</time></trkpt><trkpt lat="45.92434904438438" lon="8.733767710520699"><ele>800.0</ele><time>2026-03-28T14:36:35.999Z</time></trkpt><trkpt lat="45.92429002023375" lon="8.733628960190448"><ele>800.0</ele><time>2026-03-28T14:36:36.999Z</time></trkpt><trkpt lat="45.9242259088219" lon="8.733498150012673"><ele>800.0</ele><time>2026-03-28T14:36:37.999Z</time></trkpt><trkpt lat="45.924171492394" lon="8.733392079964172"><ele>800.0</ele><time>2026-03-28T14:36:38.999Z</time></trkpt><trkpt lat="45.924107087652345" lon="8.73328310891948"><ele>797.8</ele><time>2026-03-28T14:36:39.999Z</time></trkpt><trkpt lat="45.92404922599316" lon="8.733168355927663"><ele>795.6</ele><time>2026-03-28T14:36:40.999Z</time></trkpt><trkpt lat="45.92398828173076" lon="8.733049988344227"><ele>793.4000000000001</ele><time>2026-03-28T14:36:41.999Z</time></trkpt><trkpt lat="45.92393244309128" lon="8.732940948793237"><ele>791.2</ele><time>2026-03-28T14:36:42.999Z</time></trkpt><trkpt lat="45.923888273728906" lon="8.732833209303893"><ele>789.0</ele><time>2026-03-28T14:36:43.999Z</time></trkpt><trkpt lat="45.92384423235115" lon="8.732725704587883"><ele>789.5</ele><time>2026-03-28T14:36:44.999Z</time></trkpt><trkpt lat="45.923801486141706" lon="8.732625403387352"><ele>790.0</ele><time>2026-03-28T14:36:45.999Z</time></trkpt><trkpt lat="45.92376520561747" lon="8.732538334301305"><ele>790.5</ele><time>2026-03-28T14:36:46.999Z</time></trkpt><trkpt lat="45.923739525772454" lon="8.732429036618948"><ele>791.0</ele><time>2026-03-28T14:36:48.999Z</time></trkpt><trkpt lat="45.923786409046684" lon="8.732332750696004"><ele>791.5</ele><time>2026-03-28T14:36:50.999Z</time></trkpt><trkpt lat="45.92375735997594" lon="8.732201191007123"><ele>792.0</ele><time>2026-03-28T14:36:52.999Z</time></trkpt><trkpt lat="45.92373466475579" lon="8.732109966770494"><ele>792.0</ele><time>2026-03-28T14:36:53.999Z</time></trkpt><trkpt lat="45.92368260970896" lon="8.73197204995908"><ele>792.0</ele><time>2026-03-28T14:36:55.999Z</time></trkpt><trkpt lat="45.92367040145092" lon="8.731876500115803"><ele>792.0</ele><time>2026-03-28T14:36:56.999Z</time></trkpt><trkpt lat="45.92367901695778" lon="8.73172581332859"><ele>792.0</ele><time>2026-03-28T14:36:57.999Z</time></trkpt><trkpt lat="45.923680081049085" lon="8.731565127130692"><ele>792.0</ele><time>2026-03-28T14:36:58.999Z</time></trkpt><trkpt lat="45.923677345714545" lon="8.731423516568162"><ele>792.1666666666666</ele><time>2026-03-28T14:36:59.999Z</time></trkpt><trkpt lat="45.92366214185548" lon="8.731334743046252"><ele>792.3333333333333</ele><time>2026-03-28T14:37:00.999Z</time></trkpt><trkpt lat="45.923652160166796" lon="8.731234930657687"><ele>792.5</ele><time>2026-03-28T14:37:08.998Z</time></trkpt><trkpt lat="45.923633642497045" lon="8.731125284905579"><ele>792.6666666666666</ele><time>2026-03-28T14:37:12.998Z</time></trkpt><trkpt lat="45.923686776608164" lon="8.731194178419065"><ele>792.8333333333333</ele><time>2026-03-28T14:37:17.998Z</time></trkpt><trkpt lat="45.92375726587037" lon="8.731316416966402"><ele>793.0</ele><time>2026-03-28T14:37:20Z</time></trkpt><trkpt lat="45.923778346324035" lon="8.731433261771528"><ele>792.9999999999999</ele><time>2026-03-28T14:37:22Z</time></trkpt><trkpt lat="45.923759584945344" lon="8.731558425340864"><ele>793.0</ele><time>2026-03-28T14:37:24Z</time></trkpt><trkpt lat="45.923753134350335" lon="8.731671082383706"><ele>793.0</ele><time>2026-03-28T14:37:27Z</time></trkpt><trkpt lat="45.9238129929757" lon="8.731712547416691"><ele>793.0</ele><time>2026-03-28T14:37:57Z</time></trkpt><trkpt lat="45.92377311132933" lon="8.731558013237184"><ele>792.9999999999999</ele><time>2026-03-28T14:37:59Z</time></trkpt><trkpt lat="45.923747686985294" lon="8.731473655339457"><ele>793.0</ele><time>2026-03-28T14:38:02Z</time></trkpt><trkpt lat="45.923689152179996" lon="8.731508711207706"><ele>792.9999999999999</ele><time>2026-03-28T14:38:07.999Z</time></trkpt><trkpt lat="45.92371582371597" lon="8.731640233389498"><ele>793.0</ele><time>2026-03-28T14:39:23.998Z</time></trkpt><trkpt lat="45.923762637878376" lon="8.731716612187821"><ele>793.0</ele><time>2026-03-28T14:39:24.998Z</time></trkpt><trkpt lat="45.923806386951284" lon="8.731808642948623"><ele>793.0</ele><time>2026-03-28T14:39:26Z</time></trkpt><trkpt lat="45.92382450636298" lon="8.731933499629099"><ele>792.9999999999999</ele><time>2026-03-28T14:39:27Z</time></trkpt><trkpt lat="45.9238490438586" lon="8.732079113230874"><ele>793.0</ele><time>2026-03-28T14:39:28Z</time></trkpt><trkpt lat="45.92388448078778" lon="8.732232407751606"><ele>792.8</ele><time>2026-03-28T14:39:29Z</time></trkpt><trkpt lat="45.9239315889854" lon="8.732390486937037"><ele>792.5999999999999</ele><time>2026-03-28T14:39:30Z</time></trkpt><trkpt lat="45.923966411169424" lon="8.73253861314209"><ele>792.4000000000001</ele><time>2026-03-28T14:39:31Z</time></trkpt><trkpt lat="45.92398010297282" lon="8.732643099075203"><ele>792.2</ele><time>2026-03-28T14:39:32Z</time></trkpt><trkpt lat="45.92398757342629" lon="8.732759043586002"><ele>792.0</ele><time>2026-03-28T14:39:33Z</time></trkpt><trkpt lat="45.923998101588396" lon="8.732882468102758"><ele>791.5</ele><time>2026-03-28T14:39:34Z</time></trkpt><trkpt lat="45.92401748302298" lon="8.732990489556162"><ele>791.0</ele><time>2026-03-28T14:39:35Z</time></trkpt><trkpt lat="45.924040627124285" lon="8.733116785483766"><ele>790.5</ele><time>2026-03-28T14:39:36Z</time></trkpt><trkpt lat="45.92407204099766" lon="8.733224389156222"><ele>790.0</ele><time>2026-03-28T14:39:37Z</time></trkpt><trkpt lat="45.92412013487896" lon="8.733327655821178"><ele>789.5</ele><time>2026-03-28T14:39:38Z</time></trkpt><trkpt lat="45.924170526687035" lon="8.7334105268186"><ele>789.0</ele><time>2026-03-28T14:39:39Z</time></trkpt><trkpt lat="45.924221138610775" lon="8.733490056891691"><ele>790.8333333333334</ele><time>2026-03-28T14:39:40Z</time></trkpt><trkpt lat="45.92426618680374" lon="8.733578976730094"><ele>792.6666666666667</ele><time>2026-03-28T14:39:41Z</time></trkpt><trkpt lat="45.92430912276366" lon="8.7336674854771"><ele>794.5</ele><time>2026-03-28T14:39:42Z</time></trkpt><trkpt lat="45.92434745776495" lon="8.733750827030734"><ele>796.3333333333334</ele><time>2026-03-28T14:39:43Z</time></trkpt><trkpt lat="45.924398718576256" lon="8.733848571835884"><ele>798.1666666666667</ele><time>2026-03-28T14:39:44Z</time></trkpt><trkpt lat="45.92446809708983" lon="8.733947694125858"><ele>800.0</ele><time>2026-03-28T14:39:45Z</time></trkpt><trkpt lat="45.924517878203865" lon="8.734028377587936"><ele>800.0</ele><time>2026-03-28T14:39:46Z</time></trkpt><trkpt lat="45.92465332382952" lon="8.734074057062097"><ele>800.0</ele><time>2026-03-28T14:39:48Z</time></trkpt><trkpt lat="45.924704014671036" lon="8.734130079118895"><ele>800.0</ele><time>2026-03-28T14:39:49Z</time></trkpt><trkpt lat="45.92470353565131" lon="8.734345948683329"><ele>800.0</ele><time>2026-03-28T14:39:51Z</time></trkpt><trkpt lat="45.924688295224165" lon="8.734516124709915"><ele>803.5</ele><time>2026-03-28T14:39:52Z</time></trkpt><trkpt lat="45.92465281796987" lon="8.734688557951099"><ele>807.0</ele><time>2026-03-28T14:39:53Z</time></trkpt><trkpt lat="45.92459148514772" lon="8.734872297535732"><ele>810.5</ele><time>2026-03-28T14:39:54Z</time></trkpt><trkpt lat="45.92449777565223" lon="8.735046436780353"><ele>814.0</ele><time>2026-03-28T14:39:55Z</time></trkpt><trkpt lat="45.92441592731704" lon="8.73518723726091"><ele>813.3333333333333</ele><time>2026-03-28T14:39:56Z</time></trkpt><trkpt lat="45.92434957989438" lon="8.73532476586557"><ele>812.6666666666666</ele><time>2026-03-28T14:39:57Z</time></trkpt><trkpt lat="45.924307612026055" lon="8.735449671792267"><ele>812.0</ele><time>2026-03-28T14:39:58Z</time></trkpt><trkpt lat="45.924288488637885" lon="8.73556321572163"><ele>811.3333333333333</ele><time>2026-03-28T14:39:59Z</time></trkpt><trkpt lat="45.924267993937335" lon="8.735666738655082"><ele>810.6666666666666</ele><time>2026-03-28T14:40:00Z</time></trkpt><trkpt lat="45.92424181717011" lon="8.735769552537544"><ele>810.0</ele><time>2026-03-28T14:40:01Z</time></trkpt><trkpt lat="45.92421965499354" lon="8.735857644778608"><ele>810.0</ele><time>2026-03-28T14:40:02Z</time></trkpt><trkpt lat="45.92419802944116" lon="8.736004939945289"><ele>810.0</ele><time>2026-03-28T14:40:04Z</time></trkpt><trkpt lat="45.924117153726264" lon="8.736110878419376"><ele>810.0</ele><time>2026-03-28T14:40:06Z</time></trkpt><trkpt lat="45.9240446948244" lon="8.736128512256862"><ele>810.0</ele><time>2026-03-28T14:40:07Z</time></trkpt><trkpt lat="45.92393120060699" lon="8.736091123548107"><ele>810.0</ele><time>2026-03-28T14:40:08.999Z</time></trkpt><trkpt lat="45.92386968846892" lon="8.736043867025312"><ele>811.1666666666666</ele><time>2026-03-28T14:40:09.999Z</time></trkpt><trkpt lat="45.9237927918153" lon="8.736087239539163"><ele>812.3333333333333</ele><time>2026-03-28T14:40:11.999Z</time></trkpt><trkpt lat="45.92372481477889" lon="8.73624960664229"><ele>813.5</ele><time>2026-03-28T14:40:13.999Z</time></trkpt><trkpt lat="45.92367208280188" lon="8.736324454466885"><ele>814.6666666666666</ele><time>2026-03-28T14:40:14.999Z</time></trkpt><trkpt lat="45.923606811811986" lon="8.736376652157446"><ele>815.8333333333333</ele><time>2026-03-28T14:40:15.999Z</time></trkpt><trkpt lat="45.92354610179547" lon="8.736421467239042"><ele>817.0</ele><time>2026-03-28T14:40:16.999Z</time></trkpt><trkpt lat="45.9234726998014" lon="8.736470476357132"><ele>816.9999999999999</ele><time>2026-03-28T14:40:17.999Z</time></trkpt><trkpt lat="45.92340689497157" lon="8.736519653180258"><ele>817.0</ele><time>2026-03-28T14:40:18.999Z</time></trkpt><trkpt lat="45.92335235893323" lon="8.736637993404418"><ele>817.0</ele><time>2026-03-28T14:40:20.999Z</time></trkpt><trkpt lat="45.92334526902076" lon="8.736739454746454"><ele>817.0</ele><time>2026-03-28T14:40:21.999Z</time></trkpt><trkpt lat="45.92333324074073" lon="8.736838830963164"><ele>816.9999999999999</ele><time>2026-03-28T14:40:22.999Z</time></trkpt><trkpt lat="45.923316882681725" lon="8.73694047194836"><ele>817.0</ele><time>2026-03-28T14:40:23.999Z</time></trkpt><trkpt lat="45.92327692145971" lon="8.737025963551206"><ele>819.4999999999999</ele><time>2026-03-28T14:40:24.999Z</time></trkpt><trkpt lat="45.92322583752948" lon="8.737100214578305"><ele>822.0</ele><time>2026-03-28T14:40:25.999Z</time></trkpt><trkpt lat="45.92317540814682" lon="8.737161789337373"><ele>824.5</ele><time>2026-03-28T14:40:26.999Z</time></trkpt><trkpt lat="45.92312894963328" lon="8.737232969533197"><ele>827.0</ele><time>2026-03-28T14:40:27.999Z</time></trkpt><trkpt lat="45.92308329582456" lon="8.737309660190556"><ele>829.4999999999999</ele><time>2026-03-28T14:40:28.999Z</time></trkpt><trkpt lat="45.92302715898038" lon="8.737401745576385"><ele>832.0</ele><time>2026-03-28T14:40:29.999Z</time></trkpt><trkpt lat="45.922953942616594" lon="8.737509609322327"><ele>832.0</ele><time>2026-03-28T14:40:30.999Z</time></trkpt><trkpt lat="45.92287343986425" lon="8.737609677028384"><ele>832.0</ele><time>2026-03-28T14:40:31.999Z</time></trkpt><trkpt lat="45.92278183669913" lon="8.73769638394214"><ele>832.0</ele><time>2026-03-28T14:40:32.999Z</time></trkpt><trkpt lat="45.92269160769197" lon="8.737790251661478"><ele>832.0</ele><time>2026-03-28T14:40:33.999Z</time></trkpt><trkpt lat="45.92259600012716" lon="8.737921669129781"><ele>835.75</ele><time>2026-03-28T14:40:34.999Z</time></trkpt><trkpt lat="45.92249353220098" lon="8.738036139230168"><ele>839.5</ele><time>2026-03-28T14:40:35.999Z</time></trkpt><trkpt lat="45.92238342566026" lon="8.738138319612604"><ele>843.25</ele><time>2026-03-28T14:40:36.999Z</time></trkpt><trkpt lat="45.922267004237256" lon="8.738248126143457"><ele>847.0</ele><time>2026-03-28T14:40:37.999Z</time></trkpt><trkpt lat="45.92214826908018" lon="8.738355041500963"><ele>847.0</ele><time>2026-03-28T14:40:38.999Z</time></trkpt><trkpt lat="45.922018519793006" lon="8.738458265531758"><ele>847.0</ele><time>2026-03-28T14:40:39.999Z</time></trkpt><trkpt lat="45.921920423501625" lon="8.73855331885652"><ele>847.0</ele><time>2026-03-28T14:40:40.999Z</time></trkpt><trkpt lat="45.92188508300691" lon="8.738682665198029"><ele>847.0</ele><time>2026-03-28T14:40:42.999Z</time></trkpt><trkpt lat="45.92191148804911" lon="8.738809469143154"><ele>852.5</ele><time>2026-03-28T14:40:43.999Z</time></trkpt><trkpt lat="45.92194908135408" lon="8.73898081365295"><ele>858.0</ele><time>2026-03-28T14:40:44.999Z</time></trkpt><trkpt lat="45.92196432652099" lon="8.739148058037774"><ele>863.5</ele><time>2026-03-28T14:40:45.999Z</time></trkpt><trkpt lat="45.9219732534601" lon="8.739309032385757"><ele>869.0</ele><time>2026-03-28T14:40:46.999Z</time></trkpt><trkpt lat="45.92197272628458" lon="8.739477039262756"><ele>864.75</ele><time>2026-03-28T14:40:47.999Z</time></trkpt><trkpt lat="45.921955732889515" lon="8.739616905242734"><ele>860.5</ele><time>2026-03-28T14:40:48.999Z</time></trkpt><trkpt lat="45.92188419845947" lon="8.739747021944073"><ele>856.25</ele><time>2026-03-28T14:40:49.999Z</time></trkpt><trkpt lat="45.92179371799171" lon="8.73989129305512"><ele>852.0</ele><time>2026-03-28T14:40:50.999Z</time></trkpt><trkpt lat="45.92170810005285" lon="8.740016769062915"><ele>852.0</ele><time>2026-03-28T14:40:51.999Z</time></trkpt><trkpt lat="45.92162898690314" lon="8.740099312749487"><ele>852.0</ele><time>2026-03-28T14:40:52.999Z</time></trkpt><trkpt lat="45.92157686176557" lon="8.740192767216609"><ele>852.0</ele><time>2026-03-28T14:40:53.999Z</time></trkpt><trkpt lat="45.921547010464835" lon="8.740314450229379"><ele>852.0</ele><time>2026-03-28T14:40:54.999Z</time></trkpt><trkpt lat="45.9215053003762" lon="8.740487361949405"><ele>852.0</ele><time>2026-03-28T14:40:55.999Z</time></trkpt><trkpt lat="45.9214636514983" lon="8.740677509136807"><ele>857.75</ele><time>2026-03-28T14:40:56.999Z</time></trkpt><trkpt lat="45.921422248820726" lon="8.740863670511942"><ele>863.5</ele><time>2026-03-28T14:40:57.999Z</time></trkpt><trkpt lat="45.921361289725" lon="8.741044932063767"><ele>869.25</ele><time>2026-03-28T14:40:58.999Z</time></trkpt><trkpt lat="45.92129622615433" lon="8.741233362914915"><ele>875.0</ele><time>2026-03-28T14:40:59.999Z</time></trkpt><trkpt lat="45.92123960275742" lon="8.74141170060905"><ele>878.8333333333334</ele><time>2026-03-28T14:41:00.999Z</time></trkpt><trkpt lat="45.92121136464967" lon="8.741540753912403"><ele>882.6666666666667</ele><time>2026-03-28T14:41:01.999Z</time></trkpt><trkpt lat="45.92119152153234" lon="8.741681866454815"><ele>886.5</ele><time>2026-03-28T14:41:02.999Z</time></trkpt><trkpt lat="45.921173991780826" lon="8.741807204051916"><ele>890.3333333333333</ele><time>2026-03-28T14:41:03.999Z</time></trkpt><trkpt lat="45.921146894008565" lon="8.741912299990915"><ele>894.1666666666666</ele><time>2026-03-28T14:41:05.999Z</time></trkpt><trkpt lat="45.92122849074513" lon="8.74189278756119"><ele>898.0</ele><time>2026-03-28T14:41:09.998Z</time></trkpt><trkpt lat="45.92124981144051" lon="8.74177112120009"><ele>898.0</ele><time>2026-03-28T14:41:10.998Z</time></trkpt><trkpt lat="45.92128627188078" lon="8.741606125956142"><ele>898.0</ele><time>2026-03-28T14:41:11.998Z</time></trkpt><trkpt lat="45.92136449359078" lon="8.741454093410573"><ele>898.0</ele><time>2026-03-28T14:41:12.998Z</time></trkpt><trkpt lat="45.92145536994016" lon="8.741322955638935"><ele>898.0</ele><time>2026-03-28T14:41:13.998Z</time></trkpt><trkpt lat="45.92155000478385" lon="8.741156403472141"><ele>902.75</ele><time>2026-03-28T14:41:14.998Z</time></trkpt><trkpt lat="45.92166043438754" lon="8.740965917511256"><ele>907.5</ele><time>2026-03-28T14:41:15.998Z</time></trkpt><trkpt lat="45.92175360725312" lon="8.740821147467855"><ele>912.25</ele><time>2026-03-28T14:41:16.998Z</time></trkpt><trkpt lat="45.92183618845396" lon="8.740701158990623"><ele>917.0</ele><time>2026-03-28T14:41:17.998Z</time></trkpt><trkpt lat="45.92190426315664" lon="8.740616213930391"><ele>917.0</ele><time>2026-03-28T14:41:18.998Z</time></trkpt><trkpt lat="45.92204049297133" lon="8.740506565944086"><ele>917.0</ele><time>2026-03-28T14:41:19.998Z</time></trkpt><trkpt lat="45.92218603951766" lon="8.740398808118039"><ele>917.0</ele><time>2026-03-28T14:41:20.998Z</time></trkpt><trkpt lat="45.92233834120054" lon="8.740250944369683"><ele>915.75</ele><time>2026-03-28T14:41:21.998Z</time></trkpt><trkpt lat="45.92246002721931" lon="8.74012865276498"><ele>914.5</ele><time>2026-03-28T14:41:22.998Z</time></trkpt><trkpt lat="45.922554266019105" lon="8.74000450866761"><ele>913.25</ele><time>2026-03-28T14:41:23.998Z</time></trkpt><trkpt lat="45.922635112944675" lon="8.739844891672925"><ele>912.0</ele><time>2026-03-28T14:41:24.998Z</time></trkpt><trkpt lat="45.92270037716757" lon="8.739686521937088"><ele>912.0</ele><time>2026-03-28T14:41:25.998Z</time></trkpt><trkpt lat="45.9227702743845" lon="8.739582310929102"><ele>912.0</ele><time>2026-03-28T14:41:26.998Z</time></trkpt><trkpt lat="45.92285050696684" lon="8.739529168221008"><ele>912.0</ele><time>2026-03-28T14:41:27.998Z</time></trkpt><trkpt lat="45.9229382163041" lon="8.739501681721427"><ele>912.0</ele><time>2026-03-28T14:41:28.998Z</time></trkpt><trkpt lat="45.92305523893136" lon="8.739495215817474"><ele>912.0</ele><time>2026-03-28T14:41:29.998Z</time></trkpt><trkpt lat="45.92320271209249" lon="8.739528233759163"><ele>912.0</ele><time>2026-03-28T14:41:30.998Z</time></trkpt><trkpt lat="45.92335659136537" lon="8.739534527390362"><ele>912.0</ele><time>2026-03-28T14:41:32Z</time></trkpt><trkpt lat="45.923464514499635" lon="8.739584735240992"><ele>912.0</ele><time>2026-03-28T14:41:33Z</time></trkpt><trkpt lat="45.92354290455507" lon="8.739595310081056"><ele>912.0</ele><time>2026-03-28T14:41:34Z</time></trkpt><trkpt lat="45.923601639634015" lon="8.739658512516579"><ele>912.0</ele><time>2026-03-28T14:41:35Z</time></trkpt><trkpt lat="45.92365533471193" lon="8.739763744565064"><ele>915.0</ele><time>2026-03-28T14:41:36Z</time></trkpt><trkpt lat="45.92369128209682" lon="8.739932923949004"><ele>918.0</ele><time>2026-03-28T14:41:37Z</time></trkpt><trkpt lat="45.923740797104514" lon="8.74012076472957"><ele>921.0</ele><time>2026-03-28T14:41:38Z</time></trkpt><trkpt lat="45.923813061601734" lon="8.74031363557859"><ele>924.0</ele><time>2026-03-28T14:41:39Z</time></trkpt><trkpt lat="45.92388537921243" lon="8.74047124746998"><ele>924.0</ele><time>2026-03-28T14:41:40Z</time></trkpt><trkpt lat="45.92395773216207" lon="8.740588285491105"><ele>924.0000000000001</ele><time>2026-03-28T14:41:41Z</time></trkpt><trkpt lat="45.924026894657764" lon="8.740688485331956"><ele>924.0000000000001</ele><time>2026-03-28T14:41:42Z</time></trkpt><trkpt lat="45.92412390045591" lon="8.740747289468217"><ele>924.0</ele><time>2026-03-28T14:41:43Z</time></trkpt><trkpt lat="45.924230090607324" lon="8.740773525529244"><ele>924.0</ele><time>2026-03-28T14:41:44Z</time></trkpt><trkpt lat="45.92434178562133" lon="8.740760400618722"><ele>924.2</ele><time>2026-03-28T14:41:45Z</time></trkpt><trkpt lat="45.924454426219455" lon="8.740710670075554"><ele>924.4000000000001</ele><time>2026-03-28T14:41:46Z</time></trkpt><trkpt lat="45.92455808464807" lon="8.740680380024115"><ele>924.6</ele><time>2026-03-28T14:41:47Z</time></trkpt><trkpt lat="45.924631497590376" lon="8.740698336801119"><ele>924.8</ele><time>2026-03-28T14:41:48Z</time></trkpt><trkpt lat="45.924749287094635" lon="8.740732999264464"><ele>925.0</ele><time>2026-03-28T14:41:49Z</time></trkpt><trkpt lat="45.92488821553795" lon="8.740788346230504"><ele>924.9999999999999</ele><time>2026-03-28T14:41:50Z</time></trkpt><trkpt lat="45.92500338578389" lon="8.740854307178786"><ele>925.0</ele><time>2026-03-28T14:41:51Z</time></trkpt><trkpt lat="45.925095228937565" lon="8.740872628328239"><ele>925.0</ele><time>2026-03-28T14:41:52Z</time></trkpt><trkpt lat="45.92515924450488" lon="8.740874958234151"><ele>925.0</ele><time>2026-03-28T14:41:53Z</time></trkpt><trkpt lat="45.925218866923615" lon="8.74082731526462"><ele>924.9999999999999</ele><time>2026-03-28T14:41:54Z</time></trkpt><trkpt lat="45.92526334050595" lon="8.740721720401096"><ele>925.0</ele><time>2026-03-28T14:41:55Z</time></trkpt><trkpt lat="45.92533352286747" lon="8.740581742288079"><ele>929.4</ele><time>2026-03-28T14:41:56Z</time></trkpt><trkpt lat="45.92540787424604" lon="8.740440225227248"><ele>933.8</ele><time>2026-03-28T14:41:57Z</time></trkpt><trkpt lat="45.925455401051465" lon="8.740372660414147"><ele>938.2</ele><time>2026-03-28T14:41:58Z</time></trkpt><trkpt lat="45.925530024766616" lon="8.740344558678375"><ele>942.6</ele><time>2026-03-28T14:41:59Z</time></trkpt><trkpt lat="45.925640304704395" lon="8.74031481902208"><ele>947.0</ele><time>2026-03-28T14:42:00Z</time></trkpt><trkpt lat="45.925776721015175" lon="8.740300728095972"><ele>950.5</ele><time>2026-03-28T14:42:01Z</time></trkpt><trkpt lat="45.925933693579644" lon="8.740316064369164"><ele>954.0</ele><time>2026-03-28T14:42:02Z</time></trkpt><trkpt lat="45.926068023217994" lon="8.740328682095187"><ele>957.5</ele><time>2026-03-28T14:42:03Z</time></trkpt><trkpt lat="45.92616186248141" lon="8.74034457978596"><ele>961.0</ele><time>2026-03-28T14:42:04Z</time></trkpt><trkpt lat="45.92623863142733" lon="8.740354830113837"><ele>961.0</ele><time>2026-03-28T14:42:05Z</time></trkpt><trkpt lat="45.92630028952395" lon="8.74038656391122"><ele>960.9999999999999</ele><time>2026-03-28T14:42:07Z</time></trkpt><trkpt lat="45.92620380697071" lon="8.740437908971147"><ele>960.9999999999999</ele><time>2026-03-28T14:42:09Z</time></trkpt><trkpt lat="45.926081900790756" lon="8.740403978584094"><ele>961.0</ele><time>2026-03-28T14:42:10Z</time></trkpt><trkpt lat="45.925934711175756" lon="8.740384639064434"><ele>961.0</ele><time>2026-03-28T14:42:11Z</time></trkpt><trkpt lat="45.925781113481975" lon="8.740402385616546"><ele>958.1999999999999</ele><time>2026-03-28T14:42:12Z</time></trkpt><trkpt lat="45.92563367095728" lon="8.740455778142945"><ele>955.3999999999999</ele><time>2026-03-28T14:42:13Z</time></trkpt><trkpt lat="45.9255295782121" lon="8.740520433665354"><ele>952.6</ele><time>2026-03-28T14:42:14Z</time></trkpt><trkpt lat="45.92546819909314" lon="8.740588071014379"><ele>949.8</ele><time>2026-03-28T14:42:14.999Z</time></trkpt><trkpt lat="45.925439518186835" lon="8.740702336638334"><ele>947.0</ele><time>2026-03-28T14:42:15.999Z</time></trkpt><trkpt lat="45.925393876325145" lon="8.740837726911392"><ele>947.0</ele><time>2026-03-28T14:42:16.999Z</time></trkpt><trkpt lat="45.92533697446332" lon="8.741025264276265"><ele>947.0</ele><time>2026-03-28T14:42:17.999Z</time></trkpt><trkpt lat="45.92527458805014" lon="8.741200056414508"><ele>947.0</ele><time>2026-03-28T14:42:18.999Z</time></trkpt><trkpt lat="45.92523626649233" lon="8.741290934884324"><ele>947.0</ele><time>2026-03-28T14:42:19.999Z</time></trkpt><trkpt lat="45.92516251949297" lon="8.741333711783787"><ele>947.0</ele><time>2026-03-28T14:42:20.999Z</time></trkpt><trkpt lat="45.92506431286166" lon="8.74133030662134"><ele>951.3333333333334</ele><time>2026-03-28T14:42:21.999Z</time></trkpt><trkpt lat="45.92490018242585" lon="8.741305272650406"><ele>955.6666666666667</ele><time>2026-03-28T14:42:22.999Z</time></trkpt><trkpt lat="45.92473931266723" lon="8.74130871737627"><ele>960.0</ele><time>2026-03-28T14:42:23.999Z</time></trkpt><trkpt lat="45.92459314001956" lon="8.74132975206578"><ele>960.0</ele><time>2026-03-28T14:42:24.999Z</time></trkpt><trkpt lat="45.924466939120286" lon="8.74138006759903"><ele>960.0</ele><time>2026-03-28T14:42:25.999Z</time></trkpt><trkpt lat="45.924329021272506" lon="8.741427485163273"><ele>960.0</ele><time>2026-03-28T14:42:26.999Z</time></trkpt><trkpt lat="45.92419623678847" lon="8.741467195964981"><ele>960.0</ele><time>2026-03-28T14:42:27.999Z</time></trkpt><trkpt lat="45.9240246603615" lon="8.741508359427256"><ele>959.75</ele><time>2026-03-28T14:42:28.999Z</time></trkpt><trkpt lat="45.92387829213324" lon="8.741519102271857"><ele>959.5</ele><time>2026-03-28T14:42:29.999Z</time></trkpt><trkpt lat="45.923748608023296" lon="8.741493290923993"><ele>959.25</ele><time>2026-03-28T14:42:30.999Z</time></trkpt><trkpt lat="45.92363854883328" lon="8.741403347148587"><ele>959.0</ele><time>2026-03-28T14:42:31.999Z</time></trkpt><trkpt lat="45.923493632091336" lon="8.741298944732911"><ele>960.3333333333334</ele><time>2026-03-28T14:42:32.999Z</time></trkpt><trkpt lat="45.92338994716176" lon="8.741211860347729"><ele>961.6666666666667</ele><time>2026-03-28T14:42:33.999Z</time></trkpt><trkpt lat="45.92331146900161" lon="8.74115868260197"><ele>963.0</ele><time>2026-03-28T14:42:34.999Z</time></trkpt><trkpt lat="45.92322696539233" lon="8.741144169604247"><ele>964.3333333333333</ele><time>2026-03-28T14:42:35.999Z</time></trkpt><trkpt lat="45.923181865517485" lon="8.741250299583227"><ele>965.6666666666666</ele><time>2026-03-28T14:42:37.999Z</time></trkpt><trkpt lat="45.923231946911145" lon="8.74132177638052"><ele>967.0</ele><time>2026-03-28T14:42:38.999Z</time></trkpt><trkpt lat="45.923340165838695" lon="8.741338317660878"><ele>965.0</ele><time>2026-03-28T14:42:39.999Z</time></trkpt><trkpt lat="45.923435501484164" lon="8.741365590107673"><ele>963.0</ele><time>2026-03-28T14:42:40.999Z</time></trkpt><trkpt lat="45.92351070959307" lon="8.741466145564143"><ele>961.0</ele><time>2026-03-28T14:42:41.999Z</time></trkpt><trkpt lat="45.92361389871037" lon="8.741596916230211"><ele>959.0</ele><time>2026-03-28T14:42:42.999Z</time></trkpt><trkpt lat="45.923753110897074" lon="8.741740041927587"><ele>959.0</ele><time>2026-03-28T14:42:43.999Z</time></trkpt><trkpt lat="45.92388820133749" lon="8.741835176888099"><ele>959.0</ele><time>2026-03-28T14:42:44.999Z</time></trkpt><trkpt lat="45.924011416668755" lon="8.741874600459193"><ele>959.0</ele><time>2026-03-28T14:42:45.999Z</time></trkpt><trkpt lat="45.92416647513915" lon="8.741853035548374"><ele>959.0</ele><time>2026-03-28T14:42:46.999Z</time></trkpt><trkpt lat="45.92436723240148" lon="8.741856598461334"><ele>972.6666666666667</ele><time>2026-03-28T14:42:47.999Z</time></trkpt><trkpt lat="45.924553547002155" lon="8.741885183600978"><ele>986.3333333333333</ele><time>2026-03-28T14:42:48.999Z</time></trkpt><trkpt lat="45.92469214330054" lon="8.741906423539847"><ele>1000.0</ele><time>2026-03-28T14:42:49.999Z</time></trkpt><trkpt lat="45.92484179958306" lon="8.741957087226565"><ele>1000.0</ele><time>2026-03-28T14:42:50.999Z</time></trkpt><trkpt lat="45.9249996925199" lon="8.742031460681714"><ele>1000.0</ele><time>2026-03-28T14:42:51.999Z</time></trkpt><trkpt lat="45.925168802393515" lon="8.742059551378459"><ele>1000.0</ele><time>2026-03-28T14:42:52.999Z</time></trkpt><trkpt lat="45.92532592449115" lon="8.74203150591115"><ele>1003.5</ele><time>2026-03-28T14:42:53.999Z</time></trkpt><trkpt lat="45.92546852468686" lon="8.74204562167714"><ele>1007.0</ele><time>2026-03-28T14:42:54.999Z</time></trkpt><trkpt lat="45.925591329957385" lon="8.74201061975686"><ele>1010.5</ele><time>2026-03-28T14:42:55.999Z</time></trkpt><trkpt lat="45.92569359890719" lon="8.741920470312067"><ele>1014.0</ele><time>2026-03-28T14:42:56.999Z</time></trkpt><trkpt lat="45.925795313666036" lon="8.741752717430517"><ele>1009.0</ele><time>2026-03-28T14:42:57.999Z</time></trkpt><trkpt lat="45.92588443712955" lon="8.741650060528299"><ele>1004.0</ele><time>2026-03-28T14:42:58.999Z</time></trkpt><trkpt lat="45.92599306137087" lon="8.741593387039371"><ele>999.0</ele><time>2026-03-28T14:42:59.999Z</time></trkpt><trkpt lat="45.926115335139265" lon="8.74157004738923"><ele>994.0</ele><time>2026-03-28T14:43:00.999Z</time></trkpt><trkpt lat="45.92623291386765" lon="8.741571620574339"><ele>994.0</ele><time>2026-03-28T14:43:01.999Z</time></trkpt><trkpt lat="45.926365548969216" lon="8.741604090217784"><ele>994.0</ele><time>2026-03-28T14:43:02.999Z</time></trkpt><trkpt lat="45.926507177476736" lon="8.741616468089166"><ele>994.0</ele><time>2026-03-28T14:43:03.999Z</time></trkpt><trkpt lat="45.926652277274705" lon="8.741636889120082"><ele>994.0</ele><time>2026-03-28T14:43:04.999Z</time></trkpt><trkpt lat="45.9267858734224" lon="8.741665658004248"><ele>998.0</ele><time>2026-03-28T14:43:05.999Z</time></trkpt><trkpt lat="45.92690519892074" lon="8.741723389263992"><ele>1002.0000000000001</ele><time>2026-03-28T14:43:06.999Z</time></trkpt><trkpt lat="45.92698557892857" lon="8.741723641547194"><ele>1006.0000000000001</ele><time>2026-03-28T14:43:07.999Z</time></trkpt><trkpt lat="45.927066683267405" lon="8.741702730925367"><ele>1010.0</ele><time>2026-03-28T14:43:08.999Z</time></trkpt><trkpt lat="45.92714567498028" lon="8.741620885413571"><ele>1014.0</ele><time>2026-03-28T14:43:09.999Z</time></trkpt><trkpt lat="45.927253874297975" lon="8.741492950172134"><ele>1014.0</ele><time>2026-03-28T14:43:10.999Z</time></trkpt><trkpt lat="45.92736313813853" lon="8.74143679728564"><ele>1014.0000000000001</ele><time>2026-03-28T14:43:11.999Z</time></trkpt><trkpt lat="45.9274625352725" lon="8.741456887377653"><ele>1014.0000000000001</ele><time>2026-03-28T14:43:12.999Z</time></trkpt><trkpt lat="45.92753659447308" lon="8.741431515959649"><ele>1014.0</ele><time>2026-03-28T14:43:13.999Z</time></trkpt><trkpt lat="45.927576978104284" lon="8.741314559081374"><ele>1014.0</ele><time>2026-03-28T14:43:14.999Z</time></trkpt><trkpt lat="45.9276336675505" lon="8.741136243877726"><ele>1019.5</ele><time>2026-03-28T14:43:15.999Z</time></trkpt><trkpt lat="45.9276718641187" lon="8.74097535919237"><ele>1025.0</ele><time>2026-03-28T14:43:16.998Z</time></trkpt><trkpt lat="45.92774678525364" lon="8.740784826611947"><ele>1030.5</ele><time>2026-03-28T14:43:17.998Z</time></trkpt><trkpt lat="45.927802339142964" lon="8.740603238576883"><ele>1036.0</ele><time>2026-03-28T14:43:18.998Z</time></trkpt><trkpt lat="45.92786558613927" lon="8.74043430556494"><ele>1036.0</ele><time>2026-03-28T14:43:19.998Z</time></trkpt><trkpt lat="45.92793476359903" lon="8.74026759988262"><ele>1036.0</ele><time>2026-03-28T14:43:20.998Z</time></trkpt><trkpt lat="45.92800076132192" lon="8.740098839614909"><ele>1036.0</ele><time>2026-03-28T14:43:21.998Z</time></trkpt><trkpt lat="45.92807587984285" lon="8.739901213181055"><ele>1036.0</ele><time>2026-03-28T14:43:22.998Z</time></trkpt><trkpt lat="45.928169542948936" lon="8.73976096752565"><ele>1033.3999999999999</ele><time>2026-03-28T14:43:23.998Z</time></trkpt><trkpt lat="45.92825599608053" lon="8.739667159537673"><ele>1030.8</ele><time>2026-03-28T14:43:24.998Z</time></trkpt><trkpt lat="45.928289950774214" lon="8.739566696527866"><ele>1028.1999999999998</ele><time>2026-03-28T14:43:25.998Z</time></trkpt><trkpt lat="45.9282800227659" lon="8.739431251693796"><ele>1025.6</ele><time>2026-03-28T14:43:26.998Z</time></trkpt><trkpt lat="45.92825270911465" lon="8.739262957548403"><ele>1023.0</ele><time>2026-03-28T14:43:27.998Z</time></trkpt><trkpt lat="45.92825130256413" lon="8.739137519687297"><ele>1022.5</ele><time>2026-03-28T14:43:28.998Z</time></trkpt><trkpt lat="45.928266803523506" lon="8.739022493966274"><ele>1022.0</ele><time>2026-03-28T14:43:29.998Z</time></trkpt><trkpt lat="45.92828583549917" lon="8.738921879012047"><ele>1021.5</ele><time>2026-03-28T14:43:30.998Z</time></trkpt><trkpt lat="45.92831005233245" lon="8.738825444575273"><ele>1021.0</ele><time>2026-03-28T14:43:31.998Z</time></trkpt><trkpt lat="45.92837068483303" lon="8.738701118923148"><ele>1020.5</ele><time>2026-03-28T14:43:32.998Z</time></trkpt><trkpt lat="45.92842481803409" lon="8.73855548243392"><ele>1020.0</ele><time>2026-03-28T14:43:33.998Z</time></trkpt><trkpt lat="45.92846450123258" lon="8.738391128767912"><ele>1027.4</ele><time>2026-03-28T14:43:34.998Z</time></trkpt><trkpt lat="45.92850778162786" lon="8.738239090123876"><ele>1034.8</ele><time>2026-03-28T14:43:35.998Z</time></trkpt><trkpt lat="45.92853559206459" lon="8.738088393898105"><ele>1042.2</ele><time>2026-03-28T14:43:36.998Z</time></trkpt><trkpt lat="45.92855568353421" lon="8.737990747081708"><ele>1049.6</ele><time>2026-03-28T14:43:38Z</time></trkpt><trkpt lat="45.92861484327078" lon="8.737879117781533"><ele>1057.0</ele><time>2026-03-28T14:43:40Z</time></trkpt><trkpt lat="45.92870355438608" lon="8.737850528509892"><ele>1057.0</ele><time>2026-03-28T14:43:41Z</time></trkpt><trkpt lat="45.92880143093609" lon="8.737821627216267"><ele>1057.0</ele><time>2026-03-28T14:43:42Z</time></trkpt><trkpt lat="45.92889622817875" lon="8.737768122429367"><ele>1057.0</ele><time>2026-03-28T14:43:43Z</time></trkpt><trkpt lat="45.929005034377994" lon="8.73772313866568"><ele>1057.0</ele><time>2026-03-28T14:43:44Z</time></trkpt><trkpt lat="45.929130153055105" lon="8.737686284322733"><ele>1057.0</ele><time>2026-03-28T14:43:45Z</time></trkpt><trkpt lat="45.92921444782896" lon="8.737649049239943"><ele>1056.2</ele><time>2026-03-28T14:43:46Z</time></trkpt><trkpt lat="45.92928197766726" lon="8.737532195173676"><ele>1055.4</ele><time>2026-03-28T14:43:48Z</time></trkpt><trkpt lat="45.92926128256998" lon="8.737441066061498"><ele>1054.6</ele><time>2026-03-28T14:43:49Z</time></trkpt><trkpt lat="45.92918092145983" lon="8.7373728592542"><ele>1053.8</ele><time>2026-03-28T14:43:50Z</time></trkpt><trkpt lat="45.92908707925049" lon="8.737273262442557"><ele>1053.0</ele><time>2026-03-28T14:43:51Z</time></trkpt><trkpt lat="45.92900655173202" lon="8.737163565140591"><ele>1052.2</ele><time>2026-03-28T14:43:52Z</time></trkpt><trkpt lat="45.9289319614573" lon="8.73704307640733"><ele>1051.4</ele><time>2026-03-28T14:43:53Z</time></trkpt><trkpt lat="45.92886868228859" lon="8.736957171000196"><ele>1050.6000000000001</ele><time>2026-03-28T14:43:54Z</time></trkpt><trkpt lat="45.92883542309182" lon="8.73683363971007"><ele>1049.8</ele><time>2026-03-28T14:43:56Z</time></trkpt><trkpt lat="45.92892928979361" lon="8.736727678680364"><ele>1049.0</ele><time>2026-03-28T14:43:58Z</time></trkpt><trkpt lat="45.92902734180657" lon="8.73668283074883"><ele>1049.0</ele><time>2026-03-28T14:43:59Z</time></trkpt><trkpt lat="45.92911090157213" lon="8.736623728336143"><ele>1049.0</ele><time>2026-03-28T14:44:00Z</time></trkpt><trkpt lat="45.92912582512875" lon="8.736463905927405"><ele>1049.0</ele><time>2026-03-28T14:44:02Z</time></trkpt><trkpt lat="45.92904937798834" lon="8.736315486848122"><ele>1049.0</ele><time>2026-03-28T14:44:03Z</time></trkpt><trkpt lat="45.92900982350798" lon="8.736181881940533"><ele>1049.0</ele><time>2026-03-28T14:44:04Z</time></trkpt><trkpt lat="45.928968749406636" lon="8.736043571014232"><ele>1049.3333333333335</ele><time>2026-03-28T14:44:05Z</time></trkpt><trkpt lat="45.928920950645754" lon="8.73589214859348"><ele>1049.6666666666667</ele><time>2026-03-28T14:44:06Z</time></trkpt><trkpt lat="45.92889797984369" lon="8.735767911320735"><ele>1050.0</ele><time>2026-03-28T14:44:07Z</time></trkpt><trkpt lat="45.928939555645464" lon="8.735662397890001"><ele>1050.3333333333333</ele><time>2026-03-28T14:44:09Z</time></trkpt><trkpt lat="45.92900391685192" lon="8.735632801687446"><ele>1050.6666666666665</ele><time>2026-03-28T14:44:10Z</time></trkpt><trkpt lat="45.929084906806075" lon="8.735609203592624"><ele>1051.0</ele><time>2026-03-28T14:44:11Z</time></trkpt><trkpt lat="45.92920011753574" lon="8.73557381569224"><ele>1052.6</ele><time>2026-03-28T14:44:12Z</time></trkpt><trkpt lat="45.92931114659672" lon="8.735535629909224"><ele>1054.1999999999998</ele><time>2026-03-28T14:44:13Z</time></trkpt><trkpt lat="45.929403257229694" lon="8.735454210850921"><ele>1055.8000000000002</ele><time>2026-03-28T14:44:14Z</time></trkpt><trkpt lat="45.929479139092365" lon="8.735323083361973"><ele>1057.4</ele><time>2026-03-28T14:44:15Z</time></trkpt><trkpt lat="45.929532458201514" lon="8.735188416212996"><ele>1059.0</ele><time>2026-03-28T14:44:16Z</time></trkpt><trkpt lat="45.92956682960174" lon="8.735048511806093"><ele>1059.2</ele><time>2026-03-28T14:44:17Z</time></trkpt><trkpt lat="45.92957226837999" lon="8.734903587572497"><ele>1059.4</ele><time>2026-03-28T14:44:18Z</time></trkpt><trkpt lat="45.929546716608925" lon="8.734739453294829"><ele>1059.6</ele><time>2026-03-28T14:44:19Z</time></trkpt><trkpt lat="45.929518056666524" lon="8.734590480260707"><ele>1059.8</ele><time>2026-03-28T14:44:20Z</time></trkpt><trkpt lat="45.92951283252236" lon="8.73446035923838"><ele>1060.0</ele><time>2026-03-28T14:44:21Z</time></trkpt><trkpt lat="45.92953273214127" lon="8.734300412715621"><ele>1058.75</ele><time>2026-03-28T14:44:22Z</time></trkpt><trkpt lat="45.929576107814285" lon="8.734130517454163"><ele>1057.5</ele><time>2026-03-28T14:44:23Z</time></trkpt><trkpt lat="45.929630160406326" lon="8.733968568574609"><ele>1056.25</ele><time>2026-03-28T14:44:24Z</time></trkpt><trkpt lat="45.92967251617314" lon="8.733832517988665"><ele>1055.0</ele><time>2026-03-28T14:44:24.999Z</time></trkpt><trkpt lat="45.929715777148495" lon="8.73368320070761"><ele>1052.4</ele><time>2026-03-28T14:44:25.999Z</time></trkpt><trkpt lat="45.9297426266841" lon="8.73354717834558"><ele>1049.8</ele><time>2026-03-28T14:44:26.999Z</time></trkpt><trkpt lat="45.92974367968211" lon="8.733415406627286"><ele>1047.2</ele><time>2026-03-28T14:44:27.999Z</time></trkpt><trkpt lat="45.929709658350724" lon="8.733286125557994"><ele>1044.6</ele><time>2026-03-28T14:44:28.999Z</time></trkpt><trkpt lat="45.929652045165355" lon="8.733164620647297"><ele>1042.0</ele><time>2026-03-28T14:44:29.999Z</time></trkpt><trkpt lat="45.929637837568556" lon="8.73303869811655"><ele>1042.0</ele><time>2026-03-28T14:44:30.999Z</time></trkpt><trkpt lat="45.9296582456942" lon="8.732933936835183"><ele>1042.0</ele><time>2026-03-28T14:44:31.999Z</time></trkpt><trkpt lat="45.929669691564605" lon="8.73281304856863"><ele>1042.0</ele><time>2026-03-28T14:44:32.999Z</time></trkpt><trkpt lat="45.929706335357395" lon="8.732665750178544"><ele>1042.0</ele><time>2026-03-28T14:44:33.999Z</time></trkpt><trkpt lat="45.92977010109276" lon="8.732500138719239"><ele>1042.0</ele><time>2026-03-28T14:44:34.999Z</time></trkpt><trkpt lat="45.929795539633574" lon="8.732348269734947"><ele>1039.6</ele><time>2026-03-28T14:44:35.999Z</time></trkpt><trkpt lat="45.929797413444106" lon="8.732209951481712"><ele>1037.2</ele><time>2026-03-28T14:44:36.999Z</time></trkpt><trkpt lat="45.92977092519796" lon="8.732083746059182"><ele>1034.8</ele><time>2026-03-28T14:44:37.999Z</time></trkpt><trkpt lat="45.92975260766062" lon="8.73193195073664"><ele>1032.4</ele><time>2026-03-28T14:44:38.999Z</time></trkpt><trkpt lat="45.929726420184025" lon="8.731735315969253"><ele>1030.0</ele><time>2026-03-28T14:44:39.999Z</time></trkpt><trkpt lat="45.92971440874713" lon="8.73154786029824"><ele>1029.6</ele><time>2026-03-28T14:44:40.999Z</time></trkpt><trkpt lat="45.92969802890392" lon="8.73138458315492"><ele>1029.2</ele><time>2026-03-28T14:44:41.999Z</time></trkpt><trkpt lat="45.92967980442853" lon="8.731244625642349"><ele>1028.8</ele><time>2026-03-28T14:44:42.999Z</time></trkpt><trkpt lat="45.92968130990382" lon="8.731090735225537"><ele>1028.4</ele><time>2026-03-28T14:44:43.999Z</time></trkpt><trkpt lat="45.92969264956053" lon="8.73090945774384"><ele>1028.0</ele><time>2026-03-28T14:44:44.999Z</time></trkpt><trkpt lat="45.92969220860558" lon="8.730762118065448"><ele>1029.6</ele><time>2026-03-28T14:44:45.999Z</time></trkpt><trkpt lat="45.92967534590078" lon="8.730626310804281"><ele>1031.1999999999998</ele><time>2026-03-28T14:44:46.999Z</time></trkpt><trkpt lat="45.92965601033829" lon="8.730479980380613"><ele>1032.8</ele><time>2026-03-28T14:44:47.999Z</time></trkpt><trkpt lat="45.92962961306327" lon="8.73033950368934"><ele>1034.3999999999999</ele><time>2026-03-28T14:44:48.999Z</time></trkpt><trkpt lat="45.92959551543787" lon="8.730184527451271"><ele>1036.0</ele><time>2026-03-28T14:44:49.999Z</time></trkpt><trkpt lat="45.92957445806574" lon="8.730054927080685"><ele>1038.25</ele><time>2026-03-28T14:44:50.999Z</time></trkpt><trkpt lat="45.92955092059971" lon="8.729926890946565"><ele>1040.5</ele><time>2026-03-28T14:44:51.999Z</time></trkpt><trkpt lat="45.92948987451921" lon="8.729762395480552"><ele>1042.75</ele><time>2026-03-28T14:44:52.999Z</time></trkpt><trkpt lat="45.929448957634946" lon="8.72956797256862"><ele>1045.0</ele><time>2026-03-28T14:44:53.999Z</time></trkpt><trkpt lat="45.929397241147846" lon="8.729418039631584"><ele>1044.6</ele><time>2026-03-28T14:44:54.999Z</time></trkpt><trkpt lat="45.92935860477049" lon="8.729299742902448"><ele>1044.2</ele><time>2026-03-28T14:44:55.999Z</time></trkpt><trkpt lat="45.92930357931519" lon="8.729248733695643"><ele>1043.8</ele><time>2026-03-28T14:44:56.999Z</time></trkpt><trkpt lat="45.929227076693515" lon="8.729227958255684"><ele>1043.4</ele><time>2026-03-28T14:44:57.999Z</time></trkpt><trkpt lat="45.92912805852182" lon="8.729261652424276"><ele>1043.0</ele><time>2026-03-28T14:44:58.999Z</time></trkpt><trkpt lat="45.9290204786788" lon="8.729343101941662"><ele>1037.5</ele><time>2026-03-28T14:44:59.999Z</time></trkpt><trkpt lat="45.92890532483461" lon="8.729428697246473"><ele>1032.0</ele><time>2026-03-28T14:45:00.999Z</time></trkpt><trkpt lat="45.928803462332766" lon="8.729473795886436"><ele>1026.5</ele><time>2026-03-28T14:45:01.999Z</time></trkpt><trkpt lat="45.928695770564765" lon="8.729476742760715"><ele>1021.0</ele><time>2026-03-28T14:45:02.999Z</time></trkpt><trkpt lat="45.92854882228522" lon="8.729470154002959"><ele>1014.75</ele><time>2026-03-28T14:45:03.999Z</time></trkpt><trkpt lat="45.92839076624014" lon="8.72945290411372"><ele>1008.5</ele><time>2026-03-28T14:45:04.999Z</time></trkpt><trkpt lat="45.92825257815594" lon="8.729464433174677"><ele>1002.25</ele><time>2026-03-28T14:45:05.999Z</time></trkpt><trkpt lat="45.92811143851705" lon="8.729426077885957"><ele>996.0</ele><time>2026-03-28T14:45:06.999Z</time></trkpt><trkpt lat="45.92799278539505" lon="8.729414709459205"><ele>996.0</ele><time>2026-03-28T14:45:07.999Z</time></trkpt><trkpt lat="45.92788710951177" lon="8.729436247794002"><ele>995.9999999999999</ele><time>2026-03-28T14:45:08.999Z</time></trkpt><trkpt lat="45.92777222208083" lon="8.729448093496018"><ele>995.9999999999999</ele><time>2026-03-28T14:45:09.999Z</time></trkpt><trkpt lat="45.92769673151741" lon="8.729439032361618"><ele>996.0</ele><time>2026-03-28T14:45:10.999Z</time></trkpt><trkpt lat="45.92765566174084" lon="8.729312852670857"><ele>996.0</ele><time>2026-03-28T14:45:12.999Z</time></trkpt><trkpt lat="45.92767702417161" lon="8.729176908140186"><ele>1003.1999999999999</ele><time>2026-03-28T14:45:13.999Z</time></trkpt><trkpt lat="45.927712761214536" lon="8.7289958803936"><ele>1010.3999999999999</ele><time>2026-03-28T14:45:14.999Z</time></trkpt><trkpt lat="45.92774593680174" lon="8.728867499754049"><ele>1017.6</ele><time>2026-03-28T14:45:15.999Z</time></trkpt><trkpt lat="45.92775533439282" lon="8.728763765596668"><ele>1024.8</ele><time>2026-03-28T14:45:16.999Z</time></trkpt><trkpt lat="45.92779144405287" lon="8.728640665161928"><ele>1032.0</ele><time>2026-03-28T14:45:18.999Z</time></trkpt><trkpt lat="45.927775155091" lon="8.728551061466373"><ele>1036.0</ele><time>2026-03-28T14:45:20.999Z</time></trkpt><trkpt lat="45.927791315128076" lon="8.728454757564293"><ele>1040.0</ele><time>2026-03-28T14:45:22.999Z</time></trkpt><trkpt lat="45.92777095316362" lon="8.728348150277336"><ele>1044.0</ele><time>2026-03-28T14:45:31.998Z</time></trkpt><trkpt lat="45.92777983812314" lon="8.728241904028469"><ele>1048.0</ele><time>2026-03-28T14:45:34.998Z</time></trkpt><trkpt lat="45.92771567750515" lon="8.728064680329076"><ele>1052.0</ele><time>2026-03-28T14:45:36.998Z</time></trkpt><trkpt lat="45.92766947777613" lon="8.727931956614329"><ele>1052.0</ele><time>2026-03-28T14:45:37.998Z</time></trkpt><trkpt lat="45.92762945218614" lon="8.727796118744628"><ele>1052.0</ele><time>2026-03-28T14:45:38.998Z</time></trkpt><trkpt lat="45.92760846091192" lon="8.727679605845715"><ele>1052.0</ele><time>2026-03-28T14:45:39.998Z</time></trkpt><trkpt lat="45.927588777887195" lon="8.72754237711719"><ele>1052.0</ele><time>2026-03-28T14:45:40.998Z</time></trkpt><trkpt lat="45.9275722889685" lon="8.727405653726693"><ele>1052.0</ele><time>2026-03-28T14:45:41.998Z</time></trkpt><trkpt lat="45.92755087630783" lon="8.72729231897067"><ele>1043.6</ele><time>2026-03-28T14:45:42.998Z</time></trkpt><trkpt lat="45.92753285434166" lon="8.727186511185327"><ele>1035.2</ele><time>2026-03-28T14:45:44Z</time></trkpt><trkpt lat="45.92751682078" lon="8.727061145336409"><ele>1026.8</ele><time>2026-03-28T14:45:46Z</time></trkpt><trkpt lat="45.92753134598921" lon="8.726926161768281"><ele>1018.4</ele><time>2026-03-28T14:45:48Z</time></trkpt><trkpt lat="45.927500752385185" lon="8.726751446554907"><ele>1010.0</ele><time>2026-03-28T14:45:50Z</time></trkpt><trkpt lat="45.927472770982895" lon="8.72659808940341"><ele>1010.0</ele><time>2026-03-28T14:45:51Z</time></trkpt><trkpt lat="45.92745361533417" lon="8.726422496370967"><ele>1010.0</ele><time>2026-03-28T14:45:52Z</time></trkpt><trkpt lat="45.92744791897885" lon="8.726277359096732"><ele>1010.0</ele><time>2026-03-28T14:45:53Z</time></trkpt><trkpt lat="45.92743399842857" lon="8.726173412654045"><ele>1010.0</ele><time>2026-03-28T14:45:54Z</time></trkpt><trkpt lat="45.92743035839293" lon="8.726078526039887"><ele>1010.0</ele><time>2026-03-28T14:45:55Z</time></trkpt><trkpt lat="45.927436345252445" lon="8.725948297298004"><ele>1009.5714285714286</ele><time>2026-03-28T14:45:57Z</time></trkpt><trkpt lat="45.92738525111673" lon="8.725878678642044"><ele>1009.1428571428571</ele><time>2026-03-28T14:46:36.999Z</time></trkpt><trkpt lat="45.92736438721079" lon="8.725788823970213"><ele>1008.7142857142857</ele><time>2026-03-28T14:46:39.999Z</time></trkpt><trkpt lat="45.92734656515258" lon="8.72569254048697"><ele>1008.2857142857142</ele><time>2026-03-28T14:46:41.999Z</time></trkpt><trkpt lat="45.927319232928966" lon="8.725603400512737"><ele>1007.8571428571429</ele><time>2026-03-28T14:46:45.999Z</time></trkpt><trkpt lat="45.92729873105812" lon="8.725493852448384"><ele>1007.4285714285713</ele><time>2026-03-28T14:47:50Z</time></trkpt><trkpt lat="45.927303591583176" lon="8.725591138292485"><ele>1007.0</ele><time>2026-03-28T14:49:27.999Z</time></trkpt><trkpt lat="45.927335112148526" lon="8.725675796719138"><ele>1007.0000000000001</ele><time>2026-03-28T14:49:33.999Z</time></trkpt><trkpt lat="45.92735357134625" lon="8.725768377044545"><ele>1007.0</ele><time>2026-03-28T14:50:12Z</time></trkpt><trkpt lat="45.92739922255045" lon="8.725841063282767"><ele>1007.0</ele><time>2026-03-28T14:50:14Z</time></trkpt><trkpt lat="45.92739413486784" lon="8.725935278219788"><ele>1007.0</ele><time>2026-03-28T14:50:15Z</time></trkpt><trkpt lat="45.92738815738471" lon="8.726033355726258"><ele>1007.0000000000001</ele><time>2026-03-28T14:50:16Z</time></trkpt><trkpt lat="45.92739610331586" lon="8.726164227477376"><ele>1007.0</ele><time>2026-03-28T14:50:18Z</time></trkpt><trkpt lat="45.927432880191134" lon="8.726297971959795"><ele>1006.6</ele><time>2026-03-28T14:52:55.999Z</time></trkpt><trkpt lat="45.9274698114393" lon="8.726469844220349"><ele>1006.2</ele><time>2026-03-28T14:52:57.999Z</time></trkpt><trkpt lat="45.92748485765734" lon="8.726638784994975"><ele>1005.8</ele><time>2026-03-28T14:52:58.999Z</time></trkpt><trkpt lat="45.927506477845675" lon="8.726774174376574"><ele>1005.4</ele><time>2026-03-28T14:52:59.999Z</time></trkpt><trkpt lat="45.927536934083044" lon="8.726887015318336"><ele>1005.0</ele><time>2026-03-28T14:53:01.999Z</time></trkpt><trkpt lat="45.927501640684866" lon="8.727013851037551"><ele>1005.0</ele><time>2026-03-28T14:53:03.999Z</time></trkpt><trkpt lat="45.92751166948829" lon="8.727104313911246"><ele>1005.0</ele><time>2026-03-28T14:53:04.999Z</time></trkpt><trkpt lat="45.927553806730764" lon="8.72733263787518"><ele>1005.0</ele><time>2026-03-28T14:53:06.999Z</time></trkpt><trkpt lat="45.927588803048536" lon="8.727506146863913"><ele>1005.0</ele><time>2026-03-28T14:53:07.999Z</time></trkpt><trkpt lat="45.92761275107117" lon="8.727654325533"><ele>1014.4</ele><time>2026-03-28T14:53:08.999Z</time></trkpt><trkpt lat="45.92764092519198" lon="8.727799451298061"><ele>1023.8</ele><time>2026-03-28T14:53:09.999Z</time></trkpt><trkpt lat="45.927674803305614" lon="8.727915892520878"><ele>1033.2</ele><time>2026-03-28T14:53:10.999Z</time></trkpt><trkpt lat="45.92771084892988" lon="8.728039426450803"><ele>1042.6</ele><time>2026-03-28T14:53:11.999Z</time></trkpt><trkpt lat="45.927742709483894" lon="8.728160989393276"><ele>1052.0</ele><time>2026-03-28T14:53:12.999Z</time></trkpt><trkpt lat="45.92778309324188" lon="8.72825917921126"><ele>1052.0</ele><time>2026-03-28T14:53:14.999Z</time></trkpt><trkpt lat="45.92774811104185" lon="8.72836465097779"><ele>1052.0</ele><time>2026-03-28T14:53:18.999Z</time></trkpt><trkpt lat="45.92776689822128" lon="8.728451649130644"><ele>1052.0</ele><time>2026-03-28T14:53:20.999Z</time></trkpt><trkpt lat="45.927770049966334" lon="8.728545030492237"><ele>1052.0</ele><time>2026-03-28T14:53:21.999Z</time></trkpt><trkpt lat="45.92773854752634" lon="8.728680021274476"><ele>1052.0</ele><time>2026-03-28T14:53:24.999Z</time></trkpt><trkpt lat="45.927727979158" lon="8.728806161028302"><ele>1052.0</ele><time>2026-03-28T14:53:25.999Z</time></trkpt><trkpt lat="45.927686419359894" lon="8.728964012156531"><ele>1048.6666666666667</ele><time>2026-03-28T14:53:26.999Z</time></trkpt><trkpt lat="45.927670775555086" lon="8.729140003867665"><ele>1045.3333333333335</ele><time>2026-03-28T14:53:27.999Z</time></trkpt><trkpt lat="45.92767155995692" lon="8.729253454222036"><ele>1042.0</ele><time>2026-03-28T14:53:28.999Z</time></trkpt><trkpt lat="45.92768905815889" lon="8.729343694203905"><ele>1038.6666666666667</ele><time>2026-03-28T14:53:29.999Z</time></trkpt><trkpt lat="45.92777349298139" lon="8.729427929298591"><ele>1035.3333333333333</ele><time>2026-03-28T14:53:31.999Z</time></trkpt><trkpt lat="45.927848347262504" lon="8.729413416781016"><ele>1032.0</ele><time>2026-03-28T14:53:32.999Z</time></trkpt><trkpt lat="45.92795584818728" lon="8.72939310894837"><ele>1032.0</ele><time>2026-03-28T14:53:33.999Z</time></trkpt><trkpt lat="45.92808789670037" lon="8.729382251287763"><ele>1032.0</ele><time>2026-03-28T14:53:34.999Z</time></trkpt><trkpt lat="45.92821734061539" lon="8.72939779444623"><ele>1032.0</ele><time>2026-03-28T14:53:35.999Z</time></trkpt><trkpt lat="45.92836073431323" lon="8.72940702270086"><ele>1032.0</ele><time>2026-03-28T14:53:36.999Z</time></trkpt><trkpt lat="45.92850484346421" lon="8.729428878621436"><ele>1029.25</ele><time>2026-03-28T14:53:37.999Z</time></trkpt><trkpt lat="45.92867157905282" lon="8.729434626751365"><ele>1026.5</ele><time>2026-03-28T14:53:38.999Z</time></trkpt><trkpt lat="45.92877614050101" lon="8.729444194211567"><ele>1023.75</ele><time>2026-03-28T14:53:39.999Z</time></trkpt><trkpt lat="45.92890220967966" lon="8.72943327340084"><ele>1021.0</ele><time>2026-03-28T14:53:40.999Z</time></trkpt><trkpt lat="45.928993200513226" lon="8.729381881676723"><ele>1025.3999999999999</ele><time>2026-03-28T14:53:41.999Z</time></trkpt><trkpt lat="45.92911314490684" lon="8.729290146529603"><ele>1029.8</ele><time>2026-03-28T14:53:42.999Z</time></trkpt><trkpt lat="45.92922331168565" lon="8.7292449566871"><ele>1034.1999999999998</ele><time>2026-03-28T14:53:43.999Z</time></trkpt><trkpt lat="45.929323654608964" lon="8.729257518468522"><ele>1038.6</ele><time>2026-03-28T14:53:44.999Z</time></trkpt><trkpt lat="45.929385954582465" lon="8.729319181154368"><ele>1043.0</ele><time>2026-03-28T14:53:45.999Z</time></trkpt><trkpt lat="45.92942356472251" lon="8.729435154529991"><ele>1043.6666666666667</ele><time>2026-03-28T14:53:46.998Z</time></trkpt><trkpt lat="45.92946086932917" lon="8.729615935673776"><ele>1044.3333333333333</ele><time>2026-03-28T14:53:47.998Z</time></trkpt><trkpt lat="45.929516307692936" lon="8.729839059376479"><ele>1045.0</ele><time>2026-03-28T14:53:48.998Z</time></trkpt><trkpt lat="45.9295565666442" lon="8.730056746646767"><ele>1042.75</ele><time>2026-03-28T14:53:49.998Z</time></trkpt><trkpt lat="45.92959104831623" lon="8.73025716506809"><ele>1040.5</ele><time>2026-03-28T14:53:50.998Z</time></trkpt><trkpt lat="45.929626543161085" lon="8.730458925624879"><ele>1038.25</ele><time>2026-03-28T14:53:51.998Z</time></trkpt><trkpt lat="45.92966323147948" lon="8.730644987809216"><ele>1036.0</ele><time>2026-03-28T14:53:52.998Z</time></trkpt><trkpt lat="45.929684394809705" lon="8.730814404006583"><ele>1036.0</ele><time>2026-03-28T14:53:53.998Z</time></trkpt><trkpt lat="45.929688669721266" lon="8.730977264263053"><ele>1036.0</ele><time>2026-03-28T14:53:54.998Z</time></trkpt><trkpt lat="45.92967880919047" lon="8.73115683913597"><ele>1036.0</ele><time>2026-03-28T14:53:55.998Z</time></trkpt><trkpt lat="45.92966807456633" lon="8.731371494983401"><ele>1036.0</ele><time>2026-03-28T14:53:56.998Z</time></trkpt><trkpt lat="45.92969125665872" lon="8.73157112602039"><ele>1034.5</ele><time>2026-03-28T14:53:57.998Z</time></trkpt><trkpt lat="45.929719572763396" lon="8.731750075692714"><ele>1033.0</ele><time>2026-03-28T14:53:58.998Z</time></trkpt><trkpt lat="45.92975204941028" lon="8.731961751520526"><ele>1031.5</ele><time>2026-03-28T14:53:59.998Z</time></trkpt><trkpt lat="45.929763711355385" lon="8.732171715716694"><ele>1030.0</ele><time>2026-03-28T14:54:00.998Z</time></trkpt><trkpt lat="45.929777045067254" lon="8.732318281578282"><ele>1030.0</ele><time>2026-03-28T14:54:01.998Z</time></trkpt><trkpt lat="45.929782983185945" lon="8.732438786184499"><ele>1030.0</ele><time>2026-03-28T14:54:02.998Z</time></trkpt><trkpt lat="45.92976219688897" lon="8.73258808147724"><ele>1030.0</ele><time>2026-03-28T14:54:03.998Z</time></trkpt><trkpt lat="45.92968792597568" lon="8.73276051988979"><ele>1030.0</ele><time>2026-03-28T14:54:04.998Z</time></trkpt><trkpt lat="45.92963920790675" lon="8.73289510612556"><ele>1030.0</ele><time>2026-03-28T14:54:05.998Z</time></trkpt><trkpt lat="45.92961622442407" lon="8.73298267479822"><ele>1032.4</ele><time>2026-03-28T14:54:06.998Z</time></trkpt><trkpt lat="45.92961977743102" lon="8.733108453102576"><ele>1034.8</ele><time>2026-03-28T14:54:08Z</time></trkpt><trkpt lat="45.92967306026128" lon="8.733244832968344"><ele>1037.2</ele><time>2026-03-28T14:54:09Z</time></trkpt><trkpt lat="45.92972660173665" lon="8.733410046025066"><ele>1039.6</ele><time>2026-03-28T14:54:10Z</time></trkpt><trkpt lat="45.92973860997598" lon="8.733558622115558"><ele>1042.0</ele><time>2026-03-28T14:54:11Z</time></trkpt><trkpt lat="45.92972895600186" lon="8.73369442659666"><ele>1045.25</ele><time>2026-03-28T14:54:12Z</time></trkpt><trkpt lat="45.92968910487019" lon="8.733837066127101"><ele>1048.5</ele><time>2026-03-28T14:54:13Z</time></trkpt><trkpt lat="45.92961905272081" lon="8.734033670398796"><ele>1051.75</ele><time>2026-03-28T14:54:14Z</time></trkpt><trkpt lat="45.929563718553474" lon="8.734227939180036"><ele>1055.0</ele><time>2026-03-28T14:54:15Z</time></trkpt><trkpt lat="45.929531646714" lon="8.734373436004667"><ele>1056.25</ele><time>2026-03-28T14:54:16Z</time></trkpt><trkpt lat="45.9295113264272" lon="8.734519345301148"><ele>1057.5</ele><time>2026-03-28T14:54:17Z</time></trkpt><trkpt lat="45.92951780549172" lon="8.734683156793144"><ele>1058.75</ele><time>2026-03-28T14:54:18Z</time></trkpt><trkpt lat="45.92955286339437" lon="8.734858464919496"><ele>1060.0</ele><time>2026-03-28T14:54:19Z</time></trkpt><trkpt lat="45.92957479435003" lon="8.735021792393793"><ele>1060.0</ele><time>2026-03-28T14:54:20Z</time></trkpt><trkpt lat="45.92955470406602" lon="8.7351800993753"><ele>1060.0</ele><time>2026-03-28T14:54:21Z</time></trkpt><trkpt lat="45.929500590712934" lon="8.735323876480194"><ele>1060.0</ele><time>2026-03-28T14:54:22Z</time></trkpt><trkpt lat="45.92941036293949" lon="8.735448206442104"><ele>1060.0</ele><time>2026-03-28T14:54:23Z</time></trkpt><trkpt lat="45.92929441953709" lon="8.73556427629631"><ele>1058.2</ele><time>2026-03-28T14:54:24Z</time></trkpt><trkpt lat="45.929196237806515" lon="8.735620943373366"><ele>1056.4</ele><time>2026-03-28T14:54:25Z</time></trkpt><trkpt lat="45.92909872617461" lon="8.73563591406237"><ele>1054.6</ele><time>2026-03-28T14:54:26Z</time></trkpt><trkpt lat="45.9289808787325" lon="8.73566829333997"><ele>1052.8</ele><time>2026-03-28T14:54:27Z</time></trkpt><trkpt lat="45.92890232267351" lon="8.7357565818277"><ele>1051.0</ele><time>2026-03-28T14:54:29Z</time></trkpt><trkpt lat="45.92892532170759" lon="8.735857112318483"><ele>1051.0</ele><time>2026-03-28T14:54:30Z</time></trkpt><trkpt lat="45.92897923054189" lon="8.736008458757102"><ele>1051.0</ele><time>2026-03-28T14:54:31Z</time></trkpt><trkpt lat="45.92905135260131" lon="8.736201881240387"><ele>1051.0</ele><time>2026-03-28T14:54:32Z</time></trkpt><trkpt lat="45.92910312639421" lon="8.736358869859773"><ele>1051.0</ele><time>2026-03-28T14:54:33Z</time></trkpt><trkpt lat="45.929131505535764" lon="8.736481792132848"><ele>1050.6</ele><time>2026-03-28T14:54:34Z</time></trkpt><trkpt lat="45.92913230274782" lon="8.736588838693544"><ele>1050.1999999999998</ele><time>2026-03-28T14:54:35Z</time></trkpt><trkpt lat="45.92906525076372" lon="8.736718051152039"><ele>1049.8000000000002</ele><time>2026-03-28T14:54:37Z</time></trkpt><trkpt lat="45.92896997850419" lon="8.736748006003253"><ele>1049.4</ele><time>2026-03-28T14:54:38Z</time></trkpt><trkpt lat="45.92887085662367" lon="8.736790601479882"><ele>1049.0</ele><time>2026-03-28T14:54:39Z</time></trkpt><trkpt lat="45.928829366671216" lon="8.736900173003939"><ele>1047.0</ele><time>2026-03-28T14:54:41Z</time></trkpt><trkpt lat="45.92891608192517" lon="8.737051070221119"><ele>1045.0</ele><time>2026-03-28T14:54:43Z</time></trkpt><trkpt lat="45.929017934920516" lon="8.737137426692351"><ele>1043.0</ele><time>2026-03-28T14:54:44Z</time></trkpt><trkpt lat="45.929110584563055" lon="8.737247175705255"><ele>1041.0</ele><time>2026-03-28T14:54:45Z</time></trkpt><trkpt lat="45.929167757862885" lon="8.73734078728432"><ele>1041.0</ele><time>2026-03-28T14:54:46Z</time></trkpt><trkpt lat="45.92920644227495" lon="8.737415643851753"><ele>1041.0</ele><time>2026-03-28T14:54:47Z</time></trkpt><trkpt lat="45.92926109694152" lon="8.73752334290203"><ele>1041.0</ele><time>2026-03-28T14:54:49Z</time></trkpt><trkpt lat="45.929218892999515" lon="8.737633708439063"><ele>1041.0</ele><time>2026-03-28T14:54:51Z</time></trkpt><trkpt lat="45.92914366086298" lon="8.7376566065643"><ele>1041.0</ele><time>2026-03-28T14:54:51.999Z</time></trkpt><trkpt lat="45.92904881636791" lon="8.737699455581248"><ele>1041.0</ele><time>2026-03-28T14:54:52.999Z</time></trkpt><trkpt lat="45.9289309436342" lon="8.737736306619594"><ele>1044.2</ele><time>2026-03-28T14:54:53.999Z</time></trkpt><trkpt lat="45.92880447235451" lon="8.737783339558986"><ele>1047.3999999999999</ele><time>2026-03-28T14:54:54.999Z</time></trkpt><trkpt lat="45.92872081036939" lon="8.737818859897978"><ele>1050.6</ele><time>2026-03-28T14:54:55.999Z</time></trkpt><trkpt lat="45.928660195805165" lon="8.737850347648825"><ele>1053.8</ele><time>2026-03-28T14:54:56.999Z</time></trkpt><trkpt lat="45.92859706385104" lon="8.737892864102182"><ele>1057.0</ele><time>2026-03-28T14:54:57.999Z</time></trkpt><trkpt lat="45.92853290444012" lon="8.738040918393413"><ele>1057.0</ele><time>2026-03-28T14:54:59.999Z</time></trkpt><trkpt lat="45.928498395747184" lon="8.738181275304877"><ele>1057.0</ele><time>2026-03-28T14:55:00.999Z</time></trkpt><trkpt lat="45.92846816688766" lon="8.738377864579416"><ele>1057.0</ele><time>2026-03-28T14:55:01.999Z</time></trkpt><trkpt lat="45.92843391116977" lon="8.738539340770446"><ele>1057.0</ele><time>2026-03-28T14:55:02.999Z</time></trkpt><trkpt lat="45.92838858643109" lon="8.738676084076578"><ele>1049.6</ele><time>2026-03-28T14:55:03.999Z</time></trkpt><trkpt lat="45.928338629957736" lon="8.738810583433041"><ele>1042.2</ele><time>2026-03-28T14:55:04.999Z</time></trkpt><trkpt lat="45.92829031404548" lon="8.73894083032554"><ele>1034.8</ele><time>2026-03-28T14:55:05.999Z</time></trkpt><trkpt lat="45.92826818447299" lon="8.739047629915863"><ele>1027.4</ele><time>2026-03-28T14:55:06.999Z</time></trkpt><trkpt lat="45.92825236829886" lon="8.739176862319074"><ele>1020.0</ele><time>2026-03-28T14:55:07.999Z</time></trkpt><trkpt lat="45.928246883533255" lon="8.73931320793792"><ele>1020.5</ele><time>2026-03-28T14:55:08.999Z</time></trkpt><trkpt lat="45.928239459946894" lon="8.739403684338065"><ele>1021.0</ele><time>2026-03-28T14:55:45.999Z</time></trkpt><trkpt lat="45.92824172549555" lon="8.73950855612273"><ele>1021.5</ele><time>2026-03-28T14:55:46.999Z</time></trkpt><trkpt lat="45.928252768607706" lon="8.739654203769451"><ele>1022.0</ele><time>2026-03-28T14:55:47.999Z</time></trkpt><trkpt lat="45.92822301708589" lon="8.739764846414236"><ele>1022.5</ele><time>2026-03-28T14:55:48.999Z</time></trkpt><trkpt lat="45.9281397935136" lon="8.739871249408061"><ele>1023.0</ele><time>2026-03-28T14:55:49.998Z</time></trkpt><trkpt lat="45.92803923102163" lon="8.739984846832163"><ele>1023.0</ele><time>2026-03-28T14:55:50.998Z</time></trkpt><trkpt lat="45.92798110072563" lon="8.74009593228711"><ele>1023.0</ele><time>2026-03-28T14:55:51.998Z</time></trkpt><trkpt lat="45.927952030363066" lon="8.740182387299843"><ele>1023.0</ele><time>2026-03-28T14:55:52.998Z</time></trkpt><trkpt lat="45.92792590753688" lon="8.740281836160088"><ele>1023.0</ele><time>2026-03-28T14:55:56.998Z</time></trkpt><trkpt lat="45.92787342501167" lon="8.740392683098513"><ele>1023.0</ele><time>2026-03-28T14:55:59.998Z</time></trkpt><trkpt lat="45.92783960746447" lon="8.740481130904245"><ele>1023.0</ele><time>2026-03-28T14:56:01.998Z</time></trkpt><trkpt lat="45.92781069366554" lon="8.74056555455006"><ele>1025.1666666666667</ele><time>2026-03-28T14:56:03.998Z</time></trkpt><trkpt lat="45.9277729672235" lon="8.740675440789207"><ele>1027.3333333333333</ele><time>2026-03-28T14:56:06.998Z</time></trkpt><trkpt lat="45.927720410806" lon="8.740796635215052"><ele>1029.5</ele><time>2026-03-28T14:56:09.998Z</time></trkpt><trkpt lat="45.92769443094726" lon="8.740893639408853"><ele>1031.6666666666665</ele><time>2026-03-28T14:56:11.998Z</time></trkpt><trkpt lat="45.92765728170247" lon="8.74098381659762"><ele>1033.8333333333333</ele><time>2026-03-28T14:56:23Z</time></trkpt><trkpt lat="45.9276185257016" lon="8.741119600172567"><ele>1036.0</ele><time>2026-03-28T14:56:25Z</time></trkpt><trkpt lat="45.92760462905472" lon="8.741217520411123"><ele>1031.6</ele><time>2026-03-28T14:56:27Z</time></trkpt><trkpt lat="45.92753738789036" lon="8.741386015054239"><ele>1027.1999999999998</ele><time>2026-03-28T14:56:29Z</time></trkpt><trkpt lat="45.92743956507489" lon="8.741473447261386"><ele>1022.8000000000001</ele><time>2026-03-28T14:56:31Z</time></trkpt><trkpt lat="45.927376268446324" lon="8.74146762456719"><ele>1018.4000000000001</ele><time>2026-03-28T14:56:32Z</time></trkpt><trkpt lat="45.927306175209736" lon="8.741473296723635"><ele>1014.0</ele><time>2026-03-28T14:56:33Z</time></trkpt><trkpt lat="45.92721251466988" lon="8.741520854072911"><ele>1014.0</ele><time>2026-03-28T14:56:35Z</time></trkpt><trkpt lat="45.92715225236125" lon="8.74157732439609"><ele>1014.0</ele><time>2026-03-28T14:56:36Z</time></trkpt><trkpt lat="45.92708431847015" lon="8.741649298709175"><ele>1014.0</ele><time>2026-03-28T14:56:37Z</time></trkpt><trkpt lat="45.92702527831202" lon="8.741707152556906"><ele>1014.0</ele><time>2026-03-28T14:56:38Z</time></trkpt><trkpt lat="45.92692423243134" lon="8.741684056104823"><ele>1014.0</ele><time>2026-03-28T14:56:40Z</time></trkpt><trkpt lat="45.926843239063295" lon="8.741662716422072"><ele>1014.0</ele><time>2026-03-28T14:56:42Z</time></trkpt><trkpt lat="45.92677129734911" lon="8.74165349728425"><ele>1010.0</ele><time>2026-03-28T14:56:44Z</time></trkpt><trkpt lat="45.92667125379871" lon="8.741645364397586"><ele>1006.0000000000001</ele><time>2026-03-28T14:56:46Z</time></trkpt><trkpt lat="45.926601016806956" lon="8.741640666924575"><ele>1002.0000000000001</ele><time>2026-03-28T14:56:47Z</time></trkpt><trkpt lat="45.92650437263751" lon="8.741620598680372"><ele>998.0</ele><time>2026-03-28T14:56:48Z</time></trkpt><trkpt lat="45.92639350844403" lon="8.741601240644178"><ele>994.0</ele><time>2026-03-28T14:56:49Z</time></trkpt><trkpt lat="45.92629242802535" lon="8.74159194194262"><ele>993.9999999999999</ele><time>2026-03-28T14:56:50Z</time></trkpt><trkpt lat="45.926203241370615" lon="8.741581259221089"><ele>994.0</ele><time>2026-03-28T14:56:51Z</time></trkpt><trkpt lat="45.926128096294455" lon="8.741584204392506"><ele>994.0</ele><time>2026-03-28T14:56:52Z</time></trkpt><trkpt lat="45.926051331005915" lon="8.741585685024633"><ele>994.0</ele><time>2026-03-28T14:56:53Z</time></trkpt><trkpt lat="45.925960996388554" lon="8.74162871087708"><ele>993.9999999999999</ele><time>2026-03-28T14:56:55Z</time></trkpt><trkpt lat="45.926054987110206" lon="8.741598075964223"><ele>994.0</ele><time>2026-03-28T14:57:23.999Z</time></trkpt><trkpt lat="45.92616333174587" lon="8.741595280557473"><ele>994.0</ele><time>2026-03-28T14:57:24.999Z</time></trkpt><trkpt lat="45.926290779721526" lon="8.741614539379063"><ele>994.0</ele><time>2026-03-28T14:57:25.999Z</time></trkpt><trkpt lat="45.92645237748467" lon="8.741636074098148"><ele>994.0</ele><time>2026-03-28T14:57:26.999Z</time></trkpt><trkpt lat="45.92663084042387" lon="8.741644637784935"><ele>999.0</ele><time>2026-03-28T14:57:27.999Z</time></trkpt><trkpt lat="45.92678297511429" lon="8.741719606490639"><ele>1004.0</ele><time>2026-03-28T14:57:28.999Z</time></trkpt><trkpt lat="45.926914471571315" lon="8.741753311633357"><ele>1009.0</ele><time>2026-03-28T14:57:29.999Z</time></trkpt><trkpt lat="45.92701646014141" lon="8.741776210645604"><ele>1014.0</ele><time>2026-03-28T14:57:30.999Z</time></trkpt><trkpt lat="45.927076083063696" lon="8.74172335570656"><ele>1014.0</ele><time>2026-03-28T14:57:31.999Z</time></trkpt><trkpt lat="45.92713639519027" lon="8.741657714789312"><ele>1014.0000000000001</ele><time>2026-03-28T14:57:32.999Z</time></trkpt><trkpt lat="45.92723364418723" lon="8.741535881785921"><ele>1014.0000000000001</ele><time>2026-03-28T14:57:33.999Z</time></trkpt><trkpt lat="45.92732943333878" lon="8.741477674135691"><ele>1014.0</ele><time>2026-03-28T14:57:34.999Z</time></trkpt><trkpt lat="45.92741422799537" lon="8.741480143998055"><ele>1014.0</ele><time>2026-03-28T14:57:35.999Z</time></trkpt><trkpt lat="45.927498435117144" lon="8.74146303643446"><ele>1019.5</ele><time>2026-03-28T14:57:36.999Z</time></trkpt><trkpt lat="45.92756125618132" lon="8.741282890282223"><ele>1025.0</ele><time>2026-03-28T14:57:38.999Z</time></trkpt><trkpt lat="45.92761475272066" lon="8.74111479782156"><ele>1030.5</ele><time>2026-03-28T14:57:39.999Z</time></trkpt><trkpt lat="45.927670062148074" lon="8.740924250245289"><ele>1036.0</ele><time>2026-03-28T14:57:40.999Z</time></trkpt><trkpt lat="45.92773852536798" lon="8.740745750918311"><ele>1036.0</ele><time>2026-03-28T14:57:41.999Z</time></trkpt><trkpt lat="45.927773519878144" lon="8.740644025731926"><ele>1036.0</ele><time>2026-03-28T14:57:42.999Z</time></trkpt><trkpt lat="45.927829651929265" lon="8.740519519098715"><ele>1036.0</ele><time>2026-03-28T14:57:44.999Z</time></trkpt><trkpt lat="45.927883318356656" lon="8.740357680820097"><ele>1036.0</ele><time>2026-03-28T14:57:46.999Z</time></trkpt><trkpt lat="45.92793448193554" lon="8.74023993405177"><ele>1036.0</ele><time>2026-03-28T14:57:48.999Z</time></trkpt><trkpt lat="45.92797711379739" lon="8.740109525509489"><ele>1036.0</ele><time>2026-03-28T14:57:50.999Z</time></trkpt><trkpt lat="45.92801986741095" lon="8.740024657375423"><ele>1036.0</ele><time>2026-03-28T14:57:51.999Z</time></trkpt><trkpt lat="45.9279504301707" lon="8.74013037215621"><ele>1036.0</ele><time>2026-03-28T14:58:02.998Z</time></trkpt><trkpt lat="45.92792340791281" lon="8.740223652775226"><ele>1036.0</ele><time>2026-03-28T14:58:33Z</time></trkpt><trkpt lat="45.927876132356175" lon="8.740283676617802"><ele>1036.0</ele><time>2026-03-28T14:58:50Z</time></trkpt><trkpt lat="45.927801591278865" lon="8.740239561199937"><ele>1036.0</ele><time>2026-03-28T14:58:54Z</time></trkpt><trkpt lat="45.927739663405845" lon="8.740263628730334"><ele>1036.0</ele><time>2026-03-28T14:58:57Z</time></trkpt><trkpt lat="45.92766317348907" lon="8.740325875630967"><ele>1036.0</ele><time>2026-03-28T14:59:01Z</time></trkpt><trkpt lat="45.92758646240794" lon="8.740370626950874"><ele>1036.0</ele><time>2026-03-28T14:59:03.999Z</time></trkpt><trkpt lat="45.92753754105375" lon="8.740443080568218"><ele>1036.0</ele><time>2026-03-28T14:59:07.999Z</time></trkpt><trkpt lat="45.92748534715266" lon="8.740507735567814"><ele>1036.0</ele><time>2026-03-28T14:59:10.999Z</time></trkpt><trkpt lat="45.927440280026836" lon="8.74057229364653"><ele>1036.0</ele><time>2026-03-28T14:59:14.999Z</time></trkpt><trkpt lat="45.92742685792965" lon="8.740680643123042"><ele>1032.3333333333333</ele><time>2026-03-28T15:02:52Z</time></trkpt><trkpt lat="45.92739403039517" lon="8.74079417149192"><ele>1028.6666666666665</ele><time>2026-03-28T15:02:54Z</time></trkpt><trkpt lat="45.92736407588787" lon="8.740885453057745"><ele>1025.0</ele><time>2026-03-28T15:02:56Z</time></trkpt><trkpt lat="45.92732416514592" lon="8.740978873273159"><ele>1021.3333333333333</ele><time>2026-03-28T15:02:59Z</time></trkpt><trkpt lat="45.92727113613232" lon="8.741039191252721"><ele>1017.6666666666666</ele><time>2026-03-28T15:03:06Z</time></trkpt><trkpt lat="45.92719508688252" lon="8.74103470995695"><ele>1014.0</ele><time>2026-03-28T15:03:08Z</time></trkpt><trkpt lat="45.92711939979923" lon="8.741059118092318"><ele>1014.0</ele><time>2026-03-28T15:03:11Z</time></trkpt><trkpt lat="45.92704799119698" lon="8.74112627472257"><ele>1014.0</ele><time>2026-03-28T15:06:49Z</time></trkpt><trkpt lat="45.926986866479965" lon="8.741160272453024"><ele>1014.0</ele><time>2026-03-28T15:06:53Z</time></trkpt><trkpt lat="45.926919558585745" lon="8.741206123723519"><ele>1014.0</ele><time>2026-03-28T15:06:57Z</time></trkpt><trkpt lat="45.92681128101148" lon="8.741127518184475"><ele>1014.0</ele><time>2026-03-28T15:08:06.999Z</time></trkpt><trkpt lat="45.92675121674203" lon="8.741072028717403"><ele>1014.0</ele><time>2026-03-28T15:08:26.998Z</time></trkpt><trkpt lat="45.92667096507978" lon="8.74105344097111"><ele>1010.6666666666666</ele><time>2026-03-28T15:08:44.998Z</time></trkpt><trkpt lat="45.92659757369655" lon="8.741048725989568"><ele>1007.3333333333333</ele><time>2026-03-28T15:09:56.999Z</time></trkpt><trkpt lat="45.92650360847712" lon="8.741042263912478"><ele>1004.0</ele><time>2026-03-28T15:10:19.999Z</time></trkpt><trkpt lat="45.92643391482996" lon="8.741057046487304"><ele>1000.6666666666666</ele><time>2026-03-28T15:10:25.999Z</time></trkpt><trkpt lat="45.92633241995682" lon="8.741001900942262"><ele>997.3333333333333</ele><time>2026-03-28T15:11:00Z</time></trkpt><trkpt lat="45.92626579501225" lon="8.740920825247859"><ele>994.0</ele><time>2026-03-28T15:11:24Z</time></trkpt><trkpt lat="45.92622802795653" lon="8.740827983944286"><ele>988.4999999999999</ele><time>2026-03-28T15:11:52.999Z</time></trkpt><trkpt lat="45.9261546363407" lon="8.740755890062065"><ele>983.0</ele><time>2026-03-28T15:11:55.999Z</time></trkpt><trkpt lat="45.92609378699871" lon="8.740708390407503"><ele>977.5</ele><time>2026-03-28T15:11:57.999Z</time></trkpt><trkpt lat="45.92601039446448" lon="8.74066775542704"><ele>972.0</ele><time>2026-03-28T15:12:00.999Z</time></trkpt><trkpt lat="45.9259279907927" lon="8.740621365850272"><ele>966.4999999999999</ele><time>2026-03-28T15:12:02.999Z</time></trkpt><trkpt lat="45.92584408691309" lon="8.740593548365851"><ele>961.0</ele><time>2026-03-28T15:12:04.999Z</time></trkpt><trkpt lat="45.92577383341844" lon="8.740568012038505"><ele>961.0</ele><time>2026-03-28T15:12:06.999Z</time></trkpt><trkpt lat="45.92568800565844" lon="8.74054058493198"><ele>960.9999999999999</ele><time>2026-03-28T15:12:08.999Z</time></trkpt><trkpt lat="45.92562230536202" lon="8.740536436177674"><ele>960.9999999999999</ele><time>2026-03-28T15:12:11.999Z</time></trkpt><trkpt lat="45.925703532749" lon="8.74045021790331"><ele>961.0</ele><time>2026-03-28T15:12:14.999Z</time></trkpt><trkpt lat="45.92580817938274" lon="8.740454024581883"><ele>961.0</ele><time>2026-03-28T15:12:16.999Z</time></trkpt><trkpt lat="45.92590050174272" lon="8.740421930188665"><ele>961.0</ele><time>2026-03-28T15:12:18.999Z</time></trkpt><trkpt lat="45.925983799916445" lon="8.740412588176861"><ele>960.9999999999999</ele><time>2026-03-28T15:12:19.999Z</time></trkpt><trkpt lat="45.926087224261146" lon="8.740412389891919"><ele>960.9999999999999</ele><time>2026-03-28T15:12:20.999Z</time></trkpt><trkpt lat="45.92618897418856" lon="8.740423357118058"><ele>961.0</ele><time>2026-03-28T15:12:21.999Z</time></trkpt><trkpt lat="45.926286866528955" lon="8.740470335129153"><ele>961.0</ele><time>2026-03-28T15:12:23.999Z</time></trkpt><trkpt lat="45.92634185140778" lon="8.740404376584026"><ele>961.0</ele><time>2026-03-28T15:12:27.999Z</time></trkpt><trkpt lat="45.926282222069034" lon="8.740350704863387"><ele>960.9999999999999</ele><time>2026-03-28T15:14:12.999Z</time></trkpt><trkpt lat="45.92615981527142" lon="8.740340696647495"><ele>960.9999999999999</ele><time>2026-03-28T15:14:14.999Z</time></trkpt><trkpt lat="45.926023877097265" lon="8.740313982854982"><ele>961.0</ele><time>2026-03-28T15:14:16.999Z</time></trkpt><trkpt lat="45.925920978690925" lon="8.740307146611075"><ele>961.0</ele><time>2026-03-28T15:14:17.999Z</time></trkpt><trkpt lat="45.92581998495244" lon="8.7403169500967"><ele>958.1999999999999</ele><time>2026-03-28T15:14:18.999Z</time></trkpt><trkpt lat="45.925725620423414" lon="8.740316369288767"><ele>955.3999999999999</ele><time>2026-03-28T15:14:19.999Z</time></trkpt><trkpt lat="45.9256198449885" lon="8.740328264181214"><ele>952.6</ele><time>2026-03-28T15:14:20.999Z</time></trkpt><trkpt lat="45.92552003549525" lon="8.740377564234423"><ele>949.8</ele><time>2026-03-28T15:14:21.999Z</time></trkpt><trkpt lat="45.92546337343057" lon="8.740432244697152"><ele>947.0</ele><time>2026-03-28T15:14:22.999Z</time></trkpt><trkpt lat="45.92540090980697" lon="8.740493911156168"><ele>947.0</ele><time>2026-03-28T15:14:23.999Z</time></trkpt><trkpt lat="45.92533647069277" lon="8.740613276202081"><ele>947.0</ele><time>2026-03-28T15:14:24.999Z</time></trkpt><trkpt lat="45.925276580811484" lon="8.740758193797054"><ele>947.0</ele><time>2026-03-28T15:14:25.999Z</time></trkpt><trkpt lat="45.92521178835248" lon="8.740863808270168"><ele>947.0</ele><time>2026-03-28T15:14:26.999Z</time></trkpt><trkpt lat="45.92515032894787" lon="8.740926167382655"><ele>947.0</ele><time>2026-03-28T15:14:27.999Z</time></trkpt><trkpt lat="45.92501963774642" lon="8.740903105195859"><ele>942.6</ele><time>2026-03-28T15:14:29.999Z</time></trkpt><trkpt lat="45.92492670834758" lon="8.740834436548525"><ele>938.2</ele><time>2026-03-28T15:14:30.999Z</time></trkpt><trkpt lat="45.92480883696862" lon="8.740773541103861"><ele>933.8</ele><time>2026-03-28T15:14:31.999Z</time></trkpt><trkpt lat="45.92470102219828" lon="8.740726619254024"><ele>929.4</ele><time>2026-03-28T15:14:32.999Z</time></trkpt><trkpt lat="45.924605274844026" lon="8.740701886219538"><ele>925.0</ele><time>2026-03-28T15:14:33.999Z</time></trkpt><trkpt lat="45.924515566774716" lon="8.740718751229707"><ele>925.0</ele><time>2026-03-28T15:14:34.999Z</time></trkpt><trkpt lat="45.92442004416831" lon="8.74072322865733"><ele>925.0</ele><time>2026-03-28T15:14:35.999Z</time></trkpt><trkpt lat="45.924326021470044" lon="8.740759663976593"><ele>925.0</ele><time>2026-03-28T15:14:36.999Z</time></trkpt><trkpt lat="45.92423891032291" lon="8.740781293479088"><ele>925.0</ele><time>2026-03-28T15:14:37.999Z</time></trkpt><trkpt lat="45.92413591553917" lon="8.74075165848508"><ele>925.0</ele><time>2026-03-28T15:14:38.999Z</time></trkpt><trkpt lat="45.92402525406267" lon="8.74069124224234"><ele>924.75</ele><time>2026-03-28T15:14:39.999Z</time></trkpt><trkpt lat="45.92393034584885" lon="8.740582241250635"><ele>924.5</ele><time>2026-03-28T15:14:40.999Z</time></trkpt><trkpt lat="45.92386863963236" lon="8.740454084820726"><ele>924.25</ele><time>2026-03-28T15:14:41.998Z</time></trkpt><trkpt lat="45.92380636998931" lon="8.740296153274135"><ele>924.0</ele><time>2026-03-28T15:14:42.998Z</time></trkpt><trkpt lat="45.92374752586604" lon="8.740134782867436"><ele>915.5</ele><time>2026-03-28T15:14:43.998Z</time></trkpt><trkpt lat="45.923679259175344" lon="8.73994992178319"><ele>907.0</ele><time>2026-03-28T15:14:44.998Z</time></trkpt><trkpt lat="45.923628906942945" lon="8.739780396759532"><ele>898.5</ele><time>2026-03-28T15:14:45.998Z</time></trkpt><trkpt lat="45.92358975388685" lon="8.739653257137956"><ele>890.0</ele><time>2026-03-28T15:14:46.998Z</time></trkpt><trkpt lat="45.92347519788448" lon="8.73954693047383"><ele>895.5</ele><time>2026-03-28T15:14:48.998Z</time></trkpt><trkpt lat="45.923330458895315" lon="8.739538888881128"><ele>901.0</ele><time>2026-03-28T15:14:49.998Z</time></trkpt><trkpt lat="45.923193614026935" lon="8.739533903524645"><ele>906.5</ele><time>2026-03-28T15:14:50.998Z</time></trkpt><trkpt lat="45.92306551424186" lon="8.739513149865333"><ele>912.0</ele><time>2026-03-28T15:14:51.998Z</time></trkpt><trkpt lat="45.92296312650509" lon="8.739513879124246"><ele>912.0</ele><time>2026-03-28T15:14:52.998Z</time></trkpt><trkpt lat="45.922870587200855" lon="8.739519765137224"><ele>912.0</ele><time>2026-03-28T15:14:53.998Z</time></trkpt><trkpt lat="45.92279035249443" lon="8.739550770355837"><ele>912.0</ele><time>2026-03-28T15:14:54.998Z</time></trkpt><trkpt lat="45.922716154575866" lon="8.73962656238172"><ele>912.0</ele><time>2026-03-28T15:14:55.998Z</time></trkpt><trkpt lat="45.92263753329795" lon="8.739748206702261"><ele>912.0</ele><time>2026-03-28T15:14:56.998Z</time></trkpt><trkpt lat="45.922573063161124" lon="8.739892510198272"><ele>913.0</ele><time>2026-03-28T15:14:57.998Z</time></trkpt><trkpt lat="45.92252576010708" lon="8.740027807835"><ele>914.0</ele><time>2026-03-28T15:14:58.998Z</time></trkpt><trkpt lat="45.92246083319026" lon="8.740130972535082"><ele>915.0</ele><time>2026-03-28T15:14:59.998Z</time></trkpt><trkpt lat="45.92237508303747" lon="8.740211444399998"><ele>916.0</ele><time>2026-03-28T15:15:00.998Z</time></trkpt><trkpt lat="45.9222786486568" lon="8.740302388941867"><ele>917.0</ele><time>2026-03-28T15:15:01.998Z</time></trkpt><trkpt lat="45.922179063578376" lon="8.740403550258018"><ele>917.0</ele><time>2026-03-28T15:15:02.998Z</time></trkpt><trkpt lat="45.9220840857227" lon="8.740485364365682"><ele>917.0</ele><time>2026-03-28T15:15:03.998Z</time></trkpt><trkpt lat="45.921991813497314" lon="8.740556706456342"><ele>917.0</ele><time>2026-03-28T15:15:04.998Z</time></trkpt><trkpt lat="45.92190625780438" lon="8.740614413195024"><ele>917.0</ele><time>2026-03-28T15:15:05.998Z</time></trkpt><trkpt lat="45.92182847185495" lon="8.740691503342324"><ele>917.0</ele><time>2026-03-28T15:15:06.998Z</time></trkpt><trkpt lat="45.92173258249081" lon="8.740787320641116"><ele>913.2</ele><time>2026-03-28T15:15:08Z</time></trkpt><trkpt lat="45.92165301244601" lon="8.740942450794634"><ele>909.4000000000001</ele><time>2026-03-28T15:15:09Z</time></trkpt><trkpt lat="45.92158858999993" lon="8.7410598174983"><ele>905.5999999999999</ele><time>2026-03-28T15:15:10Z</time></trkpt><trkpt lat="45.921541205005084" lon="8.741173020850946"><ele>901.8</ele><time>2026-03-28T15:15:11Z</time></trkpt><trkpt lat="45.92148068904563" lon="8.741274780469688"><ele>898.0</ele><time>2026-03-28T15:15:12Z</time></trkpt><trkpt lat="45.921418906812534" lon="8.741374777758681"><ele>898.0</ele><time>2026-03-28T15:15:13Z</time></trkpt><trkpt lat="45.921349637495375" lon="8.74148836734023"><ele>898.0</ele><time>2026-03-28T15:15:14Z</time></trkpt><trkpt lat="45.92129143832419" lon="8.741603671931953"><ele>898.0</ele><time>2026-03-28T15:15:15Z</time></trkpt><trkpt lat="45.921248555491715" lon="8.741718042231954"><ele>898.0</ele><time>2026-03-28T15:15:16Z</time></trkpt><trkpt lat="45.92121454724674" lon="8.741844058139755"><ele>898.0</ele><time>2026-03-28T15:15:17Z</time></trkpt><trkpt lat="45.921169938433295" lon="8.741955179798783"><ele>899.4999999999999</ele><time>2026-03-28T15:15:18Z</time></trkpt><trkpt lat="45.92112796343613" lon="8.742058792389281"><ele>901.0</ele><time>2026-03-28T15:15:19Z</time></trkpt><trkpt lat="45.92108943258108" lon="8.742164768176268"><ele>902.5</ele><time>2026-03-28T15:15:20Z</time></trkpt><trkpt lat="45.921085206919976" lon="8.742283055970288"><ele>904.0</ele><time>2026-03-28T15:15:21Z</time></trkpt><trkpt lat="45.92109883411804" lon="8.742403500049035"><ele>905.4999999999999</ele><time>2026-03-28T15:15:22Z</time></trkpt><trkpt lat="45.92111935743423" lon="8.742541561940332"><ele>907.0</ele><time>2026-03-28T15:15:23Z</time></trkpt><trkpt lat="45.921158659851834" lon="8.742662920896574"><ele>902.0</ele><time>2026-03-28T15:15:24Z</time></trkpt><trkpt lat="45.92121195412244" lon="8.742749300309038"><ele>897.0</ele><time>2026-03-28T15:15:25Z</time></trkpt><trkpt lat="45.92128860117366" lon="8.742840384702744"><ele>892.0</ele><time>2026-03-28T15:15:26Z</time></trkpt><trkpt lat="45.92138372431572" lon="8.742932899920284"><ele>887.0</ele><time>2026-03-28T15:15:27Z</time></trkpt><trkpt lat="45.921501909557264" lon="8.743058294962381"><ele>882.0</ele><time>2026-03-28T15:15:28Z</time></trkpt><trkpt lat="45.92158689738601" lon="8.743160912329788"><ele>882.0</ele><time>2026-03-28T15:15:29Z</time></trkpt><trkpt lat="45.92166323183379" lon="8.743286571332996"><ele>882.0</ele><time>2026-03-28T15:15:30Z</time></trkpt><trkpt lat="45.921739056187405" lon="8.743399403336271"><ele>882.0</ele><time>2026-03-28T15:15:31Z</time></trkpt><trkpt lat="45.9218109835631" lon="8.743511332359825"><ele>882.0</ele><time>2026-03-28T15:15:32Z</time></trkpt><trkpt lat="45.921862020139315" lon="8.743632072747307"><ele>882.0</ele><time>2026-03-28T15:15:33Z</time></trkpt><trkpt lat="45.92190418790799" lon="8.743756709841461"><ele>880.4000000000001</ele><time>2026-03-28T15:15:34Z</time></trkpt><trkpt lat="45.92192329319498" lon="8.743900023198613"><ele>878.8000000000001</ele><time>2026-03-28T15:15:35Z</time></trkpt><trkpt lat="45.92192459035492" lon="8.744063481239456"><ele>877.2</ele><time>2026-03-28T15:15:36Z</time></trkpt><trkpt lat="45.92192376668483" lon="8.744232767463876"><ele>875.6</ele><time>2026-03-28T15:15:37Z</time></trkpt><trkpt lat="45.92193549278815" lon="8.744398936046348"><ele>874.0</ele><time>2026-03-28T15:15:38Z</time></trkpt><trkpt lat="45.92195115076932" lon="8.744565239415182"><ele>874.0</ele><time>2026-03-28T15:15:39Z</time></trkpt><trkpt lat="45.921959005006926" lon="8.74472423660962"><ele>874.0000000000001</ele><time>2026-03-28T15:15:40Z</time></trkpt><trkpt lat="45.92196071146465" lon="8.744889971951288"><ele>874.0000000000001</ele><time>2026-03-28T15:15:41Z</time></trkpt><trkpt lat="45.9219665808275" lon="8.745036934265446"><ele>874.0</ele><time>2026-03-28T15:15:42Z</time></trkpt><trkpt lat="45.921980996287935" lon="8.745173834529254"><ele>874.0</ele><time>2026-03-28T15:15:43Z</time></trkpt><trkpt lat="45.92201231255514" lon="8.745291162211547"><ele>865.4000000000001</ele><time>2026-03-28T15:15:44Z</time></trkpt><trkpt lat="45.92205464521346" lon="8.745394743786486"><ele>856.8000000000001</ele><time>2026-03-28T15:15:45Z</time></trkpt><trkpt lat="45.92212838873499" lon="8.74548733605603"><ele>848.2</ele><time>2026-03-28T15:15:46Z</time></trkpt><trkpt lat="45.922222009985475" lon="8.74554802793173"><ele>839.5999999999999</ele><time>2026-03-28T15:15:47Z</time></trkpt><trkpt lat="45.922316505526844" lon="8.745575519658887"><ele>831.0</ele><time>2026-03-28T15:15:48Z</time></trkpt><trkpt lat="45.922416621251934" lon="8.745556900246998"><ele>831.0</ele><time>2026-03-28T15:15:49Z</time></trkpt><trkpt lat="45.9225413076371" lon="8.745518711878432"><ele>831.0</ele><time>2026-03-28T15:15:49.999Z</time></trkpt><trkpt lat="45.922681677064986" lon="8.745500621264364"><ele>831.0</ele><time>2026-03-28T15:15:50.999Z</time></trkpt><trkpt lat="45.9228246249971" lon="8.745498883653516"><ele>831.0</ele><time>2026-03-28T15:15:51.999Z</time></trkpt><trkpt lat="45.92294439181679" lon="8.74549254861705"><ele>833.5</ele><time>2026-03-28T15:15:52.999Z</time></trkpt><trkpt lat="45.923062934560896" lon="8.74548045188798"><ele>836.0</ele><time>2026-03-28T15:15:53.999Z</time></trkpt><trkpt lat="45.923188554931116" lon="8.745503307632822"><ele>838.5</ele><time>2026-03-28T15:15:54.999Z</time></trkpt><trkpt lat="45.92332364454768" lon="8.74553959969255"><ele>841.0</ele><time>2026-03-28T15:15:55.999Z</time></trkpt><trkpt lat="45.92344691647608" lon="8.74559043601126"><ele>849.5999999999999</ele><time>2026-03-28T15:15:56.999Z</time></trkpt><trkpt lat="45.92356779442355" lon="8.745621267549398"><ele>858.2</ele><time>2026-03-28T15:15:57.999Z</time></trkpt><trkpt lat="45.923649172034516" lon="8.745686027862048"><ele>866.8000000000001</ele><time>2026-03-28T15:15:58.999Z</time></trkpt><trkpt lat="45.92371363285167" lon="8.74575719229367"><ele>875.4000000000001</ele><time>2026-03-28T15:15:59.999Z</time></trkpt><trkpt lat="45.923745033700044" lon="8.745865490069384"><ele>884.0</ele><time>2026-03-28T15:16:00.999Z</time></trkpt><trkpt lat="45.92376893555744" lon="8.74598571075892"><ele>875.6</ele><time>2026-03-28T15:16:01.999Z</time></trkpt><trkpt lat="45.923779314873045" lon="8.746118178807732"><ele>867.2</ele><time>2026-03-28T15:16:02.999Z</time></trkpt><trkpt lat="45.92382530043863" lon="8.74622811816144"><ele>858.8000000000001</ele><time>2026-03-28T15:16:03.999Z</time></trkpt><trkpt lat="45.92389085858388" lon="8.746336797831741"><ele>850.4000000000001</ele><time>2026-03-28T15:16:04.999Z</time></trkpt><trkpt lat="45.92396628747103" lon="8.746454130968797"><ele>842.0</ele><time>2026-03-28T15:16:05.999Z</time></trkpt><trkpt lat="45.92405352754781" lon="8.74659153373211"><ele>842.0</ele><time>2026-03-28T15:16:06.999Z</time></trkpt><trkpt lat="45.92414894592117" lon="8.746739390351248"><ele>842.0</ele><time>2026-03-28T15:16:07.999Z</time></trkpt><trkpt lat="45.924231523596305" lon="8.746850061012863"><ele>842.0</ele><time>2026-03-28T15:16:08.999Z</time></trkpt><trkpt lat="45.92430100805893" lon="8.746922546307655"><ele>842.0</ele><time>2026-03-28T15:16:09.999Z</time></trkpt><trkpt lat="45.924373203063055" lon="8.746961968955391"><ele>842.0</ele><time>2026-03-28T15:16:10.999Z</time></trkpt><trkpt lat="45.92446455649038" lon="8.746972207249721"><ele>837.8</ele><time>2026-03-28T15:16:11.999Z</time></trkpt><trkpt lat="45.92455305885412" lon="8.746932224881222"><ele>833.6</ele><time>2026-03-28T15:16:12.999Z</time></trkpt><trkpt lat="45.92464458200177" lon="8.74688390343754"><ele>829.4</ele><time>2026-03-28T15:16:13.999Z</time></trkpt><trkpt lat="45.92474549964038" lon="8.746829250999543"><ele>825.1999999999999</ele><time>2026-03-28T15:16:14.999Z</time></trkpt><trkpt lat="45.92485660902666" lon="8.746789944493338"><ele>821.0</ele><time>2026-03-28T15:16:15.999Z</time></trkpt><trkpt lat="45.92497045443083" lon="8.746774314271628"><ele>824.25</ele><time>2026-03-28T15:16:16.999Z</time></trkpt><trkpt lat="45.925096951803845" lon="8.746783998506"><ele>827.5</ele><time>2026-03-28T15:16:17.999Z</time></trkpt><trkpt lat="45.92522180463772" lon="8.74682861238894"><ele>830.75</ele><time>2026-03-28T15:16:18.999Z</time></trkpt><trkpt lat="45.92535235484797" lon="8.746850528635305"><ele>834.0</ele><time>2026-03-28T15:16:19.999Z</time></trkpt><trkpt lat="45.92546906693612" lon="8.746892878246577"><ele>834.0</ele><time>2026-03-28T15:16:20.999Z</time></trkpt><trkpt lat="45.92557942356901" lon="8.746962243455927"><ele>834.0</ele><time>2026-03-28T15:16:21.999Z</time></trkpt><trkpt lat="45.92567594887466" lon="8.747069451394022"><ele>834.0</ele><time>2026-03-28T15:16:22.999Z</time></trkpt><trkpt lat="45.92577230313988" lon="8.747141781006386"><ele>834.0</ele><time>2026-03-28T15:16:23.999Z</time></trkpt><trkpt lat="45.92588820294966" lon="8.747183898849586"><ele>836.75</ele><time>2026-03-28T15:16:24.999Z</time></trkpt><trkpt lat="45.92600722108319" lon="8.74724341962294"><ele>839.5</ele><time>2026-03-28T15:16:25.999Z</time></trkpt><trkpt lat="45.92612540512592" lon="8.747327905734895"><ele>842.25</ele><time>2026-03-28T15:16:26.999Z</time></trkpt><trkpt lat="45.92624802125677" lon="8.747377672166527"><ele>845.0</ele><time>2026-03-28T15:16:27.999Z</time></trkpt><trkpt lat="45.92637643391752" lon="8.747409729386229"><ele>845.0</ele><time>2026-03-28T15:16:28.999Z</time></trkpt><trkpt lat="45.926526109862" lon="8.747457941762232"><ele>845.0</ele><time>2026-03-28T15:16:29.999Z</time></trkpt><trkpt lat="45.92668255938254" lon="8.747500541844367"><ele>845.0</ele><time>2026-03-28T15:16:30.999Z</time></trkpt><trkpt lat="45.92682070115053" lon="8.747525361612565"><ele>839.75</ele><time>2026-03-28T15:16:31.999Z</time></trkpt><trkpt lat="45.92694732575732" lon="8.747555364721531"><ele>834.5</ele><time>2026-03-28T15:16:32.999Z</time></trkpt><trkpt lat="45.92706766199469" lon="8.747607842736514"><ele>829.25</ele><time>2026-03-28T15:16:33.999Z</time></trkpt><trkpt lat="45.92719493428709" lon="8.747672423453617"><ele>824.0</ele><time>2026-03-28T15:16:34.999Z</time></trkpt><trkpt lat="45.92731929528624" lon="8.747743877007759"><ele>824.0</ele><time>2026-03-28T15:16:35.999Z</time></trkpt><trkpt lat="45.92744320102656" lon="8.74780670131757"><ele>824.0</ele><time>2026-03-28T15:16:36.999Z</time></trkpt><trkpt lat="45.927555587280985" lon="8.747880909478113"><ele>824.0</ele><time>2026-03-28T15:16:37.999Z</time></trkpt><trkpt lat="45.927674709395035" lon="8.74797607595049"><ele>824.0</ele><time>2026-03-28T15:16:38.999Z</time></trkpt><trkpt lat="45.927780348116706" lon="8.748051171014703"><ele>832.0</ele><time>2026-03-28T15:16:39.999Z</time></trkpt><trkpt lat="45.92787253465876" lon="8.748134656522268"><ele>840.0</ele><time>2026-03-28T15:16:40.999Z</time></trkpt><trkpt lat="45.92795621751461" lon="8.748225515766311"><ele>848.0</ele><time>2026-03-28T15:16:41.999Z</time></trkpt><trkpt lat="45.92803198913405" lon="8.748352054628574"><ele>856.0</ele><time>2026-03-28T15:16:42.999Z</time></trkpt><trkpt lat="45.928121393919255" lon="8.7484893401017"><ele>853.4</ele><time>2026-03-28T15:16:43.999Z</time></trkpt><trkpt lat="45.928215015599065" lon="8.74861419117279"><ele>850.8</ele><time>2026-03-28T15:16:44.999Z</time></trkpt><trkpt lat="45.928306659123486" lon="8.748716487663767"><ele>848.1999999999999</ele><time>2026-03-28T15:16:45.999Z</time></trkpt><trkpt lat="45.9283896022483" lon="8.748797158587502"><ele>845.5999999999999</ele><time>2026-03-28T15:16:46.999Z</time></trkpt><trkpt lat="45.928465259759044" lon="8.74886283369934"><ele>843.0</ele><time>2026-03-28T15:16:47.998Z</time></trkpt><trkpt lat="45.92852909209306" lon="8.748927421458045"><ele>843.0</ele><time>2026-03-28T15:16:48.998Z</time></trkpt><trkpt lat="45.92861702994873" lon="8.749002553014888"><ele>843.0</ele><time>2026-03-28T15:16:50.998Z</time></trkpt><trkpt lat="45.928520880865115" lon="8.749053723291208"><ele>843.0</ele><time>2026-03-28T15:16:53.998Z</time></trkpt><trkpt lat="45.92843671185358" lon="8.748972773819084"><ele>843.0</ele><time>2026-03-28T15:16:54.998Z</time></trkpt><trkpt lat="45.92836124167515" lon="8.748888955291537"><ele>843.0</ele><time>2026-03-28T15:16:55.998Z</time></trkpt><trkpt lat="45.92827637798232" lon="8.748804293043813"><ele>840.25</ele><time>2026-03-28T15:16:56.998Z</time></trkpt><trkpt lat="45.92816701523281" lon="8.748707502695938"><ele>837.5</ele><time>2026-03-28T15:16:57.998Z</time></trkpt><trkpt lat="45.92805107343772" lon="8.748607061742998"><ele>834.75</ele><time>2026-03-28T15:16:58.998Z</time></trkpt><trkpt lat="45.927932418192086" lon="8.748502827265991"><ele>832.0</ele><time>2026-03-28T15:16:59.998Z</time></trkpt><trkpt lat="45.927831966183554" lon="8.748397904289064"><ele>830.4000000000001</ele><time>2026-03-28T15:17:00.998Z</time></trkpt><trkpt lat="45.92775042131466" lon="8.748311243922647"><ele>828.8000000000001</ele><time>2026-03-28T15:17:01.998Z</time></trkpt><trkpt lat="45.92766280865459" lon="8.748251819153047"><ele>827.2</ele><time>2026-03-28T15:17:02.998Z</time></trkpt><trkpt lat="45.927569248923525" lon="8.748218545050808"><ele>825.6</ele><time>2026-03-28T15:17:03.998Z</time></trkpt><trkpt lat="45.92747559114272" lon="8.748228704827799"><ele>824.0</ele><time>2026-03-28T15:17:04.998Z</time></trkpt><trkpt lat="45.92738057021671" lon="8.748288629464714"><ele>824.0</ele><time>2026-03-28T15:17:05.998Z</time></trkpt><trkpt lat="45.927262918186294" lon="8.748335841821131"><ele>824.0</ele><time>2026-03-28T15:17:06.998Z</time></trkpt><trkpt lat="45.92714819409007" lon="8.748332812521394"><ele>824.0</ele><time>2026-03-28T15:17:07.998Z</time></trkpt><trkpt lat="45.9270279439636" lon="8.74829495528512"><ele>824.0</ele><time>2026-03-28T15:17:08.998Z</time></trkpt><trkpt lat="45.92690505617916" lon="8.748264288799565"><ele>824.0</ele><time>2026-03-28T15:17:09.998Z</time></trkpt><trkpt lat="45.926798889982784" lon="8.748236985856728"><ele>824.0</ele><time>2026-03-28T15:17:10.998Z</time></trkpt><trkpt lat="45.926680430849544" lon="8.7482376710947"><ele>824.0</ele><time>2026-03-28T15:17:11.998Z</time></trkpt><trkpt lat="45.92654394637233" lon="8.748278860052347"><ele>824.0</ele><time>2026-03-28T15:17:12.998Z</time></trkpt><trkpt lat="45.92640831237169" lon="8.74827477232008"><ele>820.8000000000001</ele><time>2026-03-28T15:17:14Z</time></trkpt><trkpt lat="45.92629083724912" lon="8.748251201111088"><ele>817.6</ele><time>2026-03-28T15:17:15Z</time></trkpt><trkpt lat="45.9261853588916" lon="8.748243962728742"><ele>814.4</ele><time>2026-03-28T15:17:16Z</time></trkpt><trkpt lat="45.92608195382998" lon="8.748263358582962"><ele>811.2</ele><time>2026-03-28T15:17:17Z</time></trkpt><trkpt lat="45.92597950509564" lon="8.748286688585955"><ele>808.0</ele><time>2026-03-28T15:17:18Z</time></trkpt><trkpt lat="45.92587843042135" lon="8.748308345424475"><ele>805.4</ele><time>2026-03-28T15:17:19Z</time></trkpt><trkpt lat="45.925785361296775" lon="8.748290283776845"><ele>802.8</ele><time>2026-03-28T15:17:20Z</time></trkpt><trkpt lat="45.925695152431615" lon="8.748230370231592"><ele>800.2</ele><time>2026-03-28T15:17:21Z</time></trkpt><trkpt lat="45.92558898441524" lon="8.748162365211355"><ele>797.6</ele><time>2026-03-28T15:17:22Z</time></trkpt><trkpt lat="45.9254903348795" lon="8.74809026606917"><ele>795.0</ele><time>2026-03-28T15:17:23Z</time></trkpt><trkpt lat="45.925414062012024" lon="8.74803649021132"><ele>795.0</ele><time>2026-03-28T15:17:24Z</time></trkpt><trkpt lat="45.92535369788365" lon="8.747953273243578"><ele>795.0</ele><time>2026-03-28T15:17:25Z</time></trkpt><trkpt lat="45.92527660084477" lon="8.747884489932966"><ele>795.0</ele><time>2026-03-28T15:17:26Z</time></trkpt><trkpt lat="45.92516450721047" lon="8.747830462602998"><ele>795.0</ele><time>2026-03-28T15:17:27Z</time></trkpt><trkpt lat="45.92503745560988" lon="8.747808632794616"><ele>795.0</ele><time>2026-03-28T15:17:28Z</time></trkpt><trkpt lat="45.92492825370797" lon="8.747791322413217"><ele>791.2</ele><time>2026-03-28T15:17:29Z</time></trkpt><trkpt lat="45.92483159444026" lon="8.747776987350456"><ele>787.4</ele><time>2026-03-28T15:17:30Z</time></trkpt><trkpt lat="45.92473568405923" lon="8.747802441995042"><ele>783.5999999999999</ele><time>2026-03-28T15:17:31Z</time></trkpt><trkpt lat="45.92464284124898" lon="8.747845861201625"><ele>779.8</ele><time>2026-03-28T15:17:32Z</time></trkpt><trkpt lat="45.924553835019815" lon="8.747908729429405"><ele>776.0</ele><time>2026-03-28T15:17:33Z</time></trkpt><trkpt lat="45.92443968251794" lon="8.747953467120066"><ele>776.0</ele><time>2026-03-28T15:17:34Z</time></trkpt><trkpt lat="45.924324791699924" lon="8.747981159040522"><ele>776.0</ele><time>2026-03-28T15:17:35Z</time></trkpt><trkpt lat="45.92421394570474" lon="8.74797718791842"><ele>776.0</ele><time>2026-03-28T15:17:36Z</time></trkpt><trkpt lat="45.92411195298833" lon="8.747941411895173"><ele>776.0</ele><time>2026-03-28T15:17:37Z</time></trkpt><trkpt lat="45.92401457801723" lon="8.747863551574243"><ele>776.0</ele><time>2026-03-28T15:17:38Z</time></trkpt><trkpt lat="45.923918903747754" lon="8.747768353386574"><ele>780.4</ele><time>2026-03-28T15:17:39Z</time></trkpt><trkpt lat="45.92382168339385" lon="8.747695438726875"><ele>784.8</ele><time>2026-03-28T15:17:40Z</time></trkpt><trkpt lat="45.92372591678008" lon="8.747628029548252"><ele>789.1999999999999</ele><time>2026-03-28T15:17:41Z</time></trkpt><trkpt lat="45.92363361880642" lon="8.747563402412752"><ele>793.5999999999999</ele><time>2026-03-28T15:17:42Z</time></trkpt><trkpt lat="45.92354482597134" lon="8.74750672658078"><ele>798.0</ele><time>2026-03-28T15:17:43Z</time></trkpt><trkpt lat="45.92345255003252" lon="8.747410903549536"><ele>790.25</ele><time>2026-03-28T15:17:44Z</time></trkpt><trkpt lat="45.92333281727246" lon="8.747284697591924"><ele>782.5</ele><time>2026-03-28T15:17:45Z</time></trkpt><trkpt lat="45.92323364688333" lon="8.747170053897076"><ele>774.75</ele><time>2026-03-28T15:17:46Z</time></trkpt><trkpt lat="45.923167909398295" lon="8.747057238578861"><ele>767.0</ele><time>2026-03-28T15:17:47Z</time></trkpt><trkpt lat="45.923104773130554" lon="8.746938224452407"><ele>775.0</ele><time>2026-03-28T15:17:48Z</time></trkpt><trkpt lat="45.92300708909854" lon="8.746824212142732"><ele>783.0</ele><time>2026-03-28T15:17:49Z</time></trkpt><trkpt lat="45.92289325385639" lon="8.746756276661625"><ele>791.0</ele><time>2026-03-28T15:17:50Z</time></trkpt><trkpt lat="45.92276799390846" lon="8.746749900689396"><ele>799.0</ele><time>2026-03-28T15:17:51Z</time></trkpt><trkpt lat="45.92262727383503" lon="8.74679527060168"><ele>792.3333333333333</ele><time>2026-03-28T15:17:52Z</time></trkpt><trkpt lat="45.92244762595936" lon="8.746868304666595"><ele>785.6666666666667</ele><time>2026-03-28T15:17:53Z</time></trkpt><trkpt lat="45.92227317595228" lon="8.746933552133651"><ele>779.0</ele><time>2026-03-28T15:17:54Z</time></trkpt><trkpt lat="45.922151667017644" lon="8.746966829871432"><ele>779.0</ele><time>2026-03-28T15:17:55Z</time></trkpt><trkpt lat="45.922056796219465" lon="8.746990363127365"><ele>779.0</ele><time>2026-03-28T15:17:56Z</time></trkpt><trkpt lat="45.921972121655855" lon="8.746996576851943"><ele>779.0</ele><time>2026-03-28T15:17:56.999Z</time></trkpt><trkpt lat="45.921893479106906" lon="8.746974162307856"><ele>779.0</ele><time>2026-03-28T15:17:57.999Z</time></trkpt><trkpt lat="45.92181204370267" lon="8.746931285201217"><ele>779.0</ele><time>2026-03-28T15:17:58.999Z</time></trkpt><trkpt lat="45.92173410319277" lon="8.746835672246364"><ele>776.8333333333334</ele><time>2026-03-28T15:17:59.999Z</time></trkpt><trkpt lat="45.92168603021105" lon="8.746767795580066"><ele>774.6666666666667</ele><time>2026-03-28T15:18:00.999Z</time></trkpt><trkpt lat="45.92163114023903" lon="8.74671527189702"><ele>772.5</ele><time>2026-03-28T15:18:01.999Z</time></trkpt><trkpt lat="45.921524787435246" lon="8.74663259899129"><ele>770.3333333333334</ele><time>2026-03-28T15:18:03.999Z</time></trkpt><trkpt lat="45.92144029976864" lon="8.746550903449377"><ele>768.1666666666667</ele><time>2026-03-28T15:18:05.999Z</time></trkpt><trkpt lat="45.92138568609964" lon="8.746501016408649"><ele>766.0</ele><time>2026-03-28T15:18:07.999Z</time></trkpt><trkpt lat="45.921306307596495" lon="8.746571563315957"><ele>766.0</ele><time>2026-03-28T15:24:13.999Z</time></trkpt><trkpt lat="45.92124235715544" lon="8.746522386785724"><ele>766.0</ele><time>2026-03-28T15:24:19.999Z</time></trkpt><trkpt lat="45.92120343911605" lon="8.746439685380558"><ele>766.0</ele><time>2026-03-28T15:24:25.999Z</time></trkpt><trkpt lat="45.92113440642056" lon="8.746417730714459"><ele>766.0</ele><time>2026-03-28T15:24:30.999Z</time></trkpt><trkpt lat="45.92107314936741" lon="8.74639199919851"><ele>766.0</ele><time>2026-03-28T15:24:34.999Z</time></trkpt><trkpt lat="45.920981845180954" lon="8.746322297379274"><ele>766.0</ele><time>2026-03-28T15:24:37.999Z</time></trkpt><trkpt lat="45.92091519821324" lon="8.74629987420921"><ele>766.0</ele><time>2026-03-28T15:24:38.999Z</time></trkpt><trkpt lat="45.92084648629472" lon="8.746241514574864"><ele>764.1999999999999</ele><time>2026-03-28T15:24:39.999Z</time></trkpt><trkpt lat="45.92077587809481" lon="8.746173233963937"><ele>762.4</ele><time>2026-03-28T15:24:40.999Z</time></trkpt><trkpt lat="45.92071731617203" lon="8.74609436419339"><ele>760.6</ele><time>2026-03-28T15:24:41.999Z</time></trkpt><trkpt lat="45.920666458227124" lon="8.745985640975217"><ele>758.8</ele><time>2026-03-28T15:24:42.999Z</time></trkpt><trkpt lat="45.92061751384716" lon="8.745846836537735"><ele>757.0</ele><time>2026-03-28T15:24:43.999Z</time></trkpt><trkpt lat="45.92058522977884" lon="8.745693851189413"><ele>757.0</ele><time>2026-03-28T15:24:44.999Z</time></trkpt><trkpt lat="45.92056516680607" lon="8.745486684387176"><ele>757.0</ele><time>2026-03-28T15:24:45.999Z</time></trkpt><trkpt lat="45.92057503349953" lon="8.74532113911163"><ele>757.0</ele><time>2026-03-28T15:24:46.999Z</time></trkpt><trkpt lat="45.92058448177716" lon="8.745199745157041"><ele>757.0</ele><time>2026-03-28T15:24:47.999Z</time></trkpt><trkpt lat="45.92061562282789" lon="8.745071561221526"><ele>757.0</ele><time>2026-03-28T15:24:48.999Z</time></trkpt><trkpt lat="45.92065500123638" lon="8.744945780138055"><ele>757.8333333333334</ele><time>2026-03-28T15:24:49.999Z</time></trkpt><trkpt lat="45.920666631781856" lon="8.744838662213471"><ele>758.6666666666667</ele><time>2026-03-28T15:24:50.999Z</time></trkpt><trkpt lat="45.920643331054144" lon="8.744748795542334"><ele>759.5</ele><time>2026-03-28T15:24:51.999Z</time></trkpt><trkpt lat="45.92058677932281" lon="8.744682198116902"><ele>760.3333333333334</ele><time>2026-03-28T15:24:52.999Z</time></trkpt><trkpt lat="45.92050886029966" lon="8.74462797072519"><ele>761.1666666666666</ele><time>2026-03-28T15:24:53.999Z</time></trkpt><trkpt lat="45.92040221403575" lon="8.744580769664726"><ele>762.0</ele><time>2026-03-28T15:24:54.999Z</time></trkpt><trkpt lat="45.92030379145286" lon="8.744534774365016"><ele>762.0</ele><time>2026-03-28T15:24:55.999Z</time></trkpt><trkpt lat="45.920210099604596" lon="8.744433111525218"><ele>762.0</ele><time>2026-03-28T15:24:56.999Z</time></trkpt><trkpt lat="45.92012316381368" lon="8.744322000803635"><ele>762.0</ele><time>2026-03-28T15:24:57.999Z</time></trkpt><trkpt lat="45.920044338823516" lon="8.74422043431545"><ele>762.0</ele><time>2026-03-28T15:24:58.999Z</time></trkpt><trkpt lat="45.91997978771783" lon="8.744128937418566"><ele>762.0</ele><time>2026-03-28T15:24:59.999Z</time></trkpt><trkpt lat="45.919861977082434" lon="8.744018158459195"><ele>757.0</ele><time>2026-03-28T15:25:00.999Z</time></trkpt><trkpt lat="45.91974902295811" lon="8.743893456842553"><ele>752.0</ele><time>2026-03-28T15:25:01.999Z</time></trkpt><trkpt lat="45.91965139700488" lon="8.743803421865016"><ele>747.0</ele><time>2026-03-28T15:25:02.999Z</time></trkpt><trkpt lat="45.91955711486258" lon="8.743760543639024"><ele>742.0</ele><time>2026-03-28T15:25:03.999Z</time></trkpt><trkpt lat="45.91944735110581" lon="8.74373820526114"><ele>742.0</ele><time>2026-03-28T15:25:04.999Z</time></trkpt><trkpt lat="45.919322342200644" lon="8.74368316319963"><ele>742.0</ele><time>2026-03-28T15:25:05.999Z</time></trkpt><trkpt lat="45.9192099935464" lon="8.743572165296746"><ele>742.0</ele><time>2026-03-28T15:25:06.999Z</time></trkpt><trkpt lat="45.919129562671266" lon="8.743474680585415"><ele>742.0</ele><time>2026-03-28T15:25:07.999Z</time></trkpt><trkpt lat="45.91907803039062" lon="8.74337838504375"><ele>736.25</ele><time>2026-03-28T15:25:08.999Z</time></trkpt><trkpt lat="45.919062395254244" lon="8.743274636354673"><ele>730.5</ele><time>2026-03-28T15:25:09.999Z</time></trkpt><trkpt lat="45.919060769346345" lon="8.74314441711232"><ele>724.75</ele><time>2026-03-28T15:25:10.998Z</time></trkpt><trkpt lat="45.919066124521486" lon="8.74293719123414"><ele>719.0</ele><time>2026-03-28T15:25:11.998Z</time></trkpt><trkpt lat="45.91903335865523" lon="8.74273217246592"><ele>721.0</ele><time>2026-03-28T15:25:12.998Z</time></trkpt><trkpt lat="45.918964215727975" lon="8.742517894529195"><ele>723.0</ele><time>2026-03-28T15:25:13.998Z</time></trkpt><trkpt lat="45.91891360208987" lon="8.742315237839554"><ele>725.0</ele><time>2026-03-28T15:25:14.998Z</time></trkpt><trkpt lat="45.91888580193198" lon="8.74213533830014"><ele>727.0</ele><time>2026-03-28T15:25:15.998Z</time></trkpt><trkpt lat="45.91886192958093" lon="8.741987642368036"><ele>728.2</ele><time>2026-03-28T15:25:16.998Z</time></trkpt><trkpt lat="45.918834496488316" lon="8.741875766706176"><ele>729.4000000000001</ele><time>2026-03-28T15:25:17.998Z</time></trkpt><trkpt lat="45.918780979066426" lon="8.741798880885439"><ele>730.5999999999999</ele><time>2026-03-28T15:25:18.998Z</time></trkpt><trkpt lat="45.91870885764326" lon="8.741768904426033"><ele>731.8</ele><time>2026-03-28T15:25:19.998Z</time></trkpt><trkpt lat="45.9186281256414" lon="8.741727679935188"><ele>733.0</ele><time>2026-03-28T15:25:20.998Z</time></trkpt><trkpt lat="45.91860552910675" lon="8.741484383339323"><ele>733.0</ele><time>2026-03-28T15:25:22.998Z</time></trkpt><trkpt lat="45.91858360704111" lon="8.741253172694064"><ele>733.0</ele><time>2026-03-28T15:25:23.998Z</time></trkpt><trkpt lat="45.91852571695792" lon="8.741064109032633"><ele>733.0</ele><time>2026-03-28T15:25:24.998Z</time></trkpt><trkpt lat="45.91848886417076" lon="8.740924533242401"><ele>733.0</ele><time>2026-03-28T15:25:25.998Z</time></trkpt><trkpt lat="45.918484596666524" lon="8.740834186751076"><ele>732.1666666666667</ele><time>2026-03-28T15:25:26.998Z</time></trkpt><trkpt lat="45.9185079963017" lon="8.740745699012464"><ele>731.3333333333334</ele><time>2026-03-28T15:25:27.998Z</time></trkpt><trkpt lat="45.918567298721555" lon="8.740631295924098"><ele>730.5</ele><time>2026-03-28T15:25:28.998Z</time></trkpt><trkpt lat="45.91861342087075" lon="8.740532751445942"><ele>729.6666666666666</ele><time>2026-03-28T15:25:29.998Z</time></trkpt><trkpt lat="45.9186217039174" lon="8.740419023366726"><ele>728.8333333333333</ele><time>2026-03-28T15:25:30.998Z</time></trkpt><trkpt lat="45.918570741112354" lon="8.740275842497445"><ele>728.0</ele><time>2026-03-28T15:25:31.998Z</time></trkpt><trkpt lat="45.918539875406594" lon="8.740145705178133"><ele>728.0</ele><time>2026-03-28T15:25:32.998Z</time></trkpt><trkpt lat="45.91855344223654" lon="8.74003636209269"><ele>728.0</ele><time>2026-03-28T15:25:33.998Z</time></trkpt><trkpt lat="45.91850280959878" lon="8.739959794149398"><ele>728.0</ele><time>2026-03-28T15:25:35.998Z</time></trkpt><trkpt lat="45.91843567751178" lon="8.740170911205658"><ele>728.0</ele><time>2026-03-28T15:25:38Z</time></trkpt><trkpt lat="45.91840744252737" lon="8.740342434259725"><ele>728.0</ele><time>2026-03-28T15:25:39Z</time></trkpt><trkpt lat="45.91839244554786" lon="8.740470819400558"><ele>719.5999999999999</ele><time>2026-03-28T15:25:40Z</time></trkpt><trkpt lat="45.918367407214156" lon="8.740598601195085"><ele>711.1999999999999</ele><time>2026-03-28T15:25:41Z</time></trkpt><trkpt lat="45.91831000365443" lon="8.740708303683236"><ele>702.8</ele><time>2026-03-28T15:25:42Z</time></trkpt><trkpt lat="45.918253231360616" lon="8.740806965496564"><ele>694.4</ele><time>2026-03-28T15:25:43Z</time></trkpt><trkpt lat="45.91823416379486" lon="8.740924911979116"><ele>686.0</ele><time>2026-03-28T15:25:44Z</time></trkpt><trkpt lat="45.91823956848386" lon="8.741081495888567"><ele>685.0</ele><time>2026-03-28T15:25:45Z</time></trkpt><trkpt lat="45.91824782538563" lon="8.741261859522435"><ele>684.0</ele><time>2026-03-28T15:25:46Z</time></trkpt><trkpt lat="45.91825901657376" lon="8.741468016554329"><ele>683.0</ele><time>2026-03-28T15:25:47Z</time></trkpt><trkpt lat="45.9182694561784" lon="8.741682447220937"><ele>682.0</ele><time>2026-03-28T15:25:48Z</time></trkpt><trkpt lat="45.91827894277281" lon="8.741879197135175"><ele>680.25</ele><time>2026-03-28T15:25:49Z</time></trkpt><trkpt lat="45.91829334400687" lon="8.742052567604429"><ele>678.5</ele><time>2026-03-28T15:25:50Z</time></trkpt><trkpt lat="45.91834153794144" lon="8.742207774211781"><ele>676.75</ele><time>2026-03-28T15:25:51Z</time></trkpt><trkpt lat="45.91839007890338" lon="8.742421672494663"><ele>675.0</ele><time>2026-03-28T15:25:52Z</time></trkpt><trkpt lat="45.91838926153226" lon="8.742646753888868"><ele>672.75</ele><time>2026-03-28T15:25:53Z</time></trkpt><trkpt lat="45.918369277086626" lon="8.74284911356251"><ele>670.5</ele><time>2026-03-28T15:25:54Z</time></trkpt><trkpt lat="45.91836322557707" lon="8.743044689870667"><ele>668.25</ele><time>2026-03-28T15:25:55Z</time></trkpt><trkpt lat="45.91837893931302" lon="8.74326064994505"><ele>666.0</ele><time>2026-03-28T15:25:56Z</time></trkpt><trkpt lat="45.91839144253851" lon="8.743463785185803"><ele>666.0</ele><time>2026-03-28T15:25:57Z</time></trkpt><trkpt lat="45.91839105367338" lon="8.743622318127283"><ele>666.0</ele><time>2026-03-28T15:25:58Z</time></trkpt><trkpt lat="45.918392840680156" lon="8.743714094707038"><ele>666.0</ele><time>2026-03-28T15:25:59Z</time></trkpt><trkpt lat="45.91831495283932" lon="8.743733617250728"><ele>666.0</ele><time>2026-03-28T15:26:01Z</time></trkpt><trkpt lat="45.91827221552162" lon="8.743644882861913"><ele>666.0</ele><time>2026-03-28T15:26:02Z</time></trkpt><trkpt lat="45.91826312031341" lon="8.743463323805425"><ele>666.0</ele><time>2026-03-28T15:26:03Z</time></trkpt><trkpt lat="45.91821748219371" lon="8.74323188347326"><ele>666.0</ele><time>2026-03-28T15:26:04Z</time></trkpt><trkpt lat="45.918145939967395" lon="8.743046729295303"><ele>666.0</ele><time>2026-03-28T15:26:05Z</time></trkpt><trkpt lat="45.918075989708974" lon="8.742910656013956"><ele>666.0</ele><time>2026-03-28T15:26:06Z</time></trkpt><trkpt lat="45.918051445905576" lon="8.742771082513446"><ele>669.0</ele><time>2026-03-28T15:26:07Z</time></trkpt><trkpt lat="45.91803688544004" lon="8.74255653781547"><ele>672.0</ele><time>2026-03-28T15:26:08Z</time></trkpt><trkpt lat="45.91801163983436" lon="8.742374140322609"><ele>675.0</ele><time>2026-03-28T15:26:09Z</time></trkpt><trkpt lat="45.91791713836179" lon="8.742165946003723"><ele>675.0</ele><time>2026-03-28T15:26:10Z</time></trkpt><trkpt lat="45.917811313434925" lon="8.741956304245678"><ele>675.0</ele><time>2026-03-28T15:26:11Z</time></trkpt><trkpt lat="45.91774259079104" lon="8.741758828306791"><ele>675.0</ele><time>2026-03-28T15:26:12Z</time></trkpt><trkpt lat="45.91768814342609" lon="8.741575844466587"><ele>676.75</ele><time>2026-03-28T15:26:13Z</time></trkpt><trkpt lat="45.9176323850147" lon="8.741411495638802"><ele>678.5</ele><time>2026-03-28T15:26:14Z</time></trkpt><trkpt lat="45.91759746363327" lon="8.741241816746651"><ele>680.25</ele><time>2026-03-28T15:26:15Z</time></trkpt><trkpt lat="45.917541675942466" lon="8.74107299555907"><ele>682.0</ele><time>2026-03-28T15:26:16Z</time></trkpt><trkpt lat="45.91746587024885" lon="8.740908834472277"><ele>671.25</ele><time>2026-03-28T15:26:17Z</time></trkpt><trkpt lat="45.917408024748795" lon="8.740720854120921"><ele>660.5</ele><time>2026-03-28T15:26:18Z</time></trkpt><trkpt lat="45.91735356797292" lon="8.740546401612477"><ele>649.75</ele><time>2026-03-28T15:26:19Z</time></trkpt><trkpt lat="45.917301255024775" lon="8.74038869430346"><ele>639.0</ele><time>2026-03-28T15:26:20Z</time></trkpt><trkpt lat="45.91723816791101" lon="8.740269475325613"><ele>638.4</ele><time>2026-03-28T15:26:20.999Z</time></trkpt><trkpt lat="45.91721250793403" lon="8.74015074139798"><ele>637.8</ele><time>2026-03-28T15:26:21.999Z</time></trkpt><trkpt lat="45.91721931642176" lon="8.74002653506576"><ele>637.2</ele><time>2026-03-28T15:26:22.999Z</time></trkpt><trkpt lat="45.91723744926331" lon="8.739864173513142"><ele>636.6</ele><time>2026-03-28T15:26:23.999Z</time></trkpt><trkpt lat="45.917245629226166" lon="8.73969646240086"><ele>636.0</ele><time>2026-03-28T15:26:24.999Z</time></trkpt><trkpt lat="45.917269723177384" lon="8.739583642283135"><ele>636.0</ele><time>2026-03-28T15:26:25.999Z</time></trkpt><trkpt lat="45.91732517332019" lon="8.739484386192135"><ele>636.0</ele><time>2026-03-28T15:26:26.999Z</time></trkpt><trkpt lat="45.91739280590468" lon="8.739398025594237"><ele>636.0</ele><time>2026-03-28T15:26:27.999Z</time></trkpt><trkpt lat="45.91741698048621" lon="8.739284762664298"><ele>636.0</ele><time>2026-03-28T15:26:28.999Z</time></trkpt><trkpt lat="45.91740147692629" lon="8.739157631159747"><ele>636.0</ele><time>2026-03-28T15:26:29.999Z</time></trkpt><trkpt lat="45.91734504838515" lon="8.739052139009686"><ele>636.0</ele><time>2026-03-28T15:26:30.999Z</time></trkpt><trkpt lat="45.91724516128007" lon="8.738989418238251"><ele>635.5</ele><time>2026-03-28T15:26:31.999Z</time></trkpt><trkpt lat="45.91712342929154" lon="8.73893773437739"><ele>635.0</ele><time>2026-03-28T15:26:32.999Z</time></trkpt><trkpt lat="45.91702199097365" lon="8.738905382595314"><ele>634.5</ele><time>2026-03-28T15:26:33.999Z</time></trkpt><trkpt lat="45.916908198048525" lon="8.738913619402428"><ele>634.0</ele><time>2026-03-28T15:26:34.999Z</time></trkpt><trkpt lat="45.91676609558629" lon="8.738959459224668"><ele>628.4</ele><time>2026-03-28T15:26:35.999Z</time></trkpt><trkpt lat="45.91664012854689" lon="8.738997070527704"><ele>622.8</ele><time>2026-03-28T15:26:36.999Z</time></trkpt><trkpt lat="45.916534233980045" lon="8.738986636709715"><ele>617.2</ele><time>2026-03-28T15:26:37.999Z</time></trkpt><trkpt lat="45.91643623239216" lon="8.738936106388243"><ele>611.6</ele><time>2026-03-28T15:26:38.999Z</time></trkpt><trkpt lat="45.9163380249804" lon="8.738881674196678"><ele>606.0</ele><time>2026-03-28T15:26:39.999Z</time></trkpt><trkpt lat="45.91626013955082" lon="8.738847209951945"><ele>606.0</ele><time>2026-03-28T15:26:40.999Z</time></trkpt><trkpt lat="45.91620518566241" lon="8.738764160160615"><ele>606.0</ele><time>2026-03-28T15:26:41.999Z</time></trkpt><trkpt lat="45.91619840217975" lon="8.73862957811482"><ele>606.0</ele><time>2026-03-28T15:26:42.999Z</time></trkpt><trkpt lat="45.91619283948038" lon="8.738461681437542"><ele>606.0</ele><time>2026-03-28T15:26:43.999Z</time></trkpt><trkpt lat="45.91615961830438" lon="8.738308505105453"><ele>606.0</ele><time>2026-03-28T15:26:44.999Z</time></trkpt><trkpt lat="45.916070042442485" lon="8.738182989827662"><ele>607.5</ele><time>2026-03-28T15:26:45.999Z</time></trkpt><trkpt lat="45.91598530733154" lon="8.738088052547063"><ele>609.0</ele><time>2026-03-28T15:26:46.999Z</time></trkpt><trkpt lat="45.915931868139076" lon="8.737990335857488"><ele>610.5</ele><time>2026-03-28T15:26:47.999Z</time></trkpt><trkpt lat="45.91589533118193" lon="8.737894434248227"><ele>612.0</ele><time>2026-03-28T15:26:48.999Z</time></trkpt><trkpt lat="45.915870070185036" lon="8.73778796343565"><ele>613.5</ele><time>2026-03-28T15:26:49.999Z</time></trkpt><trkpt lat="45.91585056214888" lon="8.737662371386628"><ele>615.0</ele><time>2026-03-28T15:26:50.999Z</time></trkpt><trkpt lat="45.91582916314547" lon="8.737558084491932"><ele>614.5</ele><time>2026-03-28T15:26:51.999Z</time></trkpt><trkpt lat="45.91582529057674" lon="8.73746252422614"><ele>614.0</ele><time>2026-03-28T15:26:52.999Z</time></trkpt><trkpt lat="45.91585428157345" lon="8.73736406390763"><ele>613.5</ele><time>2026-03-28T15:26:53.999Z</time></trkpt><trkpt lat="45.91589782395399" lon="8.737261896584195"><ele>613.0</ele><time>2026-03-28T15:26:54.999Z</time></trkpt><trkpt lat="45.915904347950416" lon="8.737162508269837"><ele>612.5</ele><time>2026-03-28T15:26:55.999Z</time></trkpt><trkpt lat="45.91587400211646" lon="8.737071016328015"><ele>612.0</ele><time>2026-03-28T15:26:56.999Z</time></trkpt><trkpt lat="45.91581272841827" lon="8.736981189058808"><ele>607.0</ele><time>2026-03-28T15:26:57.999Z</time></trkpt><trkpt lat="45.915775037681215" lon="8.736899728838546"><ele>602.0</ele><time>2026-03-28T15:26:58.999Z</time></trkpt><trkpt lat="45.91582866618003" lon="8.736728293026564"><ele>597.0</ele><time>2026-03-28T15:27:00.999Z</time></trkpt><trkpt lat="45.91584313198595" lon="8.736630670900022"><ele>592.0</ele><time>2026-03-28T15:27:01.999Z</time></trkpt><trkpt lat="45.9158075163886" lon="8.736551374935978"><ele>587.0</ele><time>2026-03-28T15:27:02.999Z</time></trkpt><trkpt lat="45.9157428936252" lon="8.736531149012084"><ele>582.0</ele><time>2026-03-28T15:27:03.999Z</time></trkpt><trkpt lat="45.91567885919289" lon="8.736565413833356"><ele>582.0</ele><time>2026-03-28T15:27:04.999Z</time></trkpt><trkpt lat="45.915642252995816" lon="8.736675265541297"><ele>582.0</ele><time>2026-03-28T15:27:06.999Z</time></trkpt><trkpt lat="45.915586637538716" lon="8.736779564838697"><ele>582.0</ele><time>2026-03-28T15:27:57Z</time></trkpt><trkpt lat="45.91548452452214" lon="8.736852857711568"><ele>582.0</ele><time>2026-03-28T15:27:59Z</time></trkpt><trkpt lat="45.915420252769124" lon="8.73691187727342"><ele>582.0</ele><time>2026-03-28T15:28:00Z</time></trkpt><trkpt lat="45.915352596613786" lon="8.736992223811319"><ele>582.0</ele><time>2026-03-28T15:28:01Z</time></trkpt><trkpt lat="45.91529513460295" lon="8.737086118913139"><ele>582.0</ele><time>2026-03-28T15:28:02Z</time></trkpt><trkpt lat="45.91524578615854" lon="8.737172690054892"><ele>582.0</ele><time>2026-03-28T15:28:03Z</time></trkpt><trkpt lat="45.915196612593995" lon="8.737277424531305"><ele>582.0</ele><time>2026-03-28T15:28:04Z</time></trkpt><trkpt lat="45.91513676655764" lon="8.737421187103665"><ele>582.0</ele><time>2026-03-28T15:28:05Z</time></trkpt><trkpt lat="45.915094194228814" lon="8.737540843061954"><ele>577.4</ele><time>2026-03-28T15:28:06Z</time></trkpt><trkpt lat="45.91505733152253" lon="8.73763599564316"><ele>572.8000000000001</ele><time>2026-03-28T15:28:07Z</time></trkpt><trkpt lat="45.915029939686825" lon="8.737744362951776"><ele>568.2</ele><time>2026-03-28T15:28:08Z</time></trkpt><trkpt lat="45.91499396450112" lon="8.737915901452139"><ele>563.6</ele><time>2026-03-28T15:28:10Z</time></trkpt><trkpt lat="45.914981152127964" lon="8.738045562115209"><ele>559.0</ele><time>2026-03-28T15:28:12Z</time></trkpt><trkpt lat="45.914925813555634" lon="8.738131011444812"><ele>557.5</ele><time>2026-03-28T15:28:13Z</time></trkpt><trkpt lat="45.91485798376858" lon="8.738250375116099"><ele>556.0</ele><time>2026-03-28T15:28:14Z</time></trkpt><trkpt lat="45.91482075804824" lon="8.738366176891128"><ele>554.5</ele><time>2026-03-28T15:28:15Z</time></trkpt><trkpt lat="45.914788617336534" lon="8.738459434939209"><ele>553.0</ele><time>2026-03-28T15:28:16Z</time></trkpt><trkpt lat="45.91474771118754" lon="8.73854385874206"><ele>551.5</ele><time>2026-03-28T15:28:17Z</time></trkpt><trkpt lat="45.91468056884094" lon="8.73859966406521"><ele>550.0</ele><time>2026-03-28T15:28:18Z</time></trkpt><trkpt lat="45.91457664741955" lon="8.738592257252487"><ele>550.0</ele><time>2026-03-28T15:28:20Z</time></trkpt><trkpt lat="45.91452342466035" lon="8.738528016090518"><ele>550.0</ele><time>2026-03-28T15:28:22Z</time></trkpt><trkpt lat="45.914469155439356" lon="8.738369303603204"><ele>550.0</ele><time>2026-03-28T15:28:23Z</time></trkpt><trkpt lat="45.91440328044151" lon="8.738279458563321"><ele>550.0</ele><time>2026-03-28T15:28:24Z</time></trkpt><trkpt lat="45.91434594809956" lon="8.738216002748038"><ele>550.0</ele><time>2026-03-28T15:28:25Z</time></trkpt><trkpt lat="45.91428609485807" lon="8.738186864192889"><ele>550.0</ele><time>2026-03-28T15:28:25.999Z</time></trkpt><trkpt lat="45.914215311017784" lon="8.738170774482281"><ele>549.4</ele><time>2026-03-28T15:28:27.999Z</time></trkpt><trkpt lat="45.91420302556556" lon="8.7380408514365"><ele>548.8</ele><time>2026-03-28T15:28:28.999Z</time></trkpt><trkpt lat="45.91419105893409" lon="8.737940077963739"><ele>548.2</ele><time>2026-03-28T15:28:29.999Z</time></trkpt><trkpt lat="45.914092027545856" lon="8.737839271263852"><ele>547.6</ele><time>2026-03-28T15:28:31.999Z</time></trkpt><trkpt lat="45.913991295526515" lon="8.737734339087906"><ele>547.0</ele><time>2026-03-28T15:28:32.999Z</time></trkpt><trkpt lat="45.91391668304288" lon="8.73762275131599"><ele>547.0</ele><time>2026-03-28T15:28:33.999Z</time></trkpt><trkpt lat="45.91384432210694" lon="8.737553967418696"><ele>547.0</ele><time>2026-03-28T15:28:34.999Z</time></trkpt><trkpt lat="45.913771259400924" lon="8.7374979445606"><ele>547.0</ele><time>2026-03-28T15:28:35.999Z</time></trkpt><trkpt lat="45.91370341321198" lon="8.737476790141255"><ele>547.0</ele><time>2026-03-28T15:28:36.999Z</time></trkpt><trkpt lat="45.91363858911261" lon="8.737493515132021"><ele>547.0</ele><time>2026-03-28T15:28:37.999Z</time></trkpt><trkpt lat="45.91353421795411" lon="8.737550625491846"><ele>547.0</ele><time>2026-03-28T15:28:38.999Z</time></trkpt><trkpt lat="45.91345434561278" lon="8.737576371434567"><ele>543.8333333333334</ele><time>2026-03-28T15:28:39.999Z</time></trkpt><trkpt lat="45.913388862599874" lon="8.737610230358754"><ele>540.6666666666667</ele><time>2026-03-28T15:28:40.999Z</time></trkpt><trkpt lat="45.91335681789941" lon="8.73780648226879"><ele>537.5</ele><time>2026-03-28T15:28:42.999Z</time></trkpt><trkpt lat="45.9133556179613" lon="8.737905739062699"><ele>534.3333333333334</ele><time>2026-03-28T15:28:43.999Z</time></trkpt><trkpt lat="45.913294717463174" lon="8.738000138376412"><ele>531.1666666666666</ele><time>2026-03-28T15:28:45.999Z</time></trkpt><trkpt lat="45.913216360795666" lon="8.73799795381329"><ele>528.0</ele><time>2026-03-28T15:28:46.999Z</time></trkpt><trkpt lat="45.913122476274296" lon="8.737968593988988"><ele>527.5</ele><time>2026-03-28T15:28:47.999Z</time></trkpt><trkpt lat="45.91305762947032" lon="8.737952840931863"><ele>527.0</ele><time>2026-03-28T15:28:48.999Z</time></trkpt><trkpt lat="45.91299659316761" lon="8.73797584783422"><ele>526.5</ele><time>2026-03-28T15:28:49.999Z</time></trkpt><trkpt lat="45.912918642822625" lon="8.738032039604546"><ele>526.0</ele><time>2026-03-28T15:28:50.999Z</time></trkpt><trkpt lat="45.912842674940755" lon="8.738091852420165"><ele>525.5</ele><time>2026-03-28T15:28:51.999Z</time></trkpt><trkpt lat="45.91277952787115" lon="8.738151891722236"><ele>525.0</ele><time>2026-03-28T15:28:52.999Z</time></trkpt><trkpt lat="45.91272256425466" lon="8.7382319763532"><ele>525.0</ele><time>2026-03-28T15:28:53.999Z</time></trkpt><trkpt lat="45.91270032842233" lon="8.738338931550294"><ele>525.0</ele><time>2026-03-28T15:28:54.999Z</time></trkpt><trkpt lat="45.91269820606061" lon="8.738442299485804"><ele>525.0</ele><time>2026-03-28T15:28:55.999Z</time></trkpt><trkpt lat="45.91271097656058" lon="8.738591083341843"><ele>525.0</ele><time>2026-03-28T15:28:57.999Z</time></trkpt><trkpt lat="45.9127103780559" lon="8.738712054796615"><ele>525.0</ele><time>2026-03-28T15:28:59.999Z</time></trkpt><trkpt lat="45.912664394032575" lon="8.738782412444644"><ele>525.0</ele><time>2026-03-28T15:29:01.999Z</time></trkpt><trkpt lat="45.91260002519208" lon="8.738836161424313"><ele>522.8333333333334</ele><time>2026-03-28T15:29:04.999Z</time></trkpt><trkpt lat="45.91258648381881" lon="8.738957959244795"><ele>520.6666666666666</ele><time>2026-03-28T15:29:07.999Z</time></trkpt><trkpt lat="45.91258860900922" lon="8.739090445184447"><ele>518.5</ele><time>2026-03-28T15:29:09.999Z</time></trkpt><trkpt lat="45.91252772254525" lon="8.739144890136538"><ele>516.3333333333333</ele><time>2026-03-28T15:29:11.999Z</time></trkpt><trkpt lat="45.91243788081642" lon="8.739103368581697"><ele>514.1666666666666</ele><time>2026-03-28T15:29:13.999Z</time></trkpt><trkpt lat="45.912376904758354" lon="8.739073110323595"><ele>512.0</ele><time>2026-03-28T15:29:14.999Z</time></trkpt><trkpt lat="45.9123136452503" lon="8.739052626970778"><ele>509.8</ele><time>2026-03-28T15:29:15.999Z</time></trkpt><trkpt lat="45.91224403007138" lon="8.739002936054632"><ele>507.6</ele><time>2026-03-28T15:29:16.999Z</time></trkpt><trkpt lat="45.912168952011704" lon="8.738965421501465"><ele>505.40000000000003</ele><time>2026-03-28T15:29:17.999Z</time></trkpt><trkpt lat="45.912073375059215" lon="8.738947601920222"><ele>503.20000000000005</ele><time>2026-03-28T15:29:18.999Z</time></trkpt><trkpt lat="45.911984507245734" lon="8.738958589384929"><ele>501.0</ele><time>2026-03-28T15:29:19.999Z</time></trkpt><trkpt lat="45.911861945662736" lon="8.73900122690988"><ele>501.0</ele><time>2026-03-28T15:29:21.999Z</time></trkpt><trkpt lat="45.91179588478336" lon="8.739042751773496"><ele>501.0</ele><time>2026-03-28T15:29:22.998Z</time></trkpt><trkpt lat="45.91172802074023" lon="8.739060668098661"><ele>501.0</ele><time>2026-03-28T15:29:23.998Z</time></trkpt><trkpt lat="45.91163400261058" lon="8.739094228349922"><ele>501.0</ele><time>2026-03-28T15:29:25.998Z</time></trkpt><trkpt lat="45.911566472006704" lon="8.73907922576726"><ele>501.0</ele><time>2026-03-28T15:29:26.998Z</time></trkpt><trkpt lat="45.911489787055274" lon="8.739033780119463"><ele>501.0</ele><time>2026-03-28T15:29:27.998Z</time></trkpt><trkpt lat="45.911420455045864" lon="8.739008015482273"><ele>497.8333333333333</ele><time>2026-03-28T15:29:28.998Z</time></trkpt><trkpt lat="45.91134985826941" lon="8.738982445830903"><ele>494.66666666666663</ele><time>2026-03-28T15:29:29.998Z</time></trkpt><trkpt lat="45.9112749817881" lon="8.738955651385409"><ele>491.5</ele><time>2026-03-28T15:29:30.998Z</time></trkpt><trkpt lat="45.91120682451169" lon="8.738940358111487"><ele>488.3333333333333</ele><time>2026-03-28T15:29:31.998Z</time></trkpt><trkpt lat="45.9111460597731" lon="8.738914184798832"><ele>485.16666666666663</ele><time>2026-03-28T15:29:32.998Z</time></trkpt><trkpt lat="45.91103682004396" lon="8.738843969837134"><ele>482.0</ele><time>2026-03-28T15:29:34.998Z</time></trkpt><trkpt lat="45.910974646960156" lon="8.738813468959044"><ele>476.6</ele><time>2026-03-28T15:29:35.998Z</time></trkpt><trkpt lat="45.91090153607504" lon="8.738739342110678"><ele>471.20000000000005</ele><time>2026-03-28T15:29:37.998Z</time></trkpt><trkpt lat="45.91085989054906" lon="8.738566036468603"><ele>465.8</ele><time>2026-03-28T15:29:39.998Z</time></trkpt><trkpt lat="45.91087038422491" lon="8.738423770772098"><ele>460.4</ele><time>2026-03-28T15:29:40.998Z</time></trkpt><trkpt lat="45.91087370209388" lon="8.73833070033952"><ele>455.0</ele><time>2026-03-28T15:29:41.998Z</time></trkpt><trkpt lat="45.91081092824193" lon="8.738256777481434"><ele>454.99999999999994</ele><time>2026-03-28T15:29:43.998Z</time></trkpt><trkpt lat="45.91076490543098" lon="8.738374146518973"><ele>455.0</ele><time>2026-03-28T15:29:45.998Z</time></trkpt><trkpt lat="45.91080660516348" lon="8.738481444858566"><ele>455.0</ele><time>2026-03-28T15:29:47.998Z</time></trkpt><trkpt lat="45.91073889052019" lon="8.738468457628798"><ele>455.0</ele><time>2026-03-28T15:29:53Z</time></trkpt><trkpt lat="45.91066545459718" lon="8.738410941875204"><ele>454.99999999999994</ele><time>2026-03-28T15:29:55Z</time></trkpt><trkpt lat="45.91059433677084" lon="8.738344744501852"><ele>455.0</ele><time>2026-03-28T15:29:57Z</time></trkpt><trkpt lat="45.91054303183028" lon="8.738233239424586"><ele>454.99999999999994</ele><time>2026-03-28T15:29:59Z</time></trkpt><trkpt lat="45.91046127769456" lon="8.738172981371156"><ele>455.0</ele><time>2026-03-28T15:30:01Z</time></trkpt><trkpt lat="45.91037652938208" lon="8.738120618713792"><ele>455.0</ele><time>2026-03-28T15:30:03Z</time></trkpt><trkpt lat="45.91029368690632" lon="8.738095928135145"><ele>455.0</ele><time>2026-03-28T15:30:05Z</time></trkpt><trkpt lat="45.910224194125036" lon="8.73803175279268"><ele>454.99999999999994</ele><time>2026-03-28T15:30:08Z</time></trkpt><trkpt lat="45.91020370369415" lon="8.737894234449218"><ele>455.0</ele><time>2026-03-28T15:30:11Z</time></trkpt><trkpt lat="45.91020564329537" lon="8.737797293818122"><ele>454.99999999999994</ele><time>2026-03-28T15:30:13Z</time></trkpt><trkpt lat="45.910201368829185" lon="8.737703600100264"><ele>455.0</ele><time>2026-03-28T15:30:16Z</time></trkpt><trkpt lat="45.91013865392592" lon="8.737777819209262"><ele>455.0</ele><time>2026-03-28T15:30:21Z</time></trkpt><trkpt lat="45.9100691919001" lon="8.737797272441703"><ele>455.0</ele><time>2026-03-28T15:30:25Z</time></trkpt><trkpt lat="45.91002852263162" lon="8.737699906427276"><ele>454.99999999999994</ele><time>2026-03-28T15:30:27Z</time></trkpt><trkpt lat="45.90998255504082" lon="8.737624969025465"><ele>455.0</ele><time>2026-03-28T15:30:29Z</time></trkpt><trkpt lat="45.909952599953044" lon="8.737509612686994"><ele>445.8</ele><time>2026-03-28T15:30:32Z</time></trkpt><trkpt lat="45.909949813266884" lon="8.737397395642812"><ele>436.6</ele><time>2026-03-28T15:30:33.999Z</time></trkpt><trkpt lat="45.90992195833604" lon="8.737260679399247"><ele>427.4</ele><time>2026-03-28T15:30:35.999Z</time></trkpt><trkpt lat="45.909915414538915" lon="8.737118602265705"><ele>418.2</ele><time>2026-03-28T15:30:37.999Z</time></trkpt><trkpt lat="45.909913185950735" lon="8.73699028383209"><ele>409.0</ele><time>2026-03-28T15:30:39.999Z</time></trkpt><trkpt lat="45.90987698888559" lon="8.73686532041894"><ele>408.2</ele><time>2026-03-28T15:30:41.999Z</time></trkpt><trkpt lat="45.90979314443779" lon="8.736743420727027"><ele>407.4</ele><time>2026-03-28T15:30:43.999Z</time></trkpt><trkpt lat="45.909726578360676" lon="8.736657908175328"><ele>406.6</ele><time>2026-03-28T15:30:45.999Z</time></trkpt><trkpt lat="45.909667451768165" lon="8.73659042783406"><ele>405.8</ele><time>2026-03-28T15:30:47.999Z</time></trkpt><trkpt lat="45.909622426614774" lon="8.736470812766347"><ele>405.0</ele><time>2026-03-28T15:30:49.999Z</time></trkpt><trkpt lat="45.90955772130375" lon="8.736329946162074"><ele>405.0</ele><time>2026-03-28T15:30:51.999Z</time></trkpt><trkpt lat="45.90944618237019" lon="8.736247573970513"><ele>405.0</ele><time>2026-03-28T15:30:53.999Z</time></trkpt><trkpt lat="45.90934186295344" lon="8.73617353360728"><ele>405.0</ele><time>2026-03-28T15:30:55.999Z</time></trkpt><trkpt lat="45.909262057426545" lon="8.736120270947719"><ele>405.0</ele><time>2026-03-28T15:30:57.999Z</time></trkpt><trkpt lat="45.909188826471436" lon="8.736063264013827"><ele>405.0</ele><time>2026-03-28T15:31:00.999Z</time></trkpt><trkpt lat="45.909175214376106" lon="8.735928369775923"><ele>397.8333333333333</ele><time>2026-03-28T15:31:02.999Z</time></trkpt><trkpt lat="45.90917632588673" lon="8.735818441355999"><ele>390.6666666666667</ele><time>2026-03-28T15:31:04.999Z</time></trkpt><trkpt lat="45.90908763592661" lon="8.73581422505927"><ele>383.5</ele><time>2026-03-28T15:31:07.999Z</time></trkpt><trkpt lat="45.90904992847049" lon="8.735691095668715"><ele>376.33333333333337</ele><time>2026-03-28T15:34:21Z</time></trkpt><trkpt lat="45.909055082490106" lon="8.735593704082076"><ele>369.1666666666667</ele><time>2026-03-28T15:34:22Z</time></trkpt><trkpt lat="45.909042680343006" lon="8.735486304309688"><ele>362.0</ele><time>2026-03-28T15:34:23Z</time></trkpt><trkpt lat="45.90904789223488" lon="8.735389009562345"><ele>362.0</ele><time>2026-03-28T15:34:24Z</time></trkpt><trkpt lat="45.90906548506654" lon="8.735298502814812"><ele>362.0</ele><time>2026-03-28T15:34:25Z</time></trkpt><trkpt lat="45.90909366580286" lon="8.735134700413393"><ele>362.0</ele><time>2026-03-28T15:34:27Z</time></trkpt><trkpt lat="45.90910372561233" lon="8.735001089746003"><ele>362.0</ele><time>2026-03-28T15:34:29Z</time></trkpt><trkpt lat="45.90907333596277" lon="8.734910622425591"><ele>362.0</ele><time>2026-03-28T15:34:31Z</time></trkpt><trkpt lat="45.90895819551965" lon="8.734877456337697"><ele>358.6666666666667</ele><time>2026-03-28T15:34:33Z</time></trkpt><trkpt lat="45.908896293504725" lon="8.734823851985796"><ele>355.33333333333337</ele><time>2026-03-28T15:34:35Z</time></trkpt><trkpt lat="45.908905613509326" lon="8.734734319182113"><ele>352.0</ele><time>2026-03-28T15:34:36Z</time></trkpt><trkpt lat="45.90894132881505" lon="8.734632823834339"><ele>348.6666666666667</ele><time>2026-03-28T15:34:37Z</time></trkpt><trkpt lat="45.90899553420551" lon="8.734500993799886"><ele>345.3333333333333</ele><time>2026-03-28T15:34:39Z</time></trkpt><trkpt lat="45.90908876232247" lon="8.734543208310422"><ele>342.0</ele><time>2026-03-28T15:34:41Z</time></trkpt><trkpt lat="45.90914921443821" lon="8.734610387220355"><ele>342.0</ele><time>2026-03-28T15:34:42Z</time></trkpt><trkpt lat="45.90922537903487" lon="8.734625440246862"><ele>342.0</ele><time>2026-03-28T15:34:43.999Z</time></trkpt><trkpt lat="45.909267544505255" lon="8.734480746841161"><ele>342.0</ele><time>2026-03-28T15:34:45.999Z</time></trkpt><trkpt lat="45.90921444886643" lon="8.734353482792159"><ele>342.0</ele><time>2026-03-28T15:34:47.999Z</time></trkpt><trkpt lat="45.90916595118407" lon="8.734266333966795"><ele>342.0</ele><time>2026-03-28T15:34:48.999Z</time></trkpt><trkpt lat="45.909121647485996" lon="8.734167199837184"><ele>342.0</ele><time>2026-03-28T15:34:49.999Z</time></trkpt><trkpt lat="45.90909416916735" lon="8.734085267051109"><ele>342.6666666666667</ele><time>2026-03-28T15:34:50.999Z</time></trkpt><trkpt lat="45.90901419532901" lon="8.733954208317389"><ele>343.3333333333333</ele><time>2026-03-28T15:34:52.999Z</time></trkpt><trkpt lat="45.90895390895889" lon="8.73390174359001"><ele>344.0</ele><time>2026-03-28T15:34:53.999Z</time></trkpt><trkpt lat="45.90890931267397" lon="8.733835627406807"><ele>344.66666666666663</ele><time>2026-03-28T15:34:54.999Z</time></trkpt><trkpt lat="45.90886306809614" lon="8.733736581943916"><ele>345.3333333333333</ele><time>2026-03-28T15:34:55.999Z</time></trkpt><trkpt lat="45.90880750793787" lon="8.733625266221312"><ele>346.0</ele><time>2026-03-28T15:34:56.999Z</time></trkpt><trkpt lat="45.90875588235898" lon="8.733520281630172"><ele>349.16666666666663</ele><time>2026-03-28T15:34:57.999Z</time></trkpt><trkpt lat="45.908718159175265" lon="8.733433441493792"><ele>352.3333333333333</ele><time>2026-03-28T15:34:58.999Z</time></trkpt><trkpt lat="45.908689823074745" lon="8.73335216147365"><ele>355.5</ele><time>2026-03-28T15:34:59.999Z</time></trkpt><trkpt lat="45.90869825294693" lon="8.733182855196322"><ele>358.6666666666667</ele><time>2026-03-28T15:35:01.999Z</time></trkpt><trkpt lat="45.90872264688263" lon="8.733089971491909"><ele>361.83333333333337</ele><time>2026-03-28T15:35:02.999Z</time></trkpt><trkpt lat="45.908730859143525" lon="8.732988657193985"><ele>365.0</ele><time>2026-03-28T15:35:03.999Z</time></trkpt><trkpt lat="45.90872644970018" lon="8.732878255185685"><ele>365.0</ele><time>2026-03-28T15:35:04.999Z</time></trkpt><trkpt lat="45.90869862336952" lon="8.732782216638608"><ele>365.0</ele><time>2026-03-28T15:35:05.999Z</time></trkpt><trkpt lat="45.908648104635006" lon="8.732688486969181"><ele>365.0</ele><time>2026-03-28T15:35:06.999Z</time></trkpt><trkpt lat="45.908594067680056" lon="8.732565848820208"><ele>365.0</ele><time>2026-03-28T15:35:07.999Z</time></trkpt><trkpt lat="45.90854877491651" lon="8.732407130836824"><ele>365.0</ele><time>2026-03-28T15:35:08.999Z</time></trkpt><trkpt lat="45.9085201435241" lon="8.732226623974075"><ele>367.25</ele><time>2026-03-28T15:35:09.999Z</time></trkpt><trkpt lat="45.90849980370891" lon="8.732032902805813"><ele>369.5</ele><time>2026-03-28T15:35:10.999Z</time></trkpt><trkpt lat="45.908485491823015" lon="8.731866555017087"><ele>371.75</ele><time>2026-03-28T15:35:11.999Z</time></trkpt><trkpt lat="45.90846187701083" lon="8.73171972395572"><ele>374.0</ele><time>2026-03-28T15:35:12.999Z</time></trkpt><trkpt lat="45.90843946444134" lon="8.731587883470286"><ele>374.0</ele><time>2026-03-28T15:35:13.999Z</time></trkpt><trkpt lat="45.90842244735948" lon="8.731488575393463"><ele>374.0</ele><time>2026-03-28T15:35:14.999Z</time></trkpt><trkpt lat="45.90841124315803" lon="8.731398778112025"><ele>374.0</ele><time>2026-03-28T15:35:15.999Z</time></trkpt><trkpt lat="45.90832784422641" lon="8.731252551354608"><ele>374.0</ele><time>2026-03-28T15:35:17.999Z</time></trkpt><trkpt lat="45.90827050373502" lon="8.73118834348175"><ele>374.0</ele><time>2026-03-28T15:35:18.999Z</time></trkpt><trkpt lat="45.90828156021757" lon="8.73107386749017"><ele>374.0</ele><time>2026-03-28T15:35:20.999Z</time></trkpt><trkpt lat="45.90826501832947" lon="8.730962844013046"><ele>359.25</ele><time>2026-03-28T15:35:21.999Z</time></trkpt><trkpt lat="45.908198408650684" lon="8.730826130582257"><ele>344.5</ele><time>2026-03-28T15:35:22.999Z</time></trkpt><trkpt lat="45.90813176092585" lon="8.730676963552137"><ele>329.75</ele><time>2026-03-28T15:35:23.999Z</time></trkpt><trkpt lat="45.90805825276707" lon="8.730518036943554"><ele>315.0</ele><time>2026-03-28T15:35:24.999Z</time></trkpt><trkpt lat="45.907979245397534" lon="8.730368259106143"><ele>315.0</ele><time>2026-03-28T15:35:25.999Z</time></trkpt><trkpt lat="45.907901736140424" lon="8.73023802087073"><ele>315.0</ele><time>2026-03-28T15:35:26.999Z</time></trkpt><trkpt lat="45.90783410793044" lon="8.73008461705094"><ele>315.0</ele><time>2026-03-28T15:35:27.999Z</time></trkpt><trkpt lat="45.907770551293176" lon="8.729939118383708"><ele>315.0</ele><time>2026-03-28T15:35:28.999Z</time></trkpt><trkpt lat="45.9077180053586" lon="8.729820179843037"><ele>313.8</ele><time>2026-03-28T15:35:29.999Z</time></trkpt><trkpt lat="45.9076738238417" lon="8.729734651200998"><ele>312.6</ele><time>2026-03-28T15:35:30.999Z</time></trkpt><trkpt lat="45.90762870144451" lon="8.729603908847261"><ele>311.4</ele><time>2026-03-28T15:35:32.999Z</time></trkpt><trkpt lat="45.907517596954975" lon="8.729561199028515"><ele>310.2</ele><time>2026-03-28T15:35:35.999Z</time></trkpt><trkpt lat="45.907412365667675" lon="8.729394993170795"><ele>309.0</ele><time>2026-03-28T15:35:37.999Z</time></trkpt><trkpt lat="45.907356494034694" lon="8.72923101637028"><ele>306.8</ele><time>2026-03-28T15:35:38.999Z</time></trkpt><trkpt lat="45.90727332858132" lon="8.72912830563375"><ele>304.59999999999997</ele><time>2026-03-28T15:35:39.999Z</time></trkpt><trkpt lat="45.90716610194624" lon="8.729061132446745"><ele>302.4</ele><time>2026-03-28T15:35:40.998Z</time></trkpt><trkpt lat="45.90707606035989" lon="8.72900652794792"><ele>300.2</ele><time>2026-03-28T15:35:41.998Z</time></trkpt><trkpt lat="45.90699842776968" lon="8.728945123854592"><ele>298.0</ele><time>2026-03-28T15:35:42.998Z</time></trkpt><trkpt lat="45.906935114909" lon="8.72886789085118"><ele>298.0</ele><time>2026-03-28T15:35:43.998Z</time></trkpt><trkpt lat="45.90688502603336" lon="8.728770232182907"><ele>298.0</ele><time>2026-03-28T15:35:44.998Z</time></trkpt><trkpt lat="45.906843435107255" lon="8.728665094672314"><ele>298.0</ele><time>2026-03-28T15:35:45.998Z</time></trkpt><trkpt lat="45.9067837310759" lon="8.728551704093437"><ele>298.0</ele><time>2026-03-28T15:35:46.998Z</time></trkpt><trkpt lat="45.906721794503405" lon="8.728453792147683"><ele>298.0</ele><time>2026-03-28T15:35:47.998Z</time></trkpt><trkpt lat="45.906669400723935" lon="8.728389797550534"><ele>298.0</ele><time>2026-03-28T15:35:48.998Z</time></trkpt><trkpt lat="45.906638416625576" lon="8.728302809044003"><ele>297.5</ele><time>2026-03-28T15:35:50.998Z</time></trkpt><trkpt lat="45.90665215701414" lon="8.728214093000057"><ele>297.0</ele><time>2026-03-28T15:35:51.998Z</time></trkpt><trkpt lat="45.90670217209579" lon="8.728089438786384"><ele>296.5</ele><time>2026-03-28T15:35:52.998Z</time></trkpt><trkpt lat="45.90675817481213" lon="8.727989909153417"><ele>296.0</ele><time>2026-03-28T15:35:53.998Z</time></trkpt><trkpt lat="45.90676442842614" lon="8.72788420673235"><ele>295.5</ele><time>2026-03-28T15:35:57.998Z</time></trkpt><trkpt lat="45.90664950699655" lon="8.727829211231231"><ele>295.0</ele><time>2026-03-28T15:35:59.998Z</time></trkpt><trkpt lat="45.90654750226135" lon="8.727795453745482"><ele>294.0</ele><time>2026-03-28T15:36:00.998Z</time></trkpt><trkpt lat="45.90639966260821" lon="8.727741940693017"><ele>293.0</ele><time>2026-03-28T15:36:01.998Z</time></trkpt><trkpt lat="45.90622732436768" lon="8.727677937745447"><ele>292.0</ele><time>2026-03-28T15:36:02.998Z</time></trkpt><trkpt lat="45.90606337451378" lon="8.727607476909428"><ele>291.5</ele><time>2026-03-28T15:36:03.998Z</time></trkpt><trkpt lat="45.90591777346161" lon="8.727549000492727"><ele>291.0</ele><time>2026-03-28T15:36:04.998Z</time></trkpt><trkpt lat="45.90579240933909" lon="8.727499266120166"><ele>290.5</ele><time>2026-03-28T15:36:05.998Z</time></trkpt><trkpt lat="45.90567931084341" lon="8.727451658269242"><ele>290.0</ele><time>2026-03-28T15:36:06.998Z</time></trkpt><trkpt lat="45.90556703657547" lon="8.72740056461981"><ele>290.0</ele><time>2026-03-28T15:36:08Z</time></trkpt><trkpt lat="45.90547052279379" lon="8.72735929454692"><ele>290.0</ele><time>2026-03-28T15:36:09Z</time></trkpt><trkpt lat="45.905392309255454" lon="8.727314839446194"><ele>290.0</ele><time>2026-03-28T15:36:10Z</time></trkpt><trkpt lat="45.905337074844816" lon="8.727214902771529"><ele>290.0</ele><time>2026-03-28T15:36:12Z</time></trkpt><trkpt lat="45.90530856128391" lon="8.727056541170652"><ele>290.0</ele><time>2026-03-28T15:36:27Z</time></trkpt><trkpt lat="45.90532194850454" lon="8.726937187182086"><ele>289.6</ele><time>2026-03-28T15:36:28Z</time></trkpt><trkpt lat="45.9053057955387" lon="8.726831413122452"><ele>289.2</ele><time>2026-03-28T15:36:29Z</time></trkpt><trkpt lat="45.90524302901522" lon="8.726755111399637"><ele>288.8</ele><time>2026-03-28T15:36:30Z</time></trkpt><trkpt lat="45.90514331659668" lon="8.726719225335655"><ele>288.4</ele><time>2026-03-28T15:36:31Z</time></trkpt><trkpt lat="45.905024961910485" lon="8.726689335355106"><ele>288.0</ele><time>2026-03-28T15:36:32Z</time></trkpt><trkpt lat="45.90493713836858" lon="8.726604105873902"><ele>287.3333333333333</ele><time>2026-03-28T15:36:33Z</time></trkpt><trkpt lat="45.90485056418354" lon="8.726456594279181"><ele>286.66666666666663</ele><time>2026-03-28T15:36:34Z</time></trkpt><trkpt lat="45.90472102398153" lon="8.726255397173635"><ele>286.0</ele><time>2026-03-28T15:36:35Z</time></trkpt><trkpt lat="45.90458563009724" lon="8.726042559818238"><ele>285.5</ele><time>2026-03-28T15:36:36Z</time></trkpt><trkpt lat="45.904482628537195" lon="8.725866092716544"><ele>285.0</ele><time>2026-03-28T15:36:37Z</time></trkpt><trkpt lat="45.90438532772591" lon="8.725733912612904"><ele>284.5</ele><time>2026-03-28T15:36:38Z</time></trkpt><trkpt lat="45.90428469326268" lon="8.725660456117504"><ele>284.0</ele><time>2026-03-28T15:36:39Z</time></trkpt><trkpt lat="45.9041695515928" lon="8.725629916588764"><ele>283.6666666666667</ele><time>2026-03-28T15:36:40Z</time></trkpt><trkpt lat="45.904014126105324" lon="8.72560117540043"><ele>283.3333333333333</ele><time>2026-03-28T15:36:41Z</time></trkpt><trkpt lat="45.90386110556896" lon="8.72556649776167"><ele>283.0</ele><time>2026-03-28T15:36:42Z</time></trkpt><trkpt lat="45.90371935162992" lon="8.725523722296474"><ele>283.0</ele><time>2026-03-28T15:36:43Z</time></trkpt><trkpt lat="45.90356342120082" lon="8.72547789401923"><ele>283.0</ele><time>2026-03-28T15:36:44Z</time></trkpt><trkpt lat="45.90339375373591" lon="8.725433280090401"><ele>283.0</ele><time>2026-03-28T15:36:45Z</time></trkpt><trkpt lat="45.903208862948496" lon="8.725382840829965"><ele>282.3333333333333</ele><time>2026-03-28T15:36:46Z</time></trkpt><trkpt lat="45.90302046815561" lon="8.725345944502365"><ele>281.6666666666667</ele><time>2026-03-28T15:36:47Z</time></trkpt><trkpt lat="45.90285022151009" lon="8.725311508271613"><ele>281.0</ele><time>2026-03-28T15:36:48Z</time></trkpt><trkpt lat="45.90268952453177" lon="8.725275626761299"><ele>280.6666666666667</ele><time>2026-03-28T15:36:49Z</time></trkpt><trkpt lat="45.90251577948277" lon="8.72523657172131"><ele>280.3333333333333</ele><time>2026-03-28T15:36:50Z</time></trkpt><trkpt lat="45.902357609029764" lon="8.725205018928241"><ele>280.0</ele><time>2026-03-28T15:36:50.999Z</time></trkpt><trkpt lat="45.902221381415146" lon="8.72518047811587"><ele>280.0</ele><time>2026-03-28T15:36:51.999Z</time></trkpt><trkpt lat="45.90208308367781" lon="8.725142234589919"><ele>280.0</ele><time>2026-03-28T15:36:52.999Z</time></trkpt><trkpt lat="45.90192433171955" lon="8.725076202740423"><ele>280.0</ele><time>2026-03-28T15:36:53.999Z</time></trkpt><trkpt lat="45.90174592256398" lon="8.72500267380628"><ele>279.0</ele><time>2026-03-28T15:36:54.999Z</time></trkpt><trkpt lat="45.901563405734954" lon="8.724937739856864"><ele>278.0</ele><time>2026-03-28T15:36:55.999Z</time></trkpt><trkpt lat="45.90140039668205" lon="8.724850596689913"><ele>277.0</ele><time>2026-03-28T15:36:56.999Z</time></trkpt><trkpt lat="45.90123818199329" lon="8.724739568162159"><ele>277.0</ele><time>2026-03-28T15:36:57.999Z</time></trkpt><trkpt lat="45.90109723205468" lon="8.724661367857832"><ele>277.0</ele><time>2026-03-28T15:36:58.999Z</time></trkpt><trkpt lat="45.90098080170079" lon="8.724618971641334"><ele>277.0</ele><time>2026-03-28T15:36:59.999Z</time></trkpt><trkpt lat="45.90088616204425" lon="8.724608151008955"><ele>277.0</ele><time>2026-03-28T15:37:00.999Z</time></trkpt><trkpt lat="45.90079277645169" lon="8.724592038509995"><ele>277.75</ele><time>2026-03-28T15:37:01.999Z</time></trkpt><trkpt lat="45.900687305494955" lon="8.724578259163582"><ele>278.5</ele><time>2026-03-28T15:37:02.999Z</time></trkpt><trkpt lat="45.90055445563429" lon="8.724580481139403"><ele>279.25</ele><time>2026-03-28T15:37:03.999Z</time></trkpt><trkpt lat="45.90038346613764" lon="8.724601079854542"><ele>280.0</ele><time>2026-03-28T15:37:04.999Z</time></trkpt><trkpt lat="45.90023770602102" lon="8.724612712551417"><ele>280.0</ele><time>2026-03-28T15:37:05.999Z</time></trkpt><trkpt lat="45.90014248612904" lon="8.724608172936827"><ele>280.0</ele><time>2026-03-28T15:37:06.999Z</time></trkpt><trkpt lat="45.90004255756552" lon="8.72460574279167"><ele>280.0</ele><time>2026-03-28T15:37:08.999Z</time></trkpt><trkpt lat="45.89995084416693" lon="8.724533124485841"><ele>280.0</ele><time>2026-03-28T15:37:10.999Z</time></trkpt><trkpt lat="45.89992872021291" lon="8.724320724953317"><ele>280.0</ele><time>2026-03-28T15:37:12.999Z</time></trkpt><trkpt lat="45.89992971779604" lon="8.724104361539005"><ele>280.0</ele><time>2026-03-28T15:37:13.999Z</time></trkpt><trkpt lat="45.89989716626143" lon="8.723853072474059"><ele>280.0</ele><time>2026-03-28T15:37:14.999Z</time></trkpt><trkpt lat="45.89985652802644" lon="8.723573779597482"><ele>280.0</ele><time>2026-03-28T15:37:15.999Z</time></trkpt><trkpt lat="45.89980547148519" lon="8.723304129075995"><ele>280.0</ele><time>2026-03-28T15:37:16.999Z</time></trkpt><trkpt lat="45.899745066762804" lon="8.722997173410088"><ele>280.0</ele><time>2026-03-28T15:37:17.999Z</time></trkpt><trkpt lat="45.899706392813464" lon="8.722662585262055"><ele>280.0</ele><time>2026-03-28T15:37:18.999Z</time></trkpt><trkpt lat="45.89966541239402" lon="8.722329707213545"><ele>280.0</ele><time>2026-03-28T15:37:19.999Z</time></trkpt><trkpt lat="45.89962715206766" lon="8.722020251833063"><ele>279.66666666666663</ele><time>2026-03-28T15:37:20.999Z</time></trkpt><trkpt lat="45.89958499671019" lon="8.721721905543982"><ele>279.3333333333333</ele><time>2026-03-28T15:37:21.999Z</time></trkpt><trkpt lat="45.89953330655499" lon="8.72142558789316"><ele>279.0</ele><time>2026-03-28T15:37:22.999Z</time></trkpt><trkpt lat="45.89947846838687" lon="8.721123487968084"><ele>279.3333333333333</ele><time>2026-03-28T15:37:23.999Z</time></trkpt><trkpt lat="45.89942967045279" lon="8.720864832818558"><ele>279.66666666666663</ele><time>2026-03-28T15:37:24.999Z</time></trkpt><trkpt lat="45.89939838144889" lon="8.720629809129246"><ele>280.0</ele><time>2026-03-28T15:37:25.999Z</time></trkpt><trkpt lat="45.899374936088314" lon="8.720382803331507"><ele>280.66666666666663</ele><time>2026-03-28T15:37:26.999Z</time></trkpt><trkpt lat="45.899336579706464" lon="8.720094109567851"><ele>281.3333333333333</ele><time>2026-03-28T15:37:27.999Z</time></trkpt><trkpt lat="45.89930164452944" lon="8.719833991527192"><ele>282.0</ele><time>2026-03-28T15:37:28.999Z</time></trkpt><trkpt lat="45.89926744135958" lon="8.719574338145504"><ele>280.6666666666667</ele><time>2026-03-28T15:37:29.999Z</time></trkpt><trkpt lat="45.899234106878716" lon="8.719309537969961"><ele>279.33333333333337</ele><time>2026-03-28T15:37:30.999Z</time></trkpt><trkpt lat="45.899209312906905" lon="8.719083023874791"><ele>278.0</ele><time>2026-03-28T15:37:31.999Z</time></trkpt><trkpt lat="45.89918129355247" lon="8.718894277295286"><ele>278.0</ele><time>2026-03-28T15:37:32.999Z</time></trkpt><trkpt lat="45.899156483891666" lon="8.718730798377345"><ele>278.0</ele><time>2026-03-28T15:37:33.999Z</time></trkpt><trkpt lat="45.899132483982264" lon="8.718553888389295"><ele>278.0</ele><time>2026-03-28T15:37:34.999Z</time></trkpt><trkpt lat="45.89912415031098" lon="8.718357373579636"><ele>278.0</ele><time>2026-03-28T15:37:35.999Z</time></trkpt><trkpt lat="45.899089167221625" lon="8.718113785123894"><ele>278.33333333333337</ele><time>2026-03-28T15:37:36.999Z</time></trkpt><trkpt lat="45.89905605345269" lon="8.717869220898201"><ele>278.6666666666667</ele><time>2026-03-28T15:37:37.999Z</time></trkpt><trkpt lat="45.899022380424874" lon="8.717625686028926"><ele>279.0</ele><time>2026-03-28T15:37:38.999Z</time></trkpt><trkpt lat="45.89899782572785" lon="8.717382363781327"><ele>278.75</ele><time>2026-03-28T15:37:39.999Z</time></trkpt><trkpt lat="45.89897480226697" lon="8.717162766185899"><ele>278.5</ele><time>2026-03-28T15:37:40.999Z</time></trkpt><trkpt lat="45.898957064546714" lon="8.716961018882598"><ele>278.25</ele><time>2026-03-28T15:37:41.999Z</time></trkpt><trkpt lat="45.89893708557108" lon="8.716788995574577"><ele>278.0</ele><time>2026-03-28T15:37:42.999Z</time></trkpt><trkpt lat="45.898918644302434" lon="8.716693653166558"><ele>278.0</ele><time>2026-03-28T15:37:43.999Z</time></trkpt><trkpt lat="45.899008062178936" lon="8.716705242693868"><ele>278.0</ele><time>2026-03-28T15:38:23Z</time></trkpt><trkpt lat="45.89908912293315" lon="8.716744288077951"><ele>278.0</ele><time>2026-03-28T15:38:24Z</time></trkpt><trkpt lat="45.89917604525459" lon="8.716825327585653"><ele>278.0</ele><time>2026-03-28T15:38:25Z</time></trkpt><trkpt lat="45.89928665958611" lon="8.71696466526491"><ele>278.0</ele><time>2026-03-28T15:38:26Z</time></trkpt><trkpt lat="45.89940273974334" lon="8.71707030121604"><ele>277.8</ele><time>2026-03-28T15:38:27Z</time></trkpt><trkpt lat="45.89954298743672" lon="8.717149839948226"><ele>277.6</ele><time>2026-03-28T15:38:28Z</time></trkpt><trkpt lat="45.899631619930965" lon="8.717203312093366"><ele>277.4</ele><time>2026-03-28T15:38:29Z</time></trkpt><trkpt lat="45.89968830600297" lon="8.717137020234759"><ele>277.2</ele><time>2026-03-28T15:38:31Z</time></trkpt><trkpt lat="45.89970485433532" lon="8.717036088931831"><ele>277.0</ele><time>2026-03-28T15:38:32Z</time></trkpt><trkpt lat="45.89973408802757" lon="8.716953437299203"><ele>277.0</ele><time>2026-03-28T15:38:33Z</time></trkpt><trkpt lat="45.89981408192293" lon="8.716935013804084"><ele>277.0</ele><time>2026-03-28T15:38:34Z</time></trkpt><trkpt lat="45.89994371349345" lon="8.716960865886843"><ele>277.0</ele><time>2026-03-28T15:38:35Z</time></trkpt><trkpt lat="45.900108209655336" lon="8.71698222806885"><ele>277.0</ele><time>2026-03-28T15:38:36Z</time></trkpt><trkpt lat="45.9003001337534" lon="8.71700578688661"><ele>277.75</ele><time>2026-03-28T15:38:37Z</time></trkpt><trkpt lat="45.90046199259167" lon="8.717026487449573"><ele>278.5</ele><time>2026-03-28T15:38:38Z</time></trkpt><trkpt lat="45.90058163303497" lon="8.717033209709996"><ele>279.25</ele><time>2026-03-28T15:38:39Z</time></trkpt><trkpt lat="45.90073084021279" lon="8.71699479437171"><ele>280.0</ele><time>2026-03-28T15:38:40Z</time></trkpt><trkpt lat="45.900914735514654" lon="8.716949031428808"><ele>281.0</ele><time>2026-03-28T15:38:41Z</time></trkpt><trkpt lat="45.901124367772496" lon="8.716925855186599"><ele>282.0</ele><time>2026-03-28T15:38:42Z</time></trkpt><trkpt lat="45.901288363271284" lon="8.716882850181397"><ele>283.0</ele><time>2026-03-28T15:38:43Z</time></trkpt><trkpt lat="45.90144719012533" lon="8.716835724921111"><ele>283.3333333333333</ele><time>2026-03-28T15:38:44Z</time></trkpt><trkpt lat="45.901591859833005" lon="8.7167858004923"><ele>283.6666666666667</ele><time>2026-03-28T15:38:45Z</time></trkpt><trkpt lat="45.90173981115656" lon="8.716745582221444"><ele>284.0</ele><time>2026-03-28T15:38:46Z</time></trkpt><trkpt lat="45.901902490504064" lon="8.716693378649147"><ele>284.0</ele><time>2026-03-28T15:38:47Z</time></trkpt><trkpt lat="45.902042214147414" lon="8.716648805920897"><ele>284.0</ele><time>2026-03-28T15:38:48Z</time></trkpt><trkpt lat="45.902153991915036" lon="8.716637350900143"><ele>284.0</ele><time>2026-03-28T15:38:49Z</time></trkpt><trkpt lat="45.902230441109914" lon="8.716617023939765"><ele>284.0</ele><time>2026-03-28T15:38:50Z</time></trkpt><trkpt lat="45.90216669824353" lon="8.716522051943764"><ele>284.0</ele><time>2026-03-28T15:38:54Z</time></trkpt><trkpt lat="45.90205650035107" lon="8.71647573858541"><ele>284.0</ele><time>2026-03-28T15:38:55Z</time></trkpt><trkpt lat="45.90191296394499" lon="8.7164062656257"><ele>284.0</ele><time>2026-03-28T15:38:56Z</time></trkpt><trkpt lat="45.90175588920893" lon="8.716311510591874"><ele>284.0</ele><time>2026-03-28T15:38:57Z</time></trkpt><trkpt lat="45.90162994053908" lon="8.71622983845078"><ele>284.0</ele><time>2026-03-28T15:38:57.999Z</time></trkpt><trkpt lat="45.90153643538449" lon="8.716139699443861"><ele>284.0</ele><time>2026-03-28T15:38:58.999Z</time></trkpt><trkpt lat="45.901432345292996" lon="8.71598451958951"><ele>284.0</ele><time>2026-03-28T15:38:59.999Z</time></trkpt><trkpt lat="45.901314909523194" lon="8.71576410441198"><ele>284.33333333333337</ele><time>2026-03-28T15:39:00.999Z</time></trkpt><trkpt lat="45.90117502908032" lon="8.715536448392477"><ele>284.6666666666667</ele><time>2026-03-28T15:39:01.999Z</time></trkpt><trkpt lat="45.901019935777455" lon="8.715318352176014"><ele>285.0</ele><time>2026-03-28T15:39:02.999Z</time></trkpt><trkpt lat="45.900893002459725" lon="8.715138907611278"><ele>283.3333333333333</ele><time>2026-03-28T15:39:03.999Z</time></trkpt><trkpt lat="45.900788394440134" lon="8.714969729180867"><ele>281.66666666666663</ele><time>2026-03-28T15:39:04.999Z</time></trkpt><trkpt lat="45.900682167279854" lon="8.714784667098716"><ele>280.0</ele><time>2026-03-28T15:39:05.999Z</time></trkpt><trkpt lat="45.900536989862196" lon="8.71461457458446"><ele>280.0</ele><time>2026-03-28T15:39:06.999Z</time></trkpt><trkpt lat="45.90035434389736" lon="8.714450176055054"><ele>280.0</ele><time>2026-03-28T15:39:07.999Z</time></trkpt><trkpt lat="45.90017074556324" lon="8.714290830278507"><ele>280.0</ele><time>2026-03-28T15:39:08.999Z</time></trkpt><trkpt lat="45.90001091713372" lon="8.714104247816055"><ele>278.3333333333333</ele><time>2026-03-28T15:39:09.999Z</time></trkpt><trkpt lat="45.89987862176521" lon="8.713878515975027"><ele>276.6666666666667</ele><time>2026-03-28T15:39:10.999Z</time></trkpt><trkpt lat="45.899756851513345" lon="8.713651552734285"><ele>275.0</ele><time>2026-03-28T15:39:11.999Z</time></trkpt><trkpt lat="45.89964526452415" lon="8.713404315713557"><ele>275.0</ele><time>2026-03-28T15:39:12.999Z</time></trkpt><trkpt lat="45.89953081635265" lon="8.713115477189245"><ele>275.0</ele><time>2026-03-28T15:39:13.999Z</time></trkpt><trkpt lat="45.89941619096086" lon="8.712837350642536"><ele>276.0</ele><time>2026-03-28T15:39:14.999Z</time></trkpt><trkpt lat="45.89931893726068" lon="8.712601108752981"><ele>277.0</ele><time>2026-03-28T15:39:15.999Z</time></trkpt><trkpt lat="45.89924521796293" lon="8.712426246463254"><ele>278.0</ele><time>2026-03-28T15:39:16.999Z</time></trkpt><trkpt lat="45.89920020209518" lon="8.712312323665795"><ele>279.0</ele><time>2026-03-28T15:39:17.999Z</time></trkpt><trkpt lat="45.899225921353136" lon="8.712225243450428"><ele>279.0</ele><time>2026-03-28T15:39:19.999Z</time></trkpt><trkpt lat="45.89931384861072" lon="8.712162742788655"><ele>279.0</ele><time>2026-03-28T15:39:22.999Z</time></trkpt><trkpt lat="45.899418208792035" lon="8.712062903912441"><ele>279.0</ele><time>2026-03-28T15:39:23.999Z</time></trkpt><trkpt lat="45.899542042759734" lon="8.711957952093142"><ele>279.0</ele><time>2026-03-28T15:39:24.999Z</time></trkpt><trkpt lat="45.8996865137578" lon="8.711853901152411"><ele>279.3333333333333</ele><time>2026-03-28T15:39:25.999Z</time></trkpt><trkpt lat="45.89982739206245" lon="8.711720166673416"><ele>279.66666666666663</ele><time>2026-03-28T15:39:26.999Z</time></trkpt><trkpt lat="45.89997854898688" lon="8.711594434976897"><ele>280.0</ele><time>2026-03-28T15:39:27.999Z</time></trkpt><trkpt lat="45.90012110772417" lon="8.71147304354891"><ele>280.5</ele><time>2026-03-28T15:39:28.999Z</time></trkpt><trkpt lat="45.90023641316747" lon="8.71136762350839"><ele>281.0</ele><time>2026-03-28T15:39:29.999Z</time></trkpt><trkpt lat="45.90037018940839" lon="8.711245701968924"><ele>281.5</ele><time>2026-03-28T15:39:30.999Z</time></trkpt><trkpt lat="45.90050881422568" lon="8.711155554832473"><ele>282.0</ele><time>2026-03-28T15:39:31.999Z</time></trkpt><trkpt lat="45.900651580609306" lon="8.711051216499774"><ele>282.25</ele><time>2026-03-28T15:39:32.999Z</time></trkpt><trkpt lat="45.90080175595699" lon="8.710930022588423"><ele>282.5</ele><time>2026-03-28T15:39:33.999Z</time></trkpt><trkpt lat="45.90091662405172" lon="8.710832448693122"><ele>282.75</ele><time>2026-03-28T15:39:34.999Z</time></trkpt><trkpt lat="45.90101813837196" lon="8.71074573113095"><ele>283.0</ele><time>2026-03-28T15:39:35.999Z</time></trkpt><trkpt lat="45.90107789895389" lon="8.710674951505744"><ele>283.6</ele><time>2026-03-28T15:39:36.999Z</time></trkpt><trkpt lat="45.90109600845029" lon="8.710497703379103"><ele>284.20000000000005</ele><time>2026-03-28T15:39:38.999Z</time></trkpt><trkpt lat="45.90104375228361" lon="8.710336342156543"><ele>284.8</ele><time>2026-03-28T15:39:39.999Z</time></trkpt><trkpt lat="45.90100814775797" lon="8.710168169148206"><ele>285.40000000000003</ele><time>2026-03-28T15:39:40.999Z</time></trkpt><trkpt lat="45.90100619826344" lon="8.71006901477551"><ele>286.0</ele><time>2026-03-28T15:39:41.999Z</time></trkpt><trkpt lat="45.90104830545004" lon="8.709995698930333"><ele>287.3333333333333</ele><time>2026-03-28T15:39:42.999Z</time></trkpt><trkpt lat="45.901144765505975" lon="8.709905332822153"><ele>288.6666666666667</ele><time>2026-03-28T15:39:43.999Z</time></trkpt><trkpt lat="45.90127931106104" lon="8.70978138746456"><ele>290.0</ele><time>2026-03-28T15:39:44.999Z</time></trkpt><trkpt lat="45.90142508324281" lon="8.709628654128611"><ele>290.0</ele><time>2026-03-28T15:39:45.999Z</time></trkpt><trkpt lat="45.9015535961678" lon="8.709474952696787"><ele>290.0</ele><time>2026-03-28T15:39:46.999Z</time></trkpt><trkpt lat="45.90164855406983" lon="8.70935436794217"><ele>290.0</ele><time>2026-03-28T15:39:47.999Z</time></trkpt><trkpt lat="45.90171906128444" lon="8.709278153875568"><ele>290.0</ele><time>2026-03-28T15:39:48.999Z</time></trkpt><trkpt lat="45.901801352031605" lon="8.709288819514917"><ele>291.5</ele><time>2026-03-28T15:39:50.999Z</time></trkpt><trkpt lat="45.90185362230079" lon="8.709391493780444"><ele>293.0</ele><time>2026-03-28T15:39:51.999Z</time></trkpt><trkpt lat="45.901923809902144" lon="8.709551438559114"><ele>294.5</ele><time>2026-03-28T15:39:52.999Z</time></trkpt><trkpt lat="45.902018387806955" lon="8.70972181446224"><ele>296.0</ele><time>2026-03-28T15:39:53.999Z</time></trkpt><trkpt lat="45.90212085784618" lon="8.709888519484181"><ele>296.0</ele><time>2026-03-28T15:39:54.998Z</time></trkpt><trkpt lat="45.90221219181419" lon="8.710031869455436"><ele>296.0</ele><time>2026-03-28T15:39:55.998Z</time></trkpt><trkpt lat="45.902306102950455" lon="8.7101676490581"><ele>296.0</ele><time>2026-03-28T15:39:56.998Z</time></trkpt><trkpt lat="45.902387596206324" lon="8.710295900028969"><ele>296.0</ele><time>2026-03-28T15:39:57.998Z</time></trkpt><trkpt lat="45.902466694523866" lon="8.71043449840509"><ele>296.5</ele><time>2026-03-28T15:39:58.998Z</time></trkpt><trkpt lat="45.90255081850005" lon="8.710578465685778"><ele>297.0</ele><time>2026-03-28T15:39:59.998Z</time></trkpt><trkpt lat="45.90263303735539" lon="8.710707911599053"><ele>297.5</ele><time>2026-03-28T15:40:00.998Z</time></trkpt><trkpt lat="45.90271465998614" lon="8.71082549791346"><ele>298.0</ele><time>2026-03-28T15:40:01.998Z</time></trkpt><trkpt lat="45.90278308663067" lon="8.710915748920169"><ele>298.0</ele><time>2026-03-28T15:40:02.998Z</time></trkpt><trkpt lat="45.902837535175806" lon="8.710978645214814"><ele>298.0</ele><time>2026-03-28T15:40:03.998Z</time></trkpt><trkpt lat="45.90295287089824" lon="8.711016409290727"><ele>298.0</ele><time>2026-03-28T15:40:05.998Z</time></trkpt><trkpt lat="45.903027352935574" lon="8.710952677258557"><ele>298.0</ele><time>2026-03-28T15:40:06.998Z</time></trkpt><trkpt lat="45.90308563730317" lon="8.710857982190536"><ele>298.0</ele><time>2026-03-28T15:40:07.998Z</time></trkpt><trkpt lat="45.903160967453175" lon="8.710864121002363"><ele>298.0</ele><time>2026-03-28T15:41:17.999Z</time></trkpt><trkpt lat="45.90322900987137" lon="8.710923007029526"><ele>298.0</ele><time>2026-03-28T15:41:44.999Z</time></trkpt></trkseg></trk></gpx>